<?xml version="1.0" encoding="UTF-8" standalone="no" ?>
<gpx xmlns="http://www.topografix.com/GPX/1/1" xmlns:xsi="http://www.w3.org/2001/XMLSchema-instance" xsi:schemaLocation="http://www.topografix.com/GPX/1/1 http://www.topografix.com/GPX/1/1/gpx.xsd" version="1.1" creator="VisuGPX - https://www.visugpx.com">
  <metadata>
    <name>2017-10-15 Bike ride-Ambérieux Saône O</name>
    <desc><![CDATA[2017-10-15 Bike ride-Ambérieux Saône O]]></desc>
  </metadata>
  <wpt lat="45.9246" lon="4.7371">
    <ele>174</ele>
    <name><![CDATA[2017-10-15 10:26 (Start)]]></name>
  </wpt>
  <wpt lat="45.92464" lon="4.73715">
    <ele>174</ele>
    <name><![CDATA[2017-10-15 10:26 (End)]]></name>
    <desc><![CDATA[Created by Google My Tracks on Android  Name: 2017-10-15 10:26 Activity type: biking Description: - Total distance: 31.19 km (19.4 mi) Total time: 1:31:59 Moving time: 1:31:17 Average speed: 20.34 km/h (12.6 mi/h) Average moving speed: 20.50 km/h (12.7 mi/h) Max speed: 40.43 km/h (25.1 mi/h) Average pace: 2:57 min/km (4:45 min/mi) Average moving pace: 2:56 min/km (4:43 min/mi) Fastest pace: 1:29 min/km (2:23 min/mi) Max elevation: 295 m (968 ft) Min elevation: 205 m (673 ft) Elevation gain: 281 m (923 ft) Max grade: 9 % Min grade: -9 % Recorded: 15/10/2017 10:26]]></desc>
  </wpt>
  <trk>
    <name><![CDATA[2017-10-15 10:26]]></name>
    <trkseg>
      <trkpt lat="45.9246" lon="4.7371">
        <ele>174</ele>
        <time>2017-10-15T08:26:24.619Z</time>
      </trkpt>
      <trkpt lat="45.92457" lon="4.73712">
        <ele>174</ele>
        <time>2017-10-15T08:26:30.543Z</time>
      </trkpt>
      <trkpt lat="45.92461" lon="4.73715">
        <ele>174</ele>
        <time>2017-10-15T08:26:31.549Z</time>
      </trkpt>
      <trkpt lat="45.92458" lon="4.73721">
        <ele>174</ele>
        <time>2017-10-15T08:26:32.549Z</time>
      </trkpt>
      <trkpt lat="45.92463" lon="4.73721">
        <ele>174</ele>
        <time>2017-10-15T08:26:35.551Z</time>
      </trkpt>
      <trkpt lat="45.92462" lon="4.73716">
        <ele>174</ele>
        <time>2017-10-15T08:26:36.551Z</time>
      </trkpt>
      <trkpt lat="45.92451" lon="4.73713">
        <ele>174</ele>
        <time>2017-10-15T08:26:37.549Z</time>
      </trkpt>
      <trkpt lat="45.92458" lon="4.73703">
        <ele>174</ele>
        <time>2017-10-15T08:26:38Z</time>
      </trkpt>
      <trkpt lat="45.92461" lon="4.73706">
        <ele>174</ele>
        <time>2017-10-15T08:26:55Z</time>
      </trkpt>
      <trkpt lat="45.92462" lon="4.73706">
        <ele>174</ele>
        <time>2017-10-15T08:26:56Z</time>
      </trkpt>
      <trkpt lat="45.92462" lon="4.73707">
        <ele>174</ele>
        <time>2017-10-15T08:26:57Z</time>
      </trkpt>
      <trkpt lat="45.92463" lon="4.73707">
        <ele>174</ele>
        <time>2017-10-15T08:26:58Z</time>
      </trkpt>
      <trkpt lat="45.9247" lon="4.73702">
        <ele>174</ele>
        <time>2017-10-15T08:27:04Z</time>
      </trkpt>
      <trkpt lat="45.92471" lon="4.73701">
        <ele>174</ele>
        <time>2017-10-15T08:27:05Z</time>
      </trkpt>
      <trkpt lat="45.92472" lon="4.7369">
        <ele>174</ele>
        <time>2017-10-15T08:27:10Z</time>
      </trkpt>
      <trkpt lat="45.92472" lon="4.73686">
        <ele>174</ele>
        <time>2017-10-15T08:27:11Z</time>
      </trkpt>
      <trkpt lat="45.92472" lon="4.73674">
        <ele>174</ele>
        <time>2017-10-15T08:27:14Z</time>
      </trkpt>
      <trkpt lat="45.92473" lon="4.7367">
        <ele>174</ele>
        <time>2017-10-15T08:27:15Z</time>
      </trkpt>
      <trkpt lat="45.92474" lon="4.7366">
        <ele>174</ele>
        <time>2017-10-15T08:27:17Z</time>
      </trkpt>
      <trkpt lat="45.92474" lon="4.73655">
        <ele>174</ele>
        <time>2017-10-15T08:27:18Z</time>
      </trkpt>
      <trkpt lat="45.92473" lon="4.73644">
        <ele>174</ele>
        <time>2017-10-15T08:27:20Z</time>
      </trkpt>
      <trkpt lat="45.92473" lon="4.73638">
        <ele>174</ele>
        <time>2017-10-15T08:27:21Z</time>
      </trkpt>
      <trkpt lat="45.92472" lon="4.73627">
        <ele>174</ele>
        <time>2017-10-15T08:27:23Z</time>
      </trkpt>
      <trkpt lat="45.92471" lon="4.73622">
        <ele>174</ele>
        <time>2017-10-15T08:27:24Z</time>
      </trkpt>
      <trkpt lat="45.9247" lon="4.73612">
        <ele>174</ele>
        <time>2017-10-15T08:27:26Z</time>
      </trkpt>
      <trkpt lat="45.9247" lon="4.73607">
        <ele>174</ele>
        <time>2017-10-15T08:27:27Z</time>
      </trkpt>
      <trkpt lat="45.9247" lon="4.73598">
        <ele>174</ele>
        <time>2017-10-15T08:27:29Z</time>
      </trkpt>
      <trkpt lat="45.9247" lon="4.73593">
        <ele>174</ele>
        <time>2017-10-15T08:27:30Z</time>
      </trkpt>
      <trkpt lat="45.92468" lon="4.73583">
        <ele>173</ele>
        <time>2017-10-15T08:27:32Z</time>
      </trkpt>
      <trkpt lat="45.92467" lon="4.73578">
        <ele>173</ele>
        <time>2017-10-15T08:27:33Z</time>
      </trkpt>
      <trkpt lat="45.92466" lon="4.73568">
        <ele>173</ele>
        <time>2017-10-15T08:27:35Z</time>
      </trkpt>
      <trkpt lat="45.92466" lon="4.73563">
        <ele>173</ele>
        <time>2017-10-15T08:27:36Z</time>
      </trkpt>
      <trkpt lat="45.92465" lon="4.73553">
        <ele>173</ele>
        <time>2017-10-15T08:27:39Z</time>
      </trkpt>
      <trkpt lat="45.92464" lon="4.73551">
        <ele>173</ele>
        <time>2017-10-15T08:27:40Z</time>
      </trkpt>
      <trkpt lat="45.92455" lon="4.73548">
        <ele>174</ele>
        <time>2017-10-15T08:27:43Z</time>
      </trkpt>
      <trkpt lat="45.92452" lon="4.73551">
        <ele>174</ele>
        <time>2017-10-15T08:27:44Z</time>
      </trkpt>
      <trkpt lat="45.92445" lon="4.73557">
        <ele>174</ele>
        <time>2017-10-15T08:27:46Z</time>
      </trkpt>
      <trkpt lat="45.9244" lon="4.73559">
        <ele>174</ele>
        <time>2017-10-15T08:27:47Z</time>
      </trkpt>
      <trkpt lat="45.92436" lon="4.73561">
        <ele>174</ele>
        <time>2017-10-15T08:27:48Z</time>
      </trkpt>
      <trkpt lat="45.92431" lon="4.73562">
        <ele>174</ele>
        <time>2017-10-15T08:27:49Z</time>
      </trkpt>
      <trkpt lat="45.92427" lon="4.73564">
        <ele>174</ele>
        <time>2017-10-15T08:27:50Z</time>
      </trkpt>
      <trkpt lat="45.92422" lon="4.73566">
        <ele>174</ele>
        <time>2017-10-15T08:27:51Z</time>
      </trkpt>
      <trkpt lat="45.92416" lon="4.73568">
        <ele>173</ele>
        <time>2017-10-15T08:27:52Z</time>
      </trkpt>
      <trkpt lat="45.92412" lon="4.73571">
        <ele>173</ele>
        <time>2017-10-15T08:27:53Z</time>
      </trkpt>
      <trkpt lat="45.92403" lon="4.73575">
        <ele>173</ele>
        <time>2017-10-15T08:27:55Z</time>
      </trkpt>
      <trkpt lat="45.92399" lon="4.73578">
        <ele>173</ele>
        <time>2017-10-15T08:27:56Z</time>
      </trkpt>
      <trkpt lat="45.92395" lon="4.73582">
        <ele>173</ele>
        <time>2017-10-15T08:27:57Z</time>
      </trkpt>
      <trkpt lat="45.9239" lon="4.73584">
        <ele>173</ele>
        <time>2017-10-15T08:27:58Z</time>
      </trkpt>
      <trkpt lat="45.92385" lon="4.73588">
        <ele>173</ele>
        <time>2017-10-15T08:27:59Z</time>
      </trkpt>
      <trkpt lat="45.9238" lon="4.7359">
        <ele>173</ele>
        <time>2017-10-15T08:28:00Z</time>
      </trkpt>
      <trkpt lat="45.92375" lon="4.73593">
        <ele>173</ele>
        <time>2017-10-15T08:28:01Z</time>
      </trkpt>
      <trkpt lat="45.9237" lon="4.73596">
        <ele>173</ele>
        <time>2017-10-15T08:28:02Z</time>
      </trkpt>
      <trkpt lat="45.92365" lon="4.73598">
        <ele>173</ele>
        <time>2017-10-15T08:28:03Z</time>
      </trkpt>
      <trkpt lat="45.9236" lon="4.736">
        <ele>173</ele>
        <time>2017-10-15T08:28:04Z</time>
      </trkpt>
      <trkpt lat="45.92355" lon="4.73602">
        <ele>173</ele>
        <time>2017-10-15T08:28:05Z</time>
      </trkpt>
      <trkpt lat="45.9235" lon="4.73604">
        <ele>173</ele>
        <time>2017-10-15T08:28:06Z</time>
      </trkpt>
      <trkpt lat="45.92345" lon="4.73607">
        <ele>173</ele>
        <time>2017-10-15T08:28:07Z</time>
      </trkpt>
      <trkpt lat="45.92341" lon="4.73609">
        <ele>173</ele>
        <time>2017-10-15T08:28:08Z</time>
      </trkpt>
      <trkpt lat="45.92333" lon="4.73613">
        <ele>172</ele>
        <time>2017-10-15T08:28:10Z</time>
      </trkpt>
      <trkpt lat="45.92328" lon="4.73615">
        <ele>172</ele>
        <time>2017-10-15T08:28:11Z</time>
      </trkpt>
      <trkpt lat="45.9232" lon="4.7362">
        <ele>172</ele>
        <time>2017-10-15T08:28:13Z</time>
      </trkpt>
      <trkpt lat="45.92315" lon="4.73624">
        <ele>172</ele>
        <time>2017-10-15T08:28:14Z</time>
      </trkpt>
      <trkpt lat="45.92311" lon="4.73627">
        <ele>172</ele>
        <time>2017-10-15T08:28:15Z</time>
      </trkpt>
      <trkpt lat="45.92306" lon="4.7363">
        <ele>172</ele>
        <time>2017-10-15T08:28:16Z</time>
      </trkpt>
      <trkpt lat="45.92302" lon="4.73632">
        <ele>172</ele>
        <time>2017-10-15T08:28:17Z</time>
      </trkpt>
      <trkpt lat="45.92297" lon="4.73634">
        <ele>172</ele>
        <time>2017-10-15T08:28:18Z</time>
      </trkpt>
      <trkpt lat="45.92292" lon="4.73636">
        <ele>172</ele>
        <time>2017-10-15T08:28:19Z</time>
      </trkpt>
      <trkpt lat="45.92286" lon="4.73639">
        <ele>172</ele>
        <time>2017-10-15T08:28:20Z</time>
      </trkpt>
      <trkpt lat="45.9228" lon="4.73641">
        <ele>172</ele>
        <time>2017-10-15T08:28:21Z</time>
      </trkpt>
      <trkpt lat="45.92276" lon="4.73644">
        <ele>172</ele>
        <time>2017-10-15T08:28:22Z</time>
      </trkpt>
      <trkpt lat="45.9227" lon="4.73646">
        <ele>172</ele>
        <time>2017-10-15T08:28:23Z</time>
      </trkpt>
      <trkpt lat="45.92265" lon="4.7365">
        <ele>171</ele>
        <time>2017-10-15T08:28:24Z</time>
      </trkpt>
      <trkpt lat="45.92259" lon="4.73653">
        <ele>171</ele>
        <time>2017-10-15T08:28:25Z</time>
      </trkpt>
      <trkpt lat="45.92253" lon="4.73655">
        <ele>171</ele>
        <time>2017-10-15T08:28:26Z</time>
      </trkpt>
      <trkpt lat="45.92248" lon="4.73659">
        <ele>171</ele>
        <time>2017-10-15T08:28:27Z</time>
      </trkpt>
      <trkpt lat="45.92243" lon="4.73661">
        <ele>171</ele>
        <time>2017-10-15T08:28:28Z</time>
      </trkpt>
      <trkpt lat="45.92238" lon="4.73664">
        <ele>171</ele>
        <time>2017-10-15T08:28:29Z</time>
      </trkpt>
      <trkpt lat="45.92233" lon="4.73666">
        <ele>171</ele>
        <time>2017-10-15T08:28:30Z</time>
      </trkpt>
      <trkpt lat="45.92228" lon="4.73669">
        <ele>171</ele>
        <time>2017-10-15T08:28:31Z</time>
      </trkpt>
      <trkpt lat="45.92223" lon="4.73671">
        <ele>171</ele>
        <time>2017-10-15T08:28:32Z</time>
      </trkpt>
      <trkpt lat="45.92218" lon="4.73674">
        <ele>171</ele>
        <time>2017-10-15T08:28:33Z</time>
      </trkpt>
      <trkpt lat="45.92214" lon="4.73677">
        <ele>171</ele>
        <time>2017-10-15T08:28:34Z</time>
      </trkpt>
      <trkpt lat="45.92209" lon="4.73679">
        <ele>171</ele>
        <time>2017-10-15T08:28:35Z</time>
      </trkpt>
      <trkpt lat="45.92205" lon="4.73681">
        <ele>171</ele>
        <time>2017-10-15T08:28:36Z</time>
      </trkpt>
      <trkpt lat="45.92199" lon="4.73684">
        <ele>171</ele>
        <time>2017-10-15T08:28:37Z</time>
      </trkpt>
      <trkpt lat="45.92194" lon="4.73687">
        <ele>171</ele>
        <time>2017-10-15T08:28:38Z</time>
      </trkpt>
      <trkpt lat="45.92189" lon="4.73691">
        <ele>171</ele>
        <time>2017-10-15T08:28:39Z</time>
      </trkpt>
      <trkpt lat="45.92184" lon="4.73694">
        <ele>171</ele>
        <time>2017-10-15T08:28:40Z</time>
      </trkpt>
      <trkpt lat="45.92179" lon="4.73696">
        <ele>171</ele>
        <time>2017-10-15T08:28:41Z</time>
      </trkpt>
      <trkpt lat="45.92174" lon="4.73697">
        <ele>171</ele>
        <time>2017-10-15T08:28:42Z</time>
      </trkpt>
      <trkpt lat="45.92168" lon="4.737">
        <ele>171</ele>
        <time>2017-10-15T08:28:43Z</time>
      </trkpt>
      <trkpt lat="45.92162" lon="4.73702">
        <ele>171</ele>
        <time>2017-10-15T08:28:44Z</time>
      </trkpt>
      <trkpt lat="45.92157" lon="4.73705">
        <ele>171</ele>
        <time>2017-10-15T08:28:45Z</time>
      </trkpt>
      <trkpt lat="45.92151" lon="4.73707">
        <ele>171</ele>
        <time>2017-10-15T08:28:46Z</time>
      </trkpt>
      <trkpt lat="45.92146" lon="4.73709">
        <ele>171</ele>
        <time>2017-10-15T08:28:47Z</time>
      </trkpt>
      <trkpt lat="45.9214" lon="4.73711">
        <ele>171</ele>
        <time>2017-10-15T08:28:48Z</time>
      </trkpt>
      <trkpt lat="45.92134" lon="4.73712">
        <ele>171</ele>
        <time>2017-10-15T08:28:49Z</time>
      </trkpt>
      <trkpt lat="45.92129" lon="4.73713">
        <ele>171</ele>
        <time>2017-10-15T08:28:50Z</time>
      </trkpt>
      <trkpt lat="45.92123" lon="4.73715">
        <ele>171</ele>
        <time>2017-10-15T08:28:51Z</time>
      </trkpt>
      <trkpt lat="45.92117" lon="4.73717">
        <ele>171</ele>
        <time>2017-10-15T08:28:52Z</time>
      </trkpt>
      <trkpt lat="45.92112" lon="4.73718">
        <ele>171</ele>
        <time>2017-10-15T08:28:53Z</time>
      </trkpt>
      <trkpt lat="45.92107" lon="4.7372">
        <ele>171</ele>
        <time>2017-10-15T08:28:54Z</time>
      </trkpt>
      <trkpt lat="45.92102" lon="4.73721">
        <ele>171</ele>
        <time>2017-10-15T08:28:55Z</time>
      </trkpt>
      <trkpt lat="45.92097" lon="4.73723">
        <ele>171</ele>
        <time>2017-10-15T08:28:56Z</time>
      </trkpt>
      <trkpt lat="45.92091" lon="4.73723">
        <ele>171</ele>
        <time>2017-10-15T08:28:57Z</time>
      </trkpt>
      <trkpt lat="45.92085" lon="4.73724">
        <ele>171</ele>
        <time>2017-10-15T08:28:58Z</time>
      </trkpt>
      <trkpt lat="45.92079" lon="4.73725">
        <ele>171</ele>
        <time>2017-10-15T08:28:59Z</time>
      </trkpt>
      <trkpt lat="45.92074" lon="4.73727">
        <ele>171</ele>
        <time>2017-10-15T08:29:00Z</time>
      </trkpt>
      <trkpt lat="45.92068" lon="4.73728">
        <ele>171</ele>
        <time>2017-10-15T08:29:01Z</time>
      </trkpt>
      <trkpt lat="45.92062" lon="4.73729">
        <ele>171</ele>
        <time>2017-10-15T08:29:02Z</time>
      </trkpt>
      <trkpt lat="45.92056" lon="4.73728">
        <ele>171</ele>
        <time>2017-10-15T08:29:03Z</time>
      </trkpt>
      <trkpt lat="45.9205" lon="4.73729">
        <ele>171</ele>
        <time>2017-10-15T08:29:04Z</time>
      </trkpt>
      <trkpt lat="45.92045" lon="4.7373">
        <ele>171</ele>
        <time>2017-10-15T08:29:05Z</time>
      </trkpt>
      <trkpt lat="45.92039" lon="4.7373">
        <ele>171</ele>
        <time>2017-10-15T08:29:06Z</time>
      </trkpt>
      <trkpt lat="45.92033" lon="4.7373">
        <ele>171</ele>
        <time>2017-10-15T08:29:07Z</time>
      </trkpt>
      <trkpt lat="45.92028" lon="4.73731">
        <ele>171</ele>
        <time>2017-10-15T08:29:08Z</time>
      </trkpt>
      <trkpt lat="45.92022" lon="4.73731">
        <ele>171</ele>
        <time>2017-10-15T08:29:09Z</time>
      </trkpt>
      <trkpt lat="45.92016" lon="4.73731">
        <ele>171</ele>
        <time>2017-10-15T08:29:10Z</time>
      </trkpt>
      <trkpt lat="45.92011" lon="4.73731">
        <ele>171</ele>
        <time>2017-10-15T08:29:11Z</time>
      </trkpt>
      <trkpt lat="45.92006" lon="4.73731">
        <ele>171</ele>
        <time>2017-10-15T08:29:12Z</time>
      </trkpt>
      <trkpt lat="45.92" lon="4.73731">
        <ele>171</ele>
        <time>2017-10-15T08:29:13Z</time>
      </trkpt>
      <trkpt lat="45.91994" lon="4.73731">
        <ele>171</ele>
        <time>2017-10-15T08:29:14Z</time>
      </trkpt>
      <trkpt lat="45.91989" lon="4.73731">
        <ele>171</ele>
        <time>2017-10-15T08:29:15Z</time>
      </trkpt>
      <trkpt lat="45.91984" lon="4.73731">
        <ele>171</ele>
        <time>2017-10-15T08:29:16Z</time>
      </trkpt>
      <trkpt lat="45.91978" lon="4.73731">
        <ele>171</ele>
        <time>2017-10-15T08:29:17Z</time>
      </trkpt>
      <trkpt lat="45.91973" lon="4.73731">
        <ele>171</ele>
        <time>2017-10-15T08:29:18Z</time>
      </trkpt>
      <trkpt lat="45.91967" lon="4.7373">
        <ele>171</ele>
        <time>2017-10-15T08:29:19Z</time>
      </trkpt>
      <trkpt lat="45.91961" lon="4.7373">
        <ele>171</ele>
        <time>2017-10-15T08:29:20Z</time>
      </trkpt>
      <trkpt lat="45.91954" lon="4.73729">
        <ele>170</ele>
        <time>2017-10-15T08:29:21Z</time>
      </trkpt>
      <trkpt lat="45.91949" lon="4.7373">
        <ele>170</ele>
        <time>2017-10-15T08:29:22Z</time>
      </trkpt>
      <trkpt lat="45.91943" lon="4.7373">
        <ele>170</ele>
        <time>2017-10-15T08:29:23Z</time>
      </trkpt>
      <trkpt lat="45.91937" lon="4.7373">
        <ele>170</ele>
        <time>2017-10-15T08:29:24Z</time>
      </trkpt>
      <trkpt lat="45.9193" lon="4.7373">
        <ele>170</ele>
        <time>2017-10-15T08:29:25Z</time>
      </trkpt>
      <trkpt lat="45.91924" lon="4.7373">
        <ele>170</ele>
        <time>2017-10-15T08:29:26Z</time>
      </trkpt>
      <trkpt lat="45.91919" lon="4.7373">
        <ele>170</ele>
        <time>2017-10-15T08:29:27Z</time>
      </trkpt>
      <trkpt lat="45.91913" lon="4.73729">
        <ele>171</ele>
        <time>2017-10-15T08:29:28Z</time>
      </trkpt>
      <trkpt lat="45.91907" lon="4.73729">
        <ele>171</ele>
        <time>2017-10-15T08:29:29Z</time>
      </trkpt>
      <trkpt lat="45.91902" lon="4.73729">
        <ele>171</ele>
        <time>2017-10-15T08:29:30Z</time>
      </trkpt>
      <trkpt lat="45.91896" lon="4.73729">
        <ele>171</ele>
        <time>2017-10-15T08:29:31Z</time>
      </trkpt>
      <trkpt lat="45.91891" lon="4.73729">
        <ele>171</ele>
        <time>2017-10-15T08:29:32Z</time>
      </trkpt>
      <trkpt lat="45.91885" lon="4.7373">
        <ele>171</ele>
        <time>2017-10-15T08:29:33Z</time>
      </trkpt>
      <trkpt lat="45.9188" lon="4.73729">
        <ele>171</ele>
        <time>2017-10-15T08:29:34Z</time>
      </trkpt>
      <trkpt lat="45.91875" lon="4.73729">
        <ele>171</ele>
        <time>2017-10-15T08:29:35Z</time>
      </trkpt>
      <trkpt lat="45.91869" lon="4.73729">
        <ele>171</ele>
        <time>2017-10-15T08:29:36Z</time>
      </trkpt>
      <trkpt lat="45.91864" lon="4.7373">
        <ele>171</ele>
        <time>2017-10-15T08:29:37Z</time>
      </trkpt>
      <trkpt lat="45.91858" lon="4.7373">
        <ele>171</ele>
        <time>2017-10-15T08:29:38Z</time>
      </trkpt>
      <trkpt lat="45.91852" lon="4.73732">
        <ele>171</ele>
        <time>2017-10-15T08:29:39Z</time>
      </trkpt>
      <trkpt lat="45.91846" lon="4.73732">
        <ele>172</ele>
        <time>2017-10-15T08:29:40Z</time>
      </trkpt>
      <trkpt lat="45.9184" lon="4.73732">
        <ele>172</ele>
        <time>2017-10-15T08:29:41Z</time>
      </trkpt>
      <trkpt lat="45.91834" lon="4.73731">
        <ele>172</ele>
        <time>2017-10-15T08:29:42Z</time>
      </trkpt>
      <trkpt lat="45.91828" lon="4.73731">
        <ele>172</ele>
        <time>2017-10-15T08:29:43Z</time>
      </trkpt>
      <trkpt lat="45.91822" lon="4.73731">
        <ele>172</ele>
        <time>2017-10-15T08:29:44Z</time>
      </trkpt>
      <trkpt lat="45.91816" lon="4.73732">
        <ele>172</ele>
        <time>2017-10-15T08:29:45Z</time>
      </trkpt>
      <trkpt lat="45.91811" lon="4.73732">
        <ele>172</ele>
        <time>2017-10-15T08:29:46Z</time>
      </trkpt>
      <trkpt lat="45.91805" lon="4.73733">
        <ele>172</ele>
        <time>2017-10-15T08:29:47Z</time>
      </trkpt>
      <trkpt lat="45.91799" lon="4.73734">
        <ele>172</ele>
        <time>2017-10-15T08:29:48Z</time>
      </trkpt>
      <trkpt lat="45.91793" lon="4.73733">
        <ele>172</ele>
        <time>2017-10-15T08:29:49Z</time>
      </trkpt>
      <trkpt lat="45.91787" lon="4.73733">
        <ele>173</ele>
        <time>2017-10-15T08:29:50Z</time>
      </trkpt>
      <trkpt lat="45.9178" lon="4.73733">
        <ele>173</ele>
        <time>2017-10-15T08:29:51Z</time>
      </trkpt>
      <trkpt lat="45.91774" lon="4.73733">
        <ele>173</ele>
        <time>2017-10-15T08:29:52Z</time>
      </trkpt>
      <trkpt lat="45.91767" lon="4.73734">
        <ele>173</ele>
        <time>2017-10-15T08:29:53Z</time>
      </trkpt>
      <trkpt lat="45.91761" lon="4.73734">
        <ele>173</ele>
        <time>2017-10-15T08:29:54Z</time>
      </trkpt>
      <trkpt lat="45.91756" lon="4.73734">
        <ele>173</ele>
        <time>2017-10-15T08:29:55Z</time>
      </trkpt>
      <trkpt lat="45.9175" lon="4.73733">
        <ele>173</ele>
        <time>2017-10-15T08:29:56Z</time>
      </trkpt>
      <trkpt lat="45.91744" lon="4.73733">
        <ele>173</ele>
        <time>2017-10-15T08:29:57Z</time>
      </trkpt>
      <trkpt lat="45.91737" lon="4.73733">
        <ele>173</ele>
        <time>2017-10-15T08:29:58Z</time>
      </trkpt>
      <trkpt lat="45.91732" lon="4.73733">
        <ele>173</ele>
        <time>2017-10-15T08:29:59Z</time>
      </trkpt>
      <trkpt lat="45.91726" lon="4.73733">
        <ele>173</ele>
        <time>2017-10-15T08:30:00Z</time>
      </trkpt>
      <trkpt lat="45.91721" lon="4.73733">
        <ele>173</ele>
        <time>2017-10-15T08:30:01Z</time>
      </trkpt>
      <trkpt lat="45.91715" lon="4.73733">
        <ele>173</ele>
        <time>2017-10-15T08:30:02Z</time>
      </trkpt>
      <trkpt lat="45.9171" lon="4.73733">
        <ele>173</ele>
        <time>2017-10-15T08:30:03Z</time>
      </trkpt>
      <trkpt lat="45.91704" lon="4.73732">
        <ele>172</ele>
        <time>2017-10-15T08:30:04Z</time>
      </trkpt>
      <trkpt lat="45.91698" lon="4.73733">
        <ele>172</ele>
        <time>2017-10-15T08:30:05Z</time>
      </trkpt>
      <trkpt lat="45.91693" lon="4.73733">
        <ele>172</ele>
        <time>2017-10-15T08:30:06Z</time>
      </trkpt>
      <trkpt lat="45.91687" lon="4.73733">
        <ele>172</ele>
        <time>2017-10-15T08:30:07Z</time>
      </trkpt>
      <trkpt lat="45.91682" lon="4.73734">
        <ele>172</ele>
        <time>2017-10-15T08:30:08Z</time>
      </trkpt>
      <trkpt lat="45.91676" lon="4.73735">
        <ele>172</ele>
        <time>2017-10-15T08:30:09Z</time>
      </trkpt>
      <trkpt lat="45.9167" lon="4.73734">
        <ele>172</ele>
        <time>2017-10-15T08:30:10Z</time>
      </trkpt>
      <trkpt lat="45.91664" lon="4.73735">
        <ele>172</ele>
        <time>2017-10-15T08:30:11Z</time>
      </trkpt>
      <trkpt lat="45.91658" lon="4.73735">
        <ele>172</ele>
        <time>2017-10-15T08:30:12Z</time>
      </trkpt>
      <trkpt lat="45.91652" lon="4.73735">
        <ele>172</ele>
        <time>2017-10-15T08:30:13Z</time>
      </trkpt>
      <trkpt lat="45.91645" lon="4.73735">
        <ele>172</ele>
        <time>2017-10-15T08:30:14Z</time>
      </trkpt>
      <trkpt lat="45.91639" lon="4.73735">
        <ele>172</ele>
        <time>2017-10-15T08:30:15Z</time>
      </trkpt>
      <trkpt lat="45.91633" lon="4.73735">
        <ele>172</ele>
        <time>2017-10-15T08:30:16Z</time>
      </trkpt>
      <trkpt lat="45.91626" lon="4.73735">
        <ele>172</ele>
        <time>2017-10-15T08:30:17Z</time>
      </trkpt>
      <trkpt lat="45.91621" lon="4.73735">
        <ele>173</ele>
        <time>2017-10-15T08:30:18Z</time>
      </trkpt>
      <trkpt lat="45.91615" lon="4.73735">
        <ele>173</ele>
        <time>2017-10-15T08:30:19Z</time>
      </trkpt>
      <trkpt lat="45.91609" lon="4.73735">
        <ele>173</ele>
        <time>2017-10-15T08:30:20Z</time>
      </trkpt>
      <trkpt lat="45.91603" lon="4.73736">
        <ele>173</ele>
        <time>2017-10-15T08:30:21Z</time>
      </trkpt>
      <trkpt lat="45.91597" lon="4.73736">
        <ele>173</ele>
        <time>2017-10-15T08:30:22Z</time>
      </trkpt>
      <trkpt lat="45.91591" lon="4.73736">
        <ele>173</ele>
        <time>2017-10-15T08:30:23Z</time>
      </trkpt>
      <trkpt lat="45.91585" lon="4.73735">
        <ele>173</ele>
        <time>2017-10-15T08:30:24Z</time>
      </trkpt>
      <trkpt lat="45.9158" lon="4.73735">
        <ele>173</ele>
        <time>2017-10-15T08:30:25Z</time>
      </trkpt>
      <trkpt lat="45.91575" lon="4.73736">
        <ele>173</ele>
        <time>2017-10-15T08:30:26Z</time>
      </trkpt>
      <trkpt lat="45.91569" lon="4.73736">
        <ele>173</ele>
        <time>2017-10-15T08:30:27Z</time>
      </trkpt>
      <trkpt lat="45.91563" lon="4.73736">
        <ele>173</ele>
        <time>2017-10-15T08:30:28Z</time>
      </trkpt>
      <trkpt lat="45.91558" lon="4.73737">
        <ele>174</ele>
        <time>2017-10-15T08:30:29Z</time>
      </trkpt>
      <trkpt lat="45.91551" lon="4.73737">
        <ele>174</ele>
        <time>2017-10-15T08:30:30Z</time>
      </trkpt>
      <trkpt lat="45.91545" lon="4.73737">
        <ele>174</ele>
        <time>2017-10-15T08:30:31Z</time>
      </trkpt>
      <trkpt lat="45.9154" lon="4.73738">
        <ele>174</ele>
        <time>2017-10-15T08:30:32Z</time>
      </trkpt>
      <trkpt lat="45.91534" lon="4.73738">
        <ele>174</ele>
        <time>2017-10-15T08:30:33Z</time>
      </trkpt>
      <trkpt lat="45.91528" lon="4.73739">
        <ele>174</ele>
        <time>2017-10-15T08:30:34Z</time>
      </trkpt>
      <trkpt lat="45.91523" lon="4.73739">
        <ele>174</ele>
        <time>2017-10-15T08:30:35Z</time>
      </trkpt>
      <trkpt lat="45.91517" lon="4.73739">
        <ele>174</ele>
        <time>2017-10-15T08:30:36Z</time>
      </trkpt>
      <trkpt lat="45.91511" lon="4.73739">
        <ele>174</ele>
        <time>2017-10-15T08:30:37Z</time>
      </trkpt>
      <trkpt lat="45.91506" lon="4.73739">
        <ele>174</ele>
        <time>2017-10-15T08:30:38Z</time>
      </trkpt>
      <trkpt lat="45.915" lon="4.7374">
        <ele>174</ele>
        <time>2017-10-15T08:30:39Z</time>
      </trkpt>
      <trkpt lat="45.91495" lon="4.7374">
        <ele>174</ele>
        <time>2017-10-15T08:30:40Z</time>
      </trkpt>
      <trkpt lat="45.91486" lon="4.73741">
        <ele>174</ele>
        <time>2017-10-15T08:30:42Z</time>
      </trkpt>
      <trkpt lat="45.91481" lon="4.7374">
        <ele>174</ele>
        <time>2017-10-15T08:30:43Z</time>
      </trkpt>
      <trkpt lat="45.91476" lon="4.7374">
        <ele>174</ele>
        <time>2017-10-15T08:30:44Z</time>
      </trkpt>
      <trkpt lat="45.91472" lon="4.7374">
        <ele>174</ele>
        <time>2017-10-15T08:30:45Z</time>
      </trkpt>
      <trkpt lat="45.91467" lon="4.7374">
        <ele>174</ele>
        <time>2017-10-15T08:30:46Z</time>
      </trkpt>
      <trkpt lat="45.9146" lon="4.7374">
        <ele>174</ele>
        <time>2017-10-15T08:30:47Z</time>
      </trkpt>
      <trkpt lat="45.91454" lon="4.7374">
        <ele>173</ele>
        <time>2017-10-15T08:30:48Z</time>
      </trkpt>
      <trkpt lat="45.91449" lon="4.73739">
        <ele>173</ele>
        <time>2017-10-15T08:30:49Z</time>
      </trkpt>
      <trkpt lat="45.91443" lon="4.7374">
        <ele>173</ele>
        <time>2017-10-15T08:30:50Z</time>
      </trkpt>
      <trkpt lat="45.91437" lon="4.73741">
        <ele>173</ele>
        <time>2017-10-15T08:30:51Z</time>
      </trkpt>
      <trkpt lat="45.91431" lon="4.73743">
        <ele>173</ele>
        <time>2017-10-15T08:30:52Z</time>
      </trkpt>
      <trkpt lat="45.91425" lon="4.73741">
        <ele>173</ele>
        <time>2017-10-15T08:30:53Z</time>
      </trkpt>
      <trkpt lat="45.91419" lon="4.73741">
        <ele>173</ele>
        <time>2017-10-15T08:30:54Z</time>
      </trkpt>
      <trkpt lat="45.91412" lon="4.73741">
        <ele>172</ele>
        <time>2017-10-15T08:30:55Z</time>
      </trkpt>
      <trkpt lat="45.91407" lon="4.73741">
        <ele>173</ele>
        <time>2017-10-15T08:30:56Z</time>
      </trkpt>
      <trkpt lat="45.91401" lon="4.73742">
        <ele>173</ele>
        <time>2017-10-15T08:30:57Z</time>
      </trkpt>
      <trkpt lat="45.91395" lon="4.73741">
        <ele>173</ele>
        <time>2017-10-15T08:30:58Z</time>
      </trkpt>
      <trkpt lat="45.91389" lon="4.73742">
        <ele>173</ele>
        <time>2017-10-15T08:30:59Z</time>
      </trkpt>
      <trkpt lat="45.91383" lon="4.7374">
        <ele>173</ele>
        <time>2017-10-15T08:31:00Z</time>
      </trkpt>
      <trkpt lat="45.91378" lon="4.7374">
        <ele>173</ele>
        <time>2017-10-15T08:31:01Z</time>
      </trkpt>
      <trkpt lat="45.91373" lon="4.73739">
        <ele>173</ele>
        <time>2017-10-15T08:31:02Z</time>
      </trkpt>
      <trkpt lat="45.91368" lon="4.73739">
        <ele>173</ele>
        <time>2017-10-15T08:31:03Z</time>
      </trkpt>
      <trkpt lat="45.91363" lon="4.73739">
        <ele>173</ele>
        <time>2017-10-15T08:31:04Z</time>
      </trkpt>
      <trkpt lat="45.91358" lon="4.73741">
        <ele>173</ele>
        <time>2017-10-15T08:31:05Z</time>
      </trkpt>
      <trkpt lat="45.91352" lon="4.73741">
        <ele>173</ele>
        <time>2017-10-15T08:31:06Z</time>
      </trkpt>
      <trkpt lat="45.91347" lon="4.73741">
        <ele>173</ele>
        <time>2017-10-15T08:31:07Z</time>
      </trkpt>
      <trkpt lat="45.91341" lon="4.73743">
        <ele>173</ele>
        <time>2017-10-15T08:31:08Z</time>
      </trkpt>
      <trkpt lat="45.91336" lon="4.73743">
        <ele>173</ele>
        <time>2017-10-15T08:31:09Z</time>
      </trkpt>
      <trkpt lat="45.9133" lon="4.73742">
        <ele>173</ele>
        <time>2017-10-15T08:31:10Z</time>
      </trkpt>
      <trkpt lat="45.91323" lon="4.73742">
        <ele>173</ele>
        <time>2017-10-15T08:31:11Z</time>
      </trkpt>
      <trkpt lat="45.91317" lon="4.73742">
        <ele>174</ele>
        <time>2017-10-15T08:31:12Z</time>
      </trkpt>
      <trkpt lat="45.91312" lon="4.73742">
        <ele>174</ele>
        <time>2017-10-15T08:31:13Z</time>
      </trkpt>
      <trkpt lat="45.91305" lon="4.73741">
        <ele>174</ele>
        <time>2017-10-15T08:31:14Z</time>
      </trkpt>
      <trkpt lat="45.91299" lon="4.73741">
        <ele>174</ele>
        <time>2017-10-15T08:31:15Z</time>
      </trkpt>
      <trkpt lat="45.91293" lon="4.73742">
        <ele>174</ele>
        <time>2017-10-15T08:31:16Z</time>
      </trkpt>
      <trkpt lat="45.91286" lon="4.73741">
        <ele>174</ele>
        <time>2017-10-15T08:31:17Z</time>
      </trkpt>
      <trkpt lat="45.9128" lon="4.73741">
        <ele>174</ele>
        <time>2017-10-15T08:31:18Z</time>
      </trkpt>
      <trkpt lat="45.91275" lon="4.7374">
        <ele>174</ele>
        <time>2017-10-15T08:31:19Z</time>
      </trkpt>
      <trkpt lat="45.91269" lon="4.7374">
        <ele>174</ele>
        <time>2017-10-15T08:31:20Z</time>
      </trkpt>
      <trkpt lat="45.91263" lon="4.73741">
        <ele>174</ele>
        <time>2017-10-15T08:31:21Z</time>
      </trkpt>
      <trkpt lat="45.91258" lon="4.73742">
        <ele>175</ele>
        <time>2017-10-15T08:31:22Z</time>
      </trkpt>
      <trkpt lat="45.91252" lon="4.73742">
        <ele>175</ele>
        <time>2017-10-15T08:31:23Z</time>
      </trkpt>
      <trkpt lat="45.91246" lon="4.73741">
        <ele>175</ele>
        <time>2017-10-15T08:31:24Z</time>
      </trkpt>
      <trkpt lat="45.91241" lon="4.73741">
        <ele>175</ele>
        <time>2017-10-15T08:31:25Z</time>
      </trkpt>
      <trkpt lat="45.91235" lon="4.73741">
        <ele>175</ele>
        <time>2017-10-15T08:31:26Z</time>
      </trkpt>
      <trkpt lat="45.91228" lon="4.73742">
        <ele>175</ele>
        <time>2017-10-15T08:31:27Z</time>
      </trkpt>
      <trkpt lat="45.91222" lon="4.73741">
        <ele>175</ele>
        <time>2017-10-15T08:31:28Z</time>
      </trkpt>
      <trkpt lat="45.91217" lon="4.73741">
        <ele>175</ele>
        <time>2017-10-15T08:31:29Z</time>
      </trkpt>
      <trkpt lat="45.91211" lon="4.73741">
        <ele>175</ele>
        <time>2017-10-15T08:31:30Z</time>
      </trkpt>
      <trkpt lat="45.91207" lon="4.73741">
        <ele>175</ele>
        <time>2017-10-15T08:31:31Z</time>
      </trkpt>
      <trkpt lat="45.91201" lon="4.7374">
        <ele>175</ele>
        <time>2017-10-15T08:31:32Z</time>
      </trkpt>
      <trkpt lat="45.91196" lon="4.7374">
        <ele>175</ele>
        <time>2017-10-15T08:31:33Z</time>
      </trkpt>
      <trkpt lat="45.91191" lon="4.73739">
        <ele>175</ele>
        <time>2017-10-15T08:31:34Z</time>
      </trkpt>
      <trkpt lat="45.91185" lon="4.73737">
        <ele>175</ele>
        <time>2017-10-15T08:31:35Z</time>
      </trkpt>
      <trkpt lat="45.91176" lon="4.73733">
        <ele>175</ele>
        <time>2017-10-15T08:31:37Z</time>
      </trkpt>
      <trkpt lat="45.91172" lon="4.73734">
        <ele>175</ele>
        <time>2017-10-15T08:31:38Z</time>
      </trkpt>
      <trkpt lat="45.91164" lon="4.73733">
        <ele>175</ele>
        <time>2017-10-15T08:31:40Z</time>
      </trkpt>
      <trkpt lat="45.91159" lon="4.73734">
        <ele>175</ele>
        <time>2017-10-15T08:31:41Z</time>
      </trkpt>
      <trkpt lat="45.91154" lon="4.73741">
        <ele>175</ele>
        <time>2017-10-15T08:31:43Z</time>
      </trkpt>
      <trkpt lat="45.91153" lon="4.73746">
        <ele>175</ele>
        <time>2017-10-15T08:31:44Z</time>
      </trkpt>
      <trkpt lat="45.91156" lon="4.73758">
        <ele>175</ele>
        <time>2017-10-15T08:31:46Z</time>
      </trkpt>
      <trkpt lat="45.9116" lon="4.73764">
        <ele>175</ele>
        <time>2017-10-15T08:31:47Z</time>
      </trkpt>
      <trkpt lat="45.91164" lon="4.73769">
        <ele>175</ele>
        <time>2017-10-15T08:31:48Z</time>
      </trkpt>
      <trkpt lat="45.91167" lon="4.73776">
        <ele>175</ele>
        <time>2017-10-15T08:31:49Z</time>
      </trkpt>
      <trkpt lat="45.9117" lon="4.73782">
        <ele>175</ele>
        <time>2017-10-15T08:31:50Z</time>
      </trkpt>
      <trkpt lat="45.91173" lon="4.73789">
        <ele>175</ele>
        <time>2017-10-15T08:31:51Z</time>
      </trkpt>
      <trkpt lat="45.91176" lon="4.73795">
        <ele>175</ele>
        <time>2017-10-15T08:31:52Z</time>
      </trkpt>
      <trkpt lat="45.91179" lon="4.73802">
        <ele>175</ele>
        <time>2017-10-15T08:31:53Z</time>
      </trkpt>
      <trkpt lat="45.91182" lon="4.73808">
        <ele>175</ele>
        <time>2017-10-15T08:31:54Z</time>
      </trkpt>
      <trkpt lat="45.91185" lon="4.73814">
        <ele>175</ele>
        <time>2017-10-15T08:31:55Z</time>
      </trkpt>
      <trkpt lat="45.91187" lon="4.7382">
        <ele>174</ele>
        <time>2017-10-15T08:31:56Z</time>
      </trkpt>
      <trkpt lat="45.91189" lon="4.73826">
        <ele>174</ele>
        <time>2017-10-15T08:31:57Z</time>
      </trkpt>
      <trkpt lat="45.91195" lon="4.73834">
        <ele>174</ele>
        <time>2017-10-15T08:31:59Z</time>
      </trkpt>
      <trkpt lat="45.91198" lon="4.73841">
        <ele>174</ele>
        <time>2017-10-15T08:32:00Z</time>
      </trkpt>
      <trkpt lat="45.912" lon="4.73848">
        <ele>174</ele>
        <time>2017-10-15T08:32:01Z</time>
      </trkpt>
      <trkpt lat="45.91204" lon="4.73853">
        <ele>174</ele>
        <time>2017-10-15T08:32:02Z</time>
      </trkpt>
      <trkpt lat="45.91206" lon="4.7386">
        <ele>174</ele>
        <time>2017-10-15T08:32:03Z</time>
      </trkpt>
      <trkpt lat="45.91209" lon="4.73868">
        <ele>174</ele>
        <time>2017-10-15T08:32:04Z</time>
      </trkpt>
      <trkpt lat="45.91211" lon="4.73875">
        <ele>174</ele>
        <time>2017-10-15T08:32:05Z</time>
      </trkpt>
      <trkpt lat="45.91213" lon="4.73881">
        <ele>174</ele>
        <time>2017-10-15T08:32:06Z</time>
      </trkpt>
      <trkpt lat="45.91215" lon="4.73888">
        <ele>174</ele>
        <time>2017-10-15T08:32:07Z</time>
      </trkpt>
      <trkpt lat="45.91216" lon="4.73895">
        <ele>174</ele>
        <time>2017-10-15T08:32:08Z</time>
      </trkpt>
      <trkpt lat="45.91218" lon="4.73902">
        <ele>174</ele>
        <time>2017-10-15T08:32:09Z</time>
      </trkpt>
      <trkpt lat="45.9122" lon="4.73909">
        <ele>174</ele>
        <time>2017-10-15T08:32:10Z</time>
      </trkpt>
      <trkpt lat="45.91221" lon="4.73916">
        <ele>174</ele>
        <time>2017-10-15T08:32:11Z</time>
      </trkpt>
      <trkpt lat="45.91222" lon="4.73923">
        <ele>173</ele>
        <time>2017-10-15T08:32:12Z</time>
      </trkpt>
      <trkpt lat="45.91222" lon="4.7393">
        <ele>173</ele>
        <time>2017-10-15T08:32:13Z</time>
      </trkpt>
      <trkpt lat="45.91223" lon="4.73939">
        <ele>173</ele>
        <time>2017-10-15T08:32:14Z</time>
      </trkpt>
      <trkpt lat="45.91222" lon="4.73946">
        <ele>173</ele>
        <time>2017-10-15T08:32:15Z</time>
      </trkpt>
      <trkpt lat="45.91222" lon="4.73953">
        <ele>173</ele>
        <time>2017-10-15T08:32:16Z</time>
      </trkpt>
      <trkpt lat="45.91222" lon="4.73961">
        <ele>173</ele>
        <time>2017-10-15T08:32:17Z</time>
      </trkpt>
      <trkpt lat="45.91222" lon="4.73969">
        <ele>173</ele>
        <time>2017-10-15T08:32:18Z</time>
      </trkpt>
      <trkpt lat="45.91222" lon="4.73977">
        <ele>173</ele>
        <time>2017-10-15T08:32:19Z</time>
      </trkpt>
      <trkpt lat="45.91221" lon="4.73986">
        <ele>173</ele>
        <time>2017-10-15T08:32:20Z</time>
      </trkpt>
      <trkpt lat="45.9122" lon="4.73993">
        <ele>173</ele>
        <time>2017-10-15T08:32:21Z</time>
      </trkpt>
      <trkpt lat="45.91219" lon="4.74002">
        <ele>173</ele>
        <time>2017-10-15T08:32:22Z</time>
      </trkpt>
      <trkpt lat="45.91218" lon="4.74009">
        <ele>173</ele>
        <time>2017-10-15T08:32:23Z</time>
      </trkpt>
      <trkpt lat="45.91218" lon="4.74016">
        <ele>173</ele>
        <time>2017-10-15T08:32:24Z</time>
      </trkpt>
      <trkpt lat="45.91216" lon="4.74023">
        <ele>173</ele>
        <time>2017-10-15T08:32:25Z</time>
      </trkpt>
      <trkpt lat="45.91215" lon="4.74031">
        <ele>173</ele>
        <time>2017-10-15T08:32:26Z</time>
      </trkpt>
      <trkpt lat="45.91214" lon="4.74037">
        <ele>173</ele>
        <time>2017-10-15T08:32:27Z</time>
      </trkpt>
      <trkpt lat="45.91213" lon="4.74044">
        <ele>173</ele>
        <time>2017-10-15T08:32:28Z</time>
      </trkpt>
      <trkpt lat="45.91211" lon="4.74051">
        <ele>173</ele>
        <time>2017-10-15T08:32:29Z</time>
      </trkpt>
      <trkpt lat="45.91209" lon="4.74059">
        <ele>173</ele>
        <time>2017-10-15T08:32:30Z</time>
      </trkpt>
      <trkpt lat="45.91208" lon="4.74067">
        <ele>173</ele>
        <time>2017-10-15T08:32:31Z</time>
      </trkpt>
      <trkpt lat="45.91206" lon="4.74072">
        <ele>173</ele>
        <time>2017-10-15T08:32:32Z</time>
      </trkpt>
      <trkpt lat="45.91205" lon="4.7408">
        <ele>173</ele>
        <time>2017-10-15T08:32:33Z</time>
      </trkpt>
      <trkpt lat="45.91203" lon="4.74087">
        <ele>173</ele>
        <time>2017-10-15T08:32:34Z</time>
      </trkpt>
      <trkpt lat="45.91201" lon="4.74095">
        <ele>173</ele>
        <time>2017-10-15T08:32:35Z</time>
      </trkpt>
      <trkpt lat="45.91199" lon="4.74102">
        <ele>173</ele>
        <time>2017-10-15T08:32:36Z</time>
      </trkpt>
      <trkpt lat="45.91198" lon="4.7411">
        <ele>174</ele>
        <time>2017-10-15T08:32:37Z</time>
      </trkpt>
      <trkpt lat="45.91196" lon="4.74118">
        <ele>174</ele>
        <time>2017-10-15T08:32:38Z</time>
      </trkpt>
      <trkpt lat="45.91194" lon="4.74125">
        <ele>174</ele>
        <time>2017-10-15T08:32:39Z</time>
      </trkpt>
      <trkpt lat="45.91192" lon="4.74133">
        <ele>174</ele>
        <time>2017-10-15T08:32:40Z</time>
      </trkpt>
      <trkpt lat="45.91189" lon="4.7414">
        <ele>174</ele>
        <time>2017-10-15T08:32:41Z</time>
      </trkpt>
      <trkpt lat="45.91188" lon="4.74148">
        <ele>174</ele>
        <time>2017-10-15T08:32:42Z</time>
      </trkpt>
      <trkpt lat="45.91186" lon="4.74157">
        <ele>174</ele>
        <time>2017-10-15T08:32:43Z</time>
      </trkpt>
      <trkpt lat="45.91185" lon="4.74165">
        <ele>174</ele>
        <time>2017-10-15T08:32:44Z</time>
      </trkpt>
      <trkpt lat="45.91184" lon="4.74173">
        <ele>174</ele>
        <time>2017-10-15T08:32:45Z</time>
      </trkpt>
      <trkpt lat="45.91183" lon="4.74181">
        <ele>174</ele>
        <time>2017-10-15T08:32:46Z</time>
      </trkpt>
      <trkpt lat="45.91182" lon="4.7419">
        <ele>174</ele>
        <time>2017-10-15T08:32:47Z</time>
      </trkpt>
      <trkpt lat="45.91181" lon="4.74199">
        <ele>175</ele>
        <time>2017-10-15T08:32:48Z</time>
      </trkpt>
      <trkpt lat="45.91181" lon="4.74208">
        <ele>175</ele>
        <time>2017-10-15T08:32:49Z</time>
      </trkpt>
      <trkpt lat="45.91181" lon="4.74217">
        <ele>175</ele>
        <time>2017-10-15T08:32:50Z</time>
      </trkpt>
      <trkpt lat="45.91182" lon="4.74225">
        <ele>175</ele>
        <time>2017-10-15T08:32:51Z</time>
      </trkpt>
      <trkpt lat="45.91182" lon="4.74235">
        <ele>175</ele>
        <time>2017-10-15T08:32:52Z</time>
      </trkpt>
      <trkpt lat="45.91183" lon="4.74245">
        <ele>175</ele>
        <time>2017-10-15T08:32:53Z</time>
      </trkpt>
      <trkpt lat="45.91185" lon="4.74255">
        <ele>175</ele>
        <time>2017-10-15T08:32:54Z</time>
      </trkpt>
      <trkpt lat="45.91187" lon="4.74265">
        <ele>175</ele>
        <time>2017-10-15T08:32:55Z</time>
      </trkpt>
      <trkpt lat="45.9119" lon="4.74276">
        <ele>175</ele>
        <time>2017-10-15T08:32:56Z</time>
      </trkpt>
      <trkpt lat="45.91192" lon="4.74287">
        <ele>175</ele>
        <time>2017-10-15T08:32:57Z</time>
      </trkpt>
      <trkpt lat="45.91195" lon="4.74297">
        <ele>175</ele>
        <time>2017-10-15T08:32:58Z</time>
      </trkpt>
      <trkpt lat="45.91199" lon="4.74308">
        <ele>175</ele>
        <time>2017-10-15T08:32:59Z</time>
      </trkpt>
      <trkpt lat="45.91201" lon="4.7432">
        <ele>175</ele>
        <time>2017-10-15T08:33:00Z</time>
      </trkpt>
      <trkpt lat="45.91204" lon="4.74331">
        <ele>175</ele>
        <time>2017-10-15T08:33:01Z</time>
      </trkpt>
      <trkpt lat="45.91207" lon="4.74342">
        <ele>175</ele>
        <time>2017-10-15T08:33:02Z</time>
      </trkpt>
      <trkpt lat="45.9121" lon="4.74353">
        <ele>175</ele>
        <time>2017-10-15T08:33:03Z</time>
      </trkpt>
      <trkpt lat="45.91213" lon="4.74364">
        <ele>174</ele>
        <time>2017-10-15T08:33:04Z</time>
      </trkpt>
      <trkpt lat="45.91216" lon="4.74376">
        <ele>174</ele>
        <time>2017-10-15T08:33:05Z</time>
      </trkpt>
      <trkpt lat="45.9122" lon="4.74388">
        <ele>174</ele>
        <time>2017-10-15T08:33:06Z</time>
      </trkpt>
      <trkpt lat="45.91223" lon="4.74399">
        <ele>174</ele>
        <time>2017-10-15T08:33:07Z</time>
      </trkpt>
      <trkpt lat="45.91227" lon="4.7441">
        <ele>174</ele>
        <time>2017-10-15T08:33:08Z</time>
      </trkpt>
      <trkpt lat="45.9123" lon="4.74421">
        <ele>174</ele>
        <time>2017-10-15T08:33:09Z</time>
      </trkpt>
      <trkpt lat="45.91233" lon="4.74431">
        <ele>174</ele>
        <time>2017-10-15T08:33:10Z</time>
      </trkpt>
      <trkpt lat="45.91236" lon="4.7444">
        <ele>174</ele>
        <time>2017-10-15T08:33:11Z</time>
      </trkpt>
      <trkpt lat="45.91239" lon="4.7445">
        <ele>174</ele>
        <time>2017-10-15T08:33:12Z</time>
      </trkpt>
      <trkpt lat="45.91242" lon="4.7446">
        <ele>174</ele>
        <time>2017-10-15T08:33:13Z</time>
      </trkpt>
      <trkpt lat="45.91244" lon="4.74469">
        <ele>174</ele>
        <time>2017-10-15T08:33:14Z</time>
      </trkpt>
      <trkpt lat="45.91247" lon="4.74478">
        <ele>174</ele>
        <time>2017-10-15T08:33:15Z</time>
      </trkpt>
      <trkpt lat="45.91249" lon="4.74487">
        <ele>174</ele>
        <time>2017-10-15T08:33:16Z</time>
      </trkpt>
      <trkpt lat="45.91251" lon="4.74496">
        <ele>174</ele>
        <time>2017-10-15T08:33:17Z</time>
      </trkpt>
      <trkpt lat="45.91254" lon="4.74505">
        <ele>174</ele>
        <time>2017-10-15T08:33:18Z</time>
      </trkpt>
      <trkpt lat="45.91257" lon="4.74513">
        <ele>174</ele>
        <time>2017-10-15T08:33:19Z</time>
      </trkpt>
      <trkpt lat="45.91259" lon="4.74521">
        <ele>174</ele>
        <time>2017-10-15T08:33:20Z</time>
      </trkpt>
      <trkpt lat="45.91261" lon="4.7453">
        <ele>173</ele>
        <time>2017-10-15T08:33:21Z</time>
      </trkpt>
      <trkpt lat="45.91264" lon="4.74536">
        <ele>173</ele>
        <time>2017-10-15T08:33:22Z</time>
      </trkpt>
      <trkpt lat="45.91267" lon="4.74544">
        <ele>173</ele>
        <time>2017-10-15T08:33:23Z</time>
      </trkpt>
      <trkpt lat="45.9127" lon="4.7455">
        <ele>173</ele>
        <time>2017-10-15T08:33:24Z</time>
      </trkpt>
      <trkpt lat="45.91274" lon="4.74558">
        <ele>173</ele>
        <time>2017-10-15T08:33:25Z</time>
      </trkpt>
      <trkpt lat="45.91277" lon="4.74565">
        <ele>173</ele>
        <time>2017-10-15T08:33:26Z</time>
      </trkpt>
      <trkpt lat="45.91281" lon="4.74572">
        <ele>173</ele>
        <time>2017-10-15T08:33:27Z</time>
      </trkpt>
      <trkpt lat="45.91284" lon="4.7458">
        <ele>173</ele>
        <time>2017-10-15T08:33:28Z</time>
      </trkpt>
      <trkpt lat="45.91287" lon="4.74588">
        <ele>173</ele>
        <time>2017-10-15T08:33:29Z</time>
      </trkpt>
      <trkpt lat="45.91291" lon="4.74594">
        <ele>173</ele>
        <time>2017-10-15T08:33:30Z</time>
      </trkpt>
      <trkpt lat="45.91294" lon="4.74602">
        <ele>173</ele>
        <time>2017-10-15T08:33:31Z</time>
      </trkpt>
      <trkpt lat="45.91298" lon="4.74609">
        <ele>173</ele>
        <time>2017-10-15T08:33:32Z</time>
      </trkpt>
      <trkpt lat="45.913" lon="4.74616">
        <ele>173</ele>
        <time>2017-10-15T08:33:33Z</time>
      </trkpt>
      <trkpt lat="45.91304" lon="4.74624">
        <ele>173</ele>
        <time>2017-10-15T08:33:34Z</time>
      </trkpt>
      <trkpt lat="45.91307" lon="4.74633">
        <ele>173</ele>
        <time>2017-10-15T08:33:35Z</time>
      </trkpt>
      <trkpt lat="45.91311" lon="4.74641">
        <ele>173</ele>
        <time>2017-10-15T08:33:36Z</time>
      </trkpt>
      <trkpt lat="45.91313" lon="4.74649">
        <ele>173</ele>
        <time>2017-10-15T08:33:37Z</time>
      </trkpt>
      <trkpt lat="45.91317" lon="4.74658">
        <ele>173</ele>
        <time>2017-10-15T08:33:38Z</time>
      </trkpt>
      <trkpt lat="45.9132" lon="4.74666">
        <ele>173</ele>
        <time>2017-10-15T08:33:39Z</time>
      </trkpt>
      <trkpt lat="45.91322" lon="4.74674">
        <ele>173</ele>
        <time>2017-10-15T08:33:40Z</time>
      </trkpt>
      <trkpt lat="45.91325" lon="4.74681">
        <ele>173</ele>
        <time>2017-10-15T08:33:41Z</time>
      </trkpt>
      <trkpt lat="45.91327" lon="4.74689">
        <ele>173</ele>
        <time>2017-10-15T08:33:42Z</time>
      </trkpt>
      <trkpt lat="45.91328" lon="4.74697">
        <ele>173</ele>
        <time>2017-10-15T08:33:43Z</time>
      </trkpt>
      <trkpt lat="45.91329" lon="4.74706">
        <ele>173</ele>
        <time>2017-10-15T08:33:44Z</time>
      </trkpt>
      <trkpt lat="45.91329" lon="4.74714">
        <ele>173</ele>
        <time>2017-10-15T08:33:45Z</time>
      </trkpt>
      <trkpt lat="45.91328" lon="4.74721">
        <ele>173</ele>
        <time>2017-10-15T08:33:46Z</time>
      </trkpt>
      <trkpt lat="45.91327" lon="4.74728">
        <ele>173</ele>
        <time>2017-10-15T08:33:47Z</time>
      </trkpt>
      <trkpt lat="45.91326" lon="4.74735">
        <ele>173</ele>
        <time>2017-10-15T08:33:48Z</time>
      </trkpt>
      <trkpt lat="45.91323" lon="4.74742">
        <ele>173</ele>
        <time>2017-10-15T08:33:49Z</time>
      </trkpt>
      <trkpt lat="45.91322" lon="4.7475">
        <ele>173</ele>
        <time>2017-10-15T08:33:50Z</time>
      </trkpt>
      <trkpt lat="45.9132" lon="4.74756">
        <ele>174</ele>
        <time>2017-10-15T08:33:51Z</time>
      </trkpt>
      <trkpt lat="45.91318" lon="4.74765">
        <ele>174</ele>
        <time>2017-10-15T08:33:52Z</time>
      </trkpt>
      <trkpt lat="45.91317" lon="4.74772">
        <ele>174</ele>
        <time>2017-10-15T08:33:53Z</time>
      </trkpt>
      <trkpt lat="45.91316" lon="4.7478">
        <ele>174</ele>
        <time>2017-10-15T08:33:54Z</time>
      </trkpt>
      <trkpt lat="45.91315" lon="4.74788">
        <ele>174</ele>
        <time>2017-10-15T08:33:55Z</time>
      </trkpt>
      <trkpt lat="45.91312" lon="4.74796">
        <ele>174</ele>
        <time>2017-10-15T08:33:56Z</time>
      </trkpt>
      <trkpt lat="45.91311" lon="4.74805">
        <ele>175</ele>
        <time>2017-10-15T08:33:57Z</time>
      </trkpt>
      <trkpt lat="45.91308" lon="4.74811">
        <ele>175</ele>
        <time>2017-10-15T08:33:58Z</time>
      </trkpt>
      <trkpt lat="45.91308" lon="4.74819">
        <ele>175</ele>
        <time>2017-10-15T08:33:59Z</time>
      </trkpt>
      <trkpt lat="45.91308" lon="4.74827">
        <ele>175</ele>
        <time>2017-10-15T08:34:00Z</time>
      </trkpt>
      <trkpt lat="45.91308" lon="4.74835">
        <ele>176</ele>
        <time>2017-10-15T08:34:01Z</time>
      </trkpt>
      <trkpt lat="45.91308" lon="4.74844">
        <ele>176</ele>
        <time>2017-10-15T08:34:02Z</time>
      </trkpt>
      <trkpt lat="45.91308" lon="4.74851">
        <ele>176</ele>
        <time>2017-10-15T08:34:03Z</time>
      </trkpt>
      <trkpt lat="45.91309" lon="4.7486">
        <ele>176</ele>
        <time>2017-10-15T08:34:04Z</time>
      </trkpt>
      <trkpt lat="45.91308" lon="4.74867">
        <ele>176</ele>
        <time>2017-10-15T08:34:05Z</time>
      </trkpt>
      <trkpt lat="45.91309" lon="4.74875">
        <ele>176</ele>
        <time>2017-10-15T08:34:06Z</time>
      </trkpt>
      <trkpt lat="45.91309" lon="4.74882">
        <ele>176</ele>
        <time>2017-10-15T08:34:07Z</time>
      </trkpt>
      <trkpt lat="45.91308" lon="4.74889">
        <ele>176</ele>
        <time>2017-10-15T08:34:08Z</time>
      </trkpt>
      <trkpt lat="45.91308" lon="4.74898">
        <ele>176</ele>
        <time>2017-10-15T08:34:09Z</time>
      </trkpt>
      <trkpt lat="45.91307" lon="4.74906">
        <ele>176</ele>
        <time>2017-10-15T08:34:10Z</time>
      </trkpt>
      <trkpt lat="45.91306" lon="4.74912">
        <ele>176</ele>
        <time>2017-10-15T08:34:11Z</time>
      </trkpt>
      <trkpt lat="45.91305" lon="4.74919">
        <ele>177</ele>
        <time>2017-10-15T08:34:12Z</time>
      </trkpt>
      <trkpt lat="45.91306" lon="4.74928">
        <ele>177</ele>
        <time>2017-10-15T08:34:13Z</time>
      </trkpt>
      <trkpt lat="45.91304" lon="4.74936">
        <ele>177</ele>
        <time>2017-10-15T08:34:14Z</time>
      </trkpt>
      <trkpt lat="45.91303" lon="4.74943">
        <ele>177</ele>
        <time>2017-10-15T08:34:15Z</time>
      </trkpt>
      <trkpt lat="45.91303" lon="4.74951">
        <ele>177</ele>
        <time>2017-10-15T08:34:16Z</time>
      </trkpt>
      <trkpt lat="45.91301" lon="4.74958">
        <ele>177</ele>
        <time>2017-10-15T08:34:17Z</time>
      </trkpt>
      <trkpt lat="45.91301" lon="4.74967">
        <ele>177</ele>
        <time>2017-10-15T08:34:18Z</time>
      </trkpt>
      <trkpt lat="45.913" lon="4.74975">
        <ele>177</ele>
        <time>2017-10-15T08:34:19Z</time>
      </trkpt>
      <trkpt lat="45.91298" lon="4.74983">
        <ele>177</ele>
        <time>2017-10-15T08:34:20Z</time>
      </trkpt>
      <trkpt lat="45.91298" lon="4.74992">
        <ele>177</ele>
        <time>2017-10-15T08:34:21Z</time>
      </trkpt>
      <trkpt lat="45.91299" lon="4.75002">
        <ele>177</ele>
        <time>2017-10-15T08:34:22Z</time>
      </trkpt>
      <trkpt lat="45.91298" lon="4.75009">
        <ele>177</ele>
        <time>2017-10-15T08:34:23Z</time>
      </trkpt>
      <trkpt lat="45.91297" lon="4.75017">
        <ele>177</ele>
        <time>2017-10-15T08:34:24Z</time>
      </trkpt>
      <trkpt lat="45.91298" lon="4.75025">
        <ele>177</ele>
        <time>2017-10-15T08:34:25Z</time>
      </trkpt>
      <trkpt lat="45.91297" lon="4.75033">
        <ele>177</ele>
        <time>2017-10-15T08:34:26Z</time>
      </trkpt>
      <trkpt lat="45.91297" lon="4.75041">
        <ele>177</ele>
        <time>2017-10-15T08:34:27Z</time>
      </trkpt>
      <trkpt lat="45.91297" lon="4.75049">
        <ele>177</ele>
        <time>2017-10-15T08:34:28Z</time>
      </trkpt>
      <trkpt lat="45.91296" lon="4.75056">
        <ele>177</ele>
        <time>2017-10-15T08:34:29Z</time>
      </trkpt>
      <trkpt lat="45.91297" lon="4.75064">
        <ele>177</ele>
        <time>2017-10-15T08:34:30Z</time>
      </trkpt>
      <trkpt lat="45.91297" lon="4.75072">
        <ele>177</ele>
        <time>2017-10-15T08:34:31Z</time>
      </trkpt>
      <trkpt lat="45.91298" lon="4.7508">
        <ele>177</ele>
        <time>2017-10-15T08:34:32Z</time>
      </trkpt>
      <trkpt lat="45.91299" lon="4.75089">
        <ele>177</ele>
        <time>2017-10-15T08:34:33Z</time>
      </trkpt>
      <trkpt lat="45.913" lon="4.75097">
        <ele>177</ele>
        <time>2017-10-15T08:34:34Z</time>
      </trkpt>
      <trkpt lat="45.913" lon="4.75105">
        <ele>177</ele>
        <time>2017-10-15T08:34:35Z</time>
      </trkpt>
      <trkpt lat="45.91301" lon="4.75114">
        <ele>177</ele>
        <time>2017-10-15T08:34:36Z</time>
      </trkpt>
      <trkpt lat="45.91302" lon="4.75123">
        <ele>177</ele>
        <time>2017-10-15T08:34:37Z</time>
      </trkpt>
      <trkpt lat="45.91303" lon="4.75131">
        <ele>177</ele>
        <time>2017-10-15T08:34:38Z</time>
      </trkpt>
      <trkpt lat="45.91305" lon="4.75139">
        <ele>177</ele>
        <time>2017-10-15T08:34:39Z</time>
      </trkpt>
      <trkpt lat="45.91306" lon="4.75146">
        <ele>177</ele>
        <time>2017-10-15T08:34:40Z</time>
      </trkpt>
      <trkpt lat="45.91303" lon="4.75156">
        <ele>177</ele>
        <time>2017-10-15T08:34:42Z</time>
      </trkpt>
      <trkpt lat="45.91299" lon="4.75155">
        <ele>177</ele>
        <time>2017-10-15T08:34:43Z</time>
      </trkpt>
      <trkpt lat="45.91293" lon="4.75155">
        <ele>177</ele>
        <time>2017-10-15T08:34:45Z</time>
      </trkpt>
      <trkpt lat="45.91289" lon="4.75153">
        <ele>177</ele>
        <time>2017-10-15T08:34:46Z</time>
      </trkpt>
      <trkpt lat="45.91283" lon="4.75153">
        <ele>177</ele>
        <time>2017-10-15T08:34:48Z</time>
      </trkpt>
      <trkpt lat="45.91278" lon="4.75151">
        <ele>177</ele>
        <time>2017-10-15T08:34:49Z</time>
      </trkpt>
      <trkpt lat="45.91273" lon="4.75149">
        <ele>177</ele>
        <time>2017-10-15T08:34:50Z</time>
      </trkpt>
      <trkpt lat="45.91269" lon="4.75146">
        <ele>177</ele>
        <time>2017-10-15T08:34:51Z</time>
      </trkpt>
      <trkpt lat="45.91261" lon="4.75142">
        <ele>177</ele>
        <time>2017-10-15T08:34:53Z</time>
      </trkpt>
      <trkpt lat="45.91256" lon="4.75139">
        <ele>177</ele>
        <time>2017-10-15T08:34:54Z</time>
      </trkpt>
      <trkpt lat="45.91252" lon="4.75136">
        <ele>177</ele>
        <time>2017-10-15T08:34:55Z</time>
      </trkpt>
      <trkpt lat="45.91247" lon="4.75135">
        <ele>177</ele>
        <time>2017-10-15T08:34:56Z</time>
      </trkpt>
      <trkpt lat="45.91243" lon="4.75133">
        <ele>177</ele>
        <time>2017-10-15T08:34:57Z</time>
      </trkpt>
      <trkpt lat="45.91237" lon="4.7513">
        <ele>177</ele>
        <time>2017-10-15T08:34:58Z</time>
      </trkpt>
      <trkpt lat="45.91231" lon="4.75129">
        <ele>177</ele>
        <time>2017-10-15T08:34:59Z</time>
      </trkpt>
      <trkpt lat="45.91226" lon="4.75127">
        <ele>177</ele>
        <time>2017-10-15T08:35:00Z</time>
      </trkpt>
      <trkpt lat="45.91221" lon="4.75124">
        <ele>177</ele>
        <time>2017-10-15T08:35:01Z</time>
      </trkpt>
      <trkpt lat="45.91217" lon="4.75122">
        <ele>177</ele>
        <time>2017-10-15T08:35:02Z</time>
      </trkpt>
      <trkpt lat="45.91211" lon="4.7512">
        <ele>177</ele>
        <time>2017-10-15T08:35:03Z</time>
      </trkpt>
      <trkpt lat="45.91206" lon="4.75119">
        <ele>178</ele>
        <time>2017-10-15T08:35:04Z</time>
      </trkpt>
      <trkpt lat="45.912" lon="4.75117">
        <ele>178</ele>
        <time>2017-10-15T08:35:05Z</time>
      </trkpt>
      <trkpt lat="45.91195" lon="4.75114">
        <ele>178</ele>
        <time>2017-10-15T08:35:06Z</time>
      </trkpt>
      <trkpt lat="45.9119" lon="4.75114">
        <ele>178</ele>
        <time>2017-10-15T08:35:07Z</time>
      </trkpt>
      <trkpt lat="45.91185" lon="4.75113">
        <ele>178</ele>
        <time>2017-10-15T08:35:08Z</time>
      </trkpt>
      <trkpt lat="45.91181" lon="4.75112">
        <ele>178</ele>
        <time>2017-10-15T08:35:09Z</time>
      </trkpt>
      <trkpt lat="45.91176" lon="4.75111">
        <ele>178</ele>
        <time>2017-10-15T08:35:10Z</time>
      </trkpt>
      <trkpt lat="45.9117" lon="4.7511">
        <ele>178</ele>
        <time>2017-10-15T08:35:11Z</time>
      </trkpt>
      <trkpt lat="45.91166" lon="4.75109">
        <ele>179</ele>
        <time>2017-10-15T08:35:12Z</time>
      </trkpt>
      <trkpt lat="45.91161" lon="4.75107">
        <ele>179</ele>
        <time>2017-10-15T08:35:13Z</time>
      </trkpt>
      <trkpt lat="45.91156" lon="4.75106">
        <ele>179</ele>
        <time>2017-10-15T08:35:14Z</time>
      </trkpt>
      <trkpt lat="45.91147" lon="4.75104">
        <ele>179</ele>
        <time>2017-10-15T08:35:16Z</time>
      </trkpt>
      <trkpt lat="45.91141" lon="4.75102">
        <ele>179</ele>
        <time>2017-10-15T08:35:17Z</time>
      </trkpt>
      <trkpt lat="45.91136" lon="4.75102">
        <ele>179</ele>
        <time>2017-10-15T08:35:18Z</time>
      </trkpt>
      <trkpt lat="45.91131" lon="4.751">
        <ele>179</ele>
        <time>2017-10-15T08:35:19Z</time>
      </trkpt>
      <trkpt lat="45.91126" lon="4.75098">
        <ele>179</ele>
        <time>2017-10-15T08:35:20Z</time>
      </trkpt>
      <trkpt lat="45.91122" lon="4.75096">
        <ele>179</ele>
        <time>2017-10-15T08:35:21Z</time>
      </trkpt>
      <trkpt lat="45.91117" lon="4.75094">
        <ele>179</ele>
        <time>2017-10-15T08:35:22Z</time>
      </trkpt>
      <trkpt lat="45.91112" lon="4.75092">
        <ele>179</ele>
        <time>2017-10-15T08:35:23Z</time>
      </trkpt>
      <trkpt lat="45.91108" lon="4.7509">
        <ele>180</ele>
        <time>2017-10-15T08:35:24Z</time>
      </trkpt>
      <trkpt lat="45.91103" lon="4.75088">
        <ele>180</ele>
        <time>2017-10-15T08:35:25Z</time>
      </trkpt>
      <trkpt lat="45.91098" lon="4.75086">
        <ele>180</ele>
        <time>2017-10-15T08:35:26Z</time>
      </trkpt>
      <trkpt lat="45.91094" lon="4.75086">
        <ele>180</ele>
        <time>2017-10-15T08:35:27Z</time>
      </trkpt>
      <trkpt lat="45.91089" lon="4.75084">
        <ele>180</ele>
        <time>2017-10-15T08:35:28Z</time>
      </trkpt>
      <trkpt lat="45.91084" lon="4.75082">
        <ele>180</ele>
        <time>2017-10-15T08:35:29Z</time>
      </trkpt>
      <trkpt lat="45.91079" lon="4.7508">
        <ele>180</ele>
        <time>2017-10-15T08:35:30Z</time>
      </trkpt>
      <trkpt lat="45.91074" lon="4.75078">
        <ele>179</ele>
        <time>2017-10-15T08:35:31Z</time>
      </trkpt>
      <trkpt lat="45.91069" lon="4.75076">
        <ele>179</ele>
        <time>2017-10-15T08:35:32Z</time>
      </trkpt>
      <trkpt lat="45.91065" lon="4.75074">
        <ele>179</ele>
        <time>2017-10-15T08:35:33Z</time>
      </trkpt>
      <trkpt lat="45.9106" lon="4.75071">
        <ele>179</ele>
        <time>2017-10-15T08:35:34Z</time>
      </trkpt>
      <trkpt lat="45.91056" lon="4.75069">
        <ele>179</ele>
        <time>2017-10-15T08:35:35Z</time>
      </trkpt>
      <trkpt lat="45.91048" lon="4.75066">
        <ele>179</ele>
        <time>2017-10-15T08:35:37Z</time>
      </trkpt>
      <trkpt lat="45.91043" lon="4.75065">
        <ele>179</ele>
        <time>2017-10-15T08:35:38Z</time>
      </trkpt>
      <trkpt lat="45.91035" lon="4.75062">
        <ele>179</ele>
        <time>2017-10-15T08:35:40Z</time>
      </trkpt>
      <trkpt lat="45.9103" lon="4.7506">
        <ele>179</ele>
        <time>2017-10-15T08:35:41Z</time>
      </trkpt>
      <trkpt lat="45.91022" lon="4.75059">
        <ele>179</ele>
        <time>2017-10-15T08:35:43Z</time>
      </trkpt>
      <trkpt lat="45.91018" lon="4.75057">
        <ele>179</ele>
        <time>2017-10-15T08:35:44Z</time>
      </trkpt>
      <trkpt lat="45.91013" lon="4.75055">
        <ele>179</ele>
        <time>2017-10-15T08:35:45Z</time>
      </trkpt>
      <trkpt lat="45.91008" lon="4.75052">
        <ele>179</ele>
        <time>2017-10-15T08:35:46Z</time>
      </trkpt>
      <trkpt lat="45.91004" lon="4.75051">
        <ele>178</ele>
        <time>2017-10-15T08:35:47Z</time>
      </trkpt>
      <trkpt lat="45.90999" lon="4.75048">
        <ele>179</ele>
        <time>2017-10-15T08:35:48Z</time>
      </trkpt>
      <trkpt lat="45.90994" lon="4.75047">
        <ele>179</ele>
        <time>2017-10-15T08:35:49Z</time>
      </trkpt>
      <trkpt lat="45.90989" lon="4.75045">
        <ele>179</ele>
        <time>2017-10-15T08:35:50Z</time>
      </trkpt>
      <trkpt lat="45.90985" lon="4.75043">
        <ele>179</ele>
        <time>2017-10-15T08:35:51Z</time>
      </trkpt>
      <trkpt lat="45.9098" lon="4.75041">
        <ele>179</ele>
        <time>2017-10-15T08:35:52Z</time>
      </trkpt>
      <trkpt lat="45.90975" lon="4.7504">
        <ele>179</ele>
        <time>2017-10-15T08:35:53Z</time>
      </trkpt>
      <trkpt lat="45.90969" lon="4.75038">
        <ele>179</ele>
        <time>2017-10-15T08:35:54Z</time>
      </trkpt>
      <trkpt lat="45.90964" lon="4.75036">
        <ele>179</ele>
        <time>2017-10-15T08:35:55Z</time>
      </trkpt>
      <trkpt lat="45.90959" lon="4.75034">
        <ele>179</ele>
        <time>2017-10-15T08:35:56Z</time>
      </trkpt>
      <trkpt lat="45.90953" lon="4.75031">
        <ele>179</ele>
        <time>2017-10-15T08:35:57Z</time>
      </trkpt>
      <trkpt lat="45.90948" lon="4.75029">
        <ele>179</ele>
        <time>2017-10-15T08:35:58Z</time>
      </trkpt>
      <trkpt lat="45.90944" lon="4.75027">
        <ele>179</ele>
        <time>2017-10-15T08:35:59Z</time>
      </trkpt>
      <trkpt lat="45.90937" lon="4.75023">
        <ele>179</ele>
        <time>2017-10-15T08:36:00Z</time>
      </trkpt>
      <trkpt lat="45.90932" lon="4.75021">
        <ele>179</ele>
        <time>2017-10-15T08:36:01Z</time>
      </trkpt>
      <trkpt lat="45.90925" lon="4.75018">
        <ele>178</ele>
        <time>2017-10-15T08:36:02Z</time>
      </trkpt>
      <trkpt lat="45.9092" lon="4.75016">
        <ele>178</ele>
        <time>2017-10-15T08:36:03Z</time>
      </trkpt>
      <trkpt lat="45.90914" lon="4.75015">
        <ele>179</ele>
        <time>2017-10-15T08:36:04Z</time>
      </trkpt>
      <trkpt lat="45.90909" lon="4.75012">
        <ele>179</ele>
        <time>2017-10-15T08:36:05Z</time>
      </trkpt>
      <trkpt lat="45.90904" lon="4.7501">
        <ele>179</ele>
        <time>2017-10-15T08:36:06Z</time>
      </trkpt>
      <trkpt lat="45.90899" lon="4.75008">
        <ele>179</ele>
        <time>2017-10-15T08:36:07Z</time>
      </trkpt>
      <trkpt lat="45.90894" lon="4.75005">
        <ele>179</ele>
        <time>2017-10-15T08:36:08Z</time>
      </trkpt>
      <trkpt lat="45.90888" lon="4.75003">
        <ele>179</ele>
        <time>2017-10-15T08:36:09Z</time>
      </trkpt>
      <trkpt lat="45.90883" lon="4.75001">
        <ele>179</ele>
        <time>2017-10-15T08:36:10Z</time>
      </trkpt>
      <trkpt lat="45.90878" lon="4.74998">
        <ele>178</ele>
        <time>2017-10-15T08:36:11Z</time>
      </trkpt>
      <trkpt lat="45.90873" lon="4.74996">
        <ele>179</ele>
        <time>2017-10-15T08:36:12Z</time>
      </trkpt>
      <trkpt lat="45.90868" lon="4.74994">
        <ele>179</ele>
        <time>2017-10-15T08:36:13Z</time>
      </trkpt>
      <trkpt lat="45.90863" lon="4.74992">
        <ele>179</ele>
        <time>2017-10-15T08:36:14Z</time>
      </trkpt>
      <trkpt lat="45.90858" lon="4.74989">
        <ele>179</ele>
        <time>2017-10-15T08:36:15Z</time>
      </trkpt>
      <trkpt lat="45.90853" lon="4.74988">
        <ele>179</ele>
        <time>2017-10-15T08:36:16Z</time>
      </trkpt>
      <trkpt lat="45.90849" lon="4.74986">
        <ele>179</ele>
        <time>2017-10-15T08:36:17Z</time>
      </trkpt>
      <trkpt lat="45.90843" lon="4.74983">
        <ele>179</ele>
        <time>2017-10-15T08:36:18Z</time>
      </trkpt>
      <trkpt lat="45.90838" lon="4.74981">
        <ele>179</ele>
        <time>2017-10-15T08:36:19Z</time>
      </trkpt>
      <trkpt lat="45.90833" lon="4.74981">
        <ele>179</ele>
        <time>2017-10-15T08:36:20Z</time>
      </trkpt>
      <trkpt lat="45.90828" lon="4.74978">
        <ele>179</ele>
        <time>2017-10-15T08:36:21Z</time>
      </trkpt>
      <trkpt lat="45.90822" lon="4.74975">
        <ele>179</ele>
        <time>2017-10-15T08:36:22Z</time>
      </trkpt>
      <trkpt lat="45.90816" lon="4.74973">
        <ele>179</ele>
        <time>2017-10-15T08:36:23Z</time>
      </trkpt>
      <trkpt lat="45.90812" lon="4.74971">
        <ele>179</ele>
        <time>2017-10-15T08:36:24Z</time>
      </trkpt>
      <trkpt lat="45.90807" lon="4.74969">
        <ele>179</ele>
        <time>2017-10-15T08:36:25Z</time>
      </trkpt>
      <trkpt lat="45.90802" lon="4.74967">
        <ele>179</ele>
        <time>2017-10-15T08:36:26Z</time>
      </trkpt>
      <trkpt lat="45.90797" lon="4.74967">
        <ele>179</ele>
        <time>2017-10-15T08:36:27Z</time>
      </trkpt>
      <trkpt lat="45.90792" lon="4.74965">
        <ele>179</ele>
        <time>2017-10-15T08:36:28Z</time>
      </trkpt>
      <trkpt lat="45.90787" lon="4.74963">
        <ele>180</ele>
        <time>2017-10-15T08:36:29Z</time>
      </trkpt>
      <trkpt lat="45.90782" lon="4.74961">
        <ele>180</ele>
        <time>2017-10-15T08:36:30Z</time>
      </trkpt>
      <trkpt lat="45.90777" lon="4.74958">
        <ele>180</ele>
        <time>2017-10-15T08:36:31Z</time>
      </trkpt>
      <trkpt lat="45.90772" lon="4.74957">
        <ele>180</ele>
        <time>2017-10-15T08:36:32Z</time>
      </trkpt>
      <trkpt lat="45.90767" lon="4.74956">
        <ele>180</ele>
        <time>2017-10-15T08:36:33Z</time>
      </trkpt>
      <trkpt lat="45.90761" lon="4.74954">
        <ele>180</ele>
        <time>2017-10-15T08:36:34Z</time>
      </trkpt>
      <trkpt lat="45.90756" lon="4.74952">
        <ele>180</ele>
        <time>2017-10-15T08:36:35Z</time>
      </trkpt>
      <trkpt lat="45.90751" lon="4.7495">
        <ele>180</ele>
        <time>2017-10-15T08:36:36Z</time>
      </trkpt>
      <trkpt lat="45.90746" lon="4.74947">
        <ele>181</ele>
        <time>2017-10-15T08:36:37Z</time>
      </trkpt>
      <trkpt lat="45.9074" lon="4.74945">
        <ele>181</ele>
        <time>2017-10-15T08:36:38Z</time>
      </trkpt>
      <trkpt lat="45.90736" lon="4.74943">
        <ele>181</ele>
        <time>2017-10-15T08:36:39Z</time>
      </trkpt>
      <trkpt lat="45.90731" lon="4.74941">
        <ele>181</ele>
        <time>2017-10-15T08:36:40Z</time>
      </trkpt>
      <trkpt lat="45.90726" lon="4.74939">
        <ele>181</ele>
        <time>2017-10-15T08:36:41Z</time>
      </trkpt>
      <trkpt lat="45.90721" lon="4.74938">
        <ele>181</ele>
        <time>2017-10-15T08:36:42Z</time>
      </trkpt>
      <trkpt lat="45.90715" lon="4.74936">
        <ele>181</ele>
        <time>2017-10-15T08:36:43Z</time>
      </trkpt>
      <trkpt lat="45.9071" lon="4.74938">
        <ele>181</ele>
        <time>2017-10-15T08:36:44Z</time>
      </trkpt>
      <trkpt lat="45.90705" lon="4.74939">
        <ele>181</ele>
        <time>2017-10-15T08:36:45Z</time>
      </trkpt>
      <trkpt lat="45.90701" lon="4.74941">
        <ele>181</ele>
        <time>2017-10-15T08:36:46Z</time>
      </trkpt>
      <trkpt lat="45.90696" lon="4.74944">
        <ele>181</ele>
        <time>2017-10-15T08:36:47Z</time>
      </trkpt>
      <trkpt lat="45.90692" lon="4.74945">
        <ele>181</ele>
        <time>2017-10-15T08:36:48Z</time>
      </trkpt>
      <trkpt lat="45.90687" lon="4.74947">
        <ele>181</ele>
        <time>2017-10-15T08:36:49Z</time>
      </trkpt>
      <trkpt lat="45.90682" lon="4.74949">
        <ele>181</ele>
        <time>2017-10-15T08:36:50Z</time>
      </trkpt>
      <trkpt lat="45.90677" lon="4.74951">
        <ele>181</ele>
        <time>2017-10-15T08:36:51Z</time>
      </trkpt>
      <trkpt lat="45.90672" lon="4.74953">
        <ele>182</ele>
        <time>2017-10-15T08:36:52Z</time>
      </trkpt>
      <trkpt lat="45.90668" lon="4.74954">
        <ele>182</ele>
        <time>2017-10-15T08:36:53Z</time>
      </trkpt>
      <trkpt lat="45.90663" lon="4.74956">
        <ele>183</ele>
        <time>2017-10-15T08:36:54Z</time>
      </trkpt>
      <trkpt lat="45.90658" lon="4.74958">
        <ele>183</ele>
        <time>2017-10-15T08:36:55Z</time>
      </trkpt>
      <trkpt lat="45.90653" lon="4.74959">
        <ele>183</ele>
        <time>2017-10-15T08:36:56Z</time>
      </trkpt>
      <trkpt lat="45.90649" lon="4.7496">
        <ele>183</ele>
        <time>2017-10-15T08:36:57Z</time>
      </trkpt>
      <trkpt lat="45.90644" lon="4.74962">
        <ele>183</ele>
        <time>2017-10-15T08:36:58Z</time>
      </trkpt>
      <trkpt lat="45.9064" lon="4.74963">
        <ele>183</ele>
        <time>2017-10-15T08:36:59Z</time>
      </trkpt>
      <trkpt lat="45.90636" lon="4.74966">
        <ele>183</ele>
        <time>2017-10-15T08:37:00Z</time>
      </trkpt>
      <trkpt lat="45.90631" lon="4.74968">
        <ele>183</ele>
        <time>2017-10-15T08:37:01Z</time>
      </trkpt>
      <trkpt lat="45.90627" lon="4.7497">
        <ele>183</ele>
        <time>2017-10-15T08:37:02Z</time>
      </trkpt>
      <trkpt lat="45.90619" lon="4.74971">
        <ele>183</ele>
        <time>2017-10-15T08:37:04Z</time>
      </trkpt>
      <trkpt lat="45.90614" lon="4.74974">
        <ele>184</ele>
        <time>2017-10-15T08:37:05Z</time>
      </trkpt>
      <trkpt lat="45.90605" lon="4.74975">
        <ele>184</ele>
        <time>2017-10-15T08:37:07Z</time>
      </trkpt>
      <trkpt lat="45.906" lon="4.74975">
        <ele>184</ele>
        <time>2017-10-15T08:37:08Z</time>
      </trkpt>
      <trkpt lat="45.90591" lon="4.74976">
        <ele>184</ele>
        <time>2017-10-15T08:37:10Z</time>
      </trkpt>
      <trkpt lat="45.90586" lon="4.74975">
        <ele>184</ele>
        <time>2017-10-15T08:37:11Z</time>
      </trkpt>
      <trkpt lat="45.90577" lon="4.74977">
        <ele>184</ele>
        <time>2017-10-15T08:37:13Z</time>
      </trkpt>
      <trkpt lat="45.90573" lon="4.74979">
        <ele>185</ele>
        <time>2017-10-15T08:37:14Z</time>
      </trkpt>
      <trkpt lat="45.90564" lon="4.7498">
        <ele>185</ele>
        <time>2017-10-15T08:37:16Z</time>
      </trkpt>
      <trkpt lat="45.9056" lon="4.74981">
        <ele>185</ele>
        <time>2017-10-15T08:37:17Z</time>
      </trkpt>
      <trkpt lat="45.90551" lon="4.74981">
        <ele>185</ele>
        <time>2017-10-15T08:37:19Z</time>
      </trkpt>
      <trkpt lat="45.90546" lon="4.74982">
        <ele>185</ele>
        <time>2017-10-15T08:37:20Z</time>
      </trkpt>
      <trkpt lat="45.90538" lon="4.74983">
        <ele>185</ele>
        <time>2017-10-15T08:37:22Z</time>
      </trkpt>
      <trkpt lat="45.90533" lon="4.74984">
        <ele>185</ele>
        <time>2017-10-15T08:37:23Z</time>
      </trkpt>
      <trkpt lat="45.90525" lon="4.74985">
        <ele>185</ele>
        <time>2017-10-15T08:37:25Z</time>
      </trkpt>
      <trkpt lat="45.9052" lon="4.74985">
        <ele>185</ele>
        <time>2017-10-15T08:37:26Z</time>
      </trkpt>
      <trkpt lat="45.90512" lon="4.74987">
        <ele>185</ele>
        <time>2017-10-15T08:37:28Z</time>
      </trkpt>
      <trkpt lat="45.90507" lon="4.74987">
        <ele>185</ele>
        <time>2017-10-15T08:37:29Z</time>
      </trkpt>
      <trkpt lat="45.90499" lon="4.7499">
        <ele>186</ele>
        <time>2017-10-15T08:37:31Z</time>
      </trkpt>
      <trkpt lat="45.90495" lon="4.7499">
        <ele>186</ele>
        <time>2017-10-15T08:37:32Z</time>
      </trkpt>
      <trkpt lat="45.90486" lon="4.74991">
        <ele>186</ele>
        <time>2017-10-15T08:37:34Z</time>
      </trkpt>
      <trkpt lat="45.90481" lon="4.74991">
        <ele>186</ele>
        <time>2017-10-15T08:37:35Z</time>
      </trkpt>
      <trkpt lat="45.90476" lon="4.74991">
        <ele>186</ele>
        <time>2017-10-15T08:37:36Z</time>
      </trkpt>
      <trkpt lat="45.90472" lon="4.74991">
        <ele>186</ele>
        <time>2017-10-15T08:37:37Z</time>
      </trkpt>
      <trkpt lat="45.90463" lon="4.74993">
        <ele>186</ele>
        <time>2017-10-15T08:37:39Z</time>
      </trkpt>
      <trkpt lat="45.90459" lon="4.74994">
        <ele>186</ele>
        <time>2017-10-15T08:37:40Z</time>
      </trkpt>
      <trkpt lat="45.90455" lon="4.74994">
        <ele>186</ele>
        <time>2017-10-15T08:37:41Z</time>
      </trkpt>
      <trkpt lat="45.9045" lon="4.74995">
        <ele>186</ele>
        <time>2017-10-15T08:37:42Z</time>
      </trkpt>
      <trkpt lat="45.90441" lon="4.74997">
        <ele>186</ele>
        <time>2017-10-15T08:37:44Z</time>
      </trkpt>
      <trkpt lat="45.90437" lon="4.74998">
        <ele>187</ele>
        <time>2017-10-15T08:37:45Z</time>
      </trkpt>
      <trkpt lat="45.90429" lon="4.74999">
        <ele>187</ele>
        <time>2017-10-15T08:37:47Z</time>
      </trkpt>
      <trkpt lat="45.90424" lon="4.75">
        <ele>188</ele>
        <time>2017-10-15T08:37:48Z</time>
      </trkpt>
      <trkpt lat="45.90416" lon="4.75003">
        <ele>188</ele>
        <time>2017-10-15T08:37:50Z</time>
      </trkpt>
      <trkpt lat="45.90412" lon="4.75005">
        <ele>188</ele>
        <time>2017-10-15T08:37:51Z</time>
      </trkpt>
      <trkpt lat="45.90408" lon="4.75006">
        <ele>188</ele>
        <time>2017-10-15T08:37:52Z</time>
      </trkpt>
      <trkpt lat="45.90403" lon="4.75008">
        <ele>188</ele>
        <time>2017-10-15T08:37:53Z</time>
      </trkpt>
      <trkpt lat="45.90398" lon="4.75009">
        <ele>188</ele>
        <time>2017-10-15T08:37:54Z</time>
      </trkpt>
      <trkpt lat="45.90394" lon="4.7501">
        <ele>188</ele>
        <time>2017-10-15T08:37:55Z</time>
      </trkpt>
      <trkpt lat="45.90389" lon="4.75012">
        <ele>188</ele>
        <time>2017-10-15T08:37:56Z</time>
      </trkpt>
      <trkpt lat="45.90385" lon="4.75013">
        <ele>188</ele>
        <time>2017-10-15T08:37:57Z</time>
      </trkpt>
      <trkpt lat="45.9038" lon="4.75014">
        <ele>188</ele>
        <time>2017-10-15T08:37:58Z</time>
      </trkpt>
      <trkpt lat="45.90375" lon="4.75015">
        <ele>188</ele>
        <time>2017-10-15T08:37:59Z</time>
      </trkpt>
      <trkpt lat="45.90371" lon="4.75016">
        <ele>188</ele>
        <time>2017-10-15T08:38:00Z</time>
      </trkpt>
      <trkpt lat="45.90366" lon="4.75017">
        <ele>188</ele>
        <time>2017-10-15T08:38:01Z</time>
      </trkpt>
      <trkpt lat="45.90358" lon="4.7502">
        <ele>188</ele>
        <time>2017-10-15T08:38:03Z</time>
      </trkpt>
      <trkpt lat="45.90353" lon="4.75021">
        <ele>188</ele>
        <time>2017-10-15T08:38:04Z</time>
      </trkpt>
      <trkpt lat="45.90348" lon="4.75023">
        <ele>188</ele>
        <time>2017-10-15T08:38:05Z</time>
      </trkpt>
      <trkpt lat="45.90344" lon="4.75025">
        <ele>188</ele>
        <time>2017-10-15T08:38:06Z</time>
      </trkpt>
      <trkpt lat="45.90335" lon="4.75027">
        <ele>188</ele>
        <time>2017-10-15T08:38:08Z</time>
      </trkpt>
      <trkpt lat="45.90331" lon="4.75028">
        <ele>189</ele>
        <time>2017-10-15T08:38:09Z</time>
      </trkpt>
      <trkpt lat="45.90322" lon="4.75029">
        <ele>189</ele>
        <time>2017-10-15T08:38:11Z</time>
      </trkpt>
      <trkpt lat="45.90318" lon="4.75031">
        <ele>189</ele>
        <time>2017-10-15T08:38:12Z</time>
      </trkpt>
      <trkpt lat="45.90313" lon="4.75032">
        <ele>189</ele>
        <time>2017-10-15T08:38:13Z</time>
      </trkpt>
      <trkpt lat="45.90309" lon="4.75033">
        <ele>189</ele>
        <time>2017-10-15T08:38:14Z</time>
      </trkpt>
      <trkpt lat="45.90301" lon="4.75037">
        <ele>189</ele>
        <time>2017-10-15T08:38:16Z</time>
      </trkpt>
      <trkpt lat="45.90298" lon="4.75038">
        <ele>189</ele>
        <time>2017-10-15T08:38:17Z</time>
      </trkpt>
      <trkpt lat="45.90289" lon="4.7504">
        <ele>190</ele>
        <time>2017-10-15T08:38:19Z</time>
      </trkpt>
      <trkpt lat="45.90285" lon="4.75041">
        <ele>190</ele>
        <time>2017-10-15T08:38:20Z</time>
      </trkpt>
      <trkpt lat="45.90277" lon="4.75043">
        <ele>190</ele>
        <time>2017-10-15T08:38:22Z</time>
      </trkpt>
      <trkpt lat="45.90273" lon="4.75044">
        <ele>190</ele>
        <time>2017-10-15T08:38:23Z</time>
      </trkpt>
      <trkpt lat="45.90264" lon="4.75047">
        <ele>190</ele>
        <time>2017-10-15T08:38:25Z</time>
      </trkpt>
      <trkpt lat="45.9026" lon="4.75048">
        <ele>190</ele>
        <time>2017-10-15T08:38:26Z</time>
      </trkpt>
      <trkpt lat="45.90251" lon="4.75051">
        <ele>190</ele>
        <time>2017-10-15T08:38:28Z</time>
      </trkpt>
      <trkpt lat="45.90247" lon="4.75052">
        <ele>191</ele>
        <time>2017-10-15T08:38:29Z</time>
      </trkpt>
      <trkpt lat="45.9024" lon="4.75054">
        <ele>191</ele>
        <time>2017-10-15T08:38:31Z</time>
      </trkpt>
      <trkpt lat="45.90236" lon="4.75055">
        <ele>191</ele>
        <time>2017-10-15T08:38:32Z</time>
      </trkpt>
      <trkpt lat="45.90227" lon="4.75057">
        <ele>191</ele>
        <time>2017-10-15T08:38:34Z</time>
      </trkpt>
      <trkpt lat="45.90223" lon="4.75058">
        <ele>191</ele>
        <time>2017-10-15T08:38:35Z</time>
      </trkpt>
      <trkpt lat="45.90215" lon="4.75061">
        <ele>191</ele>
        <time>2017-10-15T08:38:37Z</time>
      </trkpt>
      <trkpt lat="45.9021" lon="4.75062">
        <ele>191</ele>
        <time>2017-10-15T08:38:38Z</time>
      </trkpt>
      <trkpt lat="45.90202" lon="4.75063">
        <ele>191</ele>
        <time>2017-10-15T08:38:40Z</time>
      </trkpt>
      <trkpt lat="45.90198" lon="4.75064">
        <ele>191</ele>
        <time>2017-10-15T08:38:41Z</time>
      </trkpt>
      <trkpt lat="45.9019" lon="4.75066">
        <ele>191</ele>
        <time>2017-10-15T08:38:43Z</time>
      </trkpt>
      <trkpt lat="45.90186" lon="4.75068">
        <ele>191</ele>
        <time>2017-10-15T08:38:44Z</time>
      </trkpt>
      <trkpt lat="45.90178" lon="4.7507">
        <ele>191</ele>
        <time>2017-10-15T08:38:46Z</time>
      </trkpt>
      <trkpt lat="45.90174" lon="4.75073">
        <ele>191</ele>
        <time>2017-10-15T08:38:47Z</time>
      </trkpt>
      <trkpt lat="45.90167" lon="4.75079">
        <ele>191</ele>
        <time>2017-10-15T08:38:49Z</time>
      </trkpt>
      <trkpt lat="45.90164" lon="4.75083">
        <ele>191</ele>
        <time>2017-10-15T08:38:50Z</time>
      </trkpt>
      <trkpt lat="45.90156" lon="4.75085">
        <ele>192</ele>
        <time>2017-10-15T08:38:52Z</time>
      </trkpt>
      <trkpt lat="45.90152" lon="4.75083">
        <ele>191</ele>
        <time>2017-10-15T08:38:53Z</time>
      </trkpt>
      <trkpt lat="45.90144" lon="4.75077">
        <ele>192</ele>
        <time>2017-10-15T08:38:55Z</time>
      </trkpt>
      <trkpt lat="45.90141" lon="4.75073">
        <ele>192</ele>
        <time>2017-10-15T08:38:56Z</time>
      </trkpt>
      <trkpt lat="45.90137" lon="4.75067">
        <ele>192</ele>
        <time>2017-10-15T08:38:57Z</time>
      </trkpt>
      <trkpt lat="45.90133" lon="4.75064">
        <ele>192</ele>
        <time>2017-10-15T08:38:58Z</time>
      </trkpt>
      <trkpt lat="45.90126" lon="4.75058">
        <ele>192</ele>
        <time>2017-10-15T08:39:00Z</time>
      </trkpt>
      <trkpt lat="45.90122" lon="4.75056">
        <ele>192</ele>
        <time>2017-10-15T08:39:01Z</time>
      </trkpt>
      <trkpt lat="45.90117" lon="4.75054">
        <ele>192</ele>
        <time>2017-10-15T08:39:02Z</time>
      </trkpt>
      <trkpt lat="45.90113" lon="4.75051">
        <ele>192</ele>
        <time>2017-10-15T08:39:03Z</time>
      </trkpt>
      <trkpt lat="45.90107" lon="4.75048">
        <ele>192</ele>
        <time>2017-10-15T08:39:04Z</time>
      </trkpt>
      <trkpt lat="45.90103" lon="4.75047">
        <ele>192</ele>
        <time>2017-10-15T08:39:05Z</time>
      </trkpt>
      <trkpt lat="45.90098" lon="4.75044">
        <ele>192</ele>
        <time>2017-10-15T08:39:06Z</time>
      </trkpt>
      <trkpt lat="45.90094" lon="4.75042">
        <ele>192</ele>
        <time>2017-10-15T08:39:07Z</time>
      </trkpt>
      <trkpt lat="45.90089" lon="4.7504">
        <ele>192</ele>
        <time>2017-10-15T08:39:08Z</time>
      </trkpt>
      <trkpt lat="45.90085" lon="4.7504">
        <ele>192</ele>
        <time>2017-10-15T08:39:09Z</time>
      </trkpt>
      <trkpt lat="45.9008" lon="4.75037">
        <ele>193</ele>
        <time>2017-10-15T08:39:10Z</time>
      </trkpt>
      <trkpt lat="45.90076" lon="4.75035">
        <ele>193</ele>
        <time>2017-10-15T08:39:11Z</time>
      </trkpt>
      <trkpt lat="45.90072" lon="4.75033">
        <ele>193</ele>
        <time>2017-10-15T08:39:12Z</time>
      </trkpt>
      <trkpt lat="45.90066" lon="4.7503">
        <ele>193</ele>
        <time>2017-10-15T08:39:13Z</time>
      </trkpt>
      <trkpt lat="45.90058" lon="4.75027">
        <ele>193</ele>
        <time>2017-10-15T08:39:15Z</time>
      </trkpt>
      <trkpt lat="45.90054" lon="4.75026">
        <ele>193</ele>
        <time>2017-10-15T08:39:16Z</time>
      </trkpt>
      <trkpt lat="45.90047" lon="4.75023">
        <ele>193</ele>
        <time>2017-10-15T08:39:18Z</time>
      </trkpt>
      <trkpt lat="45.90043" lon="4.75022">
        <ele>193</ele>
        <time>2017-10-15T08:39:19Z</time>
      </trkpt>
      <trkpt lat="45.90038" lon="4.7502">
        <ele>193</ele>
        <time>2017-10-15T08:39:20Z</time>
      </trkpt>
      <trkpt lat="45.90034" lon="4.75019">
        <ele>193</ele>
        <time>2017-10-15T08:39:21Z</time>
      </trkpt>
      <trkpt lat="45.90029" lon="4.75017">
        <ele>193</ele>
        <time>2017-10-15T08:39:22Z</time>
      </trkpt>
      <trkpt lat="45.90025" lon="4.75016">
        <ele>193</ele>
        <time>2017-10-15T08:39:23Z</time>
      </trkpt>
      <trkpt lat="45.90016" lon="4.75013">
        <ele>193</ele>
        <time>2017-10-15T08:39:25Z</time>
      </trkpt>
      <trkpt lat="45.90011" lon="4.75011">
        <ele>193</ele>
        <time>2017-10-15T08:39:26Z</time>
      </trkpt>
      <trkpt lat="45.90006" lon="4.75011">
        <ele>193</ele>
        <time>2017-10-15T08:39:27Z</time>
      </trkpt>
      <trkpt lat="45.90001" lon="4.75009">
        <ele>192</ele>
        <time>2017-10-15T08:39:28Z</time>
      </trkpt>
      <trkpt lat="45.89996" lon="4.75008">
        <ele>193</ele>
        <time>2017-10-15T08:39:29Z</time>
      </trkpt>
      <trkpt lat="45.89991" lon="4.75006">
        <ele>193</ele>
        <time>2017-10-15T08:39:30Z</time>
      </trkpt>
      <trkpt lat="45.89987" lon="4.75005">
        <ele>193</ele>
        <time>2017-10-15T08:39:31Z</time>
      </trkpt>
      <trkpt lat="45.89982" lon="4.75004">
        <ele>193</ele>
        <time>2017-10-15T08:39:32Z</time>
      </trkpt>
      <trkpt lat="45.89977" lon="4.75003">
        <ele>193</ele>
        <time>2017-10-15T08:39:33Z</time>
      </trkpt>
      <trkpt lat="45.89972" lon="4.75002">
        <ele>193</ele>
        <time>2017-10-15T08:39:34Z</time>
      </trkpt>
      <trkpt lat="45.89968" lon="4.75001">
        <ele>193</ele>
        <time>2017-10-15T08:39:35Z</time>
      </trkpt>
      <trkpt lat="45.89963" lon="4.74999">
        <ele>193</ele>
        <time>2017-10-15T08:39:36Z</time>
      </trkpt>
      <trkpt lat="45.89959" lon="4.74997">
        <ele>193</ele>
        <time>2017-10-15T08:39:37Z</time>
      </trkpt>
      <trkpt lat="45.89954" lon="4.74995">
        <ele>193</ele>
        <time>2017-10-15T08:39:38Z</time>
      </trkpt>
      <trkpt lat="45.89946" lon="4.74993">
        <ele>193</ele>
        <time>2017-10-15T08:39:39Z</time>
      </trkpt>
      <trkpt lat="45.89942" lon="4.74992">
        <ele>193</ele>
        <time>2017-10-15T08:39:40Z</time>
      </trkpt>
      <trkpt lat="45.89938" lon="4.7499">
        <ele>193</ele>
        <time>2017-10-15T08:39:41Z</time>
      </trkpt>
      <trkpt lat="45.89933" lon="4.7499">
        <ele>193</ele>
        <time>2017-10-15T08:39:42Z</time>
      </trkpt>
      <trkpt lat="45.89928" lon="4.74988">
        <ele>193</ele>
        <time>2017-10-15T08:39:43Z</time>
      </trkpt>
      <trkpt lat="45.89923" lon="4.74985">
        <ele>193</ele>
        <time>2017-10-15T08:39:44Z</time>
      </trkpt>
      <trkpt lat="45.89918" lon="4.74985">
        <ele>193</ele>
        <time>2017-10-15T08:39:45Z</time>
      </trkpt>
      <trkpt lat="45.89913" lon="4.74984">
        <ele>194</ele>
        <time>2017-10-15T08:39:46Z</time>
      </trkpt>
      <trkpt lat="45.89908" lon="4.74983">
        <ele>194</ele>
        <time>2017-10-15T08:39:47Z</time>
      </trkpt>
      <trkpt lat="45.89903" lon="4.74982">
        <ele>194</ele>
        <time>2017-10-15T08:39:48Z</time>
      </trkpt>
      <trkpt lat="45.89898" lon="4.7498">
        <ele>194</ele>
        <time>2017-10-15T08:39:49Z</time>
      </trkpt>
      <trkpt lat="45.89893" lon="4.74979">
        <ele>194</ele>
        <time>2017-10-15T08:39:50Z</time>
      </trkpt>
      <trkpt lat="45.89885" lon="4.74977">
        <ele>194</ele>
        <time>2017-10-15T08:39:52Z</time>
      </trkpt>
      <trkpt lat="45.8988" lon="4.74976">
        <ele>194</ele>
        <time>2017-10-15T08:39:53Z</time>
      </trkpt>
      <trkpt lat="45.89875" lon="4.74974">
        <ele>194</ele>
        <time>2017-10-15T08:39:54Z</time>
      </trkpt>
      <trkpt lat="45.8987" lon="4.74973">
        <ele>194</ele>
        <time>2017-10-15T08:39:55Z</time>
      </trkpt>
      <trkpt lat="45.89865" lon="4.74971">
        <ele>194</ele>
        <time>2017-10-15T08:39:56Z</time>
      </trkpt>
      <trkpt lat="45.8986" lon="4.7497">
        <ele>194</ele>
        <time>2017-10-15T08:39:57Z</time>
      </trkpt>
      <trkpt lat="45.89855" lon="4.74969">
        <ele>194</ele>
        <time>2017-10-15T08:39:58Z</time>
      </trkpt>
      <trkpt lat="45.89849" lon="4.74968">
        <ele>194</ele>
        <time>2017-10-15T08:39:59Z</time>
      </trkpt>
      <trkpt lat="45.89844" lon="4.74967">
        <ele>194</ele>
        <time>2017-10-15T08:40:00Z</time>
      </trkpt>
      <trkpt lat="45.89838" lon="4.74966">
        <ele>194</ele>
        <time>2017-10-15T08:40:01Z</time>
      </trkpt>
      <trkpt lat="45.89832" lon="4.74965">
        <ele>194</ele>
        <time>2017-10-15T08:40:02Z</time>
      </trkpt>
      <trkpt lat="45.89827" lon="4.74964">
        <ele>194</ele>
        <time>2017-10-15T08:40:03Z</time>
      </trkpt>
      <trkpt lat="45.89822" lon="4.74962">
        <ele>195</ele>
        <time>2017-10-15T08:40:04Z</time>
      </trkpt>
      <trkpt lat="45.89816" lon="4.74959">
        <ele>195</ele>
        <time>2017-10-15T08:40:05Z</time>
      </trkpt>
      <trkpt lat="45.89811" lon="4.74958">
        <ele>195</ele>
        <time>2017-10-15T08:40:06Z</time>
      </trkpt>
      <trkpt lat="45.89807" lon="4.74957">
        <ele>195</ele>
        <time>2017-10-15T08:40:07Z</time>
      </trkpt>
      <trkpt lat="45.89801" lon="4.74955">
        <ele>195</ele>
        <time>2017-10-15T08:40:08Z</time>
      </trkpt>
      <trkpt lat="45.89797" lon="4.74952">
        <ele>195</ele>
        <time>2017-10-15T08:40:09Z</time>
      </trkpt>
      <trkpt lat="45.89792" lon="4.7495">
        <ele>195</ele>
        <time>2017-10-15T08:40:10Z</time>
      </trkpt>
      <trkpt lat="45.89787" lon="4.74948">
        <ele>195</ele>
        <time>2017-10-15T08:40:11Z</time>
      </trkpt>
      <trkpt lat="45.89782" lon="4.74946">
        <ele>195</ele>
        <time>2017-10-15T08:40:12Z</time>
      </trkpt>
      <trkpt lat="45.89777" lon="4.74943">
        <ele>195</ele>
        <time>2017-10-15T08:40:13Z</time>
      </trkpt>
      <trkpt lat="45.8977" lon="4.74942">
        <ele>195</ele>
        <time>2017-10-15T08:40:14Z</time>
      </trkpt>
      <trkpt lat="45.89765" lon="4.74939">
        <ele>195</ele>
        <time>2017-10-15T08:40:15Z</time>
      </trkpt>
      <trkpt lat="45.89759" lon="4.74936">
        <ele>195</ele>
        <time>2017-10-15T08:40:16Z</time>
      </trkpt>
      <trkpt lat="45.89753" lon="4.74934">
        <ele>195</ele>
        <time>2017-10-15T08:40:17Z</time>
      </trkpt>
      <trkpt lat="45.89747" lon="4.74931">
        <ele>196</ele>
        <time>2017-10-15T08:40:18Z</time>
      </trkpt>
      <trkpt lat="45.89741" lon="4.74929">
        <ele>196</ele>
        <time>2017-10-15T08:40:19Z</time>
      </trkpt>
      <trkpt lat="45.89736" lon="4.74926">
        <ele>196</ele>
        <time>2017-10-15T08:40:20Z</time>
      </trkpt>
      <trkpt lat="45.8973" lon="4.74923">
        <ele>196</ele>
        <time>2017-10-15T08:40:21Z</time>
      </trkpt>
      <trkpt lat="45.89724" lon="4.7492">
        <ele>196</ele>
        <time>2017-10-15T08:40:22Z</time>
      </trkpt>
      <trkpt lat="45.89718" lon="4.74918">
        <ele>196</ele>
        <time>2017-10-15T08:40:23Z</time>
      </trkpt>
      <trkpt lat="45.89712" lon="4.74916">
        <ele>195</ele>
        <time>2017-10-15T08:40:24Z</time>
      </trkpt>
      <trkpt lat="45.89707" lon="4.74916">
        <ele>195</ele>
        <time>2017-10-15T08:40:25Z</time>
      </trkpt>
      <trkpt lat="45.89701" lon="4.74916">
        <ele>195</ele>
        <time>2017-10-15T08:40:26Z</time>
      </trkpt>
      <trkpt lat="45.89696" lon="4.74915">
        <ele>195</ele>
        <time>2017-10-15T08:40:27Z</time>
      </trkpt>
      <trkpt lat="45.89691" lon="4.74916">
        <ele>195</ele>
        <time>2017-10-15T08:40:28Z</time>
      </trkpt>
      <trkpt lat="45.89687" lon="4.74915">
        <ele>195</ele>
        <time>2017-10-15T08:40:29Z</time>
      </trkpt>
      <trkpt lat="45.89682" lon="4.74914">
        <ele>195</ele>
        <time>2017-10-15T08:40:30Z</time>
      </trkpt>
      <trkpt lat="45.89677" lon="4.74914">
        <ele>196</ele>
        <time>2017-10-15T08:40:31Z</time>
      </trkpt>
      <trkpt lat="45.89672" lon="4.74915">
        <ele>196</ele>
        <time>2017-10-15T08:40:32Z</time>
      </trkpt>
      <trkpt lat="45.89666" lon="4.74915">
        <ele>196</ele>
        <time>2017-10-15T08:40:33Z</time>
      </trkpt>
      <trkpt lat="45.89661" lon="4.74914">
        <ele>196</ele>
        <time>2017-10-15T08:40:34Z</time>
      </trkpt>
      <trkpt lat="45.89655" lon="4.74913">
        <ele>196</ele>
        <time>2017-10-15T08:40:35Z</time>
      </trkpt>
      <trkpt lat="45.89649" lon="4.74913">
        <ele>196</ele>
        <time>2017-10-15T08:40:36Z</time>
      </trkpt>
      <trkpt lat="45.89643" lon="4.74913">
        <ele>196</ele>
        <time>2017-10-15T08:40:37Z</time>
      </trkpt>
      <trkpt lat="45.89638" lon="4.74913">
        <ele>196</ele>
        <time>2017-10-15T08:40:38Z</time>
      </trkpt>
      <trkpt lat="45.89631" lon="4.74912">
        <ele>196</ele>
        <time>2017-10-15T08:40:39Z</time>
      </trkpt>
      <trkpt lat="45.89626" lon="4.74911">
        <ele>197</ele>
        <time>2017-10-15T08:40:40Z</time>
      </trkpt>
      <trkpt lat="45.89621" lon="4.74911">
        <ele>197</ele>
        <time>2017-10-15T08:40:41Z</time>
      </trkpt>
      <trkpt lat="45.89612" lon="4.74909">
        <ele>197</ele>
        <time>2017-10-15T08:40:43Z</time>
      </trkpt>
      <trkpt lat="45.89607" lon="4.74908">
        <ele>197</ele>
        <time>2017-10-15T08:40:44Z</time>
      </trkpt>
      <trkpt lat="45.89602" lon="4.74907">
        <ele>197</ele>
        <time>2017-10-15T08:40:45Z</time>
      </trkpt>
      <trkpt lat="45.89597" lon="4.74906">
        <ele>197</ele>
        <time>2017-10-15T08:40:46Z</time>
      </trkpt>
      <trkpt lat="45.89592" lon="4.74906">
        <ele>197</ele>
        <time>2017-10-15T08:40:47Z</time>
      </trkpt>
      <trkpt lat="45.89586" lon="4.74905">
        <ele>197</ele>
        <time>2017-10-15T08:40:48Z</time>
      </trkpt>
      <trkpt lat="45.8958" lon="4.74904">
        <ele>198</ele>
        <time>2017-10-15T08:40:49Z</time>
      </trkpt>
      <trkpt lat="45.89575" lon="4.74903">
        <ele>198</ele>
        <time>2017-10-15T08:40:50Z</time>
      </trkpt>
      <trkpt lat="45.8957" lon="4.74902">
        <ele>198</ele>
        <time>2017-10-15T08:40:51Z</time>
      </trkpt>
      <trkpt lat="45.89564" lon="4.749">
        <ele>198</ele>
        <time>2017-10-15T08:40:52Z</time>
      </trkpt>
      <trkpt lat="45.89556" lon="4.74898">
        <ele>198</ele>
        <time>2017-10-15T08:40:54Z</time>
      </trkpt>
      <trkpt lat="45.89551" lon="4.74897">
        <ele>198</ele>
        <time>2017-10-15T08:40:55Z</time>
      </trkpt>
      <trkpt lat="45.89546" lon="4.74896">
        <ele>198</ele>
        <time>2017-10-15T08:40:56Z</time>
      </trkpt>
      <trkpt lat="45.89541" lon="4.74896">
        <ele>198</ele>
        <time>2017-10-15T08:40:57Z</time>
      </trkpt>
      <trkpt lat="45.89536" lon="4.74895">
        <ele>198</ele>
        <time>2017-10-15T08:40:58Z</time>
      </trkpt>
      <trkpt lat="45.89532" lon="4.74895">
        <ele>198</ele>
        <time>2017-10-15T08:40:59Z</time>
      </trkpt>
      <trkpt lat="45.89527" lon="4.74895">
        <ele>198</ele>
        <time>2017-10-15T08:41:00Z</time>
      </trkpt>
      <trkpt lat="45.89522" lon="4.74894">
        <ele>198</ele>
        <time>2017-10-15T08:41:01Z</time>
      </trkpt>
      <trkpt lat="45.89517" lon="4.74893">
        <ele>198</ele>
        <time>2017-10-15T08:41:02Z</time>
      </trkpt>
      <trkpt lat="45.89512" lon="4.74892">
        <ele>198</ele>
        <time>2017-10-15T08:41:03Z</time>
      </trkpt>
      <trkpt lat="45.89507" lon="4.74892">
        <ele>198</ele>
        <time>2017-10-15T08:41:04Z</time>
      </trkpt>
      <trkpt lat="45.89502" lon="4.74891">
        <ele>198</ele>
        <time>2017-10-15T08:41:05Z</time>
      </trkpt>
      <trkpt lat="45.89494" lon="4.74889">
        <ele>199</ele>
        <time>2017-10-15T08:41:07Z</time>
      </trkpt>
      <trkpt lat="45.8949" lon="4.74888">
        <ele>199</ele>
        <time>2017-10-15T08:41:08Z</time>
      </trkpt>
      <trkpt lat="45.89481" lon="4.74886">
        <ele>199</ele>
        <time>2017-10-15T08:41:10Z</time>
      </trkpt>
      <trkpt lat="45.89477" lon="4.74886">
        <ele>199</ele>
        <time>2017-10-15T08:41:11Z</time>
      </trkpt>
      <trkpt lat="45.89468" lon="4.74885">
        <ele>199</ele>
        <time>2017-10-15T08:41:13Z</time>
      </trkpt>
      <trkpt lat="45.89464" lon="4.74884">
        <ele>199</ele>
        <time>2017-10-15T08:41:14Z</time>
      </trkpt>
      <trkpt lat="45.89455" lon="4.74883">
        <ele>199</ele>
        <time>2017-10-15T08:41:16Z</time>
      </trkpt>
      <trkpt lat="45.89452" lon="4.74883">
        <ele>199</ele>
        <time>2017-10-15T08:41:17Z</time>
      </trkpt>
      <trkpt lat="45.89443" lon="4.74881">
        <ele>199</ele>
        <time>2017-10-15T08:41:19Z</time>
      </trkpt>
      <trkpt lat="45.89439" lon="4.74881">
        <ele>199</ele>
        <time>2017-10-15T08:41:20Z</time>
      </trkpt>
      <trkpt lat="45.8943" lon="4.74881">
        <ele>199</ele>
        <time>2017-10-15T08:41:22Z</time>
      </trkpt>
      <trkpt lat="45.89425" lon="4.7488">
        <ele>199</ele>
        <time>2017-10-15T08:41:23Z</time>
      </trkpt>
      <trkpt lat="45.89421" lon="4.7488">
        <ele>199</ele>
        <time>2017-10-15T08:41:24Z</time>
      </trkpt>
      <trkpt lat="45.89415" lon="4.7488">
        <ele>199</ele>
        <time>2017-10-15T08:41:25Z</time>
      </trkpt>
      <trkpt lat="45.8941" lon="4.74878">
        <ele>199</ele>
        <time>2017-10-15T08:41:26Z</time>
      </trkpt>
      <trkpt lat="45.89404" lon="4.74877">
        <ele>199</ele>
        <time>2017-10-15T08:41:27Z</time>
      </trkpt>
      <trkpt lat="45.89399" lon="4.74877">
        <ele>199</ele>
        <time>2017-10-15T08:41:28Z</time>
      </trkpt>
      <trkpt lat="45.89394" lon="4.74876">
        <ele>199</ele>
        <time>2017-10-15T08:41:29Z</time>
      </trkpt>
      <trkpt lat="45.89389" lon="4.74875">
        <ele>199</ele>
        <time>2017-10-15T08:41:30Z</time>
      </trkpt>
      <trkpt lat="45.89384" lon="4.74874">
        <ele>199</ele>
        <time>2017-10-15T08:41:31Z</time>
      </trkpt>
      <trkpt lat="45.89379" lon="4.74873">
        <ele>199</ele>
        <time>2017-10-15T08:41:32Z</time>
      </trkpt>
      <trkpt lat="45.89372" lon="4.74872">
        <ele>199</ele>
        <time>2017-10-15T08:41:33Z</time>
      </trkpt>
      <trkpt lat="45.89367" lon="4.74871">
        <ele>199</ele>
        <time>2017-10-15T08:41:34Z</time>
      </trkpt>
      <trkpt lat="45.89361" lon="4.74871">
        <ele>199</ele>
        <time>2017-10-15T08:41:35Z</time>
      </trkpt>
      <trkpt lat="45.89355" lon="4.7487">
        <ele>199</ele>
        <time>2017-10-15T08:41:36Z</time>
      </trkpt>
      <trkpt lat="45.8935" lon="4.7487">
        <ele>199</ele>
        <time>2017-10-15T08:41:37Z</time>
      </trkpt>
      <trkpt lat="45.89345" lon="4.74869">
        <ele>199</ele>
        <time>2017-10-15T08:41:38Z</time>
      </trkpt>
      <trkpt lat="45.89339" lon="4.74869">
        <ele>199</ele>
        <time>2017-10-15T08:41:39Z</time>
      </trkpt>
      <trkpt lat="45.89333" lon="4.74868">
        <ele>198</ele>
        <time>2017-10-15T08:41:40Z</time>
      </trkpt>
      <trkpt lat="45.89329" lon="4.74868">
        <ele>198</ele>
        <time>2017-10-15T08:41:41Z</time>
      </trkpt>
      <trkpt lat="45.89323" lon="4.74867">
        <ele>198</ele>
        <time>2017-10-15T08:41:42Z</time>
      </trkpt>
      <trkpt lat="45.89317" lon="4.74867">
        <ele>198</ele>
        <time>2017-10-15T08:41:43Z</time>
      </trkpt>
      <trkpt lat="45.89311" lon="4.74865">
        <ele>198</ele>
        <time>2017-10-15T08:41:44Z</time>
      </trkpt>
      <trkpt lat="45.89306" lon="4.74866">
        <ele>198</ele>
        <time>2017-10-15T08:41:45Z</time>
      </trkpt>
      <trkpt lat="45.89301" lon="4.74866">
        <ele>198</ele>
        <time>2017-10-15T08:41:46Z</time>
      </trkpt>
      <trkpt lat="45.89296" lon="4.74867">
        <ele>198</ele>
        <time>2017-10-15T08:41:47Z</time>
      </trkpt>
      <trkpt lat="45.8929" lon="4.74866">
        <ele>198</ele>
        <time>2017-10-15T08:41:48Z</time>
      </trkpt>
      <trkpt lat="45.89283" lon="4.74866">
        <ele>198</ele>
        <time>2017-10-15T08:41:49Z</time>
      </trkpt>
      <trkpt lat="45.89278" lon="4.74865">
        <ele>198</ele>
        <time>2017-10-15T08:41:50Z</time>
      </trkpt>
      <trkpt lat="45.89271" lon="4.74864">
        <ele>198</ele>
        <time>2017-10-15T08:41:51Z</time>
      </trkpt>
      <trkpt lat="45.89265" lon="4.74863">
        <ele>198</ele>
        <time>2017-10-15T08:41:52Z</time>
      </trkpt>
      <trkpt lat="45.89259" lon="4.74862">
        <ele>198</ele>
        <time>2017-10-15T08:41:53Z</time>
      </trkpt>
      <trkpt lat="45.89254" lon="4.74861">
        <ele>198</ele>
        <time>2017-10-15T08:41:54Z</time>
      </trkpt>
      <trkpt lat="45.89248" lon="4.7486">
        <ele>198</ele>
        <time>2017-10-15T08:41:55Z</time>
      </trkpt>
      <trkpt lat="45.89242" lon="4.7486">
        <ele>198</ele>
        <time>2017-10-15T08:41:56Z</time>
      </trkpt>
      <trkpt lat="45.89236" lon="4.7486">
        <ele>198</ele>
        <time>2017-10-15T08:41:57Z</time>
      </trkpt>
      <trkpt lat="45.89232" lon="4.7486">
        <ele>198</ele>
        <time>2017-10-15T08:41:58Z</time>
      </trkpt>
      <trkpt lat="45.89227" lon="4.7486">
        <ele>198</ele>
        <time>2017-10-15T08:41:59Z</time>
      </trkpt>
      <trkpt lat="45.89222" lon="4.74858">
        <ele>198</ele>
        <time>2017-10-15T08:42:00Z</time>
      </trkpt>
      <trkpt lat="45.89217" lon="4.74857">
        <ele>198</ele>
        <time>2017-10-15T08:42:01Z</time>
      </trkpt>
      <trkpt lat="45.89208" lon="4.74858">
        <ele>198</ele>
        <time>2017-10-15T08:42:03Z</time>
      </trkpt>
      <trkpt lat="45.89204" lon="4.74858">
        <ele>198</ele>
        <time>2017-10-15T08:42:04Z</time>
      </trkpt>
      <trkpt lat="45.89198" lon="4.74858">
        <ele>198</ele>
        <time>2017-10-15T08:42:05Z</time>
      </trkpt>
      <trkpt lat="45.89194" lon="4.74858">
        <ele>198</ele>
        <time>2017-10-15T08:42:06Z</time>
      </trkpt>
      <trkpt lat="45.89189" lon="4.74858">
        <ele>198</ele>
        <time>2017-10-15T08:42:07Z</time>
      </trkpt>
      <trkpt lat="45.89184" lon="4.74859">
        <ele>198</ele>
        <time>2017-10-15T08:42:08Z</time>
      </trkpt>
      <trkpt lat="45.89176" lon="4.7486">
        <ele>198</ele>
        <time>2017-10-15T08:42:10Z</time>
      </trkpt>
      <trkpt lat="45.89172" lon="4.7486">
        <ele>198</ele>
        <time>2017-10-15T08:42:11Z</time>
      </trkpt>
      <trkpt lat="45.89166" lon="4.7486">
        <ele>199</ele>
        <time>2017-10-15T08:42:12Z</time>
      </trkpt>
      <trkpt lat="45.89161" lon="4.7486">
        <ele>199</ele>
        <time>2017-10-15T08:42:13Z</time>
      </trkpt>
      <trkpt lat="45.89153" lon="4.74861">
        <ele>199</ele>
        <time>2017-10-15T08:42:15Z</time>
      </trkpt>
      <trkpt lat="45.89148" lon="4.74862">
        <ele>199</ele>
        <time>2017-10-15T08:42:16Z</time>
      </trkpt>
      <trkpt lat="45.89139" lon="4.74863">
        <ele>199</ele>
        <time>2017-10-15T08:42:18Z</time>
      </trkpt>
      <trkpt lat="45.89135" lon="4.74864">
        <ele>199</ele>
        <time>2017-10-15T08:42:19Z</time>
      </trkpt>
      <trkpt lat="45.8913" lon="4.74863">
        <ele>199</ele>
        <time>2017-10-15T08:42:20Z</time>
      </trkpt>
      <trkpt lat="45.89125" lon="4.74862">
        <ele>199</ele>
        <time>2017-10-15T08:42:21Z</time>
      </trkpt>
      <trkpt lat="45.89117" lon="4.74863">
        <ele>199</ele>
        <time>2017-10-15T08:42:23Z</time>
      </trkpt>
      <trkpt lat="45.89112" lon="4.74863">
        <ele>199</ele>
        <time>2017-10-15T08:42:24Z</time>
      </trkpt>
      <trkpt lat="45.89104" lon="4.74865">
        <ele>199</ele>
        <time>2017-10-15T08:42:26Z</time>
      </trkpt>
      <trkpt lat="45.891" lon="4.74866">
        <ele>199</ele>
        <time>2017-10-15T08:42:27Z</time>
      </trkpt>
      <trkpt lat="45.89092" lon="4.74867">
        <ele>199</ele>
        <time>2017-10-15T08:42:29Z</time>
      </trkpt>
      <trkpt lat="45.89088" lon="4.74868">
        <ele>199</ele>
        <time>2017-10-15T08:42:30Z</time>
      </trkpt>
      <trkpt lat="45.8908" lon="4.7487">
        <ele>199</ele>
        <time>2017-10-15T08:42:32Z</time>
      </trkpt>
      <trkpt lat="45.89075" lon="4.74871">
        <ele>199</ele>
        <time>2017-10-15T08:42:33Z</time>
      </trkpt>
      <trkpt lat="45.89071" lon="4.74872">
        <ele>199</ele>
        <time>2017-10-15T08:42:34Z</time>
      </trkpt>
      <trkpt lat="45.89066" lon="4.74872">
        <ele>199</ele>
        <time>2017-10-15T08:42:35Z</time>
      </trkpt>
      <trkpt lat="45.89059" lon="4.74875">
        <ele>199</ele>
        <time>2017-10-15T08:42:37Z</time>
      </trkpt>
      <trkpt lat="45.89055" lon="4.74876">
        <ele>199</ele>
        <time>2017-10-15T08:42:38Z</time>
      </trkpt>
      <trkpt lat="45.89046" lon="4.74878">
        <ele>199</ele>
        <time>2017-10-15T08:42:40Z</time>
      </trkpt>
      <trkpt lat="45.89043" lon="4.74881">
        <ele>199</ele>
        <time>2017-10-15T08:42:41Z</time>
      </trkpt>
      <trkpt lat="45.89035" lon="4.74886">
        <ele>199</ele>
        <time>2017-10-15T08:42:43Z</time>
      </trkpt>
      <trkpt lat="45.8903" lon="4.7489">
        <ele>199</ele>
        <time>2017-10-15T08:42:44Z</time>
      </trkpt>
      <trkpt lat="45.89023" lon="4.74897">
        <ele>199</ele>
        <time>2017-10-15T08:42:46Z</time>
      </trkpt>
      <trkpt lat="45.8902" lon="4.74901">
        <ele>199</ele>
        <time>2017-10-15T08:42:47Z</time>
      </trkpt>
      <trkpt lat="45.89015" lon="4.74907">
        <ele>199</ele>
        <time>2017-10-15T08:42:49Z</time>
      </trkpt>
      <trkpt lat="45.8901" lon="4.74909">
        <ele>199</ele>
        <time>2017-10-15T08:42:50Z</time>
      </trkpt>
      <trkpt lat="45.89002" lon="4.74913">
        <ele>199</ele>
        <time>2017-10-15T08:42:52Z</time>
      </trkpt>
      <trkpt lat="45.88999" lon="4.74916">
        <ele>199</ele>
        <time>2017-10-15T08:42:53Z</time>
      </trkpt>
      <trkpt lat="45.88992" lon="4.7492">
        <ele>199</ele>
        <time>2017-10-15T08:42:55Z</time>
      </trkpt>
      <trkpt lat="45.88989" lon="4.74922">
        <ele>199</ele>
        <time>2017-10-15T08:42:56Z</time>
      </trkpt>
      <trkpt lat="45.88982" lon="4.74926">
        <ele>199</ele>
        <time>2017-10-15T08:42:58Z</time>
      </trkpt>
      <trkpt lat="45.88978" lon="4.74929">
        <ele>200</ele>
        <time>2017-10-15T08:42:59Z</time>
      </trkpt>
      <trkpt lat="45.88973" lon="4.74931">
        <ele>200</ele>
        <time>2017-10-15T08:43:00Z</time>
      </trkpt>
      <trkpt lat="45.88968" lon="4.74934">
        <ele>200</ele>
        <time>2017-10-15T08:43:01Z</time>
      </trkpt>
      <trkpt lat="45.88963" lon="4.74938">
        <ele>200</ele>
        <time>2017-10-15T08:43:02Z</time>
      </trkpt>
      <trkpt lat="45.88958" lon="4.74942">
        <ele>200</ele>
        <time>2017-10-15T08:43:03Z</time>
      </trkpt>
      <trkpt lat="45.88953" lon="4.74945">
        <ele>200</ele>
        <time>2017-10-15T08:43:04Z</time>
      </trkpt>
      <trkpt lat="45.88949" lon="4.74948">
        <ele>200</ele>
        <time>2017-10-15T08:43:05Z</time>
      </trkpt>
      <trkpt lat="45.88942" lon="4.74949">
        <ele>200</ele>
        <time>2017-10-15T08:43:06Z</time>
      </trkpt>
      <trkpt lat="45.88938" lon="4.74952">
        <ele>200</ele>
        <time>2017-10-15T08:43:07Z</time>
      </trkpt>
      <trkpt lat="45.88933" lon="4.74954">
        <ele>200</ele>
        <time>2017-10-15T08:43:08Z</time>
      </trkpt>
      <trkpt lat="45.88928" lon="4.74956">
        <ele>200</ele>
        <time>2017-10-15T08:43:09Z</time>
      </trkpt>
      <trkpt lat="45.88923" lon="4.74958">
        <ele>200</ele>
        <time>2017-10-15T08:43:10Z</time>
      </trkpt>
      <trkpt lat="45.88918" lon="4.7496">
        <ele>200</ele>
        <time>2017-10-15T08:43:11Z</time>
      </trkpt>
      <trkpt lat="45.88913" lon="4.74961">
        <ele>201</ele>
        <time>2017-10-15T08:43:12Z</time>
      </trkpt>
      <trkpt lat="45.88907" lon="4.74963">
        <ele>201</ele>
        <time>2017-10-15T08:43:13Z</time>
      </trkpt>
      <trkpt lat="45.88903" lon="4.74965">
        <ele>201</ele>
        <time>2017-10-15T08:43:14Z</time>
      </trkpt>
      <trkpt lat="45.88898" lon="4.74967">
        <ele>201</ele>
        <time>2017-10-15T08:43:15Z</time>
      </trkpt>
      <trkpt lat="45.88894" lon="4.74968">
        <ele>201</ele>
        <time>2017-10-15T08:43:16Z</time>
      </trkpt>
      <trkpt lat="45.88889" lon="4.74969">
        <ele>201</ele>
        <time>2017-10-15T08:43:17Z</time>
      </trkpt>
      <trkpt lat="45.88883" lon="4.74967">
        <ele>201</ele>
        <time>2017-10-15T08:43:18Z</time>
      </trkpt>
      <trkpt lat="45.88879" lon="4.74967">
        <ele>201</ele>
        <time>2017-10-15T08:43:19Z</time>
      </trkpt>
      <trkpt lat="45.88874" lon="4.74965">
        <ele>201</ele>
        <time>2017-10-15T08:43:20Z</time>
      </trkpt>
      <trkpt lat="45.8887" lon="4.74965">
        <ele>201</ele>
        <time>2017-10-15T08:43:21Z</time>
      </trkpt>
      <trkpt lat="45.88861" lon="4.74962">
        <ele>201</ele>
        <time>2017-10-15T08:43:23Z</time>
      </trkpt>
      <trkpt lat="45.88857" lon="4.74961">
        <ele>201</ele>
        <time>2017-10-15T08:43:24Z</time>
      </trkpt>
      <trkpt lat="45.88849" lon="4.74959">
        <ele>201</ele>
        <time>2017-10-15T08:43:26Z</time>
      </trkpt>
      <trkpt lat="45.88846" lon="4.74959">
        <ele>201</ele>
        <time>2017-10-15T08:43:27Z</time>
      </trkpt>
      <trkpt lat="45.88839" lon="4.74958">
        <ele>201</ele>
        <time>2017-10-15T08:43:29Z</time>
      </trkpt>
      <trkpt lat="45.88835" lon="4.74958">
        <ele>201</ele>
        <time>2017-10-15T08:43:30Z</time>
      </trkpt>
      <trkpt lat="45.88828" lon="4.74956">
        <ele>201</ele>
        <time>2017-10-15T08:43:32Z</time>
      </trkpt>
      <trkpt lat="45.88824" lon="4.74954">
        <ele>201</ele>
        <time>2017-10-15T08:43:33Z</time>
      </trkpt>
      <trkpt lat="45.88815" lon="4.74953">
        <ele>201</ele>
        <time>2017-10-15T08:43:35Z</time>
      </trkpt>
      <trkpt lat="45.88811" lon="4.74952">
        <ele>201</ele>
        <time>2017-10-15T08:43:36Z</time>
      </trkpt>
      <trkpt lat="45.88803" lon="4.74951">
        <ele>201</ele>
        <time>2017-10-15T08:43:38Z</time>
      </trkpt>
      <trkpt lat="45.88798" lon="4.7495">
        <ele>201</ele>
        <time>2017-10-15T08:43:39Z</time>
      </trkpt>
      <trkpt lat="45.88794" lon="4.74949">
        <ele>201</ele>
        <time>2017-10-15T08:43:40Z</time>
      </trkpt>
      <trkpt lat="45.88789" lon="4.74948">
        <ele>201</ele>
        <time>2017-10-15T08:43:41Z</time>
      </trkpt>
      <trkpt lat="45.8878" lon="4.74946">
        <ele>201</ele>
        <time>2017-10-15T08:43:43Z</time>
      </trkpt>
      <trkpt lat="45.88775" lon="4.74946">
        <ele>201</ele>
        <time>2017-10-15T08:43:44Z</time>
      </trkpt>
      <trkpt lat="45.8877" lon="4.74944">
        <ele>201</ele>
        <time>2017-10-15T08:43:45Z</time>
      </trkpt>
      <trkpt lat="45.88765" lon="4.74943">
        <ele>201</ele>
        <time>2017-10-15T08:43:46Z</time>
      </trkpt>
      <trkpt lat="45.8876" lon="4.74943">
        <ele>201</ele>
        <time>2017-10-15T08:43:47Z</time>
      </trkpt>
      <trkpt lat="45.88756" lon="4.74943">
        <ele>201</ele>
        <time>2017-10-15T08:43:48Z</time>
      </trkpt>
      <trkpt lat="45.88751" lon="4.7494">
        <ele>201</ele>
        <time>2017-10-15T08:43:49Z</time>
      </trkpt>
      <trkpt lat="45.88747" lon="4.74939">
        <ele>201</ele>
        <time>2017-10-15T08:43:50Z</time>
      </trkpt>
      <trkpt lat="45.88739" lon="4.74937">
        <ele>201</ele>
        <time>2017-10-15T08:43:52Z</time>
      </trkpt>
      <trkpt lat="45.88734" lon="4.74936">
        <ele>201</ele>
        <time>2017-10-15T08:43:53Z</time>
      </trkpt>
      <trkpt lat="45.88729" lon="4.74936">
        <ele>201</ele>
        <time>2017-10-15T08:43:54Z</time>
      </trkpt>
      <trkpt lat="45.88724" lon="4.74935">
        <ele>201</ele>
        <time>2017-10-15T08:43:55Z</time>
      </trkpt>
      <trkpt lat="45.88719" lon="4.74934">
        <ele>201</ele>
        <time>2017-10-15T08:43:56Z</time>
      </trkpt>
      <trkpt lat="45.88714" lon="4.74933">
        <ele>201</ele>
        <time>2017-10-15T08:43:57Z</time>
      </trkpt>
      <trkpt lat="45.88708" lon="4.74932">
        <ele>202</ele>
        <time>2017-10-15T08:43:58Z</time>
      </trkpt>
      <trkpt lat="45.88703" lon="4.74932">
        <ele>202</ele>
        <time>2017-10-15T08:43:59Z</time>
      </trkpt>
      <trkpt lat="45.88698" lon="4.74931">
        <ele>202</ele>
        <time>2017-10-15T08:44:00Z</time>
      </trkpt>
      <trkpt lat="45.88693" lon="4.74929">
        <ele>202</ele>
        <time>2017-10-15T08:44:01Z</time>
      </trkpt>
      <trkpt lat="45.88689" lon="4.74928">
        <ele>202</ele>
        <time>2017-10-15T08:44:02Z</time>
      </trkpt>
      <trkpt lat="45.88684" lon="4.74926">
        <ele>202</ele>
        <time>2017-10-15T08:44:03Z</time>
      </trkpt>
      <trkpt lat="45.88677" lon="4.74922">
        <ele>202</ele>
        <time>2017-10-15T08:44:05Z</time>
      </trkpt>
      <trkpt lat="45.88675" lon="4.74922">
        <ele>202</ele>
        <time>2017-10-15T08:44:06Z</time>
      </trkpt>
      <trkpt lat="45.88669" lon="4.74919">
        <ele>202</ele>
        <time>2017-10-15T08:44:08Z</time>
      </trkpt>
      <trkpt lat="45.88666" lon="4.74917">
        <ele>202</ele>
        <time>2017-10-15T08:44:09Z</time>
      </trkpt>
      <trkpt lat="45.88659" lon="4.74919">
        <ele>202</ele>
        <time>2017-10-15T08:44:11Z</time>
      </trkpt>
      <trkpt lat="45.88656" lon="4.74921">
        <ele>202</ele>
        <time>2017-10-15T08:44:12Z</time>
      </trkpt>
      <trkpt lat="45.88649" lon="4.74929">
        <ele>202</ele>
        <time>2017-10-15T08:44:14Z</time>
      </trkpt>
      <trkpt lat="45.88646" lon="4.74934">
        <ele>202</ele>
        <time>2017-10-15T08:44:15Z</time>
      </trkpt>
      <trkpt lat="45.88639" lon="4.74943">
        <ele>201</ele>
        <time>2017-10-15T08:44:17Z</time>
      </trkpt>
      <trkpt lat="45.88636" lon="4.74948">
        <ele>201</ele>
        <time>2017-10-15T08:44:18Z</time>
      </trkpt>
      <trkpt lat="45.88634" lon="4.74955">
        <ele>201</ele>
        <time>2017-10-15T08:44:19Z</time>
      </trkpt>
      <trkpt lat="45.88633" lon="4.74961">
        <ele>201</ele>
        <time>2017-10-15T08:44:20Z</time>
      </trkpt>
      <trkpt lat="45.88631" lon="4.74972">
        <ele>201</ele>
        <time>2017-10-15T08:44:22Z</time>
      </trkpt>
      <trkpt lat="45.88629" lon="4.74979">
        <ele>201</ele>
        <time>2017-10-15T08:44:23Z</time>
      </trkpt>
      <trkpt lat="45.88628" lon="4.74985">
        <ele>201</ele>
        <time>2017-10-15T08:44:24Z</time>
      </trkpt>
      <trkpt lat="45.88626" lon="4.74992">
        <ele>201</ele>
        <time>2017-10-15T08:44:25Z</time>
      </trkpt>
      <trkpt lat="45.88625" lon="4.75">
        <ele>201</ele>
        <time>2017-10-15T08:44:26Z</time>
      </trkpt>
      <trkpt lat="45.88624" lon="4.75007">
        <ele>201</ele>
        <time>2017-10-15T08:44:27Z</time>
      </trkpt>
      <trkpt lat="45.88623" lon="4.75014">
        <ele>201</ele>
        <time>2017-10-15T08:44:28Z</time>
      </trkpt>
      <trkpt lat="45.88621" lon="4.75021">
        <ele>202</ele>
        <time>2017-10-15T08:44:29Z</time>
      </trkpt>
      <trkpt lat="45.8862" lon="4.75028">
        <ele>202</ele>
        <time>2017-10-15T08:44:30Z</time>
      </trkpt>
      <trkpt lat="45.88619" lon="4.75036">
        <ele>202</ele>
        <time>2017-10-15T08:44:31Z</time>
      </trkpt>
      <trkpt lat="45.88618" lon="4.75043">
        <ele>202</ele>
        <time>2017-10-15T08:44:32Z</time>
      </trkpt>
      <trkpt lat="45.88617" lon="4.7505">
        <ele>202</ele>
        <time>2017-10-15T08:44:33Z</time>
      </trkpt>
      <trkpt lat="45.88616" lon="4.75056">
        <ele>202</ele>
        <time>2017-10-15T08:44:34Z</time>
      </trkpt>
      <trkpt lat="45.88614" lon="4.75063">
        <ele>202</ele>
        <time>2017-10-15T08:44:35Z</time>
      </trkpt>
      <trkpt lat="45.88612" lon="4.7507">
        <ele>202</ele>
        <time>2017-10-15T08:44:36Z</time>
      </trkpt>
      <trkpt lat="45.88609" lon="4.75076">
        <ele>202</ele>
        <time>2017-10-15T08:44:37Z</time>
      </trkpt>
      <trkpt lat="45.88605" lon="4.75082">
        <ele>202</ele>
        <time>2017-10-15T08:44:38Z</time>
      </trkpt>
      <trkpt lat="45.886" lon="4.75089">
        <ele>202</ele>
        <time>2017-10-15T08:44:39Z</time>
      </trkpt>
      <trkpt lat="45.88596" lon="4.75095">
        <ele>202</ele>
        <time>2017-10-15T08:44:40Z</time>
      </trkpt>
      <trkpt lat="45.88591" lon="4.751">
        <ele>202</ele>
        <time>2017-10-15T08:44:41Z</time>
      </trkpt>
      <trkpt lat="45.88587" lon="4.75107">
        <ele>202</ele>
        <time>2017-10-15T08:44:42Z</time>
      </trkpt>
      <trkpt lat="45.88582" lon="4.75113">
        <ele>201</ele>
        <time>2017-10-15T08:44:43Z</time>
      </trkpt>
      <trkpt lat="45.88578" lon="4.75118">
        <ele>201</ele>
        <time>2017-10-15T08:44:44Z</time>
      </trkpt>
      <trkpt lat="45.88574" lon="4.75123">
        <ele>201</ele>
        <time>2017-10-15T08:44:45Z</time>
      </trkpt>
      <trkpt lat="45.8857" lon="4.75128">
        <ele>201</ele>
        <time>2017-10-15T08:44:46Z</time>
      </trkpt>
      <trkpt lat="45.88566" lon="4.75132">
        <ele>201</ele>
        <time>2017-10-15T08:44:47Z</time>
      </trkpt>
      <trkpt lat="45.88562" lon="4.75137">
        <ele>201</ele>
        <time>2017-10-15T08:44:48Z</time>
      </trkpt>
      <trkpt lat="45.88559" lon="4.75141">
        <ele>201</ele>
        <time>2017-10-15T08:44:49Z</time>
      </trkpt>
      <trkpt lat="45.88556" lon="4.75147">
        <ele>201</ele>
        <time>2017-10-15T08:44:50Z</time>
      </trkpt>
      <trkpt lat="45.88553" lon="4.75153">
        <ele>201</ele>
        <time>2017-10-15T08:44:51Z</time>
      </trkpt>
      <trkpt lat="45.88549" lon="4.75159">
        <ele>201</ele>
        <time>2017-10-15T08:44:52Z</time>
      </trkpt>
      <trkpt lat="45.88546" lon="4.75165">
        <ele>201</ele>
        <time>2017-10-15T08:44:53Z</time>
      </trkpt>
      <trkpt lat="45.88543" lon="4.75171">
        <ele>201</ele>
        <time>2017-10-15T08:44:54Z</time>
      </trkpt>
      <trkpt lat="45.8854" lon="4.75177">
        <ele>201</ele>
        <time>2017-10-15T08:44:55Z</time>
      </trkpt>
      <trkpt lat="45.88537" lon="4.75185">
        <ele>201</ele>
        <time>2017-10-15T08:44:56Z</time>
      </trkpt>
      <trkpt lat="45.88533" lon="4.75192">
        <ele>201</ele>
        <time>2017-10-15T08:44:57Z</time>
      </trkpt>
      <trkpt lat="45.88532" lon="4.75201">
        <ele>201</ele>
        <time>2017-10-15T08:44:58Z</time>
      </trkpt>
      <trkpt lat="45.88529" lon="4.75208">
        <ele>201</ele>
        <time>2017-10-15T08:44:59Z</time>
      </trkpt>
      <trkpt lat="45.88525" lon="4.75215">
        <ele>201</ele>
        <time>2017-10-15T08:45:00Z</time>
      </trkpt>
      <trkpt lat="45.88522" lon="4.75222">
        <ele>201</ele>
        <time>2017-10-15T08:45:01Z</time>
      </trkpt>
      <trkpt lat="45.88519" lon="4.75227">
        <ele>201</ele>
        <time>2017-10-15T08:45:02Z</time>
      </trkpt>
      <trkpt lat="45.88516" lon="4.75232">
        <ele>201</ele>
        <time>2017-10-15T08:45:03Z</time>
      </trkpt>
      <trkpt lat="45.8851" lon="4.75241">
        <ele>201</ele>
        <time>2017-10-15T08:45:05Z</time>
      </trkpt>
      <trkpt lat="45.88506" lon="4.75245">
        <ele>201</ele>
        <time>2017-10-15T08:45:06Z</time>
      </trkpt>
      <trkpt lat="45.88501" lon="4.75249">
        <ele>201</ele>
        <time>2017-10-15T08:45:07Z</time>
      </trkpt>
      <trkpt lat="45.88496" lon="4.75253">
        <ele>201</ele>
        <time>2017-10-15T08:45:08Z</time>
      </trkpt>
      <trkpt lat="45.8849" lon="4.75255">
        <ele>201</ele>
        <time>2017-10-15T08:45:09Z</time>
      </trkpt>
      <trkpt lat="45.88485" lon="4.75259">
        <ele>201</ele>
        <time>2017-10-15T08:45:10Z</time>
      </trkpt>
      <trkpt lat="45.88479" lon="4.75262">
        <ele>201</ele>
        <time>2017-10-15T08:45:11Z</time>
      </trkpt>
      <trkpt lat="45.88474" lon="4.75265">
        <ele>201</ele>
        <time>2017-10-15T08:45:12Z</time>
      </trkpt>
      <trkpt lat="45.88469" lon="4.75269">
        <ele>201</ele>
        <time>2017-10-15T08:45:13Z</time>
      </trkpt>
      <trkpt lat="45.88464" lon="4.7527">
        <ele>201</ele>
        <time>2017-10-15T08:45:14Z</time>
      </trkpt>
      <trkpt lat="45.88459" lon="4.75272">
        <ele>201</ele>
        <time>2017-10-15T08:45:15Z</time>
      </trkpt>
      <trkpt lat="45.88454" lon="4.75275">
        <ele>201</ele>
        <time>2017-10-15T08:45:16Z</time>
      </trkpt>
      <trkpt lat="45.88449" lon="4.75278">
        <ele>201</ele>
        <time>2017-10-15T08:45:17Z</time>
      </trkpt>
      <trkpt lat="45.88444" lon="4.7528">
        <ele>201</ele>
        <time>2017-10-15T08:45:18Z</time>
      </trkpt>
      <trkpt lat="45.88436" lon="4.75284">
        <ele>201</ele>
        <time>2017-10-15T08:45:20Z</time>
      </trkpt>
      <trkpt lat="45.88433" lon="4.75288">
        <ele>201</ele>
        <time>2017-10-15T08:45:21Z</time>
      </trkpt>
      <trkpt lat="45.88428" lon="4.75292">
        <ele>201</ele>
        <time>2017-10-15T08:45:22Z</time>
      </trkpt>
      <trkpt lat="45.88423" lon="4.75297">
        <ele>201</ele>
        <time>2017-10-15T08:45:23Z</time>
      </trkpt>
      <trkpt lat="45.88419" lon="4.75303">
        <ele>201</ele>
        <time>2017-10-15T08:45:24Z</time>
      </trkpt>
      <trkpt lat="45.88415" lon="4.75309">
        <ele>200</ele>
        <time>2017-10-15T08:45:25Z</time>
      </trkpt>
      <trkpt lat="45.88411" lon="4.75314">
        <ele>200</ele>
        <time>2017-10-15T08:45:26Z</time>
      </trkpt>
      <trkpt lat="45.88408" lon="4.75321">
        <ele>200</ele>
        <time>2017-10-15T08:45:27Z</time>
      </trkpt>
      <trkpt lat="45.88406" lon="4.75328">
        <ele>200</ele>
        <time>2017-10-15T08:45:28Z</time>
      </trkpt>
      <trkpt lat="45.88403" lon="4.75334">
        <ele>200</ele>
        <time>2017-10-15T08:45:29Z</time>
      </trkpt>
      <trkpt lat="45.88401" lon="4.75341">
        <ele>201</ele>
        <time>2017-10-15T08:45:30Z</time>
      </trkpt>
      <trkpt lat="45.88399" lon="4.75348">
        <ele>201</ele>
        <time>2017-10-15T08:45:31Z</time>
      </trkpt>
      <trkpt lat="45.88396" lon="4.75354">
        <ele>201</ele>
        <time>2017-10-15T08:45:32Z</time>
      </trkpt>
      <trkpt lat="45.88393" lon="4.75359">
        <ele>201</ele>
        <time>2017-10-15T08:45:33Z</time>
      </trkpt>
      <trkpt lat="45.88387" lon="4.75369">
        <ele>201</ele>
        <time>2017-10-15T08:45:35Z</time>
      </trkpt>
      <trkpt lat="45.88385" lon="4.75374">
        <ele>201</ele>
        <time>2017-10-15T08:45:36Z</time>
      </trkpt>
      <trkpt lat="45.88381" lon="4.75384">
        <ele>201</ele>
        <time>2017-10-15T08:45:38Z</time>
      </trkpt>
      <trkpt lat="45.88379" lon="4.7539">
        <ele>201</ele>
        <time>2017-10-15T08:45:39Z</time>
      </trkpt>
      <trkpt lat="45.88378" lon="4.75397">
        <ele>202</ele>
        <time>2017-10-15T08:45:40Z</time>
      </trkpt>
      <trkpt lat="45.88376" lon="4.75405">
        <ele>202</ele>
        <time>2017-10-15T08:45:41Z</time>
      </trkpt>
      <trkpt lat="45.88374" lon="4.75412">
        <ele>202</ele>
        <time>2017-10-15T08:45:42Z</time>
      </trkpt>
      <trkpt lat="45.88373" lon="4.75418">
        <ele>203</ele>
        <time>2017-10-15T08:45:43Z</time>
      </trkpt>
      <trkpt lat="45.88371" lon="4.75425">
        <ele>203</ele>
        <time>2017-10-15T08:45:44Z</time>
      </trkpt>
      <trkpt lat="45.88369" lon="4.75433">
        <ele>203</ele>
        <time>2017-10-15T08:45:45Z</time>
      </trkpt>
      <trkpt lat="45.88368" lon="4.7544">
        <ele>203</ele>
        <time>2017-10-15T08:45:46Z</time>
      </trkpt>
      <trkpt lat="45.88367" lon="4.75447">
        <ele>203</ele>
        <time>2017-10-15T08:45:47Z</time>
      </trkpt>
      <trkpt lat="45.88366" lon="4.75454">
        <ele>203</ele>
        <time>2017-10-15T08:45:48Z</time>
      </trkpt>
      <trkpt lat="45.88364" lon="4.7546">
        <ele>203</ele>
        <time>2017-10-15T08:45:49Z</time>
      </trkpt>
      <trkpt lat="45.88364" lon="4.75467">
        <ele>203</ele>
        <time>2017-10-15T08:45:50Z</time>
      </trkpt>
      <trkpt lat="45.88363" lon="4.75474">
        <ele>203</ele>
        <time>2017-10-15T08:45:51Z</time>
      </trkpt>
      <trkpt lat="45.88362" lon="4.75482">
        <ele>203</ele>
        <time>2017-10-15T08:45:52Z</time>
      </trkpt>
      <trkpt lat="45.88361" lon="4.7549">
        <ele>203</ele>
        <time>2017-10-15T08:45:53Z</time>
      </trkpt>
      <trkpt lat="45.88361" lon="4.75499">
        <ele>203</ele>
        <time>2017-10-15T08:45:54Z</time>
      </trkpt>
      <trkpt lat="45.8836" lon="4.75507">
        <ele>204</ele>
        <time>2017-10-15T08:45:55Z</time>
      </trkpt>
      <trkpt lat="45.8836" lon="4.75515">
        <ele>204</ele>
        <time>2017-10-15T08:45:56Z</time>
      </trkpt>
      <trkpt lat="45.8836" lon="4.75522">
        <ele>204</ele>
        <time>2017-10-15T08:45:57Z</time>
      </trkpt>
      <trkpt lat="45.8836" lon="4.75529">
        <ele>204</ele>
        <time>2017-10-15T08:45:58Z</time>
      </trkpt>
      <trkpt lat="45.8836" lon="4.75535">
        <ele>204</ele>
        <time>2017-10-15T08:45:59Z</time>
      </trkpt>
      <trkpt lat="45.8836" lon="4.75548">
        <ele>204</ele>
        <time>2017-10-15T08:46:01Z</time>
      </trkpt>
      <trkpt lat="45.8836" lon="4.75555">
        <ele>204</ele>
        <time>2017-10-15T08:46:02Z</time>
      </trkpt>
      <trkpt lat="45.8836" lon="4.75563">
        <ele>204</ele>
        <time>2017-10-15T08:46:03Z</time>
      </trkpt>
      <trkpt lat="45.8836" lon="4.7557">
        <ele>204</ele>
        <time>2017-10-15T08:46:04Z</time>
      </trkpt>
      <trkpt lat="45.8836" lon="4.75577">
        <ele>204</ele>
        <time>2017-10-15T08:46:05Z</time>
      </trkpt>
      <trkpt lat="45.8836" lon="4.75585">
        <ele>204</ele>
        <time>2017-10-15T08:46:06Z</time>
      </trkpt>
      <trkpt lat="45.8836" lon="4.75592">
        <ele>204</ele>
        <time>2017-10-15T08:46:07Z</time>
      </trkpt>
      <trkpt lat="45.8836" lon="4.756">
        <ele>204</ele>
        <time>2017-10-15T08:46:08Z</time>
      </trkpt>
      <trkpt lat="45.88359" lon="4.75606">
        <ele>204</ele>
        <time>2017-10-15T08:46:09Z</time>
      </trkpt>
      <trkpt lat="45.88359" lon="4.75613">
        <ele>204</ele>
        <time>2017-10-15T08:46:10Z</time>
      </trkpt>
      <trkpt lat="45.8836" lon="4.7562">
        <ele>204</ele>
        <time>2017-10-15T08:46:11Z</time>
      </trkpt>
      <trkpt lat="45.88359" lon="4.75627">
        <ele>204</ele>
        <time>2017-10-15T08:46:12Z</time>
      </trkpt>
      <trkpt lat="45.88359" lon="4.75635">
        <ele>204</ele>
        <time>2017-10-15T08:46:13Z</time>
      </trkpt>
      <trkpt lat="45.88359" lon="4.75642">
        <ele>204</ele>
        <time>2017-10-15T08:46:14Z</time>
      </trkpt>
      <trkpt lat="45.88359" lon="4.75649">
        <ele>204</ele>
        <time>2017-10-15T08:46:15Z</time>
      </trkpt>
      <trkpt lat="45.88358" lon="4.75655">
        <ele>204</ele>
        <time>2017-10-15T08:46:16Z</time>
      </trkpt>
      <trkpt lat="45.88358" lon="4.75662">
        <ele>203</ele>
        <time>2017-10-15T08:46:17Z</time>
      </trkpt>
      <trkpt lat="45.88356" lon="4.7567">
        <ele>203</ele>
        <time>2017-10-15T08:46:18Z</time>
      </trkpt>
      <trkpt lat="45.88356" lon="4.75678">
        <ele>203</ele>
        <time>2017-10-15T08:46:19Z</time>
      </trkpt>
      <trkpt lat="45.88355" lon="4.75686">
        <ele>203</ele>
        <time>2017-10-15T08:46:20Z</time>
      </trkpt>
      <trkpt lat="45.88354" lon="4.75693">
        <ele>204</ele>
        <time>2017-10-15T08:46:21Z</time>
      </trkpt>
      <trkpt lat="45.88353" lon="4.757">
        <ele>204</ele>
        <time>2017-10-15T08:46:22Z</time>
      </trkpt>
      <trkpt lat="45.88352" lon="4.75707">
        <ele>204</ele>
        <time>2017-10-15T08:46:23Z</time>
      </trkpt>
      <trkpt lat="45.88352" lon="4.75714">
        <ele>204</ele>
        <time>2017-10-15T08:46:24Z</time>
      </trkpt>
      <trkpt lat="45.88349" lon="4.75725">
        <ele>204</ele>
        <time>2017-10-15T08:46:26Z</time>
      </trkpt>
      <trkpt lat="45.88348" lon="4.75731">
        <ele>203</ele>
        <time>2017-10-15T08:46:27Z</time>
      </trkpt>
      <trkpt lat="45.88347" lon="4.75737">
        <ele>203</ele>
        <time>2017-10-15T08:46:28Z</time>
      </trkpt>
      <trkpt lat="45.88346" lon="4.75744">
        <ele>203</ele>
        <time>2017-10-15T08:46:29Z</time>
      </trkpt>
      <trkpt lat="45.88346" lon="4.7575">
        <ele>203</ele>
        <time>2017-10-15T08:46:30Z</time>
      </trkpt>
      <trkpt lat="45.88344" lon="4.75757">
        <ele>203</ele>
        <time>2017-10-15T08:46:31Z</time>
      </trkpt>
      <trkpt lat="45.88343" lon="4.75763">
        <ele>203</ele>
        <time>2017-10-15T08:46:32Z</time>
      </trkpt>
      <trkpt lat="45.88343" lon="4.7577">
        <ele>203</ele>
        <time>2017-10-15T08:46:33Z</time>
      </trkpt>
      <trkpt lat="45.8834" lon="4.75776">
        <ele>203</ele>
        <time>2017-10-15T08:46:34Z</time>
      </trkpt>
      <trkpt lat="45.88339" lon="4.75784">
        <ele>203</ele>
        <time>2017-10-15T08:46:35Z</time>
      </trkpt>
      <trkpt lat="45.88339" lon="4.75791">
        <ele>203</ele>
        <time>2017-10-15T08:46:36Z</time>
      </trkpt>
      <trkpt lat="45.88338" lon="4.75799">
        <ele>203</ele>
        <time>2017-10-15T08:46:37Z</time>
      </trkpt>
      <trkpt lat="45.88337" lon="4.75806">
        <ele>203</ele>
        <time>2017-10-15T08:46:38Z</time>
      </trkpt>
      <trkpt lat="45.88336" lon="4.75814">
        <ele>203</ele>
        <time>2017-10-15T08:46:39Z</time>
      </trkpt>
      <trkpt lat="45.88336" lon="4.75827">
        <ele>203</ele>
        <time>2017-10-15T08:46:41Z</time>
      </trkpt>
      <trkpt lat="45.88337" lon="4.75833">
        <ele>203</ele>
        <time>2017-10-15T08:46:42Z</time>
      </trkpt>
      <trkpt lat="45.88336" lon="4.7584">
        <ele>203</ele>
        <time>2017-10-15T08:46:43Z</time>
      </trkpt>
      <trkpt lat="45.88336" lon="4.75846">
        <ele>203</ele>
        <time>2017-10-15T08:46:44Z</time>
      </trkpt>
      <trkpt lat="45.88335" lon="4.75857">
        <ele>204</ele>
        <time>2017-10-15T08:46:46Z</time>
      </trkpt>
      <trkpt lat="45.88334" lon="4.75864">
        <ele>204</ele>
        <time>2017-10-15T08:46:47Z</time>
      </trkpt>
      <trkpt lat="45.88334" lon="4.7587">
        <ele>204</ele>
        <time>2017-10-15T08:46:48Z</time>
      </trkpt>
      <trkpt lat="45.88332" lon="4.75877">
        <ele>204</ele>
        <time>2017-10-15T08:46:49Z</time>
      </trkpt>
      <trkpt lat="45.88331" lon="4.75883">
        <ele>204</ele>
        <time>2017-10-15T08:46:50Z</time>
      </trkpt>
      <trkpt lat="45.88329" lon="4.75889">
        <ele>205</ele>
        <time>2017-10-15T08:46:51Z</time>
      </trkpt>
      <trkpt lat="45.88327" lon="4.75897">
        <ele>205</ele>
        <time>2017-10-15T08:46:52Z</time>
      </trkpt>
      <trkpt lat="45.88326" lon="4.75905">
        <ele>205</ele>
        <time>2017-10-15T08:46:53Z</time>
      </trkpt>
      <trkpt lat="45.88324" lon="4.75917">
        <ele>205</ele>
        <time>2017-10-15T08:46:55Z</time>
      </trkpt>
      <trkpt lat="45.88323" lon="4.75923">
        <ele>205</ele>
        <time>2017-10-15T08:46:56Z</time>
      </trkpt>
      <trkpt lat="45.8832" lon="4.75934">
        <ele>206</ele>
        <time>2017-10-15T08:46:58Z</time>
      </trkpt>
      <trkpt lat="45.88319" lon="4.7594">
        <ele>206</ele>
        <time>2017-10-15T08:46:59Z</time>
      </trkpt>
      <trkpt lat="45.88315" lon="4.75952">
        <ele>206</ele>
        <time>2017-10-15T08:47:01Z</time>
      </trkpt>
      <trkpt lat="45.88314" lon="4.75957">
        <ele>206</ele>
        <time>2017-10-15T08:47:02Z</time>
      </trkpt>
      <trkpt lat="45.8831" lon="4.75968">
        <ele>206</ele>
        <time>2017-10-15T08:47:04Z</time>
      </trkpt>
      <trkpt lat="45.88308" lon="4.75974">
        <ele>206</ele>
        <time>2017-10-15T08:47:05Z</time>
      </trkpt>
      <trkpt lat="45.88304" lon="4.75985">
        <ele>206</ele>
        <time>2017-10-15T08:47:07Z</time>
      </trkpt>
      <trkpt lat="45.88302" lon="4.7599">
        <ele>206</ele>
        <time>2017-10-15T08:47:08Z</time>
      </trkpt>
      <trkpt lat="45.88298" lon="4.76001">
        <ele>207</ele>
        <time>2017-10-15T08:47:10Z</time>
      </trkpt>
      <trkpt lat="45.88296" lon="4.76006">
        <ele>207</ele>
        <time>2017-10-15T08:47:11Z</time>
      </trkpt>
      <trkpt lat="45.88293" lon="4.76017">
        <ele>207</ele>
        <time>2017-10-15T08:47:13Z</time>
      </trkpt>
      <trkpt lat="45.88292" lon="4.76023">
        <ele>207</ele>
        <time>2017-10-15T08:47:14Z</time>
      </trkpt>
      <trkpt lat="45.8829" lon="4.76035">
        <ele>207</ele>
        <time>2017-10-15T08:47:16Z</time>
      </trkpt>
      <trkpt lat="45.8829" lon="4.76041">
        <ele>208</ele>
        <time>2017-10-15T08:47:17Z</time>
      </trkpt>
      <trkpt lat="45.88289" lon="4.76052">
        <ele>208</ele>
        <time>2017-10-15T08:47:19Z</time>
      </trkpt>
      <trkpt lat="45.88289" lon="4.76058">
        <ele>208</ele>
        <time>2017-10-15T08:47:20Z</time>
      </trkpt>
      <trkpt lat="45.88289" lon="4.76069">
        <ele>208</ele>
        <time>2017-10-15T08:47:22Z</time>
      </trkpt>
      <trkpt lat="45.88288" lon="4.76075">
        <ele>208</ele>
        <time>2017-10-15T08:47:23Z</time>
      </trkpt>
      <trkpt lat="45.88287" lon="4.76086">
        <ele>210</ele>
        <time>2017-10-15T08:47:25Z</time>
      </trkpt>
      <trkpt lat="45.88287" lon="4.76092">
        <ele>210</ele>
        <time>2017-10-15T08:47:26Z</time>
      </trkpt>
      <trkpt lat="45.88286" lon="4.76104">
        <ele>210</ele>
        <time>2017-10-15T08:47:28Z</time>
      </trkpt>
      <trkpt lat="45.88286" lon="4.76109">
        <ele>210</ele>
        <time>2017-10-15T08:47:29Z</time>
      </trkpt>
      <trkpt lat="45.88286" lon="4.7612">
        <ele>210</ele>
        <time>2017-10-15T08:47:31Z</time>
      </trkpt>
      <trkpt lat="45.88286" lon="4.76125">
        <ele>210</ele>
        <time>2017-10-15T08:47:32Z</time>
      </trkpt>
      <trkpt lat="45.88286" lon="4.76135">
        <ele>210</ele>
        <time>2017-10-15T08:47:34Z</time>
      </trkpt>
      <trkpt lat="45.88285" lon="4.7614">
        <ele>210</ele>
        <time>2017-10-15T08:47:35Z</time>
      </trkpt>
      <trkpt lat="45.88285" lon="4.76149">
        <ele>211</ele>
        <time>2017-10-15T08:47:37Z</time>
      </trkpt>
      <trkpt lat="45.88285" lon="4.76154">
        <ele>211</ele>
        <time>2017-10-15T08:47:38Z</time>
      </trkpt>
      <trkpt lat="45.88284" lon="4.76164">
        <ele>211</ele>
        <time>2017-10-15T08:47:40Z</time>
      </trkpt>
      <trkpt lat="45.88284" lon="4.76169">
        <ele>212</ele>
        <time>2017-10-15T08:47:41Z</time>
      </trkpt>
      <trkpt lat="45.88283" lon="4.76178">
        <ele>213</ele>
        <time>2017-10-15T08:47:43Z</time>
      </trkpt>
      <trkpt lat="45.88283" lon="4.76184">
        <ele>213</ele>
        <time>2017-10-15T08:47:44Z</time>
      </trkpt>
      <trkpt lat="45.88282" lon="4.76195">
        <ele>213</ele>
        <time>2017-10-15T08:47:46Z</time>
      </trkpt>
      <trkpt lat="45.88282" lon="4.762">
        <ele>213</ele>
        <time>2017-10-15T08:47:47Z</time>
      </trkpt>
      <trkpt lat="45.88281" lon="4.76211">
        <ele>213</ele>
        <time>2017-10-15T08:47:49Z</time>
      </trkpt>
      <trkpt lat="45.88281" lon="4.76216">
        <ele>213</ele>
        <time>2017-10-15T08:47:50Z</time>
      </trkpt>
      <trkpt lat="45.88279" lon="4.76227">
        <ele>213</ele>
        <time>2017-10-15T08:47:52Z</time>
      </trkpt>
      <trkpt lat="45.88279" lon="4.76232">
        <ele>213</ele>
        <time>2017-10-15T08:47:53Z</time>
      </trkpt>
      <trkpt lat="45.88277" lon="4.76243">
        <ele>213</ele>
        <time>2017-10-15T08:47:55Z</time>
      </trkpt>
      <trkpt lat="45.88277" lon="4.76249">
        <ele>213</ele>
        <time>2017-10-15T08:47:56Z</time>
      </trkpt>
      <trkpt lat="45.88276" lon="4.76261">
        <ele>214</ele>
        <time>2017-10-15T08:47:58Z</time>
      </trkpt>
      <trkpt lat="45.88275" lon="4.76267">
        <ele>214</ele>
        <time>2017-10-15T08:47:59Z</time>
      </trkpt>
      <trkpt lat="45.88273" lon="4.76279">
        <ele>214</ele>
        <time>2017-10-15T08:48:01Z</time>
      </trkpt>
      <trkpt lat="45.88272" lon="4.76285">
        <ele>214</ele>
        <time>2017-10-15T08:48:02Z</time>
      </trkpt>
      <trkpt lat="45.88271" lon="4.76292">
        <ele>214</ele>
        <time>2017-10-15T08:48:03Z</time>
      </trkpt>
      <trkpt lat="45.88269" lon="4.76298">
        <ele>214</ele>
        <time>2017-10-15T08:48:04Z</time>
      </trkpt>
      <trkpt lat="45.88267" lon="4.76304">
        <ele>214</ele>
        <time>2017-10-15T08:48:05Z</time>
      </trkpt>
      <trkpt lat="45.88267" lon="4.76311">
        <ele>214</ele>
        <time>2017-10-15T08:48:06Z</time>
      </trkpt>
      <trkpt lat="45.88263" lon="4.76322">
        <ele>214</ele>
        <time>2017-10-15T08:48:08Z</time>
      </trkpt>
      <trkpt lat="45.88262" lon="4.76328">
        <ele>214</ele>
        <time>2017-10-15T08:48:09Z</time>
      </trkpt>
      <trkpt lat="45.88259" lon="4.76339">
        <ele>214</ele>
        <time>2017-10-15T08:48:11Z</time>
      </trkpt>
      <trkpt lat="45.88257" lon="4.76345">
        <ele>214</ele>
        <time>2017-10-15T08:48:12Z</time>
      </trkpt>
      <trkpt lat="45.88255" lon="4.76351">
        <ele>214</ele>
        <time>2017-10-15T08:48:13Z</time>
      </trkpt>
      <trkpt lat="45.88253" lon="4.76357">
        <ele>214</ele>
        <time>2017-10-15T08:48:14Z</time>
      </trkpt>
      <trkpt lat="45.88249" lon="4.76368">
        <ele>215</ele>
        <time>2017-10-15T08:48:16Z</time>
      </trkpt>
      <trkpt lat="45.88247" lon="4.76374">
        <ele>215</ele>
        <time>2017-10-15T08:48:17Z</time>
      </trkpt>
      <trkpt lat="45.88243" lon="4.76384">
        <ele>215</ele>
        <time>2017-10-15T08:48:19Z</time>
      </trkpt>
      <trkpt lat="45.88241" lon="4.76389">
        <ele>215</ele>
        <time>2017-10-15T08:48:20Z</time>
      </trkpt>
      <trkpt lat="45.88236" lon="4.76398">
        <ele>215</ele>
        <time>2017-10-15T08:48:22Z</time>
      </trkpt>
      <trkpt lat="45.88234" lon="4.76404">
        <ele>215</ele>
        <time>2017-10-15T08:48:23Z</time>
      </trkpt>
      <trkpt lat="45.88232" lon="4.7641">
        <ele>215</ele>
        <time>2017-10-15T08:48:24Z</time>
      </trkpt>
      <trkpt lat="45.88231" lon="4.76417">
        <ele>214</ele>
        <time>2017-10-15T08:48:25Z</time>
      </trkpt>
      <trkpt lat="45.88226" lon="4.76428">
        <ele>214</ele>
        <time>2017-10-15T08:48:27Z</time>
      </trkpt>
      <trkpt lat="45.88224" lon="4.76434">
        <ele>214</ele>
        <time>2017-10-15T08:48:28Z</time>
      </trkpt>
      <trkpt lat="45.88222" lon="4.76439">
        <ele>214</ele>
        <time>2017-10-15T08:48:29Z</time>
      </trkpt>
      <trkpt lat="45.8822" lon="4.76445">
        <ele>214</ele>
        <time>2017-10-15T08:48:30Z</time>
      </trkpt>
      <trkpt lat="45.88216" lon="4.76456">
        <ele>214</ele>
        <time>2017-10-15T08:48:32Z</time>
      </trkpt>
      <trkpt lat="45.88214" lon="4.76461">
        <ele>214</ele>
        <time>2017-10-15T08:48:33Z</time>
      </trkpt>
      <trkpt lat="45.88212" lon="4.76467">
        <ele>214</ele>
        <time>2017-10-15T08:48:34Z</time>
      </trkpt>
      <trkpt lat="45.88211" lon="4.76474">
        <ele>214</ele>
        <time>2017-10-15T08:48:35Z</time>
      </trkpt>
      <trkpt lat="45.88209" lon="4.76481">
        <ele>214</ele>
        <time>2017-10-15T08:48:36Z</time>
      </trkpt>
      <trkpt lat="45.88206" lon="4.76488">
        <ele>214</ele>
        <time>2017-10-15T08:48:37Z</time>
      </trkpt>
      <trkpt lat="45.88204" lon="4.76495">
        <ele>214</ele>
        <time>2017-10-15T08:48:38Z</time>
      </trkpt>
      <trkpt lat="45.88201" lon="4.76502">
        <ele>214</ele>
        <time>2017-10-15T08:48:39Z</time>
      </trkpt>
      <trkpt lat="45.88198" lon="4.76509">
        <ele>214</ele>
        <time>2017-10-15T08:48:40Z</time>
      </trkpt>
      <trkpt lat="45.88196" lon="4.76516">
        <ele>214</ele>
        <time>2017-10-15T08:48:41Z</time>
      </trkpt>
      <trkpt lat="45.88194" lon="4.76524">
        <ele>214</ele>
        <time>2017-10-15T08:48:42Z</time>
      </trkpt>
      <trkpt lat="45.88192" lon="4.76531">
        <ele>214</ele>
        <time>2017-10-15T08:48:43Z</time>
      </trkpt>
      <trkpt lat="45.8819" lon="4.76538">
        <ele>214</ele>
        <time>2017-10-15T08:48:44Z</time>
      </trkpt>
      <trkpt lat="45.88187" lon="4.76546">
        <ele>214</ele>
        <time>2017-10-15T08:48:45Z</time>
      </trkpt>
      <trkpt lat="45.88185" lon="4.76553">
        <ele>214</ele>
        <time>2017-10-15T08:48:46Z</time>
      </trkpt>
      <trkpt lat="45.88182" lon="4.76561">
        <ele>214</ele>
        <time>2017-10-15T08:48:47Z</time>
      </trkpt>
      <trkpt lat="45.88181" lon="4.76568">
        <ele>214</ele>
        <time>2017-10-15T08:48:48Z</time>
      </trkpt>
      <trkpt lat="45.88179" lon="4.76575">
        <ele>215</ele>
        <time>2017-10-15T08:48:49Z</time>
      </trkpt>
      <trkpt lat="45.88177" lon="4.76581">
        <ele>215</ele>
        <time>2017-10-15T08:48:50Z</time>
      </trkpt>
      <trkpt lat="45.88175" lon="4.76589">
        <ele>214</ele>
        <time>2017-10-15T08:48:51Z</time>
      </trkpt>
      <trkpt lat="45.88173" lon="4.76596">
        <ele>214</ele>
        <time>2017-10-15T08:48:52Z</time>
      </trkpt>
      <trkpt lat="45.88171" lon="4.76603">
        <ele>214</ele>
        <time>2017-10-15T08:48:53Z</time>
      </trkpt>
      <trkpt lat="45.88169" lon="4.76609">
        <ele>214</ele>
        <time>2017-10-15T08:48:54Z</time>
      </trkpt>
      <trkpt lat="45.88167" lon="4.76615">
        <ele>215</ele>
        <time>2017-10-15T08:48:55Z</time>
      </trkpt>
      <trkpt lat="45.88165" lon="4.7662">
        <ele>215</ele>
        <time>2017-10-15T08:48:56Z</time>
      </trkpt>
      <trkpt lat="45.88162" lon="4.76626">
        <ele>215</ele>
        <time>2017-10-15T08:48:57Z</time>
      </trkpt>
      <trkpt lat="45.8816" lon="4.76633">
        <ele>215</ele>
        <time>2017-10-15T08:48:58Z</time>
      </trkpt>
      <trkpt lat="45.88158" lon="4.7664">
        <ele>215</ele>
        <time>2017-10-15T08:48:59Z</time>
      </trkpt>
      <trkpt lat="45.88155" lon="4.76646">
        <ele>214</ele>
        <time>2017-10-15T08:49:00Z</time>
      </trkpt>
      <trkpt lat="45.88152" lon="4.76653">
        <ele>214</ele>
        <time>2017-10-15T08:49:01Z</time>
      </trkpt>
      <trkpt lat="45.8815" lon="4.7666">
        <ele>214</ele>
        <time>2017-10-15T08:49:02Z</time>
      </trkpt>
      <trkpt lat="45.88147" lon="4.76667">
        <ele>214</ele>
        <time>2017-10-15T08:49:03Z</time>
      </trkpt>
      <trkpt lat="45.88145" lon="4.76674">
        <ele>214</ele>
        <time>2017-10-15T08:49:04Z</time>
      </trkpt>
      <trkpt lat="45.88143" lon="4.7668">
        <ele>214</ele>
        <time>2017-10-15T08:49:05Z</time>
      </trkpt>
      <trkpt lat="45.8814" lon="4.76687">
        <ele>214</ele>
        <time>2017-10-15T08:49:06Z</time>
      </trkpt>
      <trkpt lat="45.88136" lon="4.76693">
        <ele>214</ele>
        <time>2017-10-15T08:49:07Z</time>
      </trkpt>
      <trkpt lat="45.88133" lon="4.76699">
        <ele>214</ele>
        <time>2017-10-15T08:49:08Z</time>
      </trkpt>
      <trkpt lat="45.88129" lon="4.76706">
        <ele>214</ele>
        <time>2017-10-15T08:49:09Z</time>
      </trkpt>
      <trkpt lat="45.88126" lon="4.76712">
        <ele>214</ele>
        <time>2017-10-15T08:49:10Z</time>
      </trkpt>
      <trkpt lat="45.88123" lon="4.76719">
        <ele>214</ele>
        <time>2017-10-15T08:49:11Z</time>
      </trkpt>
      <trkpt lat="45.8812" lon="4.76725">
        <ele>214</ele>
        <time>2017-10-15T08:49:12Z</time>
      </trkpt>
      <trkpt lat="45.88117" lon="4.76732">
        <ele>214</ele>
        <time>2017-10-15T08:49:13Z</time>
      </trkpt>
      <trkpt lat="45.88114" lon="4.76738">
        <ele>214</ele>
        <time>2017-10-15T08:49:14Z</time>
      </trkpt>
      <trkpt lat="45.88112" lon="4.76745">
        <ele>214</ele>
        <time>2017-10-15T08:49:15Z</time>
      </trkpt>
      <trkpt lat="45.88109" lon="4.76751">
        <ele>213</ele>
        <time>2017-10-15T08:49:16Z</time>
      </trkpt>
      <trkpt lat="45.88108" lon="4.76757">
        <ele>213</ele>
        <time>2017-10-15T08:49:17Z</time>
      </trkpt>
      <trkpt lat="45.88107" lon="4.76764">
        <ele>213</ele>
        <time>2017-10-15T08:49:18Z</time>
      </trkpt>
      <trkpt lat="45.88106" lon="4.7677">
        <ele>213</ele>
        <time>2017-10-15T08:49:19Z</time>
      </trkpt>
      <trkpt lat="45.88106" lon="4.76777">
        <ele>213</ele>
        <time>2017-10-15T08:49:20Z</time>
      </trkpt>
      <trkpt lat="45.88105" lon="4.76786">
        <ele>213</ele>
        <time>2017-10-15T08:49:21Z</time>
      </trkpt>
      <trkpt lat="45.88105" lon="4.76792">
        <ele>213</ele>
        <time>2017-10-15T08:49:22Z</time>
      </trkpt>
      <trkpt lat="45.88104" lon="4.768">
        <ele>213</ele>
        <time>2017-10-15T08:49:23Z</time>
      </trkpt>
      <trkpt lat="45.88103" lon="4.76809">
        <ele>213</ele>
        <time>2017-10-15T08:49:24Z</time>
      </trkpt>
      <trkpt lat="45.88102" lon="4.76817">
        <ele>213</ele>
        <time>2017-10-15T08:49:25Z</time>
      </trkpt>
      <trkpt lat="45.88101" lon="4.76825">
        <ele>213</ele>
        <time>2017-10-15T08:49:26Z</time>
      </trkpt>
      <trkpt lat="45.88101" lon="4.76831">
        <ele>213</ele>
        <time>2017-10-15T08:49:27Z</time>
      </trkpt>
      <trkpt lat="45.881" lon="4.7684">
        <ele>212</ele>
        <time>2017-10-15T08:49:28Z</time>
      </trkpt>
      <trkpt lat="45.88099" lon="4.76848">
        <ele>212</ele>
        <time>2017-10-15T08:49:29Z</time>
      </trkpt>
      <trkpt lat="45.88097" lon="4.76855">
        <ele>212</ele>
        <time>2017-10-15T08:49:30Z</time>
      </trkpt>
      <trkpt lat="45.88096" lon="4.76862">
        <ele>212</ele>
        <time>2017-10-15T08:49:31Z</time>
      </trkpt>
      <trkpt lat="45.88094" lon="4.76869">
        <ele>212</ele>
        <time>2017-10-15T08:49:32Z</time>
      </trkpt>
      <trkpt lat="45.88093" lon="4.76876">
        <ele>212</ele>
        <time>2017-10-15T08:49:33Z</time>
      </trkpt>
      <trkpt lat="45.88093" lon="4.76884">
        <ele>212</ele>
        <time>2017-10-15T08:49:34Z</time>
      </trkpt>
      <trkpt lat="45.88092" lon="4.76891">
        <ele>212</ele>
        <time>2017-10-15T08:49:35Z</time>
      </trkpt>
      <trkpt lat="45.88092" lon="4.76898">
        <ele>212</ele>
        <time>2017-10-15T08:49:36Z</time>
      </trkpt>
      <trkpt lat="45.88091" lon="4.76904">
        <ele>212</ele>
        <time>2017-10-15T08:49:37Z</time>
      </trkpt>
      <trkpt lat="45.88089" lon="4.76917">
        <ele>213</ele>
        <time>2017-10-15T08:49:39Z</time>
      </trkpt>
      <trkpt lat="45.88089" lon="4.76923">
        <ele>213</ele>
        <time>2017-10-15T08:49:40Z</time>
      </trkpt>
      <trkpt lat="45.88087" lon="4.76933">
        <ele>212</ele>
        <time>2017-10-15T08:49:42Z</time>
      </trkpt>
      <trkpt lat="45.88086" lon="4.76938">
        <ele>212</ele>
        <time>2017-10-15T08:49:43Z</time>
      </trkpt>
      <trkpt lat="45.88083" lon="4.76948">
        <ele>213</ele>
        <time>2017-10-15T08:49:45Z</time>
      </trkpt>
      <trkpt lat="45.88081" lon="4.76954">
        <ele>213</ele>
        <time>2017-10-15T08:49:46Z</time>
      </trkpt>
      <trkpt lat="45.8808" lon="4.7696">
        <ele>213</ele>
        <time>2017-10-15T08:49:47Z</time>
      </trkpt>
      <trkpt lat="45.88079" lon="4.76967">
        <ele>213</ele>
        <time>2017-10-15T08:49:48Z</time>
      </trkpt>
      <trkpt lat="45.88077" lon="4.76974">
        <ele>213</ele>
        <time>2017-10-15T08:49:49Z</time>
      </trkpt>
      <trkpt lat="45.88075" lon="4.7698">
        <ele>213</ele>
        <time>2017-10-15T08:49:50Z</time>
      </trkpt>
      <trkpt lat="45.88072" lon="4.76992">
        <ele>213</ele>
        <time>2017-10-15T08:49:52Z</time>
      </trkpt>
      <trkpt lat="45.88071" lon="4.76997">
        <ele>213</ele>
        <time>2017-10-15T08:49:53Z</time>
      </trkpt>
      <trkpt lat="45.88069" lon="4.77007">
        <ele>213</ele>
        <time>2017-10-15T08:49:55Z</time>
      </trkpt>
      <trkpt lat="45.88066" lon="4.77012">
        <ele>214</ele>
        <time>2017-10-15T08:49:56Z</time>
      </trkpt>
      <trkpt lat="45.88065" lon="4.77023">
        <ele>214</ele>
        <time>2017-10-15T08:49:58Z</time>
      </trkpt>
      <trkpt lat="45.88064" lon="4.77028">
        <ele>214</ele>
        <time>2017-10-15T08:49:59Z</time>
      </trkpt>
      <trkpt lat="45.88061" lon="4.7704">
        <ele>214</ele>
        <time>2017-10-15T08:50:01Z</time>
      </trkpt>
      <trkpt lat="45.8806" lon="4.77047">
        <ele>214</ele>
        <time>2017-10-15T08:50:02Z</time>
      </trkpt>
      <trkpt lat="45.88057" lon="4.77058">
        <ele>214</ele>
        <time>2017-10-15T08:50:04Z</time>
      </trkpt>
      <trkpt lat="45.88054" lon="4.77064">
        <ele>214</ele>
        <time>2017-10-15T08:50:05Z</time>
      </trkpt>
      <trkpt lat="45.88052" lon="4.7707">
        <ele>214</ele>
        <time>2017-10-15T08:50:06Z</time>
      </trkpt>
      <trkpt lat="45.8805" lon="4.77077">
        <ele>214</ele>
        <time>2017-10-15T08:50:07Z</time>
      </trkpt>
      <trkpt lat="45.88048" lon="4.77084">
        <ele>215</ele>
        <time>2017-10-15T08:50:08Z</time>
      </trkpt>
      <trkpt lat="45.88046" lon="4.77092">
        <ele>215</ele>
        <time>2017-10-15T08:50:09Z</time>
      </trkpt>
      <trkpt lat="45.88045" lon="4.771">
        <ele>215</ele>
        <time>2017-10-15T08:50:10Z</time>
      </trkpt>
      <trkpt lat="45.88043" lon="4.77107">
        <ele>215</ele>
        <time>2017-10-15T08:50:11Z</time>
      </trkpt>
      <trkpt lat="45.88042" lon="4.77114">
        <ele>215</ele>
        <time>2017-10-15T08:50:12Z</time>
      </trkpt>
      <trkpt lat="45.88041" lon="4.77121">
        <ele>215</ele>
        <time>2017-10-15T08:50:13Z</time>
      </trkpt>
      <trkpt lat="45.8804" lon="4.77129">
        <ele>215</ele>
        <time>2017-10-15T08:50:14Z</time>
      </trkpt>
      <trkpt lat="45.88039" lon="4.77135">
        <ele>215</ele>
        <time>2017-10-15T08:50:15Z</time>
      </trkpt>
      <trkpt lat="45.88038" lon="4.77141">
        <ele>215</ele>
        <time>2017-10-15T08:50:16Z</time>
      </trkpt>
      <trkpt lat="45.88037" lon="4.77148">
        <ele>215</ele>
        <time>2017-10-15T08:50:17Z</time>
      </trkpt>
      <trkpt lat="45.88037" lon="4.77155">
        <ele>215</ele>
        <time>2017-10-15T08:50:18Z</time>
      </trkpt>
      <trkpt lat="45.88036" lon="4.77162">
        <ele>215</ele>
        <time>2017-10-15T08:50:19Z</time>
      </trkpt>
      <trkpt lat="45.88036" lon="4.77169">
        <ele>216</ele>
        <time>2017-10-15T08:50:20Z</time>
      </trkpt>
      <trkpt lat="45.88035" lon="4.77177">
        <ele>216</ele>
        <time>2017-10-15T08:50:21Z</time>
      </trkpt>
      <trkpt lat="45.88035" lon="4.77184">
        <ele>216</ele>
        <time>2017-10-15T08:50:22Z</time>
      </trkpt>
      <trkpt lat="45.88034" lon="4.77191">
        <ele>216</ele>
        <time>2017-10-15T08:50:23Z</time>
      </trkpt>
      <trkpt lat="45.88033" lon="4.77199">
        <ele>216</ele>
        <time>2017-10-15T08:50:24Z</time>
      </trkpt>
      <trkpt lat="45.88032" lon="4.77207">
        <ele>216</ele>
        <time>2017-10-15T08:50:25Z</time>
      </trkpt>
      <trkpt lat="45.88031" lon="4.77213">
        <ele>216</ele>
        <time>2017-10-15T08:50:26Z</time>
      </trkpt>
      <trkpt lat="45.8803" lon="4.7722">
        <ele>216</ele>
        <time>2017-10-15T08:50:27Z</time>
      </trkpt>
      <trkpt lat="45.88029" lon="4.77232">
        <ele>216</ele>
        <time>2017-10-15T08:50:29Z</time>
      </trkpt>
      <trkpt lat="45.88027" lon="4.77239">
        <ele>216</ele>
        <time>2017-10-15T08:50:30Z</time>
      </trkpt>
      <trkpt lat="45.88026" lon="4.77247">
        <ele>216</ele>
        <time>2017-10-15T08:50:31Z</time>
      </trkpt>
      <trkpt lat="45.88025" lon="4.77254">
        <ele>216</ele>
        <time>2017-10-15T08:50:32Z</time>
      </trkpt>
      <trkpt lat="45.88024" lon="4.77263">
        <ele>216</ele>
        <time>2017-10-15T08:50:33Z</time>
      </trkpt>
      <trkpt lat="45.88024" lon="4.77272">
        <ele>216</ele>
        <time>2017-10-15T08:50:34Z</time>
      </trkpt>
      <trkpt lat="45.88023" lon="4.77279">
        <ele>215</ele>
        <time>2017-10-15T08:50:35Z</time>
      </trkpt>
      <trkpt lat="45.88022" lon="4.77287">
        <ele>215</ele>
        <time>2017-10-15T08:50:36Z</time>
      </trkpt>
      <trkpt lat="45.88021" lon="4.77295">
        <ele>215</ele>
        <time>2017-10-15T08:50:37Z</time>
      </trkpt>
      <trkpt lat="45.88019" lon="4.77303">
        <ele>215</ele>
        <time>2017-10-15T08:50:38Z</time>
      </trkpt>
      <trkpt lat="45.88018" lon="4.77311">
        <ele>215</ele>
        <time>2017-10-15T08:50:39Z</time>
      </trkpt>
      <trkpt lat="45.88017" lon="4.77318">
        <ele>215</ele>
        <time>2017-10-15T08:50:40Z</time>
      </trkpt>
      <trkpt lat="45.88016" lon="4.77327">
        <ele>215</ele>
        <time>2017-10-15T08:50:41Z</time>
      </trkpt>
      <trkpt lat="45.88014" lon="4.77336">
        <ele>215</ele>
        <time>2017-10-15T08:50:42Z</time>
      </trkpt>
      <trkpt lat="45.88014" lon="4.77344">
        <ele>215</ele>
        <time>2017-10-15T08:50:43Z</time>
      </trkpt>
      <trkpt lat="45.88013" lon="4.77351">
        <ele>215</ele>
        <time>2017-10-15T08:50:44Z</time>
      </trkpt>
      <trkpt lat="45.88012" lon="4.77358">
        <ele>215</ele>
        <time>2017-10-15T08:50:45Z</time>
      </trkpt>
      <trkpt lat="45.8801" lon="4.77366">
        <ele>215</ele>
        <time>2017-10-15T08:50:46Z</time>
      </trkpt>
      <trkpt lat="45.88009" lon="4.77372">
        <ele>215</ele>
        <time>2017-10-15T08:50:47Z</time>
      </trkpt>
      <trkpt lat="45.88008" lon="4.77379">
        <ele>215</ele>
        <time>2017-10-15T08:50:48Z</time>
      </trkpt>
      <trkpt lat="45.88007" lon="4.77386">
        <ele>215</ele>
        <time>2017-10-15T08:50:49Z</time>
      </trkpt>
      <trkpt lat="45.88005" lon="4.77394">
        <ele>215</ele>
        <time>2017-10-15T08:50:50Z</time>
      </trkpt>
      <trkpt lat="45.88004" lon="4.77401">
        <ele>215</ele>
        <time>2017-10-15T08:50:51Z</time>
      </trkpt>
      <trkpt lat="45.88002" lon="4.77409">
        <ele>215</ele>
        <time>2017-10-15T08:50:52Z</time>
      </trkpt>
      <trkpt lat="45.88" lon="4.77417">
        <ele>215</ele>
        <time>2017-10-15T08:50:53Z</time>
      </trkpt>
      <trkpt lat="45.87999" lon="4.77425">
        <ele>216</ele>
        <time>2017-10-15T08:50:54Z</time>
      </trkpt>
      <trkpt lat="45.87998" lon="4.77433">
        <ele>216</ele>
        <time>2017-10-15T08:50:55Z</time>
      </trkpt>
      <trkpt lat="45.87997" lon="4.7744">
        <ele>216</ele>
        <time>2017-10-15T08:50:56Z</time>
      </trkpt>
      <trkpt lat="45.87995" lon="4.77448">
        <ele>217</ele>
        <time>2017-10-15T08:50:57Z</time>
      </trkpt>
      <trkpt lat="45.87994" lon="4.77456">
        <ele>217</ele>
        <time>2017-10-15T08:50:58Z</time>
      </trkpt>
      <trkpt lat="45.87993" lon="4.77463">
        <ele>217</ele>
        <time>2017-10-15T08:50:59Z</time>
      </trkpt>
      <trkpt lat="45.87992" lon="4.7747">
        <ele>217</ele>
        <time>2017-10-15T08:51:00Z</time>
      </trkpt>
      <trkpt lat="45.87992" lon="4.77477">
        <ele>217</ele>
        <time>2017-10-15T08:51:01Z</time>
      </trkpt>
      <trkpt lat="45.87991" lon="4.77485">
        <ele>217</ele>
        <time>2017-10-15T08:51:02Z</time>
      </trkpt>
      <trkpt lat="45.8799" lon="4.77492">
        <ele>216</ele>
        <time>2017-10-15T08:51:03Z</time>
      </trkpt>
      <trkpt lat="45.87991" lon="4.775">
        <ele>216</ele>
        <time>2017-10-15T08:51:04Z</time>
      </trkpt>
      <trkpt lat="45.8799" lon="4.77508">
        <ele>217</ele>
        <time>2017-10-15T08:51:05Z</time>
      </trkpt>
      <trkpt lat="45.87989" lon="4.77517">
        <ele>217</ele>
        <time>2017-10-15T08:51:06Z</time>
      </trkpt>
      <trkpt lat="45.87988" lon="4.77524">
        <ele>217</ele>
        <time>2017-10-15T08:51:07Z</time>
      </trkpt>
      <trkpt lat="45.87988" lon="4.77531">
        <ele>217</ele>
        <time>2017-10-15T08:51:08Z</time>
      </trkpt>
      <trkpt lat="45.87988" lon="4.77538">
        <ele>217</ele>
        <time>2017-10-15T08:51:09Z</time>
      </trkpt>
      <trkpt lat="45.87986" lon="4.77546">
        <ele>217</ele>
        <time>2017-10-15T08:51:10Z</time>
      </trkpt>
      <trkpt lat="45.87985" lon="4.77552">
        <ele>217</ele>
        <time>2017-10-15T08:51:11Z</time>
      </trkpt>
      <trkpt lat="45.87985" lon="4.7756">
        <ele>217</ele>
        <time>2017-10-15T08:51:12Z</time>
      </trkpt>
      <trkpt lat="45.87984" lon="4.77568">
        <ele>217</ele>
        <time>2017-10-15T08:51:13Z</time>
      </trkpt>
      <trkpt lat="45.87982" lon="4.77575">
        <ele>217</ele>
        <time>2017-10-15T08:51:14Z</time>
      </trkpt>
      <trkpt lat="45.8798" lon="4.77582">
        <ele>217</ele>
        <time>2017-10-15T08:51:15Z</time>
      </trkpt>
      <trkpt lat="45.87979" lon="4.77591">
        <ele>218</ele>
        <time>2017-10-15T08:51:16Z</time>
      </trkpt>
      <trkpt lat="45.87978" lon="4.77598">
        <ele>218</ele>
        <time>2017-10-15T08:51:17Z</time>
      </trkpt>
      <trkpt lat="45.87976" lon="4.77606">
        <ele>218</ele>
        <time>2017-10-15T08:51:18Z</time>
      </trkpt>
      <trkpt lat="45.87974" lon="4.77613">
        <ele>218</ele>
        <time>2017-10-15T08:51:19Z</time>
      </trkpt>
      <trkpt lat="45.87973" lon="4.77619">
        <ele>218</ele>
        <time>2017-10-15T08:51:20Z</time>
      </trkpt>
      <trkpt lat="45.87969" lon="4.77631">
        <ele>218</ele>
        <time>2017-10-15T08:51:22Z</time>
      </trkpt>
      <trkpt lat="45.87967" lon="4.77637">
        <ele>218</ele>
        <time>2017-10-15T08:51:23Z</time>
      </trkpt>
      <trkpt lat="45.87965" lon="4.77649">
        <ele>218</ele>
        <time>2017-10-15T08:51:25Z</time>
      </trkpt>
      <trkpt lat="45.87964" lon="4.77655">
        <ele>218</ele>
        <time>2017-10-15T08:51:26Z</time>
      </trkpt>
      <trkpt lat="45.87962" lon="4.77662">
        <ele>218</ele>
        <time>2017-10-15T08:51:27Z</time>
      </trkpt>
      <trkpt lat="45.87959" lon="4.77667">
        <ele>218</ele>
        <time>2017-10-15T08:51:28Z</time>
      </trkpt>
      <trkpt lat="45.87957" lon="4.77674">
        <ele>218</ele>
        <time>2017-10-15T08:51:29Z</time>
      </trkpt>
      <trkpt lat="45.87953" lon="4.77679">
        <ele>218</ele>
        <time>2017-10-15T08:51:30Z</time>
      </trkpt>
      <trkpt lat="45.87952" lon="4.77686">
        <ele>218</ele>
        <time>2017-10-15T08:51:31Z</time>
      </trkpt>
      <trkpt lat="45.87951" lon="4.77693">
        <ele>218</ele>
        <time>2017-10-15T08:51:32Z</time>
      </trkpt>
      <trkpt lat="45.87949" lon="4.77704">
        <ele>218</ele>
        <time>2017-10-15T08:51:33Z</time>
      </trkpt>
      <trkpt lat="45.87948" lon="4.77712">
        <ele>219</ele>
        <time>2017-10-15T08:51:34Z</time>
      </trkpt>
      <trkpt lat="45.87948" lon="4.7772">
        <ele>219</ele>
        <time>2017-10-15T08:51:35Z</time>
      </trkpt>
      <trkpt lat="45.87948" lon="4.7773">
        <ele>219</ele>
        <time>2017-10-15T08:51:36Z</time>
      </trkpt>
      <trkpt lat="45.87949" lon="4.77737">
        <ele>219</ele>
        <time>2017-10-15T08:51:37Z</time>
      </trkpt>
      <trkpt lat="45.8795" lon="4.77745">
        <ele>219</ele>
        <time>2017-10-15T08:51:38Z</time>
      </trkpt>
      <trkpt lat="45.8795" lon="4.77753">
        <ele>219</ele>
        <time>2017-10-15T08:51:39Z</time>
      </trkpt>
      <trkpt lat="45.87951" lon="4.7776">
        <ele>219</ele>
        <time>2017-10-15T08:51:40Z</time>
      </trkpt>
      <trkpt lat="45.87953" lon="4.77767">
        <ele>219</ele>
        <time>2017-10-15T08:51:41Z</time>
      </trkpt>
      <trkpt lat="45.87953" lon="4.77773">
        <ele>219</ele>
        <time>2017-10-15T08:51:42Z</time>
      </trkpt>
      <trkpt lat="45.87954" lon="4.7778">
        <ele>219</ele>
        <time>2017-10-15T08:51:43Z</time>
      </trkpt>
      <trkpt lat="45.87955" lon="4.77786">
        <ele>219</ele>
        <time>2017-10-15T08:51:44Z</time>
      </trkpt>
      <trkpt lat="45.87956" lon="4.77793">
        <ele>219</ele>
        <time>2017-10-15T08:51:45Z</time>
      </trkpt>
      <trkpt lat="45.87957" lon="4.77799">
        <ele>219</ele>
        <time>2017-10-15T08:51:46Z</time>
      </trkpt>
      <trkpt lat="45.87958" lon="4.77806">
        <ele>219</ele>
        <time>2017-10-15T08:51:47Z</time>
      </trkpt>
      <trkpt lat="45.8796" lon="4.77813">
        <ele>219</ele>
        <time>2017-10-15T08:51:48Z</time>
      </trkpt>
      <trkpt lat="45.87961" lon="4.7782">
        <ele>219</ele>
        <time>2017-10-15T08:51:49Z</time>
      </trkpt>
      <trkpt lat="45.87961" lon="4.77828">
        <ele>219</ele>
        <time>2017-10-15T08:51:50Z</time>
      </trkpt>
      <trkpt lat="45.87961" lon="4.77835">
        <ele>219</ele>
        <time>2017-10-15T08:51:51Z</time>
      </trkpt>
      <trkpt lat="45.87961" lon="4.77842">
        <ele>219</ele>
        <time>2017-10-15T08:51:52Z</time>
      </trkpt>
      <trkpt lat="45.87961" lon="4.77849">
        <ele>219</ele>
        <time>2017-10-15T08:51:53Z</time>
      </trkpt>
      <trkpt lat="45.87961" lon="4.77856">
        <ele>219</ele>
        <time>2017-10-15T08:51:54Z</time>
      </trkpt>
      <trkpt lat="45.87961" lon="4.77863">
        <ele>220</ele>
        <time>2017-10-15T08:51:55Z</time>
      </trkpt>
      <trkpt lat="45.87961" lon="4.77869">
        <ele>220</ele>
        <time>2017-10-15T08:51:56Z</time>
      </trkpt>
      <trkpt lat="45.87962" lon="4.77876">
        <ele>220</ele>
        <time>2017-10-15T08:51:57Z</time>
      </trkpt>
      <trkpt lat="45.87963" lon="4.77883">
        <ele>220</ele>
        <time>2017-10-15T08:51:58Z</time>
      </trkpt>
      <trkpt lat="45.87965" lon="4.77894">
        <ele>220</ele>
        <time>2017-10-15T08:52:00Z</time>
      </trkpt>
      <trkpt lat="45.87965" lon="4.779">
        <ele>220</ele>
        <time>2017-10-15T08:52:01Z</time>
      </trkpt>
      <trkpt lat="45.87965" lon="4.77909">
        <ele>220</ele>
        <time>2017-10-15T08:52:03Z</time>
      </trkpt>
      <trkpt lat="45.87965" lon="4.77913">
        <ele>220</ele>
        <time>2017-10-15T08:52:04Z</time>
      </trkpt>
      <trkpt lat="45.87966" lon="4.77926">
        <ele>220</ele>
        <time>2017-10-15T08:52:06Z</time>
      </trkpt>
      <trkpt lat="45.87966" lon="4.77931">
        <ele>220</ele>
        <time>2017-10-15T08:52:07Z</time>
      </trkpt>
      <trkpt lat="45.87967" lon="4.77938">
        <ele>220</ele>
        <time>2017-10-15T08:52:08Z</time>
      </trkpt>
      <trkpt lat="45.87969" lon="4.77944">
        <ele>220</ele>
        <time>2017-10-15T08:52:09Z</time>
      </trkpt>
      <trkpt lat="45.87973" lon="4.77956">
        <ele>220</ele>
        <time>2017-10-15T08:52:11Z</time>
      </trkpt>
      <trkpt lat="45.87975" lon="4.77963">
        <ele>219</ele>
        <time>2017-10-15T08:52:12Z</time>
      </trkpt>
      <trkpt lat="45.87976" lon="4.77969">
        <ele>219</ele>
        <time>2017-10-15T08:52:13Z</time>
      </trkpt>
      <trkpt lat="45.87978" lon="4.77978">
        <ele>219</ele>
        <time>2017-10-15T08:52:14Z</time>
      </trkpt>
      <trkpt lat="45.87979" lon="4.77986">
        <ele>219</ele>
        <time>2017-10-15T08:52:15Z</time>
      </trkpt>
      <trkpt lat="45.8798" lon="4.77993">
        <ele>219</ele>
        <time>2017-10-15T08:52:16Z</time>
      </trkpt>
      <trkpt lat="45.87982" lon="4.78001">
        <ele>218</ele>
        <time>2017-10-15T08:52:17Z</time>
      </trkpt>
      <trkpt lat="45.87983" lon="4.78009">
        <ele>218</ele>
        <time>2017-10-15T08:52:18Z</time>
      </trkpt>
      <trkpt lat="45.87984" lon="4.78017">
        <ele>218</ele>
        <time>2017-10-15T08:52:19Z</time>
      </trkpt>
      <trkpt lat="45.87985" lon="4.78024">
        <ele>218</ele>
        <time>2017-10-15T08:52:20Z</time>
      </trkpt>
      <trkpt lat="45.87987" lon="4.78031">
        <ele>218</ele>
        <time>2017-10-15T08:52:21Z</time>
      </trkpt>
      <trkpt lat="45.87989" lon="4.78039">
        <ele>217</ele>
        <time>2017-10-15T08:52:22Z</time>
      </trkpt>
      <trkpt lat="45.8799" lon="4.78046">
        <ele>217</ele>
        <time>2017-10-15T08:52:23Z</time>
      </trkpt>
      <trkpt lat="45.87991" lon="4.78054">
        <ele>217</ele>
        <time>2017-10-15T08:52:24Z</time>
      </trkpt>
      <trkpt lat="45.87994" lon="4.78062">
        <ele>217</ele>
        <time>2017-10-15T08:52:25Z</time>
      </trkpt>
      <trkpt lat="45.87995" lon="4.7807">
        <ele>216</ele>
        <time>2017-10-15T08:52:26Z</time>
      </trkpt>
      <trkpt lat="45.87996" lon="4.78077">
        <ele>216</ele>
        <time>2017-10-15T08:52:27Z</time>
      </trkpt>
      <trkpt lat="45.87997" lon="4.78085">
        <ele>215</ele>
        <time>2017-10-15T08:52:28Z</time>
      </trkpt>
      <trkpt lat="45.87998" lon="4.78092">
        <ele>215</ele>
        <time>2017-10-15T08:52:29Z</time>
      </trkpt>
      <trkpt lat="45.87999" lon="4.78101">
        <ele>216</ele>
        <time>2017-10-15T08:52:30Z</time>
      </trkpt>
      <trkpt lat="45.88001" lon="4.78108">
        <ele>214</ele>
        <time>2017-10-15T08:52:31Z</time>
      </trkpt>
      <trkpt lat="45.88002" lon="4.78116">
        <ele>214</ele>
        <time>2017-10-15T08:52:32Z</time>
      </trkpt>
      <trkpt lat="45.88003" lon="4.78124">
        <ele>214</ele>
        <time>2017-10-15T08:52:33Z</time>
      </trkpt>
      <trkpt lat="45.88003" lon="4.78131">
        <ele>214</ele>
        <time>2017-10-15T08:52:34Z</time>
      </trkpt>
      <trkpt lat="45.88003" lon="4.78139">
        <ele>214</ele>
        <time>2017-10-15T08:52:35Z</time>
      </trkpt>
      <trkpt lat="45.88002" lon="4.78147">
        <ele>214</ele>
        <time>2017-10-15T08:52:36Z</time>
      </trkpt>
      <trkpt lat="45.88003" lon="4.78155">
        <ele>214</ele>
        <time>2017-10-15T08:52:37Z</time>
      </trkpt>
      <trkpt lat="45.88003" lon="4.78162">
        <ele>215</ele>
        <time>2017-10-15T08:52:38Z</time>
      </trkpt>
      <trkpt lat="45.88004" lon="4.7817">
        <ele>215</ele>
        <time>2017-10-15T08:52:39Z</time>
      </trkpt>
      <trkpt lat="45.88004" lon="4.78178">
        <ele>214</ele>
        <time>2017-10-15T08:52:40Z</time>
      </trkpt>
      <trkpt lat="45.88004" lon="4.78188">
        <ele>214</ele>
        <time>2017-10-15T08:52:41Z</time>
      </trkpt>
      <trkpt lat="45.88003" lon="4.78197">
        <ele>214</ele>
        <time>2017-10-15T08:52:42Z</time>
      </trkpt>
      <trkpt lat="45.88002" lon="4.78206">
        <ele>214</ele>
        <time>2017-10-15T08:52:43Z</time>
      </trkpt>
      <trkpt lat="45.88" lon="4.78214">
        <ele>214</ele>
        <time>2017-10-15T08:52:44Z</time>
      </trkpt>
      <trkpt lat="45.88" lon="4.78223">
        <ele>215</ele>
        <time>2017-10-15T08:52:45Z</time>
      </trkpt>
      <trkpt lat="45.87998" lon="4.7823">
        <ele>215</ele>
        <time>2017-10-15T08:52:46Z</time>
      </trkpt>
      <trkpt lat="45.87996" lon="4.78238">
        <ele>215</ele>
        <time>2017-10-15T08:52:47Z</time>
      </trkpt>
      <trkpt lat="45.87996" lon="4.78245">
        <ele>214</ele>
        <time>2017-10-15T08:52:48Z</time>
      </trkpt>
      <trkpt lat="45.87995" lon="4.78253">
        <ele>214</ele>
        <time>2017-10-15T08:52:49Z</time>
      </trkpt>
      <trkpt lat="45.87994" lon="4.7826">
        <ele>215</ele>
        <time>2017-10-15T08:52:50Z</time>
      </trkpt>
      <trkpt lat="45.87993" lon="4.78267">
        <ele>215</ele>
        <time>2017-10-15T08:52:51Z</time>
      </trkpt>
      <trkpt lat="45.87992" lon="4.78274">
        <ele>215</ele>
        <time>2017-10-15T08:52:52Z</time>
      </trkpt>
      <trkpt lat="45.87992" lon="4.78281">
        <ele>215</ele>
        <time>2017-10-15T08:52:53Z</time>
      </trkpt>
      <trkpt lat="45.8799" lon="4.78287">
        <ele>215</ele>
        <time>2017-10-15T08:52:54Z</time>
      </trkpt>
      <trkpt lat="45.8799" lon="4.78295">
        <ele>215</ele>
        <time>2017-10-15T08:52:55Z</time>
      </trkpt>
      <trkpt lat="45.87989" lon="4.78302">
        <ele>215</ele>
        <time>2017-10-15T08:52:56Z</time>
      </trkpt>
      <trkpt lat="45.87988" lon="4.78309">
        <ele>215</ele>
        <time>2017-10-15T08:52:57Z</time>
      </trkpt>
      <trkpt lat="45.87987" lon="4.78316">
        <ele>215</ele>
        <time>2017-10-15T08:52:58Z</time>
      </trkpt>
      <trkpt lat="45.87987" lon="4.78324">
        <ele>215</ele>
        <time>2017-10-15T08:52:59Z</time>
      </trkpt>
      <trkpt lat="45.87985" lon="4.7833">
        <ele>215</ele>
        <time>2017-10-15T08:53:00Z</time>
      </trkpt>
      <trkpt lat="45.87984" lon="4.78336">
        <ele>215</ele>
        <time>2017-10-15T08:53:01Z</time>
      </trkpt>
      <trkpt lat="45.87984" lon="4.78344">
        <ele>215</ele>
        <time>2017-10-15T08:53:02Z</time>
      </trkpt>
      <trkpt lat="45.87983" lon="4.7835">
        <ele>215</ele>
        <time>2017-10-15T08:53:03Z</time>
      </trkpt>
      <trkpt lat="45.87982" lon="4.78357">
        <ele>215</ele>
        <time>2017-10-15T08:53:04Z</time>
      </trkpt>
      <trkpt lat="45.87981" lon="4.78363">
        <ele>215</ele>
        <time>2017-10-15T08:53:05Z</time>
      </trkpt>
      <trkpt lat="45.87981" lon="4.78371">
        <ele>215</ele>
        <time>2017-10-15T08:53:06Z</time>
      </trkpt>
      <trkpt lat="45.87982" lon="4.78383">
        <ele>215</ele>
        <time>2017-10-15T08:53:08Z</time>
      </trkpt>
      <trkpt lat="45.87982" lon="4.78388">
        <ele>215</ele>
        <time>2017-10-15T08:53:09Z</time>
      </trkpt>
      <trkpt lat="45.87984" lon="4.78399">
        <ele>214</ele>
        <time>2017-10-15T08:53:11Z</time>
      </trkpt>
      <trkpt lat="45.87985" lon="4.78403">
        <ele>214</ele>
        <time>2017-10-15T08:53:12Z</time>
      </trkpt>
      <trkpt lat="45.87984" lon="4.78414">
        <ele>214</ele>
        <time>2017-10-15T08:53:16Z</time>
      </trkpt>
      <trkpt lat="45.87983" lon="4.78417">
        <ele>214</ele>
        <time>2017-10-15T08:53:17Z</time>
      </trkpt>
      <trkpt lat="45.87976" lon="4.78424">
        <ele>215</ele>
        <time>2017-10-15T08:53:20Z</time>
      </trkpt>
      <trkpt lat="45.87973" lon="4.78424">
        <ele>215</ele>
        <time>2017-10-15T08:53:21Z</time>
      </trkpt>
      <trkpt lat="45.87966" lon="4.78425">
        <ele>215</ele>
        <time>2017-10-15T08:53:23Z</time>
      </trkpt>
      <trkpt lat="45.87962" lon="4.78425">
        <ele>215</ele>
        <time>2017-10-15T08:53:24Z</time>
      </trkpt>
      <trkpt lat="45.87955" lon="4.78427">
        <ele>216</ele>
        <time>2017-10-15T08:53:26Z</time>
      </trkpt>
      <trkpt lat="45.87952" lon="4.78428">
        <ele>216</ele>
        <time>2017-10-15T08:53:27Z</time>
      </trkpt>
      <trkpt lat="45.87945" lon="4.7843">
        <ele>216</ele>
        <time>2017-10-15T08:53:29Z</time>
      </trkpt>
      <trkpt lat="45.87941" lon="4.78431">
        <ele>216</ele>
        <time>2017-10-15T08:53:30Z</time>
      </trkpt>
      <trkpt lat="45.87933" lon="4.78433">
        <ele>216</ele>
        <time>2017-10-15T08:53:32Z</time>
      </trkpt>
      <trkpt lat="45.8793" lon="4.78434">
        <ele>216</ele>
        <time>2017-10-15T08:53:33Z</time>
      </trkpt>
      <trkpt lat="45.87922" lon="4.78436">
        <ele>216</ele>
        <time>2017-10-15T08:53:35Z</time>
      </trkpt>
      <trkpt lat="45.87919" lon="4.78437">
        <ele>216</ele>
        <time>2017-10-15T08:53:36Z</time>
      </trkpt>
      <trkpt lat="45.87912" lon="4.78439">
        <ele>219</ele>
        <time>2017-10-15T08:53:38Z</time>
      </trkpt>
      <trkpt lat="45.87909" lon="4.7844">
        <ele>220</ele>
        <time>2017-10-15T08:53:39Z</time>
      </trkpt>
      <trkpt lat="45.87902" lon="4.78442">
        <ele>220</ele>
        <time>2017-10-15T08:53:41Z</time>
      </trkpt>
      <trkpt lat="45.87899" lon="4.78443">
        <ele>220</ele>
        <time>2017-10-15T08:53:42Z</time>
      </trkpt>
      <trkpt lat="45.87893" lon="4.78444">
        <ele>220</ele>
        <time>2017-10-15T08:53:44Z</time>
      </trkpt>
      <trkpt lat="45.8789" lon="4.78445">
        <ele>220</ele>
        <time>2017-10-15T08:53:45Z</time>
      </trkpt>
      <trkpt lat="45.87884" lon="4.78447">
        <ele>221</ele>
        <time>2017-10-15T08:53:47Z</time>
      </trkpt>
      <trkpt lat="45.8788" lon="4.78448">
        <ele>221</ele>
        <time>2017-10-15T08:53:48Z</time>
      </trkpt>
      <trkpt lat="45.87873" lon="4.78449">
        <ele>221</ele>
        <time>2017-10-15T08:53:50Z</time>
      </trkpt>
      <trkpt lat="45.8787" lon="4.7845">
        <ele>221</ele>
        <time>2017-10-15T08:53:51Z</time>
      </trkpt>
      <trkpt lat="45.87862" lon="4.78453">
        <ele>222</ele>
        <time>2017-10-15T08:53:54Z</time>
      </trkpt>
      <trkpt lat="45.87859" lon="4.78454">
        <ele>222</ele>
        <time>2017-10-15T08:53:55Z</time>
      </trkpt>
      <trkpt lat="45.87853" lon="4.78456">
        <ele>222</ele>
        <time>2017-10-15T08:53:57Z</time>
      </trkpt>
      <trkpt lat="45.8785" lon="4.78457">
        <ele>222</ele>
        <time>2017-10-15T08:53:58Z</time>
      </trkpt>
      <trkpt lat="45.87844" lon="4.78461">
        <ele>222</ele>
        <time>2017-10-15T08:54:00Z</time>
      </trkpt>
      <trkpt lat="45.87841" lon="4.78463">
        <ele>222</ele>
        <time>2017-10-15T08:54:01Z</time>
      </trkpt>
      <trkpt lat="45.87835" lon="4.78464">
        <ele>223</ele>
        <time>2017-10-15T08:54:03Z</time>
      </trkpt>
      <trkpt lat="45.87832" lon="4.78464">
        <ele>226</ele>
        <time>2017-10-15T08:54:04Z</time>
      </trkpt>
      <trkpt lat="45.87826" lon="4.78465">
        <ele>226</ele>
        <time>2017-10-15T08:54:06Z</time>
      </trkpt>
      <trkpt lat="45.87822" lon="4.78465">
        <ele>226</ele>
        <time>2017-10-15T08:54:07Z</time>
      </trkpt>
      <trkpt lat="45.87816" lon="4.78466">
        <ele>226</ele>
        <time>2017-10-15T08:54:09Z</time>
      </trkpt>
      <trkpt lat="45.87813" lon="4.78468">
        <ele>226</ele>
        <time>2017-10-15T08:54:10Z</time>
      </trkpt>
      <trkpt lat="45.87808" lon="4.78474">
        <ele>226</ele>
        <time>2017-10-15T08:54:12Z</time>
      </trkpt>
      <trkpt lat="45.87807" lon="4.78479">
        <ele>226</ele>
        <time>2017-10-15T08:54:13Z</time>
      </trkpt>
      <trkpt lat="45.87806" lon="4.7849">
        <ele>226</ele>
        <time>2017-10-15T08:54:15Z</time>
      </trkpt>
      <trkpt lat="45.87807" lon="4.78495">
        <ele>226</ele>
        <time>2017-10-15T08:54:16Z</time>
      </trkpt>
      <trkpt lat="45.87811" lon="4.78505">
        <ele>228</ele>
        <time>2017-10-15T08:54:18Z</time>
      </trkpt>
      <trkpt lat="45.87813" lon="4.7851">
        <ele>228</ele>
        <time>2017-10-15T08:54:19Z</time>
      </trkpt>
      <trkpt lat="45.87815" lon="4.78521">
        <ele>228</ele>
        <time>2017-10-15T08:54:21Z</time>
      </trkpt>
      <trkpt lat="45.87816" lon="4.78526">
        <ele>228</ele>
        <time>2017-10-15T08:54:22Z</time>
      </trkpt>
      <trkpt lat="45.87818" lon="4.78537">
        <ele>228</ele>
        <time>2017-10-15T08:54:24Z</time>
      </trkpt>
      <trkpt lat="45.87819" lon="4.78542">
        <ele>228</ele>
        <time>2017-10-15T08:54:25Z</time>
      </trkpt>
      <trkpt lat="45.87822" lon="4.78553">
        <ele>228</ele>
        <time>2017-10-15T08:54:27Z</time>
      </trkpt>
      <trkpt lat="45.87823" lon="4.78558">
        <ele>228</ele>
        <time>2017-10-15T08:54:28Z</time>
      </trkpt>
      <trkpt lat="45.87825" lon="4.78569">
        <ele>228</ele>
        <time>2017-10-15T08:54:30Z</time>
      </trkpt>
      <trkpt lat="45.87826" lon="4.78575">
        <ele>228</ele>
        <time>2017-10-15T08:54:31Z</time>
      </trkpt>
      <trkpt lat="45.87829" lon="4.78585">
        <ele>228</ele>
        <time>2017-10-15T08:54:33Z</time>
      </trkpt>
      <trkpt lat="45.8783" lon="4.78591">
        <ele>229</ele>
        <time>2017-10-15T08:54:34Z</time>
      </trkpt>
      <trkpt lat="45.87831" lon="4.78603">
        <ele>229</ele>
        <time>2017-10-15T08:54:36Z</time>
      </trkpt>
      <trkpt lat="45.87832" lon="4.78609">
        <ele>229</ele>
        <time>2017-10-15T08:54:37Z</time>
      </trkpt>
      <trkpt lat="45.87834" lon="4.7862">
        <ele>226</ele>
        <time>2017-10-15T08:54:39Z</time>
      </trkpt>
      <trkpt lat="45.87835" lon="4.78625">
        <ele>226</ele>
        <time>2017-10-15T08:54:40Z</time>
      </trkpt>
      <trkpt lat="45.87838" lon="4.78636">
        <ele>226</ele>
        <time>2017-10-15T08:54:42Z</time>
      </trkpt>
      <trkpt lat="45.87839" lon="4.78642">
        <ele>226</ele>
        <time>2017-10-15T08:54:43Z</time>
      </trkpt>
      <trkpt lat="45.87841" lon="4.78654">
        <ele>227</ele>
        <time>2017-10-15T08:54:45Z</time>
      </trkpt>
      <trkpt lat="45.87841" lon="4.7866">
        <ele>227</ele>
        <time>2017-10-15T08:54:46Z</time>
      </trkpt>
      <trkpt lat="45.87843" lon="4.78672">
        <ele>227</ele>
        <time>2017-10-15T08:54:48Z</time>
      </trkpt>
      <trkpt lat="45.87844" lon="4.78678">
        <ele>226</ele>
        <time>2017-10-15T08:54:49Z</time>
      </trkpt>
      <trkpt lat="45.87845" lon="4.78689">
        <ele>226</ele>
        <time>2017-10-15T08:54:51Z</time>
      </trkpt>
      <trkpt lat="45.87845" lon="4.78694">
        <ele>226</ele>
        <time>2017-10-15T08:54:52Z</time>
      </trkpt>
      <trkpt lat="45.87846" lon="4.78705">
        <ele>226</ele>
        <time>2017-10-15T08:54:54Z</time>
      </trkpt>
      <trkpt lat="45.87846" lon="4.78711">
        <ele>226</ele>
        <time>2017-10-15T08:54:55Z</time>
      </trkpt>
      <trkpt lat="45.87847" lon="4.78723">
        <ele>226</ele>
        <time>2017-10-15T08:54:57Z</time>
      </trkpt>
      <trkpt lat="45.87848" lon="4.78729">
        <ele>226</ele>
        <time>2017-10-15T08:54:58Z</time>
      </trkpt>
      <trkpt lat="45.87848" lon="4.78735">
        <ele>226</ele>
        <time>2017-10-15T08:54:59Z</time>
      </trkpt>
      <trkpt lat="45.87849" lon="4.78742">
        <ele>226</ele>
        <time>2017-10-15T08:55:00Z</time>
      </trkpt>
      <trkpt lat="45.87849" lon="4.78748">
        <ele>226</ele>
        <time>2017-10-15T08:55:01Z</time>
      </trkpt>
      <trkpt lat="45.87849" lon="4.78756">
        <ele>226</ele>
        <time>2017-10-15T08:55:02Z</time>
      </trkpt>
      <trkpt lat="45.87848" lon="4.78768">
        <ele>226</ele>
        <time>2017-10-15T08:55:04Z</time>
      </trkpt>
      <trkpt lat="45.87849" lon="4.78775">
        <ele>226</ele>
        <time>2017-10-15T08:55:05Z</time>
      </trkpt>
      <trkpt lat="45.87848" lon="4.78786">
        <ele>226</ele>
        <time>2017-10-15T08:55:07Z</time>
      </trkpt>
      <trkpt lat="45.87848" lon="4.78792">
        <ele>226</ele>
        <time>2017-10-15T08:55:08Z</time>
      </trkpt>
      <trkpt lat="45.87848" lon="4.78799">
        <ele>226</ele>
        <time>2017-10-15T08:55:09Z</time>
      </trkpt>
      <trkpt lat="45.87847" lon="4.78806">
        <ele>226</ele>
        <time>2017-10-15T08:55:10Z</time>
      </trkpt>
      <trkpt lat="45.87846" lon="4.78819">
        <ele>227</ele>
        <time>2017-10-15T08:55:12Z</time>
      </trkpt>
      <trkpt lat="45.87847" lon="4.78826">
        <ele>227</ele>
        <time>2017-10-15T08:55:13Z</time>
      </trkpt>
      <trkpt lat="45.87846" lon="4.78836">
        <ele>227</ele>
        <time>2017-10-15T08:55:15Z</time>
      </trkpt>
      <trkpt lat="45.87845" lon="4.78841">
        <ele>227</ele>
        <time>2017-10-15T08:55:16Z</time>
      </trkpt>
      <trkpt lat="45.87844" lon="4.78852">
        <ele>226</ele>
        <time>2017-10-15T08:55:18Z</time>
      </trkpt>
      <trkpt lat="45.87843" lon="4.78859">
        <ele>226</ele>
        <time>2017-10-15T08:55:19Z</time>
      </trkpt>
      <trkpt lat="45.87842" lon="4.7887">
        <ele>226</ele>
        <time>2017-10-15T08:55:21Z</time>
      </trkpt>
      <trkpt lat="45.87843" lon="4.78878">
        <ele>225</ele>
        <time>2017-10-15T08:55:22Z</time>
      </trkpt>
      <trkpt lat="45.87843" lon="4.78885">
        <ele>225</ele>
        <time>2017-10-15T08:55:23Z</time>
      </trkpt>
      <trkpt lat="45.8784" lon="4.7889">
        <ele>225</ele>
        <time>2017-10-15T08:55:24Z</time>
      </trkpt>
      <trkpt lat="45.87838" lon="4.78901">
        <ele>226</ele>
        <time>2017-10-15T08:55:26Z</time>
      </trkpt>
      <trkpt lat="45.87837" lon="4.78906">
        <ele>226</ele>
        <time>2017-10-15T08:55:27Z</time>
      </trkpt>
      <trkpt lat="45.87836" lon="4.78917">
        <ele>227</ele>
        <time>2017-10-15T08:55:29Z</time>
      </trkpt>
      <trkpt lat="45.87835" lon="4.78922">
        <ele>226</ele>
        <time>2017-10-15T08:55:30Z</time>
      </trkpt>
      <trkpt lat="45.87834" lon="4.78933">
        <ele>226</ele>
        <time>2017-10-15T08:55:32Z</time>
      </trkpt>
      <trkpt lat="45.87834" lon="4.78939">
        <ele>226</ele>
        <time>2017-10-15T08:55:33Z</time>
      </trkpt>
      <trkpt lat="45.87834" lon="4.7895">
        <ele>225</ele>
        <time>2017-10-15T08:55:35Z</time>
      </trkpt>
      <trkpt lat="45.87833" lon="4.78956">
        <ele>232</ele>
        <time>2017-10-15T08:55:36Z</time>
      </trkpt>
      <trkpt lat="45.87833" lon="4.78967">
        <ele>232</ele>
        <time>2017-10-15T08:55:38Z</time>
      </trkpt>
      <trkpt lat="45.87833" lon="4.78972">
        <ele>231</ele>
        <time>2017-10-15T08:55:39Z</time>
      </trkpt>
      <trkpt lat="45.87833" lon="4.78983">
        <ele>231</ele>
        <time>2017-10-15T08:55:41Z</time>
      </trkpt>
      <trkpt lat="45.87833" lon="4.78988">
        <ele>231</ele>
        <time>2017-10-15T08:55:42Z</time>
      </trkpt>
      <trkpt lat="45.87834" lon="4.78997">
        <ele>228</ele>
        <time>2017-10-15T08:55:44Z</time>
      </trkpt>
      <trkpt lat="45.87835" lon="4.79002">
        <ele>229</ele>
        <time>2017-10-15T08:55:45Z</time>
      </trkpt>
      <trkpt lat="45.87836" lon="4.79012">
        <ele>228</ele>
        <time>2017-10-15T08:55:47Z</time>
      </trkpt>
      <trkpt lat="45.87836" lon="4.79017">
        <ele>228</ele>
        <time>2017-10-15T08:55:48Z</time>
      </trkpt>
      <trkpt lat="45.87837" lon="4.79027">
        <ele>228</ele>
        <time>2017-10-15T08:55:50Z</time>
      </trkpt>
      <trkpt lat="45.87837" lon="4.79032">
        <ele>228</ele>
        <time>2017-10-15T08:55:51Z</time>
      </trkpt>
      <trkpt lat="45.87838" lon="4.79043">
        <ele>228</ele>
        <time>2017-10-15T08:55:53Z</time>
      </trkpt>
      <trkpt lat="45.87839" lon="4.79048">
        <ele>228</ele>
        <time>2017-10-15T08:55:54Z</time>
      </trkpt>
      <trkpt lat="45.8784" lon="4.79058">
        <ele>229</ele>
        <time>2017-10-15T08:55:56Z</time>
      </trkpt>
      <trkpt lat="45.87841" lon="4.79063">
        <ele>229</ele>
        <time>2017-10-15T08:55:57Z</time>
      </trkpt>
      <trkpt lat="45.87843" lon="4.79072">
        <ele>230</ele>
        <time>2017-10-15T08:55:59Z</time>
      </trkpt>
      <trkpt lat="45.87844" lon="4.79078">
        <ele>230</ele>
        <time>2017-10-15T08:56:00Z</time>
      </trkpt>
      <trkpt lat="45.87846" lon="4.79088">
        <ele>231</ele>
        <time>2017-10-15T08:56:02Z</time>
      </trkpt>
      <trkpt lat="45.87847" lon="4.79093">
        <ele>231</ele>
        <time>2017-10-15T08:56:03Z</time>
      </trkpt>
      <trkpt lat="45.8785" lon="4.79104">
        <ele>230</ele>
        <time>2017-10-15T08:56:05Z</time>
      </trkpt>
      <trkpt lat="45.87851" lon="4.79109">
        <ele>230</ele>
        <time>2017-10-15T08:56:06Z</time>
      </trkpt>
      <trkpt lat="45.87853" lon="4.79119">
        <ele>230</ele>
        <time>2017-10-15T08:56:08Z</time>
      </trkpt>
      <trkpt lat="45.87854" lon="4.79124">
        <ele>230</ele>
        <time>2017-10-15T08:56:09Z</time>
      </trkpt>
      <trkpt lat="45.87856" lon="4.79133">
        <ele>230</ele>
        <time>2017-10-15T08:56:11Z</time>
      </trkpt>
      <trkpt lat="45.87856" lon="4.79138">
        <ele>231</ele>
        <time>2017-10-15T08:56:12Z</time>
      </trkpt>
      <trkpt lat="45.87858" lon="4.79148">
        <ele>231</ele>
        <time>2017-10-15T08:56:14Z</time>
      </trkpt>
      <trkpt lat="45.87858" lon="4.79153">
        <ele>231</ele>
        <time>2017-10-15T08:56:15Z</time>
      </trkpt>
      <trkpt lat="45.87859" lon="4.79164">
        <ele>231</ele>
        <time>2017-10-15T08:56:17Z</time>
      </trkpt>
      <trkpt lat="45.8786" lon="4.79169">
        <ele>233</ele>
        <time>2017-10-15T08:56:18Z</time>
      </trkpt>
      <trkpt lat="45.87862" lon="4.79179">
        <ele>233</ele>
        <time>2017-10-15T08:56:20Z</time>
      </trkpt>
      <trkpt lat="45.87862" lon="4.79184">
        <ele>233</ele>
        <time>2017-10-15T08:56:21Z</time>
      </trkpt>
      <trkpt lat="45.87865" lon="4.79195">
        <ele>233</ele>
        <time>2017-10-15T08:56:23Z</time>
      </trkpt>
      <trkpt lat="45.87866" lon="4.792">
        <ele>233</ele>
        <time>2017-10-15T08:56:24Z</time>
      </trkpt>
      <trkpt lat="45.87867" lon="4.7921">
        <ele>233</ele>
        <time>2017-10-15T08:56:26Z</time>
      </trkpt>
      <trkpt lat="45.87867" lon="4.79215">
        <ele>233</ele>
        <time>2017-10-15T08:56:27Z</time>
      </trkpt>
      <trkpt lat="45.87869" lon="4.79226">
        <ele>233</ele>
        <time>2017-10-15T08:56:29Z</time>
      </trkpt>
      <trkpt lat="45.8787" lon="4.79231">
        <ele>233</ele>
        <time>2017-10-15T08:56:30Z</time>
      </trkpt>
      <trkpt lat="45.87871" lon="4.79241">
        <ele>234</ele>
        <time>2017-10-15T08:56:32Z</time>
      </trkpt>
      <trkpt lat="45.87872" lon="4.79246">
        <ele>234</ele>
        <time>2017-10-15T08:56:33Z</time>
      </trkpt>
      <trkpt lat="45.87873" lon="4.79256">
        <ele>236</ele>
        <time>2017-10-15T08:56:35Z</time>
      </trkpt>
      <trkpt lat="45.87874" lon="4.79262">
        <ele>236</ele>
        <time>2017-10-15T08:56:36Z</time>
      </trkpt>
      <trkpt lat="45.87875" lon="4.79271">
        <ele>236</ele>
        <time>2017-10-15T08:56:38Z</time>
      </trkpt>
      <trkpt lat="45.87876" lon="4.79276">
        <ele>236</ele>
        <time>2017-10-15T08:56:39Z</time>
      </trkpt>
      <trkpt lat="45.87878" lon="4.79286">
        <ele>237</ele>
        <time>2017-10-15T08:56:41Z</time>
      </trkpt>
      <trkpt lat="45.87879" lon="4.79291">
        <ele>237</ele>
        <time>2017-10-15T08:56:42Z</time>
      </trkpt>
      <trkpt lat="45.8788" lon="4.79301">
        <ele>237</ele>
        <time>2017-10-15T08:56:44Z</time>
      </trkpt>
      <trkpt lat="45.8788" lon="4.79306">
        <ele>237</ele>
        <time>2017-10-15T08:56:45Z</time>
      </trkpt>
      <trkpt lat="45.87882" lon="4.79315">
        <ele>237</ele>
        <time>2017-10-15T08:56:47Z</time>
      </trkpt>
      <trkpt lat="45.87882" lon="4.79321">
        <ele>237</ele>
        <time>2017-10-15T08:56:48Z</time>
      </trkpt>
      <trkpt lat="45.87883" lon="4.7933">
        <ele>237</ele>
        <time>2017-10-15T08:56:50Z</time>
      </trkpt>
      <trkpt lat="45.87884" lon="4.79334">
        <ele>240</ele>
        <time>2017-10-15T08:56:51Z</time>
      </trkpt>
      <trkpt lat="45.87884" lon="4.79344">
        <ele>240</ele>
        <time>2017-10-15T08:56:53Z</time>
      </trkpt>
      <trkpt lat="45.87884" lon="4.79349">
        <ele>240</ele>
        <time>2017-10-15T08:56:54Z</time>
      </trkpt>
      <trkpt lat="45.87886" lon="4.79359">
        <ele>241</ele>
        <time>2017-10-15T08:56:56Z</time>
      </trkpt>
      <trkpt lat="45.87886" lon="4.79364">
        <ele>241</ele>
        <time>2017-10-15T08:56:57Z</time>
      </trkpt>
      <trkpt lat="45.87887" lon="4.79374">
        <ele>241</ele>
        <time>2017-10-15T08:56:59Z</time>
      </trkpt>
      <trkpt lat="45.87888" lon="4.79379">
        <ele>241</ele>
        <time>2017-10-15T08:57:00Z</time>
      </trkpt>
      <trkpt lat="45.8789" lon="4.79388">
        <ele>241</ele>
        <time>2017-10-15T08:57:02Z</time>
      </trkpt>
      <trkpt lat="45.87892" lon="4.79393">
        <ele>241</ele>
        <time>2017-10-15T08:57:03Z</time>
      </trkpt>
      <trkpt lat="45.87893" lon="4.79403">
        <ele>241</ele>
        <time>2017-10-15T08:57:05Z</time>
      </trkpt>
      <trkpt lat="45.87894" lon="4.79407">
        <ele>241</ele>
        <time>2017-10-15T08:57:06Z</time>
      </trkpt>
      <trkpt lat="45.87896" lon="4.79417">
        <ele>244</ele>
        <time>2017-10-15T08:57:08Z</time>
      </trkpt>
      <trkpt lat="45.87897" lon="4.79422">
        <ele>244</ele>
        <time>2017-10-15T08:57:09Z</time>
      </trkpt>
      <trkpt lat="45.87899" lon="4.79431">
        <ele>244</ele>
        <time>2017-10-15T08:57:11Z</time>
      </trkpt>
      <trkpt lat="45.879" lon="4.79436">
        <ele>244</ele>
        <time>2017-10-15T08:57:12Z</time>
      </trkpt>
      <trkpt lat="45.87901" lon="4.79445">
        <ele>245</ele>
        <time>2017-10-15T08:57:14Z</time>
      </trkpt>
      <trkpt lat="45.87902" lon="4.7945">
        <ele>246</ele>
        <time>2017-10-15T08:57:15Z</time>
      </trkpt>
      <trkpt lat="45.87903" lon="4.79459">
        <ele>246</ele>
        <time>2017-10-15T08:57:17Z</time>
      </trkpt>
      <trkpt lat="45.87904" lon="4.79463">
        <ele>246</ele>
        <time>2017-10-15T08:57:18Z</time>
      </trkpt>
      <trkpt lat="45.87906" lon="4.79473">
        <ele>246</ele>
        <time>2017-10-15T08:57:20Z</time>
      </trkpt>
      <trkpt lat="45.87907" lon="4.79478">
        <ele>246</ele>
        <time>2017-10-15T08:57:21Z</time>
      </trkpt>
      <trkpt lat="45.8791" lon="4.79487">
        <ele>246</ele>
        <time>2017-10-15T08:57:23Z</time>
      </trkpt>
      <trkpt lat="45.87911" lon="4.79492">
        <ele>246</ele>
        <time>2017-10-15T08:57:24Z</time>
      </trkpt>
      <trkpt lat="45.87914" lon="4.79501">
        <ele>246</ele>
        <time>2017-10-15T08:57:26Z</time>
      </trkpt>
      <trkpt lat="45.87916" lon="4.79507">
        <ele>246</ele>
        <time>2017-10-15T08:57:27Z</time>
      </trkpt>
      <trkpt lat="45.87918" lon="4.79515">
        <ele>242</ele>
        <time>2017-10-15T08:57:29Z</time>
      </trkpt>
      <trkpt lat="45.87919" lon="4.7952">
        <ele>242</ele>
        <time>2017-10-15T08:57:30Z</time>
      </trkpt>
      <trkpt lat="45.87922" lon="4.79531">
        <ele>241</ele>
        <time>2017-10-15T08:57:32Z</time>
      </trkpt>
      <trkpt lat="45.87923" lon="4.79537">
        <ele>241</ele>
        <time>2017-10-15T08:57:33Z</time>
      </trkpt>
      <trkpt lat="45.87925" lon="4.79542">
        <ele>241</ele>
        <time>2017-10-15T08:57:34Z</time>
      </trkpt>
      <trkpt lat="45.87927" lon="4.7955">
        <ele>241</ele>
        <time>2017-10-15T08:57:35Z</time>
      </trkpt>
      <trkpt lat="45.87929" lon="4.79557">
        <ele>241</ele>
        <time>2017-10-15T08:57:36Z</time>
      </trkpt>
      <trkpt lat="45.87931" lon="4.79565">
        <ele>242</ele>
        <time>2017-10-15T08:57:37Z</time>
      </trkpt>
      <trkpt lat="45.87934" lon="4.79572">
        <ele>242</ele>
        <time>2017-10-15T08:57:38Z</time>
      </trkpt>
      <trkpt lat="45.87936" lon="4.7958">
        <ele>242</ele>
        <time>2017-10-15T08:57:39Z</time>
      </trkpt>
      <trkpt lat="45.87942" lon="4.79592">
        <ele>242</ele>
        <time>2017-10-15T08:57:40Z</time>
      </trkpt>
      <trkpt lat="45.87944" lon="4.796">
        <ele>241</ele>
        <time>2017-10-15T08:57:41Z</time>
      </trkpt>
      <trkpt lat="45.87949" lon="4.79609">
        <ele>241</ele>
        <time>2017-10-15T08:57:42Z</time>
      </trkpt>
      <trkpt lat="45.87953" lon="4.79618">
        <ele>240</ele>
        <time>2017-10-15T08:57:43Z</time>
      </trkpt>
      <trkpt lat="45.87957" lon="4.79626">
        <ele>240</ele>
        <time>2017-10-15T08:57:44Z</time>
      </trkpt>
      <trkpt lat="45.87962" lon="4.79635">
        <ele>240</ele>
        <time>2017-10-15T08:57:45Z</time>
      </trkpt>
      <trkpt lat="45.87967" lon="4.79643">
        <ele>239</ele>
        <time>2017-10-15T08:57:46Z</time>
      </trkpt>
      <trkpt lat="45.87973" lon="4.79651">
        <ele>239</ele>
        <time>2017-10-15T08:57:47Z</time>
      </trkpt>
      <trkpt lat="45.87977" lon="4.79659">
        <ele>238</ele>
        <time>2017-10-15T08:57:48Z</time>
      </trkpt>
      <trkpt lat="45.8798" lon="4.79668">
        <ele>240</ele>
        <time>2017-10-15T08:57:49Z</time>
      </trkpt>
      <trkpt lat="45.87984" lon="4.79677">
        <ele>239</ele>
        <time>2017-10-15T08:57:50Z</time>
      </trkpt>
      <trkpt lat="45.87987" lon="4.79685">
        <ele>240</ele>
        <time>2017-10-15T08:57:51Z</time>
      </trkpt>
      <trkpt lat="45.87991" lon="4.79693">
        <ele>240</ele>
        <time>2017-10-15T08:57:52Z</time>
      </trkpt>
      <trkpt lat="45.87994" lon="4.79701">
        <ele>241</ele>
        <time>2017-10-15T08:57:53Z</time>
      </trkpt>
      <trkpt lat="45.87998" lon="4.79707">
        <ele>241</ele>
        <time>2017-10-15T08:57:54Z</time>
      </trkpt>
      <trkpt lat="45.88002" lon="4.79718">
        <ele>237</ele>
        <time>2017-10-15T08:57:56Z</time>
      </trkpt>
      <trkpt lat="45.88003" lon="4.79722">
        <ele>237</ele>
        <time>2017-10-15T08:57:57Z</time>
      </trkpt>
      <trkpt lat="45.88007" lon="4.79733">
        <ele>238</ele>
        <time>2017-10-15T08:57:59Z</time>
      </trkpt>
      <trkpt lat="45.8801" lon="4.79737">
        <ele>238</ele>
        <time>2017-10-15T08:58:00Z</time>
      </trkpt>
      <trkpt lat="45.88013" lon="4.79746">
        <ele>239</ele>
        <time>2017-10-15T08:58:02Z</time>
      </trkpt>
      <trkpt lat="45.88015" lon="4.79752">
        <ele>242</ele>
        <time>2017-10-15T08:58:03Z</time>
      </trkpt>
      <trkpt lat="45.88018" lon="4.79762">
        <ele>242</ele>
        <time>2017-10-15T08:58:05Z</time>
      </trkpt>
      <trkpt lat="45.88021" lon="4.79767">
        <ele>242</ele>
        <time>2017-10-15T08:58:06Z</time>
      </trkpt>
      <trkpt lat="45.88023" lon="4.79777">
        <ele>242</ele>
        <time>2017-10-15T08:58:08Z</time>
      </trkpt>
      <trkpt lat="45.88024" lon="4.79782">
        <ele>242</ele>
        <time>2017-10-15T08:58:09Z</time>
      </trkpt>
      <trkpt lat="45.88026" lon="4.79791">
        <ele>242</ele>
        <time>2017-10-15T08:58:11Z</time>
      </trkpt>
      <trkpt lat="45.88026" lon="4.79796">
        <ele>242</ele>
        <time>2017-10-15T08:58:12Z</time>
      </trkpt>
      <trkpt lat="45.88027" lon="4.79806">
        <ele>243</ele>
        <time>2017-10-15T08:58:14Z</time>
      </trkpt>
      <trkpt lat="45.88027" lon="4.79811">
        <ele>243</ele>
        <time>2017-10-15T08:58:15Z</time>
      </trkpt>
      <trkpt lat="45.88029" lon="4.7982">
        <ele>243</ele>
        <time>2017-10-15T08:58:17Z</time>
      </trkpt>
      <trkpt lat="45.88029" lon="4.79824">
        <ele>243</ele>
        <time>2017-10-15T08:58:18Z</time>
      </trkpt>
      <trkpt lat="45.8803" lon="4.79836">
        <ele>247</ele>
        <time>2017-10-15T08:58:21Z</time>
      </trkpt>
      <trkpt lat="45.8803" lon="4.7984">
        <ele>247</ele>
        <time>2017-10-15T08:58:22Z</time>
      </trkpt>
      <trkpt lat="45.8803" lon="4.79852">
        <ele>247</ele>
        <time>2017-10-15T08:58:25Z</time>
      </trkpt>
      <trkpt lat="45.8803" lon="4.79856">
        <ele>247</ele>
        <time>2017-10-15T08:58:26Z</time>
      </trkpt>
      <trkpt lat="45.88028" lon="4.79868">
        <ele>247</ele>
        <time>2017-10-15T08:58:29Z</time>
      </trkpt>
      <trkpt lat="45.88027" lon="4.79871">
        <ele>247</ele>
        <time>2017-10-15T08:58:30Z</time>
      </trkpt>
      <trkpt lat="45.88025" lon="4.79882">
        <ele>247</ele>
        <time>2017-10-15T08:58:33Z</time>
      </trkpt>
      <trkpt lat="45.88024" lon="4.79886">
        <ele>248</ele>
        <time>2017-10-15T08:58:34Z</time>
      </trkpt>
      <trkpt lat="45.88021" lon="4.79898">
        <ele>248</ele>
        <time>2017-10-15T08:58:37Z</time>
      </trkpt>
      <trkpt lat="45.8802" lon="4.79902">
        <ele>248</ele>
        <time>2017-10-15T08:58:38Z</time>
      </trkpt>
      <trkpt lat="45.88018" lon="4.7991">
        <ele>249</ele>
        <time>2017-10-15T08:58:40Z</time>
      </trkpt>
      <trkpt lat="45.88017" lon="4.79915">
        <ele>249</ele>
        <time>2017-10-15T08:58:41Z</time>
      </trkpt>
      <trkpt lat="45.88015" lon="4.79923">
        <ele>250</ele>
        <time>2017-10-15T08:58:43Z</time>
      </trkpt>
      <trkpt lat="45.88014" lon="4.79928">
        <ele>250</ele>
        <time>2017-10-15T08:58:44Z</time>
      </trkpt>
      <trkpt lat="45.88011" lon="4.79936">
        <ele>250</ele>
        <time>2017-10-15T08:58:46Z</time>
      </trkpt>
      <trkpt lat="45.88009" lon="4.7994">
        <ele>250</ele>
        <time>2017-10-15T08:58:47Z</time>
      </trkpt>
      <trkpt lat="45.88007" lon="4.79949">
        <ele>250</ele>
        <time>2017-10-15T08:58:49Z</time>
      </trkpt>
      <trkpt lat="45.88007" lon="4.79953">
        <ele>250</ele>
        <time>2017-10-15T08:58:50Z</time>
      </trkpt>
      <trkpt lat="45.88003" lon="4.79965">
        <ele>250</ele>
        <time>2017-10-15T08:58:53Z</time>
      </trkpt>
      <trkpt lat="45.88002" lon="4.79969">
        <ele>250</ele>
        <time>2017-10-15T08:58:54Z</time>
      </trkpt>
      <trkpt lat="45.87999" lon="4.7998">
        <ele>253</ele>
        <time>2017-10-15T08:58:57Z</time>
      </trkpt>
      <trkpt lat="45.87998" lon="4.79983">
        <ele>253</ele>
        <time>2017-10-15T08:58:58Z</time>
      </trkpt>
      <trkpt lat="45.87994" lon="4.79994">
        <ele>252</ele>
        <time>2017-10-15T08:59:01Z</time>
      </trkpt>
      <trkpt lat="45.87993" lon="4.79998">
        <ele>252</ele>
        <time>2017-10-15T08:59:02Z</time>
      </trkpt>
      <trkpt lat="45.87991" lon="4.8001">
        <ele>254</ele>
        <time>2017-10-15T08:59:05Z</time>
      </trkpt>
      <trkpt lat="45.8799" lon="4.80014">
        <ele>254</ele>
        <time>2017-10-15T08:59:06Z</time>
      </trkpt>
      <trkpt lat="45.87986" lon="4.80025">
        <ele>255</ele>
        <time>2017-10-15T08:59:09Z</time>
      </trkpt>
      <trkpt lat="45.87985" lon="4.80028">
        <ele>255</ele>
        <time>2017-10-15T08:59:10Z</time>
      </trkpt>
      <trkpt lat="45.87979" lon="4.80038">
        <ele>256</ele>
        <time>2017-10-15T08:59:13Z</time>
      </trkpt>
      <trkpt lat="45.87978" lon="4.80041">
        <ele>256</ele>
        <time>2017-10-15T08:59:14Z</time>
      </trkpt>
      <trkpt lat="45.87972" lon="4.8005">
        <ele>256</ele>
        <time>2017-10-15T08:59:17Z</time>
      </trkpt>
      <trkpt lat="45.87969" lon="4.80053">
        <ele>257</ele>
        <time>2017-10-15T08:59:18Z</time>
      </trkpt>
      <trkpt lat="45.87963" lon="4.8006">
        <ele>257</ele>
        <time>2017-10-15T08:59:21Z</time>
      </trkpt>
      <trkpt lat="45.8796" lon="4.80062">
        <ele>257</ele>
        <time>2017-10-15T08:59:22Z</time>
      </trkpt>
      <trkpt lat="45.87953" lon="4.80069">
        <ele>258</ele>
        <time>2017-10-15T08:59:25Z</time>
      </trkpt>
      <trkpt lat="45.87951" lon="4.80072">
        <ele>258</ele>
        <time>2017-10-15T08:59:26Z</time>
      </trkpt>
      <trkpt lat="45.87945" lon="4.80076">
        <ele>258</ele>
        <time>2017-10-15T08:59:28Z</time>
      </trkpt>
      <trkpt lat="45.87942" lon="4.80078">
        <ele>259</ele>
        <time>2017-10-15T08:59:29Z</time>
      </trkpt>
      <trkpt lat="45.87936" lon="4.80081">
        <ele>259</ele>
        <time>2017-10-15T08:59:31Z</time>
      </trkpt>
      <trkpt lat="45.87933" lon="4.80082">
        <ele>260</ele>
        <time>2017-10-15T08:59:32Z</time>
      </trkpt>
      <trkpt lat="45.87925" lon="4.80087">
        <ele>260</ele>
        <time>2017-10-15T08:59:35Z</time>
      </trkpt>
      <trkpt lat="45.87922" lon="4.80089">
        <ele>261</ele>
        <time>2017-10-15T08:59:36Z</time>
      </trkpt>
      <trkpt lat="45.87916" lon="4.80092">
        <ele>262</ele>
        <time>2017-10-15T08:59:38Z</time>
      </trkpt>
      <trkpt lat="45.87913" lon="4.80094">
        <ele>262</ele>
        <time>2017-10-15T08:59:39Z</time>
      </trkpt>
      <trkpt lat="45.87906" lon="4.80101">
        <ele>262</ele>
        <time>2017-10-15T08:59:42Z</time>
      </trkpt>
      <trkpt lat="45.87905" lon="4.80104">
        <ele>262</ele>
        <time>2017-10-15T08:59:43Z</time>
      </trkpt>
      <trkpt lat="45.879" lon="4.80114">
        <ele>262</ele>
        <time>2017-10-15T08:59:46Z</time>
      </trkpt>
      <trkpt lat="45.87899" lon="4.80118">
        <ele>262</ele>
        <time>2017-10-15T08:59:47Z</time>
      </trkpt>
      <trkpt lat="45.87896" lon="4.80126">
        <ele>262</ele>
        <time>2017-10-15T08:59:49Z</time>
      </trkpt>
      <trkpt lat="45.87895" lon="4.80131">
        <ele>262</ele>
        <time>2017-10-15T08:59:50Z</time>
      </trkpt>
      <trkpt lat="45.87894" lon="4.80141">
        <ele>262</ele>
        <time>2017-10-15T08:59:52Z</time>
      </trkpt>
      <trkpt lat="45.87893" lon="4.80147">
        <ele>261</ele>
        <time>2017-10-15T08:59:53Z</time>
      </trkpt>
      <trkpt lat="45.87892" lon="4.80153">
        <ele>261</ele>
        <time>2017-10-15T08:59:54Z</time>
      </trkpt>
      <trkpt lat="45.87892" lon="4.80161">
        <ele>261</ele>
        <time>2017-10-15T08:59:55Z</time>
      </trkpt>
      <trkpt lat="45.87893" lon="4.80167">
        <ele>258</ele>
        <time>2017-10-15T08:59:56Z</time>
      </trkpt>
      <trkpt lat="45.87892" lon="4.80176">
        <ele>257</ele>
        <time>2017-10-15T08:59:57Z</time>
      </trkpt>
      <trkpt lat="45.87892" lon="4.80185">
        <ele>257</ele>
        <time>2017-10-15T08:59:58Z</time>
      </trkpt>
      <trkpt lat="45.87891" lon="4.80194">
        <ele>257</ele>
        <time>2017-10-15T08:59:59Z</time>
      </trkpt>
      <trkpt lat="45.8789" lon="4.80204">
        <ele>257</ele>
        <time>2017-10-15T09:00:00Z</time>
      </trkpt>
      <trkpt lat="45.87889" lon="4.80214">
        <ele>256</ele>
        <time>2017-10-15T09:00:01Z</time>
      </trkpt>
      <trkpt lat="45.87889" lon="4.80225">
        <ele>256</ele>
        <time>2017-10-15T09:00:02Z</time>
      </trkpt>
      <trkpt lat="45.87888" lon="4.80237">
        <ele>255</ele>
        <time>2017-10-15T09:00:03Z</time>
      </trkpt>
      <trkpt lat="45.87887" lon="4.80249">
        <ele>255</ele>
        <time>2017-10-15T09:00:04Z</time>
      </trkpt>
      <trkpt lat="45.87886" lon="4.80259">
        <ele>252</ele>
        <time>2017-10-15T09:00:05Z</time>
      </trkpt>
      <trkpt lat="45.87886" lon="4.80271">
        <ele>252</ele>
        <time>2017-10-15T09:00:06Z</time>
      </trkpt>
      <trkpt lat="45.87886" lon="4.80282">
        <ele>252</ele>
        <time>2017-10-15T09:00:07Z</time>
      </trkpt>
      <trkpt lat="45.87885" lon="4.80293">
        <ele>252</ele>
        <time>2017-10-15T09:00:08Z</time>
      </trkpt>
      <trkpt lat="45.87884" lon="4.80304">
        <ele>252</ele>
        <time>2017-10-15T09:00:09Z</time>
      </trkpt>
      <trkpt lat="45.87884" lon="4.80316">
        <ele>252</ele>
        <time>2017-10-15T09:00:10Z</time>
      </trkpt>
      <trkpt lat="45.87883" lon="4.80326">
        <ele>252</ele>
        <time>2017-10-15T09:00:11Z</time>
      </trkpt>
      <trkpt lat="45.87882" lon="4.80337">
        <ele>249</ele>
        <time>2017-10-15T09:00:12Z</time>
      </trkpt>
      <trkpt lat="45.87882" lon="4.80347">
        <ele>249</ele>
        <time>2017-10-15T09:00:13Z</time>
      </trkpt>
      <trkpt lat="45.87882" lon="4.80358">
        <ele>249</ele>
        <time>2017-10-15T09:00:14Z</time>
      </trkpt>
      <trkpt lat="45.8788" lon="4.80368">
        <ele>249</ele>
        <time>2017-10-15T09:00:15Z</time>
      </trkpt>
      <trkpt lat="45.87878" lon="4.80377">
        <ele>249</ele>
        <time>2017-10-15T09:00:16Z</time>
      </trkpt>
      <trkpt lat="45.87878" lon="4.80386">
        <ele>249</ele>
        <time>2017-10-15T09:00:17Z</time>
      </trkpt>
      <trkpt lat="45.87876" lon="4.80394">
        <ele>248</ele>
        <time>2017-10-15T09:00:18Z</time>
      </trkpt>
      <trkpt lat="45.87874" lon="4.80403">
        <ele>248</ele>
        <time>2017-10-15T09:00:19Z</time>
      </trkpt>
      <trkpt lat="45.87873" lon="4.8041">
        <ele>248</ele>
        <time>2017-10-15T09:00:20Z</time>
      </trkpt>
      <trkpt lat="45.87876" lon="4.80419">
        <ele>247</ele>
        <time>2017-10-15T09:00:21Z</time>
      </trkpt>
      <trkpt lat="45.87875" lon="4.80432">
        <ele>247</ele>
        <time>2017-10-15T09:00:23Z</time>
      </trkpt>
      <trkpt lat="45.87873" lon="4.80436">
        <ele>248</ele>
        <time>2017-10-15T09:00:24Z</time>
      </trkpt>
      <trkpt lat="45.87872" lon="4.80446">
        <ele>248</ele>
        <time>2017-10-15T09:00:27Z</time>
      </trkpt>
      <trkpt lat="45.87872" lon="4.8045">
        <ele>248</ele>
        <time>2017-10-15T09:00:28Z</time>
      </trkpt>
      <trkpt lat="45.87871" lon="4.8046">
        <ele>248</ele>
        <time>2017-10-15T09:00:30Z</time>
      </trkpt>
      <trkpt lat="45.87871" lon="4.80466">
        <ele>248</ele>
        <time>2017-10-15T09:00:31Z</time>
      </trkpt>
      <trkpt lat="45.87871" lon="4.80477">
        <ele>248</ele>
        <time>2017-10-15T09:00:33Z</time>
      </trkpt>
      <trkpt lat="45.87871" lon="4.80482">
        <ele>248</ele>
        <time>2017-10-15T09:00:34Z</time>
      </trkpt>
      <trkpt lat="45.8787" lon="4.80494">
        <ele>249</ele>
        <time>2017-10-15T09:00:36Z</time>
      </trkpt>
      <trkpt lat="45.8787" lon="4.805">
        <ele>249</ele>
        <time>2017-10-15T09:00:37Z</time>
      </trkpt>
      <trkpt lat="45.8787" lon="4.80511">
        <ele>251</ele>
        <time>2017-10-15T09:00:39Z</time>
      </trkpt>
      <trkpt lat="45.87869" lon="4.80516">
        <ele>251</ele>
        <time>2017-10-15T09:00:40Z</time>
      </trkpt>
      <trkpt lat="45.87869" lon="4.80526">
        <ele>251</ele>
        <time>2017-10-15T09:00:42Z</time>
      </trkpt>
      <trkpt lat="45.87868" lon="4.8053">
        <ele>251</ele>
        <time>2017-10-15T09:00:43Z</time>
      </trkpt>
      <trkpt lat="45.87868" lon="4.80539">
        <ele>251</ele>
        <time>2017-10-15T09:00:45Z</time>
      </trkpt>
      <trkpt lat="45.87867" lon="4.80544">
        <ele>251</ele>
        <time>2017-10-15T09:00:46Z</time>
      </trkpt>
      <trkpt lat="45.87867" lon="4.80553">
        <ele>251</ele>
        <time>2017-10-15T09:00:48Z</time>
      </trkpt>
      <trkpt lat="45.87866" lon="4.80558">
        <ele>251</ele>
        <time>2017-10-15T09:00:49Z</time>
      </trkpt>
      <trkpt lat="45.87865" lon="4.80568">
        <ele>252</ele>
        <time>2017-10-15T09:00:51Z</time>
      </trkpt>
      <trkpt lat="45.87865" lon="4.80574">
        <ele>252</ele>
        <time>2017-10-15T09:00:52Z</time>
      </trkpt>
      <trkpt lat="45.87864" lon="4.80584">
        <ele>254</ele>
        <time>2017-10-15T09:00:54Z</time>
      </trkpt>
      <trkpt lat="45.87863" lon="4.80589">
        <ele>254</ele>
        <time>2017-10-15T09:00:55Z</time>
      </trkpt>
      <trkpt lat="45.87861" lon="4.80599">
        <ele>254</ele>
        <time>2017-10-15T09:00:57Z</time>
      </trkpt>
      <trkpt lat="45.8786" lon="4.80604">
        <ele>254</ele>
        <time>2017-10-15T09:00:58Z</time>
      </trkpt>
      <trkpt lat="45.87858" lon="4.80613">
        <ele>255</ele>
        <time>2017-10-15T09:01:00Z</time>
      </trkpt>
      <trkpt lat="45.87858" lon="4.80617">
        <ele>255</ele>
        <time>2017-10-15T09:01:01Z</time>
      </trkpt>
      <trkpt lat="45.87859" lon="4.80627">
        <ele>255</ele>
        <time>2017-10-15T09:01:03Z</time>
      </trkpt>
      <trkpt lat="45.87859" lon="4.80632">
        <ele>255</ele>
        <time>2017-10-15T09:01:04Z</time>
      </trkpt>
      <trkpt lat="45.8786" lon="4.80641">
        <ele>256</ele>
        <time>2017-10-15T09:01:06Z</time>
      </trkpt>
      <trkpt lat="45.8786" lon="4.80645">
        <ele>256</ele>
        <time>2017-10-15T09:01:07Z</time>
      </trkpt>
      <trkpt lat="45.87861" lon="4.80654">
        <ele>256</ele>
        <time>2017-10-15T09:01:09Z</time>
      </trkpt>
      <trkpt lat="45.87861" lon="4.80659">
        <ele>256</ele>
        <time>2017-10-15T09:01:10Z</time>
      </trkpt>
      <trkpt lat="45.87863" lon="4.80671">
        <ele>257</ele>
        <time>2017-10-15T09:01:13Z</time>
      </trkpt>
      <trkpt lat="45.87863" lon="4.80674">
        <ele>257</ele>
        <time>2017-10-15T09:01:14Z</time>
      </trkpt>
      <trkpt lat="45.87863" lon="4.80687">
        <ele>257</ele>
        <time>2017-10-15T09:01:17Z</time>
      </trkpt>
      <trkpt lat="45.87864" lon="4.80691">
        <ele>257</ele>
        <time>2017-10-15T09:01:18Z</time>
      </trkpt>
      <trkpt lat="45.87865" lon="4.80699">
        <ele>257</ele>
        <time>2017-10-15T09:01:20Z</time>
      </trkpt>
      <trkpt lat="45.87866" lon="4.80703">
        <ele>257</ele>
        <time>2017-10-15T09:01:21Z</time>
      </trkpt>
      <trkpt lat="45.87866" lon="4.80715">
        <ele>257</ele>
        <time>2017-10-15T09:01:24Z</time>
      </trkpt>
      <trkpt lat="45.87866" lon="4.80719">
        <ele>257</ele>
        <time>2017-10-15T09:01:25Z</time>
      </trkpt>
      <trkpt lat="45.87867" lon="4.80731">
        <ele>257</ele>
        <time>2017-10-15T09:01:28Z</time>
      </trkpt>
      <trkpt lat="45.87867" lon="4.80735">
        <ele>257</ele>
        <time>2017-10-15T09:01:29Z</time>
      </trkpt>
      <trkpt lat="45.87864" lon="4.80746">
        <ele>257</ele>
        <time>2017-10-15T09:01:32Z</time>
      </trkpt>
      <trkpt lat="45.87864" lon="4.80751">
        <ele>256</ele>
        <time>2017-10-15T09:01:33Z</time>
      </trkpt>
      <trkpt lat="45.8786" lon="4.80759">
        <ele>256</ele>
        <time>2017-10-15T09:01:35Z</time>
      </trkpt>
      <trkpt lat="45.87858" lon="4.80763">
        <ele>256</ele>
        <time>2017-10-15T09:01:36Z</time>
      </trkpt>
      <trkpt lat="45.87853" lon="4.8077">
        <ele>256</ele>
        <time>2017-10-15T09:01:38Z</time>
      </trkpt>
      <trkpt lat="45.87851" lon="4.80774">
        <ele>256</ele>
        <time>2017-10-15T09:01:39Z</time>
      </trkpt>
      <trkpt lat="45.87847" lon="4.80781">
        <ele>256</ele>
        <time>2017-10-15T09:01:41Z</time>
      </trkpt>
      <trkpt lat="45.87844" lon="4.80785">
        <ele>255</ele>
        <time>2017-10-15T09:01:42Z</time>
      </trkpt>
      <trkpt lat="45.87839" lon="4.80793">
        <ele>255</ele>
        <time>2017-10-15T09:01:44Z</time>
      </trkpt>
      <trkpt lat="45.87836" lon="4.80798">
        <ele>255</ele>
        <time>2017-10-15T09:01:45Z</time>
      </trkpt>
      <trkpt lat="45.8783" lon="4.80807">
        <ele>256</ele>
        <time>2017-10-15T09:01:47Z</time>
      </trkpt>
      <trkpt lat="45.87828" lon="4.80811">
        <ele>256</ele>
        <time>2017-10-15T09:01:48Z</time>
      </trkpt>
      <trkpt lat="45.87822" lon="4.8082">
        <ele>256</ele>
        <time>2017-10-15T09:01:50Z</time>
      </trkpt>
      <trkpt lat="45.87819" lon="4.80824">
        <ele>256</ele>
        <time>2017-10-15T09:01:51Z</time>
      </trkpt>
      <trkpt lat="45.87815" lon="4.80829">
        <ele>256</ele>
        <time>2017-10-15T09:01:52Z</time>
      </trkpt>
      <trkpt lat="45.87812" lon="4.80835">
        <ele>254</ele>
        <time>2017-10-15T09:01:53Z</time>
      </trkpt>
      <trkpt lat="45.87809" lon="4.8084">
        <ele>253</ele>
        <time>2017-10-15T09:01:54Z</time>
      </trkpt>
      <trkpt lat="45.87806" lon="4.80846">
        <ele>253</ele>
        <time>2017-10-15T09:01:55Z</time>
      </trkpt>
      <trkpt lat="45.87803" lon="4.80852">
        <ele>253</ele>
        <time>2017-10-15T09:01:56Z</time>
      </trkpt>
      <trkpt lat="45.87799" lon="4.80856">
        <ele>253</ele>
        <time>2017-10-15T09:01:57Z</time>
      </trkpt>
      <trkpt lat="45.87796" lon="4.80862">
        <ele>253</ele>
        <time>2017-10-15T09:01:58Z</time>
      </trkpt>
      <trkpt lat="45.87792" lon="4.80868">
        <ele>253</ele>
        <time>2017-10-15T09:01:59Z</time>
      </trkpt>
      <trkpt lat="45.87789" lon="4.80874">
        <ele>253</ele>
        <time>2017-10-15T09:02:00Z</time>
      </trkpt>
      <trkpt lat="45.87785" lon="4.80881">
        <ele>253</ele>
        <time>2017-10-15T09:02:01Z</time>
      </trkpt>
      <trkpt lat="45.87781" lon="4.80889">
        <ele>252</ele>
        <time>2017-10-15T09:02:02Z</time>
      </trkpt>
      <trkpt lat="45.87777" lon="4.80895">
        <ele>252</ele>
        <time>2017-10-15T09:02:03Z</time>
      </trkpt>
      <trkpt lat="45.87774" lon="4.80902">
        <ele>252</ele>
        <time>2017-10-15T09:02:04Z</time>
      </trkpt>
      <trkpt lat="45.87769" lon="4.80908">
        <ele>252</ele>
        <time>2017-10-15T09:02:05Z</time>
      </trkpt>
      <trkpt lat="45.87765" lon="4.80917">
        <ele>249</ele>
        <time>2017-10-15T09:02:06Z</time>
      </trkpt>
      <trkpt lat="45.87762" lon="4.80925">
        <ele>249</ele>
        <time>2017-10-15T09:02:07Z</time>
      </trkpt>
      <trkpt lat="45.87757" lon="4.80933">
        <ele>249</ele>
        <time>2017-10-15T09:02:08Z</time>
      </trkpt>
      <trkpt lat="45.87755" lon="4.80941">
        <ele>249</ele>
        <time>2017-10-15T09:02:09Z</time>
      </trkpt>
      <trkpt lat="45.87753" lon="4.80951">
        <ele>249</ele>
        <time>2017-10-15T09:02:10Z</time>
      </trkpt>
      <trkpt lat="45.87751" lon="4.80961">
        <ele>249</ele>
        <time>2017-10-15T09:02:11Z</time>
      </trkpt>
      <trkpt lat="45.87751" lon="4.8097">
        <ele>249</ele>
        <time>2017-10-15T09:02:12Z</time>
      </trkpt>
      <trkpt lat="45.87751" lon="4.8098">
        <ele>249</ele>
        <time>2017-10-15T09:02:13Z</time>
      </trkpt>
      <trkpt lat="45.87752" lon="4.8099">
        <ele>249</ele>
        <time>2017-10-15T09:02:14Z</time>
      </trkpt>
      <trkpt lat="45.87752" lon="4.81">
        <ele>249</ele>
        <time>2017-10-15T09:02:15Z</time>
      </trkpt>
      <trkpt lat="45.87752" lon="4.8101">
        <ele>248</ele>
        <time>2017-10-15T09:02:16Z</time>
      </trkpt>
      <trkpt lat="45.87752" lon="4.81019">
        <ele>247</ele>
        <time>2017-10-15T09:02:17Z</time>
      </trkpt>
      <trkpt lat="45.87751" lon="4.81028">
        <ele>246</ele>
        <time>2017-10-15T09:02:18Z</time>
      </trkpt>
      <trkpt lat="45.8775" lon="4.81038">
        <ele>246</ele>
        <time>2017-10-15T09:02:19Z</time>
      </trkpt>
      <trkpt lat="45.8775" lon="4.81047">
        <ele>249</ele>
        <time>2017-10-15T09:02:20Z</time>
      </trkpt>
      <trkpt lat="45.8775" lon="4.81057">
        <ele>248</ele>
        <time>2017-10-15T09:02:21Z</time>
      </trkpt>
      <trkpt lat="45.87749" lon="4.81067">
        <ele>248</ele>
        <time>2017-10-15T09:02:22Z</time>
      </trkpt>
      <trkpt lat="45.87747" lon="4.81077">
        <ele>247</ele>
        <time>2017-10-15T09:02:23Z</time>
      </trkpt>
      <trkpt lat="45.87744" lon="4.81087">
        <ele>246</ele>
        <time>2017-10-15T09:02:24Z</time>
      </trkpt>
      <trkpt lat="45.8774" lon="4.81095">
        <ele>246</ele>
        <time>2017-10-15T09:02:25Z</time>
      </trkpt>
      <trkpt lat="45.87735" lon="4.81102">
        <ele>246</ele>
        <time>2017-10-15T09:02:26Z</time>
      </trkpt>
      <trkpt lat="45.8773" lon="4.8111">
        <ele>246</ele>
        <time>2017-10-15T09:02:27Z</time>
      </trkpt>
      <trkpt lat="45.87726" lon="4.81117">
        <ele>246</ele>
        <time>2017-10-15T09:02:28Z</time>
      </trkpt>
      <trkpt lat="45.87721" lon="4.81124">
        <ele>246</ele>
        <time>2017-10-15T09:02:29Z</time>
      </trkpt>
      <trkpt lat="45.87717" lon="4.81129">
        <ele>246</ele>
        <time>2017-10-15T09:02:30Z</time>
      </trkpt>
      <trkpt lat="45.87713" lon="4.81134">
        <ele>246</ele>
        <time>2017-10-15T09:02:31Z</time>
      </trkpt>
      <trkpt lat="45.87705" lon="4.8114">
        <ele>246</ele>
        <time>2017-10-15T09:02:33Z</time>
      </trkpt>
      <trkpt lat="45.87701" lon="4.81143">
        <ele>246</ele>
        <time>2017-10-15T09:02:34Z</time>
      </trkpt>
      <trkpt lat="45.87697" lon="4.81146">
        <ele>246</ele>
        <time>2017-10-15T09:02:35Z</time>
      </trkpt>
      <trkpt lat="45.87692" lon="4.81151">
        <ele>246</ele>
        <time>2017-10-15T09:02:36Z</time>
      </trkpt>
      <trkpt lat="45.87688" lon="4.81154">
        <ele>246</ele>
        <time>2017-10-15T09:02:37Z</time>
      </trkpt>
      <trkpt lat="45.87683" lon="4.81158">
        <ele>246</ele>
        <time>2017-10-15T09:02:38Z</time>
      </trkpt>
      <trkpt lat="45.87676" lon="4.81162">
        <ele>247</ele>
        <time>2017-10-15T09:02:39Z</time>
      </trkpt>
      <trkpt lat="45.87672" lon="4.81167">
        <ele>246</ele>
        <time>2017-10-15T09:02:40Z</time>
      </trkpt>
      <trkpt lat="45.87668" lon="4.81171">
        <ele>246</ele>
        <time>2017-10-15T09:02:41Z</time>
      </trkpt>
      <trkpt lat="45.87663" lon="4.81176">
        <ele>247</ele>
        <time>2017-10-15T09:02:42Z</time>
      </trkpt>
      <trkpt lat="45.87658" lon="4.8118">
        <ele>247</ele>
        <time>2017-10-15T09:02:43Z</time>
      </trkpt>
      <trkpt lat="45.87654" lon="4.81183">
        <ele>247</ele>
        <time>2017-10-15T09:02:44Z</time>
      </trkpt>
      <trkpt lat="45.8765" lon="4.81186">
        <ele>247</ele>
        <time>2017-10-15T09:02:45Z</time>
      </trkpt>
      <trkpt lat="45.87645" lon="4.81189">
        <ele>247</ele>
        <time>2017-10-15T09:02:46Z</time>
      </trkpt>
      <trkpt lat="45.8764" lon="4.81191">
        <ele>247</ele>
        <time>2017-10-15T09:02:47Z</time>
      </trkpt>
      <trkpt lat="45.87636" lon="4.81194">
        <ele>247</ele>
        <time>2017-10-15T09:02:48Z</time>
      </trkpt>
      <trkpt lat="45.87631" lon="4.81199">
        <ele>247</ele>
        <time>2017-10-15T09:02:49Z</time>
      </trkpt>
      <trkpt lat="45.87627" lon="4.81202">
        <ele>247</ele>
        <time>2017-10-15T09:02:50Z</time>
      </trkpt>
      <trkpt lat="45.87622" lon="4.81206">
        <ele>247</ele>
        <time>2017-10-15T09:02:51Z</time>
      </trkpt>
      <trkpt lat="45.87617" lon="4.81209">
        <ele>247</ele>
        <time>2017-10-15T09:02:52Z</time>
      </trkpt>
      <trkpt lat="45.87612" lon="4.81212">
        <ele>247</ele>
        <time>2017-10-15T09:02:53Z</time>
      </trkpt>
      <trkpt lat="45.87607" lon="4.81214">
        <ele>247</ele>
        <time>2017-10-15T09:02:54Z</time>
      </trkpt>
      <trkpt lat="45.876" lon="4.81216">
        <ele>247</ele>
        <time>2017-10-15T09:02:55Z</time>
      </trkpt>
      <trkpt lat="45.87596" lon="4.81219">
        <ele>247</ele>
        <time>2017-10-15T09:02:56Z</time>
      </trkpt>
      <trkpt lat="45.87592" lon="4.81222">
        <ele>247</ele>
        <time>2017-10-15T09:02:57Z</time>
      </trkpt>
      <trkpt lat="45.87587" lon="4.81224">
        <ele>247</ele>
        <time>2017-10-15T09:02:58Z</time>
      </trkpt>
      <trkpt lat="45.87583" lon="4.81227">
        <ele>250</ele>
        <time>2017-10-15T09:02:59Z</time>
      </trkpt>
      <trkpt lat="45.87579" lon="4.81229">
        <ele>250</ele>
        <time>2017-10-15T09:03:00Z</time>
      </trkpt>
      <trkpt lat="45.87572" lon="4.81234">
        <ele>250</ele>
        <time>2017-10-15T09:03:02Z</time>
      </trkpt>
      <trkpt lat="45.87566" lon="4.81237">
        <ele>250</ele>
        <time>2017-10-15T09:03:03Z</time>
      </trkpt>
      <trkpt lat="45.87558" lon="4.81242">
        <ele>251</ele>
        <time>2017-10-15T09:03:05Z</time>
      </trkpt>
      <trkpt lat="45.87553" lon="4.81241">
        <ele>251</ele>
        <time>2017-10-15T09:03:06Z</time>
      </trkpt>
      <trkpt lat="45.87548" lon="4.8124">
        <ele>251</ele>
        <time>2017-10-15T09:03:07Z</time>
      </trkpt>
      <trkpt lat="45.87543" lon="4.81239">
        <ele>252</ele>
        <time>2017-10-15T09:03:08Z</time>
      </trkpt>
      <trkpt lat="45.87538" lon="4.81239">
        <ele>252</ele>
        <time>2017-10-15T09:03:09Z</time>
      </trkpt>
      <trkpt lat="45.87532" lon="4.81239">
        <ele>252</ele>
        <time>2017-10-15T09:03:10Z</time>
      </trkpt>
      <trkpt lat="45.87524" lon="4.81242">
        <ele>253</ele>
        <time>2017-10-15T09:03:12Z</time>
      </trkpt>
      <trkpt lat="45.8752" lon="4.81245">
        <ele>253</ele>
        <time>2017-10-15T09:03:13Z</time>
      </trkpt>
      <trkpt lat="45.87513" lon="4.81253">
        <ele>250</ele>
        <time>2017-10-15T09:03:15Z</time>
      </trkpt>
      <trkpt lat="45.8751" lon="4.81257">
        <ele>250</ele>
        <time>2017-10-15T09:03:16Z</time>
      </trkpt>
      <trkpt lat="45.87506" lon="4.81268">
        <ele>250</ele>
        <time>2017-10-15T09:03:18Z</time>
      </trkpt>
      <trkpt lat="45.87503" lon="4.81274">
        <ele>249</ele>
        <time>2017-10-15T09:03:19Z</time>
      </trkpt>
      <trkpt lat="45.87502" lon="4.8128">
        <ele>249</ele>
        <time>2017-10-15T09:03:20Z</time>
      </trkpt>
      <trkpt lat="45.87501" lon="4.81287">
        <ele>248</ele>
        <time>2017-10-15T09:03:21Z</time>
      </trkpt>
      <trkpt lat="45.875" lon="4.81295">
        <ele>248</ele>
        <time>2017-10-15T09:03:22Z</time>
      </trkpt>
      <trkpt lat="45.87499" lon="4.81301">
        <ele>253</ele>
        <time>2017-10-15T09:03:23Z</time>
      </trkpt>
      <trkpt lat="45.87498" lon="4.81309">
        <ele>252</ele>
        <time>2017-10-15T09:03:24Z</time>
      </trkpt>
      <trkpt lat="45.87496" lon="4.81317">
        <ele>252</ele>
        <time>2017-10-15T09:03:25Z</time>
      </trkpt>
      <trkpt lat="45.87495" lon="4.81326">
        <ele>250</ele>
        <time>2017-10-15T09:03:26Z</time>
      </trkpt>
      <trkpt lat="45.87493" lon="4.81335">
        <ele>248</ele>
        <time>2017-10-15T09:03:27Z</time>
      </trkpt>
      <trkpt lat="45.87489" lon="4.81343">
        <ele>248</ele>
        <time>2017-10-15T09:03:28Z</time>
      </trkpt>
      <trkpt lat="45.87485" lon="4.81351">
        <ele>248</ele>
        <time>2017-10-15T09:03:29Z</time>
      </trkpt>
      <trkpt lat="45.87482" lon="4.8136">
        <ele>248</ele>
        <time>2017-10-15T09:03:30Z</time>
      </trkpt>
      <trkpt lat="45.87478" lon="4.81368">
        <ele>248</ele>
        <time>2017-10-15T09:03:31Z</time>
      </trkpt>
      <trkpt lat="45.87473" lon="4.81377">
        <ele>248</ele>
        <time>2017-10-15T09:03:32Z</time>
      </trkpt>
      <trkpt lat="45.87469" lon="4.81385">
        <ele>248</ele>
        <time>2017-10-15T09:03:33Z</time>
      </trkpt>
      <trkpt lat="45.87462" lon="4.81393">
        <ele>247</ele>
        <time>2017-10-15T09:03:34Z</time>
      </trkpt>
      <trkpt lat="45.87458" lon="4.81402">
        <ele>247</ele>
        <time>2017-10-15T09:03:35Z</time>
      </trkpt>
      <trkpt lat="45.87453" lon="4.81409">
        <ele>247</ele>
        <time>2017-10-15T09:03:36Z</time>
      </trkpt>
      <trkpt lat="45.87448" lon="4.81417">
        <ele>243</ele>
        <time>2017-10-15T09:03:37Z</time>
      </trkpt>
      <trkpt lat="45.87443" lon="4.81424">
        <ele>243</ele>
        <time>2017-10-15T09:03:38Z</time>
      </trkpt>
      <trkpt lat="45.87439" lon="4.81433">
        <ele>243</ele>
        <time>2017-10-15T09:03:39Z</time>
      </trkpt>
      <trkpt lat="45.87435" lon="4.81441">
        <ele>243</ele>
        <time>2017-10-15T09:03:40Z</time>
      </trkpt>
      <trkpt lat="45.87431" lon="4.8145">
        <ele>243</ele>
        <time>2017-10-15T09:03:41Z</time>
      </trkpt>
      <trkpt lat="45.87427" lon="4.81459">
        <ele>242</ele>
        <time>2017-10-15T09:03:42Z</time>
      </trkpt>
      <trkpt lat="45.87423" lon="4.81467">
        <ele>242</ele>
        <time>2017-10-15T09:03:43Z</time>
      </trkpt>
      <trkpt lat="45.87419" lon="4.81476">
        <ele>242</ele>
        <time>2017-10-15T09:03:44Z</time>
      </trkpt>
      <trkpt lat="45.87415" lon="4.81486">
        <ele>246</ele>
        <time>2017-10-15T09:03:45Z</time>
      </trkpt>
      <trkpt lat="45.87412" lon="4.81494">
        <ele>244</ele>
        <time>2017-10-15T09:03:46Z</time>
      </trkpt>
      <trkpt lat="45.87409" lon="4.81503">
        <ele>243</ele>
        <time>2017-10-15T09:03:47Z</time>
      </trkpt>
      <trkpt lat="45.87405" lon="4.81511">
        <ele>244</ele>
        <time>2017-10-15T09:03:48Z</time>
      </trkpt>
      <trkpt lat="45.87401" lon="4.8152">
        <ele>244</ele>
        <time>2017-10-15T09:03:49Z</time>
      </trkpt>
      <trkpt lat="45.87398" lon="4.81528">
        <ele>244</ele>
        <time>2017-10-15T09:03:50Z</time>
      </trkpt>
      <trkpt lat="45.87395" lon="4.81536">
        <ele>244</ele>
        <time>2017-10-15T09:03:51Z</time>
      </trkpt>
      <trkpt lat="45.87392" lon="4.81545">
        <ele>244</ele>
        <time>2017-10-15T09:03:52Z</time>
      </trkpt>
      <trkpt lat="45.8739" lon="4.81553">
        <ele>244</ele>
        <time>2017-10-15T09:03:53Z</time>
      </trkpt>
      <trkpt lat="45.87387" lon="4.81561">
        <ele>243</ele>
        <time>2017-10-15T09:03:54Z</time>
      </trkpt>
      <trkpt lat="45.87386" lon="4.81571">
        <ele>243</ele>
        <time>2017-10-15T09:03:55Z</time>
      </trkpt>
      <trkpt lat="45.87384" lon="4.81581">
        <ele>243</ele>
        <time>2017-10-15T09:03:56Z</time>
      </trkpt>
      <trkpt lat="45.87383" lon="4.81593">
        <ele>239</ele>
        <time>2017-10-15T09:03:57Z</time>
      </trkpt>
      <trkpt lat="45.87381" lon="4.81604">
        <ele>239</ele>
        <time>2017-10-15T09:03:58Z</time>
      </trkpt>
      <trkpt lat="45.87379" lon="4.81615">
        <ele>239</ele>
        <time>2017-10-15T09:03:59Z</time>
      </trkpt>
      <trkpt lat="45.87376" lon="4.81624">
        <ele>239</ele>
        <time>2017-10-15T09:04:00Z</time>
      </trkpt>
      <trkpt lat="45.8737" lon="4.81634">
        <ele>239</ele>
        <time>2017-10-15T09:04:01Z</time>
      </trkpt>
      <trkpt lat="45.87365" lon="4.81645">
        <ele>239</ele>
        <time>2017-10-15T09:04:02Z</time>
      </trkpt>
      <trkpt lat="45.87361" lon="4.81656">
        <ele>240</ele>
        <time>2017-10-15T09:04:03Z</time>
      </trkpt>
      <trkpt lat="45.87359" lon="4.81667">
        <ele>240</ele>
        <time>2017-10-15T09:04:04Z</time>
      </trkpt>
      <trkpt lat="45.87356" lon="4.81677">
        <ele>237</ele>
        <time>2017-10-15T09:04:05Z</time>
      </trkpt>
      <trkpt lat="45.87352" lon="4.81688">
        <ele>237</ele>
        <time>2017-10-15T09:04:06Z</time>
      </trkpt>
      <trkpt lat="45.87348" lon="4.81697">
        <ele>237</ele>
        <time>2017-10-15T09:04:07Z</time>
      </trkpt>
      <trkpt lat="45.87345" lon="4.81706">
        <ele>236</ele>
        <time>2017-10-15T09:04:08Z</time>
      </trkpt>
      <trkpt lat="45.87342" lon="4.81716">
        <ele>236</ele>
        <time>2017-10-15T09:04:09Z</time>
      </trkpt>
      <trkpt lat="45.8734" lon="4.81726">
        <ele>236</ele>
        <time>2017-10-15T09:04:10Z</time>
      </trkpt>
      <trkpt lat="45.87337" lon="4.81735">
        <ele>237</ele>
        <time>2017-10-15T09:04:11Z</time>
      </trkpt>
      <trkpt lat="45.87333" lon="4.81745">
        <ele>239</ele>
        <time>2017-10-15T09:04:12Z</time>
      </trkpt>
      <trkpt lat="45.8733" lon="4.81754">
        <ele>238</ele>
        <time>2017-10-15T09:04:13Z</time>
      </trkpt>
      <trkpt lat="45.87327" lon="4.81762">
        <ele>238</ele>
        <time>2017-10-15T09:04:14Z</time>
      </trkpt>
      <trkpt lat="45.87324" lon="4.8177">
        <ele>239</ele>
        <time>2017-10-15T09:04:15Z</time>
      </trkpt>
      <trkpt lat="45.87321" lon="4.81779">
        <ele>239</ele>
        <time>2017-10-15T09:04:16Z</time>
      </trkpt>
      <trkpt lat="45.87318" lon="4.81788">
        <ele>238</ele>
        <time>2017-10-15T09:04:17Z</time>
      </trkpt>
      <trkpt lat="45.87316" lon="4.81796">
        <ele>238</ele>
        <time>2017-10-15T09:04:18Z</time>
      </trkpt>
      <trkpt lat="45.87314" lon="4.81805">
        <ele>238</ele>
        <time>2017-10-15T09:04:19Z</time>
      </trkpt>
      <trkpt lat="45.87312" lon="4.81814">
        <ele>238</ele>
        <time>2017-10-15T09:04:20Z</time>
      </trkpt>
      <trkpt lat="45.87309" lon="4.81822">
        <ele>238</ele>
        <time>2017-10-15T09:04:21Z</time>
      </trkpt>
      <trkpt lat="45.87307" lon="4.81832">
        <ele>238</ele>
        <time>2017-10-15T09:04:22Z</time>
      </trkpt>
      <trkpt lat="45.87304" lon="4.81841">
        <ele>236</ele>
        <time>2017-10-15T09:04:23Z</time>
      </trkpt>
      <trkpt lat="45.87301" lon="4.8185">
        <ele>236</ele>
        <time>2017-10-15T09:04:24Z</time>
      </trkpt>
      <trkpt lat="45.87299" lon="4.81861">
        <ele>236</ele>
        <time>2017-10-15T09:04:25Z</time>
      </trkpt>
      <trkpt lat="45.87297" lon="4.81871">
        <ele>235</ele>
        <time>2017-10-15T09:04:26Z</time>
      </trkpt>
      <trkpt lat="45.87296" lon="4.81881">
        <ele>235</ele>
        <time>2017-10-15T09:04:27Z</time>
      </trkpt>
      <trkpt lat="45.87295" lon="4.81891">
        <ele>235</ele>
        <time>2017-10-15T09:04:28Z</time>
      </trkpt>
      <trkpt lat="45.87292" lon="4.81899">
        <ele>235</ele>
        <time>2017-10-15T09:04:29Z</time>
      </trkpt>
      <trkpt lat="45.87289" lon="4.81907">
        <ele>235</ele>
        <time>2017-10-15T09:04:30Z</time>
      </trkpt>
      <trkpt lat="45.87284" lon="4.81912">
        <ele>235</ele>
        <time>2017-10-15T09:04:31Z</time>
      </trkpt>
      <trkpt lat="45.87279" lon="4.81917">
        <ele>235</ele>
        <time>2017-10-15T09:04:32Z</time>
      </trkpt>
      <trkpt lat="45.87274" lon="4.81921">
        <ele>231</ele>
        <time>2017-10-15T09:04:33Z</time>
      </trkpt>
      <trkpt lat="45.8727" lon="4.81925">
        <ele>231</ele>
        <time>2017-10-15T09:04:34Z</time>
      </trkpt>
      <trkpt lat="45.87266" lon="4.81929">
        <ele>231</ele>
        <time>2017-10-15T09:04:35Z</time>
      </trkpt>
      <trkpt lat="45.87261" lon="4.81933">
        <ele>231</ele>
        <time>2017-10-15T09:04:36Z</time>
      </trkpt>
      <trkpt lat="45.87257" lon="4.81936">
        <ele>231</ele>
        <time>2017-10-15T09:04:37Z</time>
      </trkpt>
      <trkpt lat="45.87251" lon="4.81938">
        <ele>231</ele>
        <time>2017-10-15T09:04:38Z</time>
      </trkpt>
      <trkpt lat="45.87246" lon="4.8194">
        <ele>232</ele>
        <time>2017-10-15T09:04:39Z</time>
      </trkpt>
      <trkpt lat="45.87241" lon="4.81942">
        <ele>232</ele>
        <time>2017-10-15T09:04:40Z</time>
      </trkpt>
      <trkpt lat="45.87237" lon="4.81945">
        <ele>232</ele>
        <time>2017-10-15T09:04:41Z</time>
      </trkpt>
      <trkpt lat="45.87232" lon="4.81947">
        <ele>231</ele>
        <time>2017-10-15T09:04:42Z</time>
      </trkpt>
      <trkpt lat="45.87224" lon="4.81951">
        <ele>231</ele>
        <time>2017-10-15T09:04:44Z</time>
      </trkpt>
      <trkpt lat="45.87219" lon="4.81953">
        <ele>231</ele>
        <time>2017-10-15T09:04:45Z</time>
      </trkpt>
      <trkpt lat="45.87215" lon="4.81955">
        <ele>231</ele>
        <time>2017-10-15T09:04:46Z</time>
      </trkpt>
      <trkpt lat="45.8721" lon="4.81957">
        <ele>231</ele>
        <time>2017-10-15T09:04:47Z</time>
      </trkpt>
      <trkpt lat="45.87206" lon="4.8196">
        <ele>231</ele>
        <time>2017-10-15T09:04:48Z</time>
      </trkpt>
      <trkpt lat="45.872" lon="4.81963">
        <ele>231</ele>
        <time>2017-10-15T09:04:49Z</time>
      </trkpt>
      <trkpt lat="45.87193" lon="4.81965">
        <ele>231</ele>
        <time>2017-10-15T09:04:50Z</time>
      </trkpt>
      <trkpt lat="45.87188" lon="4.81968">
        <ele>230</ele>
        <time>2017-10-15T09:04:51Z</time>
      </trkpt>
      <trkpt lat="45.87182" lon="4.81968">
        <ele>230</ele>
        <time>2017-10-15T09:04:52Z</time>
      </trkpt>
      <trkpt lat="45.87176" lon="4.81968">
        <ele>230</ele>
        <time>2017-10-15T09:04:53Z</time>
      </trkpt>
      <trkpt lat="45.87169" lon="4.81968">
        <ele>230</ele>
        <time>2017-10-15T09:04:54Z</time>
      </trkpt>
      <trkpt lat="45.87162" lon="4.81969">
        <ele>231</ele>
        <time>2017-10-15T09:04:55Z</time>
      </trkpt>
      <trkpt lat="45.87155" lon="4.8197">
        <ele>231</ele>
        <time>2017-10-15T09:04:56Z</time>
      </trkpt>
      <trkpt lat="45.87149" lon="4.8197">
        <ele>231</ele>
        <time>2017-10-15T09:04:57Z</time>
      </trkpt>
      <trkpt lat="45.87142" lon="4.8197">
        <ele>231</ele>
        <time>2017-10-15T09:04:58Z</time>
      </trkpt>
      <trkpt lat="45.87134" lon="4.81969">
        <ele>231</ele>
        <time>2017-10-15T09:04:59Z</time>
      </trkpt>
      <trkpt lat="45.87125" lon="4.81971">
        <ele>231</ele>
        <time>2017-10-15T09:05:00Z</time>
      </trkpt>
      <trkpt lat="45.87117" lon="4.81973">
        <ele>230</ele>
        <time>2017-10-15T09:05:01Z</time>
      </trkpt>
      <trkpt lat="45.8711" lon="4.81972">
        <ele>230</ele>
        <time>2017-10-15T09:05:02Z</time>
      </trkpt>
      <trkpt lat="45.87099" lon="4.81973">
        <ele>230</ele>
        <time>2017-10-15T09:05:03Z</time>
      </trkpt>
      <trkpt lat="45.8709" lon="4.81971">
        <ele>230</ele>
        <time>2017-10-15T09:05:04Z</time>
      </trkpt>
      <trkpt lat="45.87082" lon="4.8197">
        <ele>228</ele>
        <time>2017-10-15T09:05:05Z</time>
      </trkpt>
      <trkpt lat="45.87072" lon="4.81966">
        <ele>228</ele>
        <time>2017-10-15T09:05:06Z</time>
      </trkpt>
      <trkpt lat="45.87062" lon="4.81963">
        <ele>229</ele>
        <time>2017-10-15T09:05:07Z</time>
      </trkpt>
      <trkpt lat="45.87054" lon="4.81959">
        <ele>229</ele>
        <time>2017-10-15T09:05:08Z</time>
      </trkpt>
      <trkpt lat="45.87048" lon="4.81956">
        <ele>229</ele>
        <time>2017-10-15T09:05:09Z</time>
      </trkpt>
      <trkpt lat="45.87041" lon="4.81954">
        <ele>229</ele>
        <time>2017-10-15T09:05:10Z</time>
      </trkpt>
      <trkpt lat="45.87033" lon="4.81949">
        <ele>229</ele>
        <time>2017-10-15T09:05:11Z</time>
      </trkpt>
      <trkpt lat="45.87024" lon="4.81947">
        <ele>229</ele>
        <time>2017-10-15T09:05:12Z</time>
      </trkpt>
      <trkpt lat="45.87016" lon="4.81945">
        <ele>229</ele>
        <time>2017-10-15T09:05:13Z</time>
      </trkpt>
      <trkpt lat="45.87009" lon="4.81946">
        <ele>229</ele>
        <time>2017-10-15T09:05:14Z</time>
      </trkpt>
      <trkpt lat="45.87004" lon="4.81949">
        <ele>229</ele>
        <time>2017-10-15T09:05:15Z</time>
      </trkpt>
      <trkpt lat="45.86997" lon="4.81952">
        <ele>227</ele>
        <time>2017-10-15T09:05:16Z</time>
      </trkpt>
      <trkpt lat="45.86991" lon="4.81958">
        <ele>226</ele>
        <time>2017-10-15T09:05:17Z</time>
      </trkpt>
      <trkpt lat="45.86987" lon="4.81964">
        <ele>225</ele>
        <time>2017-10-15T09:05:18Z</time>
      </trkpt>
      <trkpt lat="45.86984" lon="4.8197">
        <ele>225</ele>
        <time>2017-10-15T09:05:19Z</time>
      </trkpt>
      <trkpt lat="45.86984" lon="4.81981">
        <ele>223</ele>
        <time>2017-10-15T09:05:21Z</time>
      </trkpt>
      <trkpt lat="45.86984" lon="4.81987">
        <ele>223</ele>
        <time>2017-10-15T09:05:22Z</time>
      </trkpt>
      <trkpt lat="45.86984" lon="4.81996">
        <ele>222</ele>
        <time>2017-10-15T09:05:24Z</time>
      </trkpt>
      <trkpt lat="45.86984" lon="4.82002">
        <ele>222</ele>
        <time>2017-10-15T09:05:25Z</time>
      </trkpt>
      <trkpt lat="45.86983" lon="4.82013">
        <ele>222</ele>
        <time>2017-10-15T09:05:31Z</time>
      </trkpt>
      <trkpt lat="45.86984" lon="4.82016">
        <ele>222</ele>
        <time>2017-10-15T09:05:32Z</time>
      </trkpt>
      <trkpt lat="45.86986" lon="4.82023">
        <ele>223</ele>
        <time>2017-10-15T09:05:34Z</time>
      </trkpt>
      <trkpt lat="45.86988" lon="4.82028">
        <ele>223</ele>
        <time>2017-10-15T09:05:35Z</time>
      </trkpt>
      <trkpt lat="45.86993" lon="4.82031">
        <ele>223</ele>
        <time>2017-10-15T09:05:36Z</time>
      </trkpt>
      <trkpt lat="45.86999" lon="4.82038">
        <ele>223</ele>
        <time>2017-10-15T09:05:37Z</time>
      </trkpt>
      <trkpt lat="45.87005" lon="4.82041">
        <ele>219</ele>
        <time>2017-10-15T09:05:38Z</time>
      </trkpt>
      <trkpt lat="45.87011" lon="4.82044">
        <ele>219</ele>
        <time>2017-10-15T09:05:39Z</time>
      </trkpt>
      <trkpt lat="45.87017" lon="4.82047">
        <ele>218</ele>
        <time>2017-10-15T09:05:40Z</time>
      </trkpt>
      <trkpt lat="45.87024" lon="4.82049">
        <ele>218</ele>
        <time>2017-10-15T09:05:41Z</time>
      </trkpt>
      <trkpt lat="45.8703" lon="4.82053">
        <ele>218</ele>
        <time>2017-10-15T09:05:42Z</time>
      </trkpt>
      <trkpt lat="45.87038" lon="4.82058">
        <ele>218</ele>
        <time>2017-10-15T09:05:43Z</time>
      </trkpt>
      <trkpt lat="45.87045" lon="4.82063">
        <ele>218</ele>
        <time>2017-10-15T09:05:44Z</time>
      </trkpt>
      <trkpt lat="45.87052" lon="4.82068">
        <ele>217</ele>
        <time>2017-10-15T09:05:45Z</time>
      </trkpt>
      <trkpt lat="45.87059" lon="4.82073">
        <ele>217</ele>
        <time>2017-10-15T09:05:46Z</time>
      </trkpt>
      <trkpt lat="45.87067" lon="4.82077">
        <ele>216</ele>
        <time>2017-10-15T09:05:47Z</time>
      </trkpt>
      <trkpt lat="45.87074" lon="4.82082">
        <ele>215</ele>
        <time>2017-10-15T09:05:48Z</time>
      </trkpt>
      <trkpt lat="45.87081" lon="4.82087">
        <ele>215</ele>
        <time>2017-10-15T09:05:49Z</time>
      </trkpt>
      <trkpt lat="45.87089" lon="4.82092">
        <ele>213</ele>
        <time>2017-10-15T09:05:50Z</time>
      </trkpt>
      <trkpt lat="45.87097" lon="4.82097">
        <ele>213</ele>
        <time>2017-10-15T09:05:51Z</time>
      </trkpt>
      <trkpt lat="45.87105" lon="4.82101">
        <ele>213</ele>
        <time>2017-10-15T09:05:52Z</time>
      </trkpt>
      <trkpt lat="45.87112" lon="4.82107">
        <ele>213</ele>
        <time>2017-10-15T09:05:53Z</time>
      </trkpt>
      <trkpt lat="45.87121" lon="4.82112">
        <ele>212</ele>
        <time>2017-10-15T09:05:54Z</time>
      </trkpt>
      <trkpt lat="45.87128" lon="4.82118">
        <ele>212</ele>
        <time>2017-10-15T09:05:55Z</time>
      </trkpt>
      <trkpt lat="45.87136" lon="4.82124">
        <ele>212</ele>
        <time>2017-10-15T09:05:56Z</time>
      </trkpt>
      <trkpt lat="45.87142" lon="4.82131">
        <ele>212</ele>
        <time>2017-10-15T09:05:57Z</time>
      </trkpt>
      <trkpt lat="45.87148" lon="4.82141">
        <ele>211</ele>
        <time>2017-10-15T09:05:58Z</time>
      </trkpt>
      <trkpt lat="45.87154" lon="4.82149">
        <ele>211</ele>
        <time>2017-10-15T09:05:59Z</time>
      </trkpt>
      <trkpt lat="45.8716" lon="4.82159">
        <ele>209</ele>
        <time>2017-10-15T09:06:00Z</time>
      </trkpt>
      <trkpt lat="45.87165" lon="4.82171">
        <ele>209</ele>
        <time>2017-10-15T09:06:01Z</time>
      </trkpt>
      <trkpt lat="45.8717" lon="4.82183">
        <ele>208</ele>
        <time>2017-10-15T09:06:02Z</time>
      </trkpt>
      <trkpt lat="45.87174" lon="4.82195">
        <ele>208</ele>
        <time>2017-10-15T09:06:03Z</time>
      </trkpt>
      <trkpt lat="45.87177" lon="4.82206">
        <ele>208</ele>
        <time>2017-10-15T09:06:04Z</time>
      </trkpt>
      <trkpt lat="45.87181" lon="4.82217">
        <ele>208</ele>
        <time>2017-10-15T09:06:05Z</time>
      </trkpt>
      <trkpt lat="45.87184" lon="4.82228">
        <ele>208</ele>
        <time>2017-10-15T09:06:06Z</time>
      </trkpt>
      <trkpt lat="45.87188" lon="4.82239">
        <ele>208</ele>
        <time>2017-10-15T09:06:07Z</time>
      </trkpt>
      <trkpt lat="45.87193" lon="4.82249">
        <ele>208</ele>
        <time>2017-10-15T09:06:08Z</time>
      </trkpt>
      <trkpt lat="45.87196" lon="4.82259">
        <ele>209</ele>
        <time>2017-10-15T09:06:09Z</time>
      </trkpt>
      <trkpt lat="45.87198" lon="4.82268">
        <ele>210</ele>
        <time>2017-10-15T09:06:10Z</time>
      </trkpt>
      <trkpt lat="45.872" lon="4.82276">
        <ele>210</ele>
        <time>2017-10-15T09:06:11Z</time>
      </trkpt>
      <trkpt lat="45.87203" lon="4.82286">
        <ele>210</ele>
        <time>2017-10-15T09:06:12Z</time>
      </trkpt>
      <trkpt lat="45.87205" lon="4.82292">
        <ele>210</ele>
        <time>2017-10-15T09:06:13Z</time>
      </trkpt>
      <trkpt lat="45.87208" lon="4.82298">
        <ele>210</ele>
        <time>2017-10-15T09:06:14Z</time>
      </trkpt>
      <trkpt lat="45.8721" lon="4.82303">
        <ele>210</ele>
        <time>2017-10-15T09:06:15Z</time>
      </trkpt>
      <trkpt lat="45.87214" lon="4.8231">
        <ele>210</ele>
        <time>2017-10-15T09:06:16Z</time>
      </trkpt>
      <trkpt lat="45.87217" lon="4.82315">
        <ele>210</ele>
        <time>2017-10-15T09:06:17Z</time>
      </trkpt>
      <trkpt lat="45.87219" lon="4.8232">
        <ele>210</ele>
        <time>2017-10-15T09:06:18Z</time>
      </trkpt>
      <trkpt lat="45.87221" lon="4.82325">
        <ele>210</ele>
        <time>2017-10-15T09:06:19Z</time>
      </trkpt>
      <trkpt lat="45.87226" lon="4.82331">
        <ele>210</ele>
        <time>2017-10-15T09:06:20Z</time>
      </trkpt>
      <trkpt lat="45.8723" lon="4.8234">
        <ele>213</ele>
        <time>2017-10-15T09:06:22Z</time>
      </trkpt>
      <trkpt lat="45.87232" lon="4.82345">
        <ele>213</ele>
        <time>2017-10-15T09:06:23Z</time>
      </trkpt>
      <trkpt lat="45.87237" lon="4.82354">
        <ele>214</ele>
        <time>2017-10-15T09:06:25Z</time>
      </trkpt>
      <trkpt lat="45.8724" lon="4.82359">
        <ele>214</ele>
        <time>2017-10-15T09:06:26Z</time>
      </trkpt>
      <trkpt lat="45.87246" lon="4.82369">
        <ele>215</ele>
        <time>2017-10-15T09:06:28Z</time>
      </trkpt>
      <trkpt lat="45.87249" lon="4.82374">
        <ele>215</ele>
        <time>2017-10-15T09:06:29Z</time>
      </trkpt>
      <trkpt lat="45.87254" lon="4.82382">
        <ele>209</ele>
        <time>2017-10-15T09:06:31Z</time>
      </trkpt>
      <trkpt lat="45.87256" lon="4.82385">
        <ele>210</ele>
        <time>2017-10-15T09:06:32Z</time>
      </trkpt>
      <trkpt lat="45.87261" lon="4.82393">
        <ele>210</ele>
        <time>2017-10-15T09:06:35Z</time>
      </trkpt>
      <trkpt lat="45.87263" lon="4.82396">
        <ele>210</ele>
        <time>2017-10-15T09:06:36Z</time>
      </trkpt>
      <trkpt lat="45.87267" lon="4.82403">
        <ele>211</ele>
        <time>2017-10-15T09:06:38Z</time>
      </trkpt>
      <trkpt lat="45.87269" lon="4.82406">
        <ele>211</ele>
        <time>2017-10-15T09:06:39Z</time>
      </trkpt>
      <trkpt lat="45.87272" lon="4.82415">
        <ele>211</ele>
        <time>2017-10-15T09:06:41Z</time>
      </trkpt>
      <trkpt lat="45.87274" lon="4.82419">
        <ele>214</ele>
        <time>2017-10-15T09:06:42Z</time>
      </trkpt>
      <trkpt lat="45.87279" lon="4.82426">
        <ele>213</ele>
        <time>2017-10-15T09:06:44Z</time>
      </trkpt>
      <trkpt lat="45.87281" lon="4.82429">
        <ele>213</ele>
        <time>2017-10-15T09:06:45Z</time>
      </trkpt>
      <trkpt lat="45.87286" lon="4.82436">
        <ele>213</ele>
        <time>2017-10-15T09:06:47Z</time>
      </trkpt>
      <trkpt lat="45.87289" lon="4.8244">
        <ele>213</ele>
        <time>2017-10-15T09:06:48Z</time>
      </trkpt>
      <trkpt lat="45.87295" lon="4.82448">
        <ele>212</ele>
        <time>2017-10-15T09:06:50Z</time>
      </trkpt>
      <trkpt lat="45.87297" lon="4.82452">
        <ele>212</ele>
        <time>2017-10-15T09:06:51Z</time>
      </trkpt>
      <trkpt lat="45.87301" lon="4.82461">
        <ele>212</ele>
        <time>2017-10-15T09:06:53Z</time>
      </trkpt>
      <trkpt lat="45.87303" lon="4.82465">
        <ele>212</ele>
        <time>2017-10-15T09:06:54Z</time>
      </trkpt>
      <trkpt lat="45.87307" lon="4.82473">
        <ele>212</ele>
        <time>2017-10-15T09:06:56Z</time>
      </trkpt>
      <trkpt lat="45.87309" lon="4.82477">
        <ele>212</ele>
        <time>2017-10-15T09:06:57Z</time>
      </trkpt>
      <trkpt lat="45.87314" lon="4.82486">
        <ele>212</ele>
        <time>2017-10-15T09:06:59Z</time>
      </trkpt>
      <trkpt lat="45.87317" lon="4.8249">
        <ele>211</ele>
        <time>2017-10-15T09:07:00Z</time>
      </trkpt>
      <trkpt lat="45.87322" lon="4.82499">
        <ele>211</ele>
        <time>2017-10-15T09:07:02Z</time>
      </trkpt>
      <trkpt lat="45.87324" lon="4.82503">
        <ele>212</ele>
        <time>2017-10-15T09:07:03Z</time>
      </trkpt>
      <trkpt lat="45.87327" lon="4.8251">
        <ele>212</ele>
        <time>2017-10-15T09:07:05Z</time>
      </trkpt>
      <trkpt lat="45.87329" lon="4.82513">
        <ele>213</ele>
        <time>2017-10-15T09:07:06Z</time>
      </trkpt>
      <trkpt lat="45.87333" lon="4.82522">
        <ele>214</ele>
        <time>2017-10-15T09:07:08Z</time>
      </trkpt>
      <trkpt lat="45.87335" lon="4.82526">
        <ele>208</ele>
        <time>2017-10-15T09:07:09Z</time>
      </trkpt>
      <trkpt lat="45.87339" lon="4.82535">
        <ele>209</ele>
        <time>2017-10-15T09:07:11Z</time>
      </trkpt>
      <trkpt lat="45.87341" lon="4.82539">
        <ele>209</ele>
        <time>2017-10-15T09:07:12Z</time>
      </trkpt>
      <trkpt lat="45.87345" lon="4.82547">
        <ele>209</ele>
        <time>2017-10-15T09:07:14Z</time>
      </trkpt>
      <trkpt lat="45.87346" lon="4.82551">
        <ele>209</ele>
        <time>2017-10-15T09:07:15Z</time>
      </trkpt>
      <trkpt lat="45.8735" lon="4.8256">
        <ele>210</ele>
        <time>2017-10-15T09:07:17Z</time>
      </trkpt>
      <trkpt lat="45.87352" lon="4.82565">
        <ele>210</ele>
        <time>2017-10-15T09:07:18Z</time>
      </trkpt>
      <trkpt lat="45.87357" lon="4.82574">
        <ele>210</ele>
        <time>2017-10-15T09:07:20Z</time>
      </trkpt>
      <trkpt lat="45.87358" lon="4.82579">
        <ele>210</ele>
        <time>2017-10-15T09:07:21Z</time>
      </trkpt>
      <trkpt lat="45.87361" lon="4.82589">
        <ele>213</ele>
        <time>2017-10-15T09:07:23Z</time>
      </trkpt>
      <trkpt lat="45.87363" lon="4.82594">
        <ele>213</ele>
        <time>2017-10-15T09:07:24Z</time>
      </trkpt>
      <trkpt lat="45.87367" lon="4.82603">
        <ele>213</ele>
        <time>2017-10-15T09:07:26Z</time>
      </trkpt>
      <trkpt lat="45.87369" lon="4.82608">
        <ele>213</ele>
        <time>2017-10-15T09:07:27Z</time>
      </trkpt>
      <trkpt lat="45.87373" lon="4.82617">
        <ele>213</ele>
        <time>2017-10-15T09:07:29Z</time>
      </trkpt>
      <trkpt lat="45.87375" lon="4.82622">
        <ele>213</ele>
        <time>2017-10-15T09:07:30Z</time>
      </trkpt>
      <trkpt lat="45.87379" lon="4.82632">
        <ele>213</ele>
        <time>2017-10-15T09:07:32Z</time>
      </trkpt>
      <trkpt lat="45.87381" lon="4.82637">
        <ele>213</ele>
        <time>2017-10-15T09:07:33Z</time>
      </trkpt>
      <trkpt lat="45.87384" lon="4.82648">
        <ele>213</ele>
        <time>2017-10-15T09:07:35Z</time>
      </trkpt>
      <trkpt lat="45.87387" lon="4.82654">
        <ele>213</ele>
        <time>2017-10-15T09:07:36Z</time>
      </trkpt>
      <trkpt lat="45.8739" lon="4.82661">
        <ele>213</ele>
        <time>2017-10-15T09:07:37Z</time>
      </trkpt>
      <trkpt lat="45.87394" lon="4.82667">
        <ele>215</ele>
        <time>2017-10-15T09:07:38Z</time>
      </trkpt>
      <trkpt lat="45.87397" lon="4.82674">
        <ele>214</ele>
        <time>2017-10-15T09:07:39Z</time>
      </trkpt>
      <trkpt lat="45.87401" lon="4.8268">
        <ele>214</ele>
        <time>2017-10-15T09:07:40Z</time>
      </trkpt>
      <trkpt lat="45.87404" lon="4.82686">
        <ele>215</ele>
        <time>2017-10-15T09:07:41Z</time>
      </trkpt>
      <trkpt lat="45.87407" lon="4.82693">
        <ele>215</ele>
        <time>2017-10-15T09:07:42Z</time>
      </trkpt>
      <trkpt lat="45.8741" lon="4.82699">
        <ele>215</ele>
        <time>2017-10-15T09:07:43Z</time>
      </trkpt>
      <trkpt lat="45.87413" lon="4.82704">
        <ele>215</ele>
        <time>2017-10-15T09:07:44Z</time>
      </trkpt>
      <trkpt lat="45.87417" lon="4.8271">
        <ele>209</ele>
        <time>2017-10-15T09:07:45Z</time>
      </trkpt>
      <trkpt lat="45.87421" lon="4.82717">
        <ele>209</ele>
        <time>2017-10-15T09:07:46Z</time>
      </trkpt>
      <trkpt lat="45.87423" lon="4.82722">
        <ele>209</ele>
        <time>2017-10-15T09:07:47Z</time>
      </trkpt>
      <trkpt lat="45.87427" lon="4.8273">
        <ele>210</ele>
        <time>2017-10-15T09:07:48Z</time>
      </trkpt>
      <trkpt lat="45.87429" lon="4.82736">
        <ele>210</ele>
        <time>2017-10-15T09:07:49Z</time>
      </trkpt>
      <trkpt lat="45.87434" lon="4.82741">
        <ele>210</ele>
        <time>2017-10-15T09:07:50Z</time>
      </trkpt>
      <trkpt lat="45.87436" lon="4.82748">
        <ele>210</ele>
        <time>2017-10-15T09:07:51Z</time>
      </trkpt>
      <trkpt lat="45.87439" lon="4.82754">
        <ele>211</ele>
        <time>2017-10-15T09:07:52Z</time>
      </trkpt>
      <trkpt lat="45.87441" lon="4.8276">
        <ele>211</ele>
        <time>2017-10-15T09:07:53Z</time>
      </trkpt>
      <trkpt lat="45.87444" lon="4.82766">
        <ele>210</ele>
        <time>2017-10-15T09:07:54Z</time>
      </trkpt>
      <trkpt lat="45.87447" lon="4.82773">
        <ele>210</ele>
        <time>2017-10-15T09:07:55Z</time>
      </trkpt>
      <trkpt lat="45.8745" lon="4.82779">
        <ele>210</ele>
        <time>2017-10-15T09:07:56Z</time>
      </trkpt>
      <trkpt lat="45.87454" lon="4.82785">
        <ele>210</ele>
        <time>2017-10-15T09:07:57Z</time>
      </trkpt>
      <trkpt lat="45.87456" lon="4.82791">
        <ele>210</ele>
        <time>2017-10-15T09:07:58Z</time>
      </trkpt>
      <trkpt lat="45.87459" lon="4.82797">
        <ele>210</ele>
        <time>2017-10-15T09:07:59Z</time>
      </trkpt>
      <trkpt lat="45.87462" lon="4.82803">
        <ele>209</ele>
        <time>2017-10-15T09:08:00Z</time>
      </trkpt>
      <trkpt lat="45.87464" lon="4.8281">
        <ele>209</ele>
        <time>2017-10-15T09:08:01Z</time>
      </trkpt>
      <trkpt lat="45.87467" lon="4.82817">
        <ele>209</ele>
        <time>2017-10-15T09:08:02Z</time>
      </trkpt>
      <trkpt lat="45.87469" lon="4.82823">
        <ele>209</ele>
        <time>2017-10-15T09:08:03Z</time>
      </trkpt>
      <trkpt lat="45.87473" lon="4.82829">
        <ele>209</ele>
        <time>2017-10-15T09:08:04Z</time>
      </trkpt>
      <trkpt lat="45.87476" lon="4.82836">
        <ele>210</ele>
        <time>2017-10-15T09:08:05Z</time>
      </trkpt>
      <trkpt lat="45.87479" lon="4.82842">
        <ele>210</ele>
        <time>2017-10-15T09:08:06Z</time>
      </trkpt>
      <trkpt lat="45.87482" lon="4.82849">
        <ele>210</ele>
        <time>2017-10-15T09:08:07Z</time>
      </trkpt>
      <trkpt lat="45.87485" lon="4.82857">
        <ele>210</ele>
        <time>2017-10-15T09:08:08Z</time>
      </trkpt>
      <trkpt lat="45.87487" lon="4.82864">
        <ele>210</ele>
        <time>2017-10-15T09:08:09Z</time>
      </trkpt>
      <trkpt lat="45.8749" lon="4.82872">
        <ele>210</ele>
        <time>2017-10-15T09:08:10Z</time>
      </trkpt>
      <trkpt lat="45.87493" lon="4.8288">
        <ele>210</ele>
        <time>2017-10-15T09:08:11Z</time>
      </trkpt>
      <trkpt lat="45.87497" lon="4.82889">
        <ele>210</ele>
        <time>2017-10-15T09:08:12Z</time>
      </trkpt>
      <trkpt lat="45.87501" lon="4.82898">
        <ele>207</ele>
        <time>2017-10-15T09:08:13Z</time>
      </trkpt>
      <trkpt lat="45.87505" lon="4.82908">
        <ele>208</ele>
        <time>2017-10-15T09:08:14Z</time>
      </trkpt>
      <trkpt lat="45.87508" lon="4.82917">
        <ele>209</ele>
        <time>2017-10-15T09:08:15Z</time>
      </trkpt>
      <trkpt lat="45.87511" lon="4.82926">
        <ele>208</ele>
        <time>2017-10-15T09:08:16Z</time>
      </trkpt>
      <trkpt lat="45.87514" lon="4.82936">
        <ele>207</ele>
        <time>2017-10-15T09:08:17Z</time>
      </trkpt>
      <trkpt lat="45.87516" lon="4.82946">
        <ele>207</ele>
        <time>2017-10-15T09:08:18Z</time>
      </trkpt>
      <trkpt lat="45.87519" lon="4.82956">
        <ele>206</ele>
        <time>2017-10-15T09:08:19Z</time>
      </trkpt>
      <trkpt lat="45.87521" lon="4.82967">
        <ele>206</ele>
        <time>2017-10-15T09:08:20Z</time>
      </trkpt>
      <trkpt lat="45.87524" lon="4.82979">
        <ele>206</ele>
        <time>2017-10-15T09:08:21Z</time>
      </trkpt>
      <trkpt lat="45.87527" lon="4.8299">
        <ele>206</ele>
        <time>2017-10-15T09:08:22Z</time>
      </trkpt>
      <trkpt lat="45.87528" lon="4.82999">
        <ele>206</ele>
        <time>2017-10-15T09:08:23Z</time>
      </trkpt>
      <trkpt lat="45.8753" lon="4.83011">
        <ele>202</ele>
        <time>2017-10-15T09:08:24Z</time>
      </trkpt>
      <trkpt lat="45.87529" lon="4.83023">
        <ele>202</ele>
        <time>2017-10-15T09:08:25Z</time>
      </trkpt>
      <trkpt lat="45.87529" lon="4.83034">
        <ele>201</ele>
        <time>2017-10-15T09:08:26Z</time>
      </trkpt>
      <trkpt lat="45.87528" lon="4.83046">
        <ele>201</ele>
        <time>2017-10-15T09:08:27Z</time>
      </trkpt>
      <trkpt lat="45.87527" lon="4.83059">
        <ele>200</ele>
        <time>2017-10-15T09:08:28Z</time>
      </trkpt>
      <trkpt lat="45.87521" lon="4.83069">
        <ele>200</ele>
        <time>2017-10-15T09:08:29Z</time>
      </trkpt>
      <trkpt lat="45.87516" lon="4.8308">
        <ele>199</ele>
        <time>2017-10-15T09:08:30Z</time>
      </trkpt>
      <trkpt lat="45.87511" lon="4.8309">
        <ele>196</ele>
        <time>2017-10-15T09:08:31Z</time>
      </trkpt>
      <trkpt lat="45.87505" lon="4.83097">
        <ele>195</ele>
        <time>2017-10-15T09:08:32Z</time>
      </trkpt>
      <trkpt lat="45.87499" lon="4.83105">
        <ele>196</ele>
        <time>2017-10-15T09:08:33Z</time>
      </trkpt>
      <trkpt lat="45.87493" lon="4.83113">
        <ele>196</ele>
        <time>2017-10-15T09:08:34Z</time>
      </trkpt>
      <trkpt lat="45.87486" lon="4.8312">
        <ele>195</ele>
        <time>2017-10-15T09:08:35Z</time>
      </trkpt>
      <trkpt lat="45.87481" lon="4.83129">
        <ele>195</ele>
        <time>2017-10-15T09:08:36Z</time>
      </trkpt>
      <trkpt lat="45.8748" lon="4.83139">
        <ele>194</ele>
        <time>2017-10-15T09:08:37Z</time>
      </trkpt>
      <trkpt lat="45.87478" lon="4.83149">
        <ele>193</ele>
        <time>2017-10-15T09:08:38Z</time>
      </trkpt>
      <trkpt lat="45.87479" lon="4.83158">
        <ele>193</ele>
        <time>2017-10-15T09:08:39Z</time>
      </trkpt>
      <trkpt lat="45.87488" lon="4.83165">
        <ele>192</ele>
        <time>2017-10-15T09:08:40Z</time>
      </trkpt>
      <trkpt lat="45.87495" lon="4.83168">
        <ele>189</ele>
        <time>2017-10-15T09:08:41Z</time>
      </trkpt>
      <trkpt lat="45.87502" lon="4.83171">
        <ele>189</ele>
        <time>2017-10-15T09:08:42Z</time>
      </trkpt>
      <trkpt lat="45.87511" lon="4.83166">
        <ele>190</ele>
        <time>2017-10-15T09:08:43Z</time>
      </trkpt>
      <trkpt lat="45.87517" lon="4.83164">
        <ele>190</ele>
        <time>2017-10-15T09:08:44Z</time>
      </trkpt>
      <trkpt lat="45.87522" lon="4.83162">
        <ele>190</ele>
        <time>2017-10-15T09:08:45Z</time>
      </trkpt>
      <trkpt lat="45.87529" lon="4.83163">
        <ele>190</ele>
        <time>2017-10-15T09:08:46Z</time>
      </trkpt>
      <trkpt lat="45.87535" lon="4.83166">
        <ele>190</ele>
        <time>2017-10-15T09:08:47Z</time>
      </trkpt>
      <trkpt lat="45.87541" lon="4.83169">
        <ele>184</ele>
        <time>2017-10-15T09:08:48Z</time>
      </trkpt>
      <trkpt lat="45.87546" lon="4.83175">
        <ele>183</ele>
        <time>2017-10-15T09:08:49Z</time>
      </trkpt>
      <trkpt lat="45.87551" lon="4.83182">
        <ele>183</ele>
        <time>2017-10-15T09:08:50Z</time>
      </trkpt>
      <trkpt lat="45.87556" lon="4.83192">
        <ele>183</ele>
        <time>2017-10-15T09:08:51Z</time>
      </trkpt>
      <trkpt lat="45.8756" lon="4.83201">
        <ele>182</ele>
        <time>2017-10-15T09:08:52Z</time>
      </trkpt>
      <trkpt lat="45.87564" lon="4.83208">
        <ele>182</ele>
        <time>2017-10-15T09:08:53Z</time>
      </trkpt>
      <trkpt lat="45.87568" lon="4.83217">
        <ele>181</ele>
        <time>2017-10-15T09:08:54Z</time>
      </trkpt>
      <trkpt lat="45.87569" lon="4.83225">
        <ele>181</ele>
        <time>2017-10-15T09:08:55Z</time>
      </trkpt>
      <trkpt lat="45.87568" lon="4.83234">
        <ele>181</ele>
        <time>2017-10-15T09:08:56Z</time>
      </trkpt>
      <trkpt lat="45.87565" lon="4.83241">
        <ele>180</ele>
        <time>2017-10-15T09:08:57Z</time>
      </trkpt>
      <trkpt lat="45.87561" lon="4.83247">
        <ele>180</ele>
        <time>2017-10-15T09:08:58Z</time>
      </trkpt>
      <trkpt lat="45.87555" lon="4.8325">
        <ele>178</ele>
        <time>2017-10-15T09:08:59Z</time>
      </trkpt>
      <trkpt lat="45.8755" lon="4.83255">
        <ele>178</ele>
        <time>2017-10-15T09:09:00Z</time>
      </trkpt>
      <trkpt lat="45.87545" lon="4.83261">
        <ele>178</ele>
        <time>2017-10-15T09:09:01Z</time>
      </trkpt>
      <trkpt lat="45.87541" lon="4.83269">
        <ele>178</ele>
        <time>2017-10-15T09:09:02Z</time>
      </trkpt>
      <trkpt lat="45.87539" lon="4.83276">
        <ele>178</ele>
        <time>2017-10-15T09:09:03Z</time>
      </trkpt>
      <trkpt lat="45.87538" lon="4.83284">
        <ele>178</ele>
        <time>2017-10-15T09:09:04Z</time>
      </trkpt>
      <trkpt lat="45.87539" lon="4.83293">
        <ele>177</ele>
        <time>2017-10-15T09:09:05Z</time>
      </trkpt>
      <trkpt lat="45.87542" lon="4.83302">
        <ele>177</ele>
        <time>2017-10-15T09:09:06Z</time>
      </trkpt>
      <trkpt lat="45.87546" lon="4.8331">
        <ele>177</ele>
        <time>2017-10-15T09:09:07Z</time>
      </trkpt>
      <trkpt lat="45.87551" lon="4.83317">
        <ele>177</ele>
        <time>2017-10-15T09:09:08Z</time>
      </trkpt>
      <trkpt lat="45.87556" lon="4.83326">
        <ele>177</ele>
        <time>2017-10-15T09:09:09Z</time>
      </trkpt>
      <trkpt lat="45.8756" lon="4.83334">
        <ele>176</ele>
        <time>2017-10-15T09:09:10Z</time>
      </trkpt>
      <trkpt lat="45.87565" lon="4.83342">
        <ele>176</ele>
        <time>2017-10-15T09:09:11Z</time>
      </trkpt>
      <trkpt lat="45.87569" lon="4.83351">
        <ele>176</ele>
        <time>2017-10-15T09:09:12Z</time>
      </trkpt>
      <trkpt lat="45.87576" lon="4.8336">
        <ele>175</ele>
        <time>2017-10-15T09:09:13Z</time>
      </trkpt>
      <trkpt lat="45.87582" lon="4.83368">
        <ele>175</ele>
        <time>2017-10-15T09:09:14Z</time>
      </trkpt>
      <trkpt lat="45.87587" lon="4.83375">
        <ele>174</ele>
        <time>2017-10-15T09:09:15Z</time>
      </trkpt>
      <trkpt lat="45.87593" lon="4.83382">
        <ele>174</ele>
        <time>2017-10-15T09:09:16Z</time>
      </trkpt>
      <trkpt lat="45.87599" lon="4.83388">
        <ele>174</ele>
        <time>2017-10-15T09:09:17Z</time>
      </trkpt>
      <trkpt lat="45.87606" lon="4.83394">
        <ele>174</ele>
        <time>2017-10-15T09:09:18Z</time>
      </trkpt>
      <trkpt lat="45.87611" lon="4.834">
        <ele>174</ele>
        <time>2017-10-15T09:09:19Z</time>
      </trkpt>
      <trkpt lat="45.87616" lon="4.83405">
        <ele>174</ele>
        <time>2017-10-15T09:09:20Z</time>
      </trkpt>
      <trkpt lat="45.87622" lon="4.83411">
        <ele>174</ele>
        <time>2017-10-15T09:09:21Z</time>
      </trkpt>
      <trkpt lat="45.87629" lon="4.83417">
        <ele>174</ele>
        <time>2017-10-15T09:09:22Z</time>
      </trkpt>
      <trkpt lat="45.87633" lon="4.83423">
        <ele>172</ele>
        <time>2017-10-15T09:09:23Z</time>
      </trkpt>
      <trkpt lat="45.87638" lon="4.8343">
        <ele>172</ele>
        <time>2017-10-15T09:09:24Z</time>
      </trkpt>
      <trkpt lat="45.87644" lon="4.83436">
        <ele>172</ele>
        <time>2017-10-15T09:09:25Z</time>
      </trkpt>
      <trkpt lat="45.87648" lon="4.83443">
        <ele>172</ele>
        <time>2017-10-15T09:09:26Z</time>
      </trkpt>
      <trkpt lat="45.87652" lon="4.8345">
        <ele>172</ele>
        <time>2017-10-15T09:09:27Z</time>
      </trkpt>
      <trkpt lat="45.87656" lon="4.83458">
        <ele>172</ele>
        <time>2017-10-15T09:09:28Z</time>
      </trkpt>
      <trkpt lat="45.87661" lon="4.83465">
        <ele>172</ele>
        <time>2017-10-15T09:09:29Z</time>
      </trkpt>
      <trkpt lat="45.87664" lon="4.83474">
        <ele>171</ele>
        <time>2017-10-15T09:09:30Z</time>
      </trkpt>
      <trkpt lat="45.87666" lon="4.83482">
        <ele>171</ele>
        <time>2017-10-15T09:09:31Z</time>
      </trkpt>
      <trkpt lat="45.87667" lon="4.8349">
        <ele>171</ele>
        <time>2017-10-15T09:09:32Z</time>
      </trkpt>
      <trkpt lat="45.87669" lon="4.83496">
        <ele>171</ele>
        <time>2017-10-15T09:09:33Z</time>
      </trkpt>
      <trkpt lat="45.8767" lon="4.83504">
        <ele>171</ele>
        <time>2017-10-15T09:09:34Z</time>
      </trkpt>
      <trkpt lat="45.8767" lon="4.83512">
        <ele>170</ele>
        <time>2017-10-15T09:09:35Z</time>
      </trkpt>
      <trkpt lat="45.87672" lon="4.83524">
        <ele>169</ele>
        <time>2017-10-15T09:09:37Z</time>
      </trkpt>
      <trkpt lat="45.87672" lon="4.83531">
        <ele>169</ele>
        <time>2017-10-15T09:09:38Z</time>
      </trkpt>
      <trkpt lat="45.87672" lon="4.83537">
        <ele>169</ele>
        <time>2017-10-15T09:09:39Z</time>
      </trkpt>
      <trkpt lat="45.87673" lon="4.83544">
        <ele>168</ele>
        <time>2017-10-15T09:09:40Z</time>
      </trkpt>
      <trkpt lat="45.87674" lon="4.83551">
        <ele>168</ele>
        <time>2017-10-15T09:09:41Z</time>
      </trkpt>
      <trkpt lat="45.87675" lon="4.83558">
        <ele>167</ele>
        <time>2017-10-15T09:09:42Z</time>
      </trkpt>
      <trkpt lat="45.87677" lon="4.83565">
        <ele>167</ele>
        <time>2017-10-15T09:09:43Z</time>
      </trkpt>
      <trkpt lat="45.87678" lon="4.83573">
        <ele>167</ele>
        <time>2017-10-15T09:09:44Z</time>
      </trkpt>
      <trkpt lat="45.87678" lon="4.83581">
        <ele>166</ele>
        <time>2017-10-15T09:09:45Z</time>
      </trkpt>
      <trkpt lat="45.87681" lon="4.8359">
        <ele>165</ele>
        <time>2017-10-15T09:09:46Z</time>
      </trkpt>
      <trkpt lat="45.87682" lon="4.83598">
        <ele>165</ele>
        <time>2017-10-15T09:09:47Z</time>
      </trkpt>
      <trkpt lat="45.87683" lon="4.83605">
        <ele>165</ele>
        <time>2017-10-15T09:09:48Z</time>
      </trkpt>
      <trkpt lat="45.87684" lon="4.83616">
        <ele>165</ele>
        <time>2017-10-15T09:09:50Z</time>
      </trkpt>
      <trkpt lat="45.87684" lon="4.83622">
        <ele>165</ele>
        <time>2017-10-15T09:09:51Z</time>
      </trkpt>
      <trkpt lat="45.87684" lon="4.83629">
        <ele>165</ele>
        <time>2017-10-15T09:09:52Z</time>
      </trkpt>
      <trkpt lat="45.87685" lon="4.83636">
        <ele>165</ele>
        <time>2017-10-15T09:09:53Z</time>
      </trkpt>
      <trkpt lat="45.87685" lon="4.83648">
        <ele>165</ele>
        <time>2017-10-15T09:09:55Z</time>
      </trkpt>
      <trkpt lat="45.87685" lon="4.83655">
        <ele>165</ele>
        <time>2017-10-15T09:09:56Z</time>
      </trkpt>
      <trkpt lat="45.87687" lon="4.83665">
        <ele>165</ele>
        <time>2017-10-15T09:09:58Z</time>
      </trkpt>
      <trkpt lat="45.87687" lon="4.83673">
        <ele>165</ele>
        <time>2017-10-15T09:09:59Z</time>
      </trkpt>
      <trkpt lat="45.87687" lon="4.83685">
        <ele>165</ele>
        <time>2017-10-15T09:10:01Z</time>
      </trkpt>
      <trkpt lat="45.87688" lon="4.83691">
        <ele>165</ele>
        <time>2017-10-15T09:10:02Z</time>
      </trkpt>
      <trkpt lat="45.87688" lon="4.83702">
        <ele>165</ele>
        <time>2017-10-15T09:10:04Z</time>
      </trkpt>
      <trkpt lat="45.87688" lon="4.83708">
        <ele>165</ele>
        <time>2017-10-15T09:10:05Z</time>
      </trkpt>
      <trkpt lat="45.8769" lon="4.83719">
        <ele>165</ele>
        <time>2017-10-15T09:10:07Z</time>
      </trkpt>
      <trkpt lat="45.8769" lon="4.83727">
        <ele>165</ele>
        <time>2017-10-15T09:10:08Z</time>
      </trkpt>
      <trkpt lat="45.87691" lon="4.83735">
        <ele>165</ele>
        <time>2017-10-15T09:10:09Z</time>
      </trkpt>
      <trkpt lat="45.87691" lon="4.83742">
        <ele>165</ele>
        <time>2017-10-15T09:10:10Z</time>
      </trkpt>
      <trkpt lat="45.87692" lon="4.83749">
        <ele>165</ele>
        <time>2017-10-15T09:10:11Z</time>
      </trkpt>
      <trkpt lat="45.87693" lon="4.83756">
        <ele>167</ele>
        <time>2017-10-15T09:10:12Z</time>
      </trkpt>
      <trkpt lat="45.87693" lon="4.83763">
        <ele>167</ele>
        <time>2017-10-15T09:10:13Z</time>
      </trkpt>
      <trkpt lat="45.87695" lon="4.8377">
        <ele>167</ele>
        <time>2017-10-15T09:10:14Z</time>
      </trkpt>
      <trkpt lat="45.87695" lon="4.8378">
        <ele>168</ele>
        <time>2017-10-15T09:10:15Z</time>
      </trkpt>
      <trkpt lat="45.87695" lon="4.83787">
        <ele>168</ele>
        <time>2017-10-15T09:10:16Z</time>
      </trkpt>
      <trkpt lat="45.87695" lon="4.83795">
        <ele>168</ele>
        <time>2017-10-15T09:10:17Z</time>
      </trkpt>
      <trkpt lat="45.87695" lon="4.83803">
        <ele>169</ele>
        <time>2017-10-15T09:10:18Z</time>
      </trkpt>
      <trkpt lat="45.87695" lon="4.8381">
        <ele>169</ele>
        <time>2017-10-15T09:10:19Z</time>
      </trkpt>
      <trkpt lat="45.87695" lon="4.83818">
        <ele>169</ele>
        <time>2017-10-15T09:10:20Z</time>
      </trkpt>
      <trkpt lat="45.87695" lon="4.83824">
        <ele>170</ele>
        <time>2017-10-15T09:10:21Z</time>
      </trkpt>
      <trkpt lat="45.87695" lon="4.83832">
        <ele>170</ele>
        <time>2017-10-15T09:10:22Z</time>
      </trkpt>
      <trkpt lat="45.87696" lon="4.8384">
        <ele>172</ele>
        <time>2017-10-15T09:10:23Z</time>
      </trkpt>
      <trkpt lat="45.87698" lon="4.83847">
        <ele>172</ele>
        <time>2017-10-15T09:10:24Z</time>
      </trkpt>
      <trkpt lat="45.87701" lon="4.83854">
        <ele>172</ele>
        <time>2017-10-15T09:10:25Z</time>
      </trkpt>
      <trkpt lat="45.87706" lon="4.83858">
        <ele>172</ele>
        <time>2017-10-15T09:10:26Z</time>
      </trkpt>
      <trkpt lat="45.87711" lon="4.83858">
        <ele>172</ele>
        <time>2017-10-15T09:10:27Z</time>
      </trkpt>
      <trkpt lat="45.87716" lon="4.83857">
        <ele>172</ele>
        <time>2017-10-15T09:10:28Z</time>
      </trkpt>
      <trkpt lat="45.87721" lon="4.83856">
        <ele>172</ele>
        <time>2017-10-15T09:10:29Z</time>
      </trkpt>
      <trkpt lat="45.87725" lon="4.83856">
        <ele>172</ele>
        <time>2017-10-15T09:10:30Z</time>
      </trkpt>
      <trkpt lat="45.87731" lon="4.83854">
        <ele>172</ele>
        <time>2017-10-15T09:10:31Z</time>
      </trkpt>
      <trkpt lat="45.87737" lon="4.83853">
        <ele>172</ele>
        <time>2017-10-15T09:10:32Z</time>
      </trkpt>
      <trkpt lat="45.87743" lon="4.83852">
        <ele>172</ele>
        <time>2017-10-15T09:10:33Z</time>
      </trkpt>
      <trkpt lat="45.8775" lon="4.8385">
        <ele>172</ele>
        <time>2017-10-15T09:10:34Z</time>
      </trkpt>
      <trkpt lat="45.87756" lon="4.83849">
        <ele>172</ele>
        <time>2017-10-15T09:10:35Z</time>
      </trkpt>
      <trkpt lat="45.87761" lon="4.83846">
        <ele>172</ele>
        <time>2017-10-15T09:10:36Z</time>
      </trkpt>
      <trkpt lat="45.87767" lon="4.83843">
        <ele>172</ele>
        <time>2017-10-15T09:10:37Z</time>
      </trkpt>
      <trkpt lat="45.87772" lon="4.83838">
        <ele>172</ele>
        <time>2017-10-15T09:10:38Z</time>
      </trkpt>
      <trkpt lat="45.87778" lon="4.83833">
        <ele>170</ele>
        <time>2017-10-15T09:10:39Z</time>
      </trkpt>
      <trkpt lat="45.87782" lon="4.83828">
        <ele>170</ele>
        <time>2017-10-15T09:10:40Z</time>
      </trkpt>
      <trkpt lat="45.87786" lon="4.83823">
        <ele>170</ele>
        <time>2017-10-15T09:10:41Z</time>
      </trkpt>
      <trkpt lat="45.87791" lon="4.83818">
        <ele>169</ele>
        <time>2017-10-15T09:10:42Z</time>
      </trkpt>
      <trkpt lat="45.87795" lon="4.83813">
        <ele>169</ele>
        <time>2017-10-15T09:10:43Z</time>
      </trkpt>
      <trkpt lat="45.878" lon="4.83808">
        <ele>169</ele>
        <time>2017-10-15T09:10:44Z</time>
      </trkpt>
      <trkpt lat="45.87805" lon="4.83804">
        <ele>169</ele>
        <time>2017-10-15T09:10:45Z</time>
      </trkpt>
      <trkpt lat="45.8781" lon="4.838">
        <ele>169</ele>
        <time>2017-10-15T09:10:46Z</time>
      </trkpt>
      <trkpt lat="45.87815" lon="4.83795">
        <ele>169</ele>
        <time>2017-10-15T09:10:47Z</time>
      </trkpt>
      <trkpt lat="45.8782" lon="4.8379">
        <ele>169</ele>
        <time>2017-10-15T09:10:48Z</time>
      </trkpt>
      <trkpt lat="45.87825" lon="4.83785">
        <ele>168</ele>
        <time>2017-10-15T09:10:49Z</time>
      </trkpt>
      <trkpt lat="45.87829" lon="4.83782">
        <ele>168</ele>
        <time>2017-10-15T09:10:50Z</time>
      </trkpt>
      <trkpt lat="45.87833" lon="4.83777">
        <ele>168</ele>
        <time>2017-10-15T09:10:51Z</time>
      </trkpt>
      <trkpt lat="45.87838" lon="4.83772">
        <ele>169</ele>
        <time>2017-10-15T09:10:52Z</time>
      </trkpt>
      <trkpt lat="45.87841" lon="4.83768">
        <ele>169</ele>
        <time>2017-10-15T09:10:53Z</time>
      </trkpt>
      <trkpt lat="45.87846" lon="4.83764">
        <ele>168</ele>
        <time>2017-10-15T09:10:54Z</time>
      </trkpt>
      <trkpt lat="45.8785" lon="4.83761">
        <ele>169</ele>
        <time>2017-10-15T09:10:55Z</time>
      </trkpt>
      <trkpt lat="45.87854" lon="4.83757">
        <ele>169</ele>
        <time>2017-10-15T09:10:56Z</time>
      </trkpt>
      <trkpt lat="45.87859" lon="4.83753">
        <ele>169</ele>
        <time>2017-10-15T09:10:57Z</time>
      </trkpt>
      <trkpt lat="45.87863" lon="4.8375">
        <ele>168</ele>
        <time>2017-10-15T09:10:58Z</time>
      </trkpt>
      <trkpt lat="45.87867" lon="4.83745">
        <ele>168</ele>
        <time>2017-10-15T09:10:59Z</time>
      </trkpt>
      <trkpt lat="45.87871" lon="4.8374">
        <ele>168</ele>
        <time>2017-10-15T09:11:00Z</time>
      </trkpt>
      <trkpt lat="45.87875" lon="4.83736">
        <ele>169</ele>
        <time>2017-10-15T09:11:01Z</time>
      </trkpt>
      <trkpt lat="45.87878" lon="4.8373">
        <ele>169</ele>
        <time>2017-10-15T09:11:02Z</time>
      </trkpt>
      <trkpt lat="45.87882" lon="4.83726">
        <ele>169</ele>
        <time>2017-10-15T09:11:03Z</time>
      </trkpt>
      <trkpt lat="45.87886" lon="4.83723">
        <ele>169</ele>
        <time>2017-10-15T09:11:04Z</time>
      </trkpt>
      <trkpt lat="45.87893" lon="4.83716">
        <ele>169</ele>
        <time>2017-10-15T09:11:06Z</time>
      </trkpt>
      <trkpt lat="45.87897" lon="4.83712">
        <ele>169</ele>
        <time>2017-10-15T09:11:07Z</time>
      </trkpt>
      <trkpt lat="45.87901" lon="4.83707">
        <ele>169</ele>
        <time>2017-10-15T09:11:08Z</time>
      </trkpt>
      <trkpt lat="45.87905" lon="4.83702">
        <ele>170</ele>
        <time>2017-10-15T09:11:09Z</time>
      </trkpt>
      <trkpt lat="45.8791" lon="4.83697">
        <ele>170</ele>
        <time>2017-10-15T09:11:10Z</time>
      </trkpt>
      <trkpt lat="45.87916" lon="4.83693">
        <ele>170</ele>
        <time>2017-10-15T09:11:11Z</time>
      </trkpt>
      <trkpt lat="45.87921" lon="4.83688">
        <ele>172</ele>
        <time>2017-10-15T09:11:12Z</time>
      </trkpt>
      <trkpt lat="45.87926" lon="4.83683">
        <ele>171</ele>
        <time>2017-10-15T09:11:13Z</time>
      </trkpt>
      <trkpt lat="45.8793" lon="4.83678">
        <ele>171</ele>
        <time>2017-10-15T09:11:14Z</time>
      </trkpt>
      <trkpt lat="45.87935" lon="4.83674">
        <ele>171</ele>
        <time>2017-10-15T09:11:15Z</time>
      </trkpt>
      <trkpt lat="45.8794" lon="4.83669">
        <ele>171</ele>
        <time>2017-10-15T09:11:16Z</time>
      </trkpt>
      <trkpt lat="45.87944" lon="4.83665">
        <ele>171</ele>
        <time>2017-10-15T09:11:17Z</time>
      </trkpt>
      <trkpt lat="45.87949" lon="4.83661">
        <ele>171</ele>
        <time>2017-10-15T09:11:18Z</time>
      </trkpt>
      <trkpt lat="45.87953" lon="4.83656">
        <ele>171</ele>
        <time>2017-10-15T09:11:19Z</time>
      </trkpt>
      <trkpt lat="45.87957" lon="4.83651">
        <ele>171</ele>
        <time>2017-10-15T09:11:20Z</time>
      </trkpt>
      <trkpt lat="45.87962" lon="4.83648">
        <ele>171</ele>
        <time>2017-10-15T09:11:21Z</time>
      </trkpt>
      <trkpt lat="45.87966" lon="4.83645">
        <ele>171</ele>
        <time>2017-10-15T09:11:22Z</time>
      </trkpt>
      <trkpt lat="45.8797" lon="4.83641">
        <ele>171</ele>
        <time>2017-10-15T09:11:23Z</time>
      </trkpt>
      <trkpt lat="45.87975" lon="4.83637">
        <ele>171</ele>
        <time>2017-10-15T09:11:24Z</time>
      </trkpt>
      <trkpt lat="45.8798" lon="4.83632">
        <ele>171</ele>
        <time>2017-10-15T09:11:25Z</time>
      </trkpt>
      <trkpt lat="45.87984" lon="4.83628">
        <ele>171</ele>
        <time>2017-10-15T09:11:26Z</time>
      </trkpt>
      <trkpt lat="45.87988" lon="4.83623">
        <ele>171</ele>
        <time>2017-10-15T09:11:27Z</time>
      </trkpt>
      <trkpt lat="45.87994" lon="4.83618">
        <ele>171</ele>
        <time>2017-10-15T09:11:28Z</time>
      </trkpt>
      <trkpt lat="45.87999" lon="4.83613">
        <ele>171</ele>
        <time>2017-10-15T09:11:29Z</time>
      </trkpt>
      <trkpt lat="45.88005" lon="4.83608">
        <ele>172</ele>
        <time>2017-10-15T09:11:30Z</time>
      </trkpt>
      <trkpt lat="45.8801" lon="4.83604">
        <ele>172</ele>
        <time>2017-10-15T09:11:31Z</time>
      </trkpt>
      <trkpt lat="45.88015" lon="4.83598">
        <ele>172</ele>
        <time>2017-10-15T09:11:32Z</time>
      </trkpt>
      <trkpt lat="45.88019" lon="4.83594">
        <ele>172</ele>
        <time>2017-10-15T09:11:33Z</time>
      </trkpt>
      <trkpt lat="45.88025" lon="4.83589">
        <ele>172</ele>
        <time>2017-10-15T09:11:34Z</time>
      </trkpt>
      <trkpt lat="45.88029" lon="4.83583">
        <ele>172</ele>
        <time>2017-10-15T09:11:35Z</time>
      </trkpt>
      <trkpt lat="45.88034" lon="4.83577">
        <ele>172</ele>
        <time>2017-10-15T09:11:36Z</time>
      </trkpt>
      <trkpt lat="45.88039" lon="4.83572">
        <ele>172</ele>
        <time>2017-10-15T09:11:37Z</time>
      </trkpt>
      <trkpt lat="45.88044" lon="4.83568">
        <ele>172</ele>
        <time>2017-10-15T09:11:38Z</time>
      </trkpt>
      <trkpt lat="45.88048" lon="4.83561">
        <ele>172</ele>
        <time>2017-10-15T09:11:39Z</time>
      </trkpt>
      <trkpt lat="45.88052" lon="4.83555">
        <ele>173</ele>
        <time>2017-10-15T09:11:40Z</time>
      </trkpt>
      <trkpt lat="45.88057" lon="4.8355">
        <ele>173</ele>
        <time>2017-10-15T09:11:41Z</time>
      </trkpt>
      <trkpt lat="45.88061" lon="4.83544">
        <ele>173</ele>
        <time>2017-10-15T09:11:42Z</time>
      </trkpt>
      <trkpt lat="45.88066" lon="4.83539">
        <ele>173</ele>
        <time>2017-10-15T09:11:43Z</time>
      </trkpt>
      <trkpt lat="45.88071" lon="4.83535">
        <ele>173</ele>
        <time>2017-10-15T09:11:44Z</time>
      </trkpt>
      <trkpt lat="45.88075" lon="4.8353">
        <ele>173</ele>
        <time>2017-10-15T09:11:45Z</time>
      </trkpt>
      <trkpt lat="45.88079" lon="4.83526">
        <ele>173</ele>
        <time>2017-10-15T09:11:46Z</time>
      </trkpt>
      <trkpt lat="45.88083" lon="4.83522">
        <ele>173</ele>
        <time>2017-10-15T09:11:47Z</time>
      </trkpt>
      <trkpt lat="45.88087" lon="4.83518">
        <ele>173</ele>
        <time>2017-10-15T09:11:48Z</time>
      </trkpt>
      <trkpt lat="45.8809" lon="4.83514">
        <ele>173</ele>
        <time>2017-10-15T09:11:49Z</time>
      </trkpt>
      <trkpt lat="45.88094" lon="4.8351">
        <ele>173</ele>
        <time>2017-10-15T09:11:50Z</time>
      </trkpt>
      <trkpt lat="45.88099" lon="4.83506">
        <ele>173</ele>
        <time>2017-10-15T09:11:51Z</time>
      </trkpt>
      <trkpt lat="45.88102" lon="4.83502">
        <ele>173</ele>
        <time>2017-10-15T09:11:52Z</time>
      </trkpt>
      <trkpt lat="45.88106" lon="4.83498">
        <ele>172</ele>
        <time>2017-10-15T09:11:53Z</time>
      </trkpt>
      <trkpt lat="45.88112" lon="4.83493">
        <ele>172</ele>
        <time>2017-10-15T09:11:54Z</time>
      </trkpt>
      <trkpt lat="45.88117" lon="4.83491">
        <ele>172</ele>
        <time>2017-10-15T09:11:55Z</time>
      </trkpt>
      <trkpt lat="45.88122" lon="4.83487">
        <ele>172</ele>
        <time>2017-10-15T09:11:56Z</time>
      </trkpt>
      <trkpt lat="45.88126" lon="4.83482">
        <ele>172</ele>
        <time>2017-10-15T09:11:57Z</time>
      </trkpt>
      <trkpt lat="45.88131" lon="4.83479">
        <ele>172</ele>
        <time>2017-10-15T09:11:58Z</time>
      </trkpt>
      <trkpt lat="45.88135" lon="4.83476">
        <ele>172</ele>
        <time>2017-10-15T09:11:59Z</time>
      </trkpt>
      <trkpt lat="45.8814" lon="4.83474">
        <ele>172</ele>
        <time>2017-10-15T09:12:00Z</time>
      </trkpt>
      <trkpt lat="45.88145" lon="4.8347">
        <ele>172</ele>
        <time>2017-10-15T09:12:01Z</time>
      </trkpt>
      <trkpt lat="45.88149" lon="4.83468">
        <ele>172</ele>
        <time>2017-10-15T09:12:02Z</time>
      </trkpt>
      <trkpt lat="45.88154" lon="4.83465">
        <ele>171</ele>
        <time>2017-10-15T09:12:03Z</time>
      </trkpt>
      <trkpt lat="45.8816" lon="4.83461">
        <ele>171</ele>
        <time>2017-10-15T09:12:04Z</time>
      </trkpt>
      <trkpt lat="45.88164" lon="4.83457">
        <ele>171</ele>
        <time>2017-10-15T09:12:05Z</time>
      </trkpt>
      <trkpt lat="45.88169" lon="4.83454">
        <ele>171</ele>
        <time>2017-10-15T09:12:06Z</time>
      </trkpt>
      <trkpt lat="45.88174" lon="4.83451">
        <ele>171</ele>
        <time>2017-10-15T09:12:07Z</time>
      </trkpt>
      <trkpt lat="45.88179" lon="4.83448">
        <ele>171</ele>
        <time>2017-10-15T09:12:08Z</time>
      </trkpt>
      <trkpt lat="45.88184" lon="4.83445">
        <ele>171</ele>
        <time>2017-10-15T09:12:09Z</time>
      </trkpt>
      <trkpt lat="45.88189" lon="4.83441">
        <ele>171</ele>
        <time>2017-10-15T09:12:10Z</time>
      </trkpt>
      <trkpt lat="45.88193" lon="4.83438">
        <ele>171</ele>
        <time>2017-10-15T09:12:11Z</time>
      </trkpt>
      <trkpt lat="45.88197" lon="4.83436">
        <ele>171</ele>
        <time>2017-10-15T09:12:12Z</time>
      </trkpt>
      <trkpt lat="45.88201" lon="4.83432">
        <ele>171</ele>
        <time>2017-10-15T09:12:13Z</time>
      </trkpt>
      <trkpt lat="45.88206" lon="4.83429">
        <ele>171</ele>
        <time>2017-10-15T09:12:14Z</time>
      </trkpt>
      <trkpt lat="45.8821" lon="4.83427">
        <ele>172</ele>
        <time>2017-10-15T09:12:15Z</time>
      </trkpt>
      <trkpt lat="45.88217" lon="4.83423">
        <ele>172</ele>
        <time>2017-10-15T09:12:16Z</time>
      </trkpt>
      <trkpt lat="45.88223" lon="4.83421">
        <ele>172</ele>
        <time>2017-10-15T09:12:17Z</time>
      </trkpt>
      <trkpt lat="45.88228" lon="4.83419">
        <ele>172</ele>
        <time>2017-10-15T09:12:18Z</time>
      </trkpt>
      <trkpt lat="45.88234" lon="4.83417">
        <ele>172</ele>
        <time>2017-10-15T09:12:19Z</time>
      </trkpt>
      <trkpt lat="45.88239" lon="4.83416">
        <ele>172</ele>
        <time>2017-10-15T09:12:20Z</time>
      </trkpt>
      <trkpt lat="45.88244" lon="4.83414">
        <ele>172</ele>
        <time>2017-10-15T09:12:21Z</time>
      </trkpt>
      <trkpt lat="45.8825" lon="4.83412">
        <ele>172</ele>
        <time>2017-10-15T09:12:22Z</time>
      </trkpt>
      <trkpt lat="45.88254" lon="4.83409">
        <ele>172</ele>
        <time>2017-10-15T09:12:23Z</time>
      </trkpt>
      <trkpt lat="45.8826" lon="4.83407">
        <ele>172</ele>
        <time>2017-10-15T09:12:24Z</time>
      </trkpt>
      <trkpt lat="45.88266" lon="4.83405">
        <ele>172</ele>
        <time>2017-10-15T09:12:25Z</time>
      </trkpt>
      <trkpt lat="45.88272" lon="4.83403">
        <ele>172</ele>
        <time>2017-10-15T09:12:26Z</time>
      </trkpt>
      <trkpt lat="45.88278" lon="4.834">
        <ele>172</ele>
        <time>2017-10-15T09:12:27Z</time>
      </trkpt>
      <trkpt lat="45.88283" lon="4.83399">
        <ele>172</ele>
        <time>2017-10-15T09:12:28Z</time>
      </trkpt>
      <trkpt lat="45.88288" lon="4.83397">
        <ele>172</ele>
        <time>2017-10-15T09:12:29Z</time>
      </trkpt>
      <trkpt lat="45.88294" lon="4.83396">
        <ele>172</ele>
        <time>2017-10-15T09:12:30Z</time>
      </trkpt>
      <trkpt lat="45.88299" lon="4.83394">
        <ele>172</ele>
        <time>2017-10-15T09:12:31Z</time>
      </trkpt>
      <trkpt lat="45.88304" lon="4.83391">
        <ele>172</ele>
        <time>2017-10-15T09:12:32Z</time>
      </trkpt>
      <trkpt lat="45.88309" lon="4.83388">
        <ele>172</ele>
        <time>2017-10-15T09:12:33Z</time>
      </trkpt>
      <trkpt lat="45.88314" lon="4.83385">
        <ele>172</ele>
        <time>2017-10-15T09:12:34Z</time>
      </trkpt>
      <trkpt lat="45.88319" lon="4.83382">
        <ele>172</ele>
        <time>2017-10-15T09:12:35Z</time>
      </trkpt>
      <trkpt lat="45.88324" lon="4.83379">
        <ele>172</ele>
        <time>2017-10-15T09:12:36Z</time>
      </trkpt>
      <trkpt lat="45.8833" lon="4.83377">
        <ele>172</ele>
        <time>2017-10-15T09:12:37Z</time>
      </trkpt>
      <trkpt lat="45.88335" lon="4.83374">
        <ele>172</ele>
        <time>2017-10-15T09:12:38Z</time>
      </trkpt>
      <trkpt lat="45.88341" lon="4.83372">
        <ele>172</ele>
        <time>2017-10-15T09:12:39Z</time>
      </trkpt>
      <trkpt lat="45.88347" lon="4.83369">
        <ele>172</ele>
        <time>2017-10-15T09:12:40Z</time>
      </trkpt>
      <trkpt lat="45.88352" lon="4.83368">
        <ele>172</ele>
        <time>2017-10-15T09:12:41Z</time>
      </trkpt>
      <trkpt lat="45.88357" lon="4.83367">
        <ele>172</ele>
        <time>2017-10-15T09:12:42Z</time>
      </trkpt>
      <trkpt lat="45.88362" lon="4.83365">
        <ele>172</ele>
        <time>2017-10-15T09:12:43Z</time>
      </trkpt>
      <trkpt lat="45.88367" lon="4.83364">
        <ele>172</ele>
        <time>2017-10-15T09:12:44Z</time>
      </trkpt>
      <trkpt lat="45.88371" lon="4.83361">
        <ele>172</ele>
        <time>2017-10-15T09:12:45Z</time>
      </trkpt>
      <trkpt lat="45.8838" lon="4.83358">
        <ele>172</ele>
        <time>2017-10-15T09:12:47Z</time>
      </trkpt>
      <trkpt lat="45.88385" lon="4.83356">
        <ele>172</ele>
        <time>2017-10-15T09:12:48Z</time>
      </trkpt>
      <trkpt lat="45.8839" lon="4.83355">
        <ele>172</ele>
        <time>2017-10-15T09:12:49Z</time>
      </trkpt>
      <trkpt lat="45.88395" lon="4.83353">
        <ele>172</ele>
        <time>2017-10-15T09:12:50Z</time>
      </trkpt>
      <trkpt lat="45.88399" lon="4.8335">
        <ele>172</ele>
        <time>2017-10-15T09:12:51Z</time>
      </trkpt>
      <trkpt lat="45.88405" lon="4.83347">
        <ele>172</ele>
        <time>2017-10-15T09:12:52Z</time>
      </trkpt>
      <trkpt lat="45.8841" lon="4.83345">
        <ele>172</ele>
        <time>2017-10-15T09:12:53Z</time>
      </trkpt>
      <trkpt lat="45.88416" lon="4.83341">
        <ele>172</ele>
        <time>2017-10-15T09:12:54Z</time>
      </trkpt>
      <trkpt lat="45.88422" lon="4.8334">
        <ele>172</ele>
        <time>2017-10-15T09:12:55Z</time>
      </trkpt>
      <trkpt lat="45.88427" lon="4.83337">
        <ele>172</ele>
        <time>2017-10-15T09:12:56Z</time>
      </trkpt>
      <trkpt lat="45.88432" lon="4.83335">
        <ele>172</ele>
        <time>2017-10-15T09:12:57Z</time>
      </trkpt>
      <trkpt lat="45.88438" lon="4.83333">
        <ele>172</ele>
        <time>2017-10-15T09:12:58Z</time>
      </trkpt>
      <trkpt lat="45.88443" lon="4.8333">
        <ele>172</ele>
        <time>2017-10-15T09:12:59Z</time>
      </trkpt>
      <trkpt lat="45.88448" lon="4.83327">
        <ele>172</ele>
        <time>2017-10-15T09:13:00Z</time>
      </trkpt>
      <trkpt lat="45.88453" lon="4.83324">
        <ele>172</ele>
        <time>2017-10-15T09:13:01Z</time>
      </trkpt>
      <trkpt lat="45.88458" lon="4.83322">
        <ele>172</ele>
        <time>2017-10-15T09:13:02Z</time>
      </trkpt>
      <trkpt lat="45.88462" lon="4.83319">
        <ele>172</ele>
        <time>2017-10-15T09:13:03Z</time>
      </trkpt>
      <trkpt lat="45.88467" lon="4.83317">
        <ele>172</ele>
        <time>2017-10-15T09:13:04Z</time>
      </trkpt>
      <trkpt lat="45.88472" lon="4.83315">
        <ele>172</ele>
        <time>2017-10-15T09:13:05Z</time>
      </trkpt>
      <trkpt lat="45.88477" lon="4.83313">
        <ele>172</ele>
        <time>2017-10-15T09:13:06Z</time>
      </trkpt>
      <trkpt lat="45.88481" lon="4.8331">
        <ele>172</ele>
        <time>2017-10-15T09:13:07Z</time>
      </trkpt>
      <trkpt lat="45.88486" lon="4.83307">
        <ele>172</ele>
        <time>2017-10-15T09:13:08Z</time>
      </trkpt>
      <trkpt lat="45.8849" lon="4.83305">
        <ele>172</ele>
        <time>2017-10-15T09:13:09Z</time>
      </trkpt>
      <trkpt lat="45.88496" lon="4.83302">
        <ele>172</ele>
        <time>2017-10-15T09:13:10Z</time>
      </trkpt>
      <trkpt lat="45.88501" lon="4.83299">
        <ele>172</ele>
        <time>2017-10-15T09:13:11Z</time>
      </trkpt>
      <trkpt lat="45.88506" lon="4.83295">
        <ele>172</ele>
        <time>2017-10-15T09:13:12Z</time>
      </trkpt>
      <trkpt lat="45.88511" lon="4.83292">
        <ele>172</ele>
        <time>2017-10-15T09:13:13Z</time>
      </trkpt>
      <trkpt lat="45.88516" lon="4.83289">
        <ele>172</ele>
        <time>2017-10-15T09:13:14Z</time>
      </trkpt>
      <trkpt lat="45.88521" lon="4.83286">
        <ele>172</ele>
        <time>2017-10-15T09:13:15Z</time>
      </trkpt>
      <trkpt lat="45.88526" lon="4.83282">
        <ele>172</ele>
        <time>2017-10-15T09:13:16Z</time>
      </trkpt>
      <trkpt lat="45.8853" lon="4.83278">
        <ele>172</ele>
        <time>2017-10-15T09:13:17Z</time>
      </trkpt>
      <trkpt lat="45.88535" lon="4.83275">
        <ele>172</ele>
        <time>2017-10-15T09:13:18Z</time>
      </trkpt>
      <trkpt lat="45.8854" lon="4.83273">
        <ele>172</ele>
        <time>2017-10-15T09:13:19Z</time>
      </trkpt>
      <trkpt lat="45.88544" lon="4.83267">
        <ele>172</ele>
        <time>2017-10-15T09:13:20Z</time>
      </trkpt>
      <trkpt lat="45.88549" lon="4.83262">
        <ele>172</ele>
        <time>2017-10-15T09:13:21Z</time>
      </trkpt>
      <trkpt lat="45.88553" lon="4.83257">
        <ele>172</ele>
        <time>2017-10-15T09:13:22Z</time>
      </trkpt>
      <trkpt lat="45.88557" lon="4.83253">
        <ele>172</ele>
        <time>2017-10-15T09:13:23Z</time>
      </trkpt>
      <trkpt lat="45.8856" lon="4.83249">
        <ele>172</ele>
        <time>2017-10-15T09:13:24Z</time>
      </trkpt>
      <trkpt lat="45.88563" lon="4.83244">
        <ele>172</ele>
        <time>2017-10-15T09:13:25Z</time>
      </trkpt>
      <trkpt lat="45.88567" lon="4.83239">
        <ele>172</ele>
        <time>2017-10-15T09:13:26Z</time>
      </trkpt>
      <trkpt lat="45.8857" lon="4.83235">
        <ele>172</ele>
        <time>2017-10-15T09:13:27Z</time>
      </trkpt>
      <trkpt lat="45.88575" lon="4.83229">
        <ele>172</ele>
        <time>2017-10-15T09:13:28Z</time>
      </trkpt>
      <trkpt lat="45.88578" lon="4.83224">
        <ele>172</ele>
        <time>2017-10-15T09:13:29Z</time>
      </trkpt>
      <trkpt lat="45.88583" lon="4.83218">
        <ele>172</ele>
        <time>2017-10-15T09:13:30Z</time>
      </trkpt>
      <trkpt lat="45.88587" lon="4.83214">
        <ele>172</ele>
        <time>2017-10-15T09:13:31Z</time>
      </trkpt>
      <trkpt lat="45.8859" lon="4.83208">
        <ele>172</ele>
        <time>2017-10-15T09:13:32Z</time>
      </trkpt>
      <trkpt lat="45.88594" lon="4.83203">
        <ele>172</ele>
        <time>2017-10-15T09:13:33Z</time>
      </trkpt>
      <trkpt lat="45.88597" lon="4.83199">
        <ele>172</ele>
        <time>2017-10-15T09:13:34Z</time>
      </trkpt>
      <trkpt lat="45.88601" lon="4.83194">
        <ele>172</ele>
        <time>2017-10-15T09:13:35Z</time>
      </trkpt>
      <trkpt lat="45.88605" lon="4.8319">
        <ele>172</ele>
        <time>2017-10-15T09:13:36Z</time>
      </trkpt>
      <trkpt lat="45.88609" lon="4.83185">
        <ele>172</ele>
        <time>2017-10-15T09:13:37Z</time>
      </trkpt>
      <trkpt lat="45.88616" lon="4.83181">
        <ele>172</ele>
        <time>2017-10-15T09:13:38Z</time>
      </trkpt>
      <trkpt lat="45.88621" lon="4.83176">
        <ele>172</ele>
        <time>2017-10-15T09:13:39Z</time>
      </trkpt>
      <trkpt lat="45.88626" lon="4.83172">
        <ele>172</ele>
        <time>2017-10-15T09:13:40Z</time>
      </trkpt>
      <trkpt lat="45.88628" lon="4.83166">
        <ele>172</ele>
        <time>2017-10-15T09:13:41Z</time>
      </trkpt>
      <trkpt lat="45.88632" lon="4.83161">
        <ele>173</ele>
        <time>2017-10-15T09:13:42Z</time>
      </trkpt>
      <trkpt lat="45.88635" lon="4.83156">
        <ele>173</ele>
        <time>2017-10-15T09:13:43Z</time>
      </trkpt>
      <trkpt lat="45.88638" lon="4.83152">
        <ele>173</ele>
        <time>2017-10-15T09:13:44Z</time>
      </trkpt>
      <trkpt lat="45.88641" lon="4.83148">
        <ele>173</ele>
        <time>2017-10-15T09:13:45Z</time>
      </trkpt>
      <trkpt lat="45.88645" lon="4.83143">
        <ele>173</ele>
        <time>2017-10-15T09:13:46Z</time>
      </trkpt>
      <trkpt lat="45.88649" lon="4.83138">
        <ele>173</ele>
        <time>2017-10-15T09:13:47Z</time>
      </trkpt>
      <trkpt lat="45.88653" lon="4.83133">
        <ele>173</ele>
        <time>2017-10-15T09:13:48Z</time>
      </trkpt>
      <trkpt lat="45.88658" lon="4.83129">
        <ele>173</ele>
        <time>2017-10-15T09:13:49Z</time>
      </trkpt>
      <trkpt lat="45.88662" lon="4.83125">
        <ele>173</ele>
        <time>2017-10-15T09:13:50Z</time>
      </trkpt>
      <trkpt lat="45.88666" lon="4.83119">
        <ele>173</ele>
        <time>2017-10-15T09:13:51Z</time>
      </trkpt>
      <trkpt lat="45.8867" lon="4.83115">
        <ele>174</ele>
        <time>2017-10-15T09:13:52Z</time>
      </trkpt>
      <trkpt lat="45.88673" lon="4.8311">
        <ele>174</ele>
        <time>2017-10-15T09:13:53Z</time>
      </trkpt>
      <trkpt lat="45.88676" lon="4.83105">
        <ele>174</ele>
        <time>2017-10-15T09:13:54Z</time>
      </trkpt>
      <trkpt lat="45.8868" lon="4.83101">
        <ele>174</ele>
        <time>2017-10-15T09:13:55Z</time>
      </trkpt>
      <trkpt lat="45.88684" lon="4.83098">
        <ele>174</ele>
        <time>2017-10-15T09:13:56Z</time>
      </trkpt>
      <trkpt lat="45.88688" lon="4.83094">
        <ele>174</ele>
        <time>2017-10-15T09:13:57Z</time>
      </trkpt>
      <trkpt lat="45.88691" lon="4.83089">
        <ele>174</ele>
        <time>2017-10-15T09:13:58Z</time>
      </trkpt>
      <trkpt lat="45.88695" lon="4.83084">
        <ele>174</ele>
        <time>2017-10-15T09:13:59Z</time>
      </trkpt>
      <trkpt lat="45.88699" lon="4.83078">
        <ele>174</ele>
        <time>2017-10-15T09:14:00Z</time>
      </trkpt>
      <trkpt lat="45.88703" lon="4.83074">
        <ele>174</ele>
        <time>2017-10-15T09:14:01Z</time>
      </trkpt>
      <trkpt lat="45.88708" lon="4.8307">
        <ele>174</ele>
        <time>2017-10-15T09:14:02Z</time>
      </trkpt>
      <trkpt lat="45.88712" lon="4.83065">
        <ele>174</ele>
        <time>2017-10-15T09:14:03Z</time>
      </trkpt>
      <trkpt lat="45.88716" lon="4.8306">
        <ele>174</ele>
        <time>2017-10-15T09:14:04Z</time>
      </trkpt>
      <trkpt lat="45.8872" lon="4.83056">
        <ele>174</ele>
        <time>2017-10-15T09:14:05Z</time>
      </trkpt>
      <trkpt lat="45.88724" lon="4.8305">
        <ele>174</ele>
        <time>2017-10-15T09:14:06Z</time>
      </trkpt>
      <trkpt lat="45.88728" lon="4.83045">
        <ele>173</ele>
        <time>2017-10-15T09:14:07Z</time>
      </trkpt>
      <trkpt lat="45.88731" lon="4.83042">
        <ele>173</ele>
        <time>2017-10-15T09:14:08Z</time>
      </trkpt>
      <trkpt lat="45.88735" lon="4.83037">
        <ele>173</ele>
        <time>2017-10-15T09:14:09Z</time>
      </trkpt>
      <trkpt lat="45.88738" lon="4.83033">
        <ele>173</ele>
        <time>2017-10-15T09:14:10Z</time>
      </trkpt>
      <trkpt lat="45.88745" lon="4.83025">
        <ele>173</ele>
        <time>2017-10-15T09:14:12Z</time>
      </trkpt>
      <trkpt lat="45.88748" lon="4.8302">
        <ele>173</ele>
        <time>2017-10-15T09:14:13Z</time>
      </trkpt>
      <trkpt lat="45.88751" lon="4.83015">
        <ele>173</ele>
        <time>2017-10-15T09:14:14Z</time>
      </trkpt>
      <trkpt lat="45.88754" lon="4.8301">
        <ele>173</ele>
        <time>2017-10-15T09:14:15Z</time>
      </trkpt>
      <trkpt lat="45.88758" lon="4.83005">
        <ele>172</ele>
        <time>2017-10-15T09:14:16Z</time>
      </trkpt>
      <trkpt lat="45.88763" lon="4.83002">
        <ele>173</ele>
        <time>2017-10-15T09:14:17Z</time>
      </trkpt>
      <trkpt lat="45.88766" lon="4.82999">
        <ele>172</ele>
        <time>2017-10-15T09:14:18Z</time>
      </trkpt>
      <trkpt lat="45.8877" lon="4.82994">
        <ele>172</ele>
        <time>2017-10-15T09:14:19Z</time>
      </trkpt>
      <trkpt lat="45.88776" lon="4.82984">
        <ele>172</ele>
        <time>2017-10-15T09:14:21Z</time>
      </trkpt>
      <trkpt lat="45.8878" lon="4.82979">
        <ele>172</ele>
        <time>2017-10-15T09:14:22Z</time>
      </trkpt>
      <trkpt lat="45.88786" lon="4.8297">
        <ele>172</ele>
        <time>2017-10-15T09:14:24Z</time>
      </trkpt>
      <trkpt lat="45.8879" lon="4.82965">
        <ele>172</ele>
        <time>2017-10-15T09:14:25Z</time>
      </trkpt>
      <trkpt lat="45.88794" lon="4.82959">
        <ele>172</ele>
        <time>2017-10-15T09:14:26Z</time>
      </trkpt>
      <trkpt lat="45.88799" lon="4.82955">
        <ele>172</ele>
        <time>2017-10-15T09:14:27Z</time>
      </trkpt>
      <trkpt lat="45.88803" lon="4.8295">
        <ele>172</ele>
        <time>2017-10-15T09:14:28Z</time>
      </trkpt>
      <trkpt lat="45.88806" lon="4.82946">
        <ele>172</ele>
        <time>2017-10-15T09:14:29Z</time>
      </trkpt>
      <trkpt lat="45.88811" lon="4.8294">
        <ele>172</ele>
        <time>2017-10-15T09:14:30Z</time>
      </trkpt>
      <trkpt lat="45.88815" lon="4.82935">
        <ele>172</ele>
        <time>2017-10-15T09:14:31Z</time>
      </trkpt>
      <trkpt lat="45.88819" lon="4.8293">
        <ele>172</ele>
        <time>2017-10-15T09:14:32Z</time>
      </trkpt>
      <trkpt lat="45.88824" lon="4.82925">
        <ele>172</ele>
        <time>2017-10-15T09:14:33Z</time>
      </trkpt>
      <trkpt lat="45.88828" lon="4.82919">
        <ele>172</ele>
        <time>2017-10-15T09:14:34Z</time>
      </trkpt>
      <trkpt lat="45.88832" lon="4.82916">
        <ele>172</ele>
        <time>2017-10-15T09:14:35Z</time>
      </trkpt>
      <trkpt lat="45.88836" lon="4.82911">
        <ele>172</ele>
        <time>2017-10-15T09:14:36Z</time>
      </trkpt>
      <trkpt lat="45.8884" lon="4.82905">
        <ele>172</ele>
        <time>2017-10-15T09:14:37Z</time>
      </trkpt>
      <trkpt lat="45.88844" lon="4.82901">
        <ele>172</ele>
        <time>2017-10-15T09:14:38Z</time>
      </trkpt>
      <trkpt lat="45.88847" lon="4.82897">
        <ele>172</ele>
        <time>2017-10-15T09:14:39Z</time>
      </trkpt>
      <trkpt lat="45.88851" lon="4.82892">
        <ele>172</ele>
        <time>2017-10-15T09:14:40Z</time>
      </trkpt>
      <trkpt lat="45.88855" lon="4.82887">
        <ele>172</ele>
        <time>2017-10-15T09:14:41Z</time>
      </trkpt>
      <trkpt lat="45.8886" lon="4.82882">
        <ele>172</ele>
        <time>2017-10-15T09:14:42Z</time>
      </trkpt>
      <trkpt lat="45.88863" lon="4.82878">
        <ele>172</ele>
        <time>2017-10-15T09:14:43Z</time>
      </trkpt>
      <trkpt lat="45.88867" lon="4.82873">
        <ele>172</ele>
        <time>2017-10-15T09:14:44Z</time>
      </trkpt>
      <trkpt lat="45.88873" lon="4.82868">
        <ele>172</ele>
        <time>2017-10-15T09:14:45Z</time>
      </trkpt>
      <trkpt lat="45.88877" lon="4.82863">
        <ele>172</ele>
        <time>2017-10-15T09:14:46Z</time>
      </trkpt>
      <trkpt lat="45.88882" lon="4.82858">
        <ele>172</ele>
        <time>2017-10-15T09:14:47Z</time>
      </trkpt>
      <trkpt lat="45.88884" lon="4.82853">
        <ele>172</ele>
        <time>2017-10-15T09:14:48Z</time>
      </trkpt>
      <trkpt lat="45.88888" lon="4.82848">
        <ele>172</ele>
        <time>2017-10-15T09:14:49Z</time>
      </trkpt>
      <trkpt lat="45.88893" lon="4.82842">
        <ele>172</ele>
        <time>2017-10-15T09:14:50Z</time>
      </trkpt>
      <trkpt lat="45.88897" lon="4.82838">
        <ele>172</ele>
        <time>2017-10-15T09:14:51Z</time>
      </trkpt>
      <trkpt lat="45.88901" lon="4.82833">
        <ele>172</ele>
        <time>2017-10-15T09:14:52Z</time>
      </trkpt>
      <trkpt lat="45.88905" lon="4.82829">
        <ele>172</ele>
        <time>2017-10-15T09:14:53Z</time>
      </trkpt>
      <trkpt lat="45.8891" lon="4.82823">
        <ele>172</ele>
        <time>2017-10-15T09:14:54Z</time>
      </trkpt>
      <trkpt lat="45.88914" lon="4.82818">
        <ele>172</ele>
        <time>2017-10-15T09:14:55Z</time>
      </trkpt>
      <trkpt lat="45.88918" lon="4.82813">
        <ele>172</ele>
        <time>2017-10-15T09:14:56Z</time>
      </trkpt>
      <trkpt lat="45.88923" lon="4.82806">
        <ele>172</ele>
        <time>2017-10-15T09:14:57Z</time>
      </trkpt>
      <trkpt lat="45.88927" lon="4.82801">
        <ele>172</ele>
        <time>2017-10-15T09:14:58Z</time>
      </trkpt>
      <trkpt lat="45.88931" lon="4.82797">
        <ele>172</ele>
        <time>2017-10-15T09:14:59Z</time>
      </trkpt>
      <trkpt lat="45.88935" lon="4.82792">
        <ele>172</ele>
        <time>2017-10-15T09:15:00Z</time>
      </trkpt>
      <trkpt lat="45.8894" lon="4.82787">
        <ele>172</ele>
        <time>2017-10-15T09:15:01Z</time>
      </trkpt>
      <trkpt lat="45.88945" lon="4.82783">
        <ele>172</ele>
        <time>2017-10-15T09:15:02Z</time>
      </trkpt>
      <trkpt lat="45.8895" lon="4.82777">
        <ele>172</ele>
        <time>2017-10-15T09:15:03Z</time>
      </trkpt>
      <trkpt lat="45.88954" lon="4.82772">
        <ele>172</ele>
        <time>2017-10-15T09:15:04Z</time>
      </trkpt>
      <trkpt lat="45.88959" lon="4.82768">
        <ele>172</ele>
        <time>2017-10-15T09:15:05Z</time>
      </trkpt>
      <trkpt lat="45.88962" lon="4.82762">
        <ele>172</ele>
        <time>2017-10-15T09:15:06Z</time>
      </trkpt>
      <trkpt lat="45.88966" lon="4.82758">
        <ele>172</ele>
        <time>2017-10-15T09:15:07Z</time>
      </trkpt>
      <trkpt lat="45.88969" lon="4.82753">
        <ele>172</ele>
        <time>2017-10-15T09:15:08Z</time>
      </trkpt>
      <trkpt lat="45.88973" lon="4.82748">
        <ele>173</ele>
        <time>2017-10-15T09:15:09Z</time>
      </trkpt>
      <trkpt lat="45.88977" lon="4.82744">
        <ele>173</ele>
        <time>2017-10-15T09:15:10Z</time>
      </trkpt>
      <trkpt lat="45.88979" lon="4.82739">
        <ele>173</ele>
        <time>2017-10-15T09:15:11Z</time>
      </trkpt>
      <trkpt lat="45.88982" lon="4.82735">
        <ele>173</ele>
        <time>2017-10-15T09:15:12Z</time>
      </trkpt>
      <trkpt lat="45.88986" lon="4.8273">
        <ele>173</ele>
        <time>2017-10-15T09:15:13Z</time>
      </trkpt>
      <trkpt lat="45.8899" lon="4.82723">
        <ele>173</ele>
        <time>2017-10-15T09:15:14Z</time>
      </trkpt>
      <trkpt lat="45.88992" lon="4.82718">
        <ele>173</ele>
        <time>2017-10-15T09:15:15Z</time>
      </trkpt>
      <trkpt lat="45.88996" lon="4.82707">
        <ele>173</ele>
        <time>2017-10-15T09:15:17Z</time>
      </trkpt>
      <trkpt lat="45.88999" lon="4.82702">
        <ele>173</ele>
        <time>2017-10-15T09:15:18Z</time>
      </trkpt>
      <trkpt lat="45.89002" lon="4.82697">
        <ele>173</ele>
        <time>2017-10-15T09:15:19Z</time>
      </trkpt>
      <trkpt lat="45.89006" lon="4.82691">
        <ele>173</ele>
        <time>2017-10-15T09:15:20Z</time>
      </trkpt>
      <trkpt lat="45.89009" lon="4.82684">
        <ele>173</ele>
        <time>2017-10-15T09:15:21Z</time>
      </trkpt>
      <trkpt lat="45.89012" lon="4.82678">
        <ele>173</ele>
        <time>2017-10-15T09:15:22Z</time>
      </trkpt>
      <trkpt lat="45.89016" lon="4.82667">
        <ele>173</ele>
        <time>2017-10-15T09:15:24Z</time>
      </trkpt>
      <trkpt lat="45.89018" lon="4.82662">
        <ele>173</ele>
        <time>2017-10-15T09:15:25Z</time>
      </trkpt>
      <trkpt lat="45.89022" lon="4.82657">
        <ele>173</ele>
        <time>2017-10-15T09:15:26Z</time>
      </trkpt>
      <trkpt lat="45.89024" lon="4.82652">
        <ele>174</ele>
        <time>2017-10-15T09:15:27Z</time>
      </trkpt>
      <trkpt lat="45.89027" lon="4.82647">
        <ele>174</ele>
        <time>2017-10-15T09:15:28Z</time>
      </trkpt>
      <trkpt lat="45.8903" lon="4.8264">
        <ele>174</ele>
        <time>2017-10-15T09:15:29Z</time>
      </trkpt>
      <trkpt lat="45.89033" lon="4.82628">
        <ele>174</ele>
        <time>2017-10-15T09:15:31Z</time>
      </trkpt>
      <trkpt lat="45.89035" lon="4.8262">
        <ele>174</ele>
        <time>2017-10-15T09:15:32Z</time>
      </trkpt>
      <trkpt lat="45.89039" lon="4.82615">
        <ele>174</ele>
        <time>2017-10-15T09:15:33Z</time>
      </trkpt>
      <trkpt lat="45.89042" lon="4.82608">
        <ele>174</ele>
        <time>2017-10-15T09:15:34Z</time>
      </trkpt>
      <trkpt lat="45.89045" lon="4.82602">
        <ele>174</ele>
        <time>2017-10-15T09:15:35Z</time>
      </trkpt>
      <trkpt lat="45.89047" lon="4.82597">
        <ele>174</ele>
        <time>2017-10-15T09:15:36Z</time>
      </trkpt>
      <trkpt lat="45.8905" lon="4.82592">
        <ele>174</ele>
        <time>2017-10-15T09:15:37Z</time>
      </trkpt>
      <trkpt lat="45.89053" lon="4.82586">
        <ele>174</ele>
        <time>2017-10-15T09:15:38Z</time>
      </trkpt>
      <trkpt lat="45.89058" lon="4.82578">
        <ele>174</ele>
        <time>2017-10-15T09:15:40Z</time>
      </trkpt>
      <trkpt lat="45.8906" lon="4.82575">
        <ele>174</ele>
        <time>2017-10-15T09:15:41Z</time>
      </trkpt>
      <trkpt lat="45.89067" lon="4.82573">
        <ele>174</ele>
        <time>2017-10-15T09:15:43Z</time>
      </trkpt>
      <trkpt lat="45.89071" lon="4.82575">
        <ele>174</ele>
        <time>2017-10-15T09:15:44Z</time>
      </trkpt>
      <trkpt lat="45.89079" lon="4.8258">
        <ele>174</ele>
        <time>2017-10-15T09:15:46Z</time>
      </trkpt>
      <trkpt lat="45.89081" lon="4.82585">
        <ele>174</ele>
        <time>2017-10-15T09:15:47Z</time>
      </trkpt>
      <trkpt lat="45.89083" lon="4.82591">
        <ele>174</ele>
        <time>2017-10-15T09:15:48Z</time>
      </trkpt>
      <trkpt lat="45.89086" lon="4.82597">
        <ele>174</ele>
        <time>2017-10-15T09:15:49Z</time>
      </trkpt>
      <trkpt lat="45.89089" lon="4.82602">
        <ele>174</ele>
        <time>2017-10-15T09:15:50Z</time>
      </trkpt>
      <trkpt lat="45.89095" lon="4.82604">
        <ele>174</ele>
        <time>2017-10-15T09:15:51Z</time>
      </trkpt>
      <trkpt lat="45.891" lon="4.82607">
        <ele>174</ele>
        <time>2017-10-15T09:15:52Z</time>
      </trkpt>
      <trkpt lat="45.89107" lon="4.82608">
        <ele>174</ele>
        <time>2017-10-15T09:15:53Z</time>
      </trkpt>
      <trkpt lat="45.89112" lon="4.82607">
        <ele>174</ele>
        <time>2017-10-15T09:15:54Z</time>
      </trkpt>
      <trkpt lat="45.89118" lon="4.82606">
        <ele>174</ele>
        <time>2017-10-15T09:15:55Z</time>
      </trkpt>
      <trkpt lat="45.89123" lon="4.82603">
        <ele>174</ele>
        <time>2017-10-15T09:15:56Z</time>
      </trkpt>
      <trkpt lat="45.89128" lon="4.82598">
        <ele>174</ele>
        <time>2017-10-15T09:15:57Z</time>
      </trkpt>
      <trkpt lat="45.89132" lon="4.82592">
        <ele>174</ele>
        <time>2017-10-15T09:15:58Z</time>
      </trkpt>
      <trkpt lat="45.89134" lon="4.82584">
        <ele>174</ele>
        <time>2017-10-15T09:15:59Z</time>
      </trkpt>
      <trkpt lat="45.89136" lon="4.82577">
        <ele>173</ele>
        <time>2017-10-15T09:16:00Z</time>
      </trkpt>
      <trkpt lat="45.89138" lon="4.82568">
        <ele>173</ele>
        <time>2017-10-15T09:16:01Z</time>
      </trkpt>
      <trkpt lat="45.89141" lon="4.82561">
        <ele>173</ele>
        <time>2017-10-15T09:16:02Z</time>
      </trkpt>
      <trkpt lat="45.89145" lon="4.82554">
        <ele>173</ele>
        <time>2017-10-15T09:16:03Z</time>
      </trkpt>
      <trkpt lat="45.89149" lon="4.82549">
        <ele>173</ele>
        <time>2017-10-15T09:16:04Z</time>
      </trkpt>
      <trkpt lat="45.89154" lon="4.82544">
        <ele>173</ele>
        <time>2017-10-15T09:16:05Z</time>
      </trkpt>
      <trkpt lat="45.89159" lon="4.82539">
        <ele>173</ele>
        <time>2017-10-15T09:16:06Z</time>
      </trkpt>
      <trkpt lat="45.89165" lon="4.82535">
        <ele>173</ele>
        <time>2017-10-15T09:16:07Z</time>
      </trkpt>
      <trkpt lat="45.89169" lon="4.82531">
        <ele>172</ele>
        <time>2017-10-15T09:16:08Z</time>
      </trkpt>
      <trkpt lat="45.89174" lon="4.82527">
        <ele>172</ele>
        <time>2017-10-15T09:16:09Z</time>
      </trkpt>
      <trkpt lat="45.89178" lon="4.82523">
        <ele>172</ele>
        <time>2017-10-15T09:16:10Z</time>
      </trkpt>
      <trkpt lat="45.89182" lon="4.82519">
        <ele>172</ele>
        <time>2017-10-15T09:16:11Z</time>
      </trkpt>
      <trkpt lat="45.89187" lon="4.82514">
        <ele>172</ele>
        <time>2017-10-15T09:16:12Z</time>
      </trkpt>
      <trkpt lat="45.89192" lon="4.82511">
        <ele>172</ele>
        <time>2017-10-15T09:16:13Z</time>
      </trkpt>
      <trkpt lat="45.89197" lon="4.82506">
        <ele>172</ele>
        <time>2017-10-15T09:16:14Z</time>
      </trkpt>
      <trkpt lat="45.89204" lon="4.82502">
        <ele>172</ele>
        <time>2017-10-15T09:16:15Z</time>
      </trkpt>
      <trkpt lat="45.89209" lon="4.82497">
        <ele>173</ele>
        <time>2017-10-15T09:16:16Z</time>
      </trkpt>
      <trkpt lat="45.89214" lon="4.82491">
        <ele>173</ele>
        <time>2017-10-15T09:16:17Z</time>
      </trkpt>
      <trkpt lat="45.89219" lon="4.82484">
        <ele>173</ele>
        <time>2017-10-15T09:16:18Z</time>
      </trkpt>
      <trkpt lat="45.89226" lon="4.82477">
        <ele>173</ele>
        <time>2017-10-15T09:16:19Z</time>
      </trkpt>
      <trkpt lat="45.89231" lon="4.82473">
        <ele>173</ele>
        <time>2017-10-15T09:16:20Z</time>
      </trkpt>
      <trkpt lat="45.89236" lon="4.82467">
        <ele>173</ele>
        <time>2017-10-15T09:16:21Z</time>
      </trkpt>
      <trkpt lat="45.8924" lon="4.82461">
        <ele>173</ele>
        <time>2017-10-15T09:16:22Z</time>
      </trkpt>
      <trkpt lat="45.89244" lon="4.82455">
        <ele>173</ele>
        <time>2017-10-15T09:16:23Z</time>
      </trkpt>
      <trkpt lat="45.89249" lon="4.82449">
        <ele>173</ele>
        <time>2017-10-15T09:16:24Z</time>
      </trkpt>
      <trkpt lat="45.89254" lon="4.82445">
        <ele>173</ele>
        <time>2017-10-15T09:16:25Z</time>
      </trkpt>
      <trkpt lat="45.89259" lon="4.82439">
        <ele>173</ele>
        <time>2017-10-15T09:16:26Z</time>
      </trkpt>
      <trkpt lat="45.89264" lon="4.82434">
        <ele>173</ele>
        <time>2017-10-15T09:16:27Z</time>
      </trkpt>
      <trkpt lat="45.89268" lon="4.82429">
        <ele>173</ele>
        <time>2017-10-15T09:16:28Z</time>
      </trkpt>
      <trkpt lat="45.89271" lon="4.82424">
        <ele>173</ele>
        <time>2017-10-15T09:16:29Z</time>
      </trkpt>
      <trkpt lat="45.89276" lon="4.82421">
        <ele>173</ele>
        <time>2017-10-15T09:16:30Z</time>
      </trkpt>
      <trkpt lat="45.89281" lon="4.82415">
        <ele>173</ele>
        <time>2017-10-15T09:16:31Z</time>
      </trkpt>
      <trkpt lat="45.89286" lon="4.8241">
        <ele>173</ele>
        <time>2017-10-15T09:16:32Z</time>
      </trkpt>
      <trkpt lat="45.89291" lon="4.82404">
        <ele>173</ele>
        <time>2017-10-15T09:16:33Z</time>
      </trkpt>
      <trkpt lat="45.89296" lon="4.82398">
        <ele>173</ele>
        <time>2017-10-15T09:16:34Z</time>
      </trkpt>
      <trkpt lat="45.893" lon="4.82391">
        <ele>173</ele>
        <time>2017-10-15T09:16:35Z</time>
      </trkpt>
      <trkpt lat="45.89306" lon="4.82385">
        <ele>173</ele>
        <time>2017-10-15T09:16:36Z</time>
      </trkpt>
      <trkpt lat="45.89312" lon="4.82379">
        <ele>173</ele>
        <time>2017-10-15T09:16:37Z</time>
      </trkpt>
      <trkpt lat="45.89317" lon="4.82373">
        <ele>173</ele>
        <time>2017-10-15T09:16:38Z</time>
      </trkpt>
      <trkpt lat="45.89322" lon="4.82367">
        <ele>173</ele>
        <time>2017-10-15T09:16:39Z</time>
      </trkpt>
      <trkpt lat="45.89327" lon="4.82362">
        <ele>173</ele>
        <time>2017-10-15T09:16:40Z</time>
      </trkpt>
      <trkpt lat="45.89332" lon="4.82356">
        <ele>173</ele>
        <time>2017-10-15T09:16:41Z</time>
      </trkpt>
      <trkpt lat="45.89335" lon="4.8235">
        <ele>173</ele>
        <time>2017-10-15T09:16:42Z</time>
      </trkpt>
      <trkpt lat="45.89339" lon="4.82344">
        <ele>172</ele>
        <time>2017-10-15T09:16:43Z</time>
      </trkpt>
      <trkpt lat="45.89343" lon="4.82338">
        <ele>172</ele>
        <time>2017-10-15T09:16:44Z</time>
      </trkpt>
      <trkpt lat="45.89348" lon="4.82333">
        <ele>172</ele>
        <time>2017-10-15T09:16:45Z</time>
      </trkpt>
      <trkpt lat="45.89353" lon="4.82327">
        <ele>172</ele>
        <time>2017-10-15T09:16:46Z</time>
      </trkpt>
      <trkpt lat="45.89358" lon="4.82322">
        <ele>172</ele>
        <time>2017-10-15T09:16:47Z</time>
      </trkpt>
      <trkpt lat="45.89362" lon="4.82317">
        <ele>172</ele>
        <time>2017-10-15T09:16:48Z</time>
      </trkpt>
      <trkpt lat="45.89367" lon="4.82311">
        <ele>172</ele>
        <time>2017-10-15T09:16:49Z</time>
      </trkpt>
      <trkpt lat="45.89371" lon="4.82306">
        <ele>172</ele>
        <time>2017-10-15T09:16:50Z</time>
      </trkpt>
      <trkpt lat="45.89377" lon="4.823">
        <ele>172</ele>
        <time>2017-10-15T09:16:51Z</time>
      </trkpt>
      <trkpt lat="45.89382" lon="4.82293">
        <ele>172</ele>
        <time>2017-10-15T09:16:52Z</time>
      </trkpt>
      <trkpt lat="45.89387" lon="4.82285">
        <ele>172</ele>
        <time>2017-10-15T09:16:53Z</time>
      </trkpt>
      <trkpt lat="45.89391" lon="4.82279">
        <ele>172</ele>
        <time>2017-10-15T09:16:54Z</time>
      </trkpt>
      <trkpt lat="45.89396" lon="4.82273">
        <ele>172</ele>
        <time>2017-10-15T09:16:55Z</time>
      </trkpt>
      <trkpt lat="45.89401" lon="4.82267">
        <ele>172</ele>
        <time>2017-10-15T09:16:56Z</time>
      </trkpt>
      <trkpt lat="45.89406" lon="4.82262">
        <ele>172</ele>
        <time>2017-10-15T09:16:57Z</time>
      </trkpt>
      <trkpt lat="45.8941" lon="4.82256">
        <ele>171</ele>
        <time>2017-10-15T09:16:58Z</time>
      </trkpt>
      <trkpt lat="45.89414" lon="4.82251">
        <ele>171</ele>
        <time>2017-10-15T09:16:59Z</time>
      </trkpt>
      <trkpt lat="45.89419" lon="4.82245">
        <ele>171</ele>
        <time>2017-10-15T09:17:00Z</time>
      </trkpt>
      <trkpt lat="45.89424" lon="4.8224">
        <ele>171</ele>
        <time>2017-10-15T09:17:01Z</time>
      </trkpt>
      <trkpt lat="45.89428" lon="4.82234">
        <ele>171</ele>
        <time>2017-10-15T09:17:02Z</time>
      </trkpt>
      <trkpt lat="45.89432" lon="4.82228">
        <ele>171</ele>
        <time>2017-10-15T09:17:03Z</time>
      </trkpt>
      <trkpt lat="45.89435" lon="4.82224">
        <ele>171</ele>
        <time>2017-10-15T09:17:04Z</time>
      </trkpt>
      <trkpt lat="45.89439" lon="4.82219">
        <ele>171</ele>
        <time>2017-10-15T09:17:05Z</time>
      </trkpt>
      <trkpt lat="45.89443" lon="4.82214">
        <ele>171</ele>
        <time>2017-10-15T09:17:06Z</time>
      </trkpt>
      <trkpt lat="45.89448" lon="4.82209">
        <ele>171</ele>
        <time>2017-10-15T09:17:07Z</time>
      </trkpt>
      <trkpt lat="45.89452" lon="4.82205">
        <ele>171</ele>
        <time>2017-10-15T09:17:08Z</time>
      </trkpt>
      <trkpt lat="45.89456" lon="4.82201">
        <ele>171</ele>
        <time>2017-10-15T09:17:09Z</time>
      </trkpt>
      <trkpt lat="45.89461" lon="4.82197">
        <ele>171</ele>
        <time>2017-10-15T09:17:10Z</time>
      </trkpt>
      <trkpt lat="45.89465" lon="4.82192">
        <ele>171</ele>
        <time>2017-10-15T09:17:11Z</time>
      </trkpt>
      <trkpt lat="45.8947" lon="4.82187">
        <ele>171</ele>
        <time>2017-10-15T09:17:12Z</time>
      </trkpt>
      <trkpt lat="45.89474" lon="4.82183">
        <ele>171</ele>
        <time>2017-10-15T09:17:13Z</time>
      </trkpt>
      <trkpt lat="45.89481" lon="4.8218">
        <ele>171</ele>
        <time>2017-10-15T09:17:14Z</time>
      </trkpt>
      <trkpt lat="45.89486" lon="4.82176">
        <ele>171</ele>
        <time>2017-10-15T09:17:15Z</time>
      </trkpt>
      <trkpt lat="45.89492" lon="4.82172">
        <ele>171</ele>
        <time>2017-10-15T09:17:16Z</time>
      </trkpt>
      <trkpt lat="45.89496" lon="4.82168">
        <ele>171</ele>
        <time>2017-10-15T09:17:17Z</time>
      </trkpt>
      <trkpt lat="45.89501" lon="4.82164">
        <ele>171</ele>
        <time>2017-10-15T09:17:18Z</time>
      </trkpt>
      <trkpt lat="45.89505" lon="4.82161">
        <ele>171</ele>
        <time>2017-10-15T09:17:19Z</time>
      </trkpt>
      <trkpt lat="45.89509" lon="4.82158">
        <ele>172</ele>
        <time>2017-10-15T09:17:20Z</time>
      </trkpt>
      <trkpt lat="45.89513" lon="4.82155">
        <ele>172</ele>
        <time>2017-10-15T09:17:21Z</time>
      </trkpt>
      <trkpt lat="45.89517" lon="4.82151">
        <ele>172</ele>
        <time>2017-10-15T09:17:22Z</time>
      </trkpt>
      <trkpt lat="45.89522" lon="4.82147">
        <ele>172</ele>
        <time>2017-10-15T09:17:23Z</time>
      </trkpt>
      <trkpt lat="45.89527" lon="4.82144">
        <ele>172</ele>
        <time>2017-10-15T09:17:24Z</time>
      </trkpt>
      <trkpt lat="45.89532" lon="4.82143">
        <ele>172</ele>
        <time>2017-10-15T09:17:25Z</time>
      </trkpt>
      <trkpt lat="45.89536" lon="4.82141">
        <ele>172</ele>
        <time>2017-10-15T09:17:26Z</time>
      </trkpt>
      <trkpt lat="45.89541" lon="4.82138">
        <ele>172</ele>
        <time>2017-10-15T09:17:27Z</time>
      </trkpt>
      <trkpt lat="45.89546" lon="4.82132">
        <ele>173</ele>
        <time>2017-10-15T09:17:28Z</time>
      </trkpt>
      <trkpt lat="45.89551" lon="4.82128">
        <ele>173</ele>
        <time>2017-10-15T09:17:29Z</time>
      </trkpt>
      <trkpt lat="45.89555" lon="4.82121">
        <ele>173</ele>
        <time>2017-10-15T09:17:30Z</time>
      </trkpt>
      <trkpt lat="45.89558" lon="4.82113">
        <ele>173</ele>
        <time>2017-10-15T09:17:31Z</time>
      </trkpt>
      <trkpt lat="45.89561" lon="4.82106">
        <ele>173</ele>
        <time>2017-10-15T09:17:32Z</time>
      </trkpt>
      <trkpt lat="45.89564" lon="4.82099">
        <ele>173</ele>
        <time>2017-10-15T09:17:33Z</time>
      </trkpt>
      <trkpt lat="45.89567" lon="4.82092">
        <ele>173</ele>
        <time>2017-10-15T09:17:34Z</time>
      </trkpt>
      <trkpt lat="45.8957" lon="4.82087">
        <ele>173</ele>
        <time>2017-10-15T09:17:35Z</time>
      </trkpt>
      <trkpt lat="45.89575" lon="4.82083">
        <ele>173</ele>
        <time>2017-10-15T09:17:36Z</time>
      </trkpt>
      <trkpt lat="45.89579" lon="4.82078">
        <ele>173</ele>
        <time>2017-10-15T09:17:37Z</time>
      </trkpt>
      <trkpt lat="45.89583" lon="4.82074">
        <ele>173</ele>
        <time>2017-10-15T09:17:38Z</time>
      </trkpt>
      <trkpt lat="45.89588" lon="4.82071">
        <ele>173</ele>
        <time>2017-10-15T09:17:39Z</time>
      </trkpt>
      <trkpt lat="45.89595" lon="4.82068">
        <ele>173</ele>
        <time>2017-10-15T09:17:40Z</time>
      </trkpt>
      <trkpt lat="45.89601" lon="4.82064">
        <ele>173</ele>
        <time>2017-10-15T09:17:41Z</time>
      </trkpt>
      <trkpt lat="45.89605" lon="4.82058">
        <ele>173</ele>
        <time>2017-10-15T09:17:42Z</time>
      </trkpt>
      <trkpt lat="45.8961" lon="4.82055">
        <ele>173</ele>
        <time>2017-10-15T09:17:43Z</time>
      </trkpt>
      <trkpt lat="45.89616" lon="4.8205">
        <ele>173</ele>
        <time>2017-10-15T09:17:44Z</time>
      </trkpt>
      <trkpt lat="45.89621" lon="4.82044">
        <ele>173</ele>
        <time>2017-10-15T09:17:45Z</time>
      </trkpt>
      <trkpt lat="45.89626" lon="4.8204">
        <ele>173</ele>
        <time>2017-10-15T09:17:46Z</time>
      </trkpt>
      <trkpt lat="45.89631" lon="4.82035">
        <ele>173</ele>
        <time>2017-10-15T09:17:47Z</time>
      </trkpt>
      <trkpt lat="45.89637" lon="4.8203">
        <ele>173</ele>
        <time>2017-10-15T09:17:48Z</time>
      </trkpt>
      <trkpt lat="45.89642" lon="4.82026">
        <ele>173</ele>
        <time>2017-10-15T09:17:49Z</time>
      </trkpt>
      <trkpt lat="45.89646" lon="4.82021">
        <ele>173</ele>
        <time>2017-10-15T09:17:50Z</time>
      </trkpt>
      <trkpt lat="45.89652" lon="4.82017">
        <ele>174</ele>
        <time>2017-10-15T09:17:51Z</time>
      </trkpt>
      <trkpt lat="45.89657" lon="4.82013">
        <ele>174</ele>
        <time>2017-10-15T09:17:52Z</time>
      </trkpt>
      <trkpt lat="45.89662" lon="4.82008">
        <ele>174</ele>
        <time>2017-10-15T09:17:53Z</time>
      </trkpt>
      <trkpt lat="45.89666" lon="4.82004">
        <ele>174</ele>
        <time>2017-10-15T09:17:54Z</time>
      </trkpt>
      <trkpt lat="45.89671" lon="4.82">
        <ele>174</ele>
        <time>2017-10-15T09:17:55Z</time>
      </trkpt>
      <trkpt lat="45.89675" lon="4.81997">
        <ele>174</ele>
        <time>2017-10-15T09:17:56Z</time>
      </trkpt>
      <trkpt lat="45.89679" lon="4.81992">
        <ele>174</ele>
        <time>2017-10-15T09:17:57Z</time>
      </trkpt>
      <trkpt lat="45.89684" lon="4.81988">
        <ele>174</ele>
        <time>2017-10-15T09:17:58Z</time>
      </trkpt>
      <trkpt lat="45.89689" lon="4.81984">
        <ele>173</ele>
        <time>2017-10-15T09:17:59Z</time>
      </trkpt>
      <trkpt lat="45.89693" lon="4.8198">
        <ele>173</ele>
        <time>2017-10-15T09:18:00Z</time>
      </trkpt>
      <trkpt lat="45.89697" lon="4.81975">
        <ele>173</ele>
        <time>2017-10-15T09:18:01Z</time>
      </trkpt>
      <trkpt lat="45.897" lon="4.8197">
        <ele>173</ele>
        <time>2017-10-15T09:18:02Z</time>
      </trkpt>
      <trkpt lat="45.89703" lon="4.81966">
        <ele>173</ele>
        <time>2017-10-15T09:18:03Z</time>
      </trkpt>
      <trkpt lat="45.89709" lon="4.81963">
        <ele>173</ele>
        <time>2017-10-15T09:18:04Z</time>
      </trkpt>
      <trkpt lat="45.89714" lon="4.81959">
        <ele>173</ele>
        <time>2017-10-15T09:18:05Z</time>
      </trkpt>
      <trkpt lat="45.89722" lon="4.81954">
        <ele>173</ele>
        <time>2017-10-15T09:18:07Z</time>
      </trkpt>
      <trkpt lat="45.89726" lon="4.81951">
        <ele>173</ele>
        <time>2017-10-15T09:18:08Z</time>
      </trkpt>
      <trkpt lat="45.89732" lon="4.81947">
        <ele>173</ele>
        <time>2017-10-15T09:18:10Z</time>
      </trkpt>
      <trkpt lat="45.89735" lon="4.81944">
        <ele>173</ele>
        <time>2017-10-15T09:18:11Z</time>
      </trkpt>
      <trkpt lat="45.89742" lon="4.81938">
        <ele>174</ele>
        <time>2017-10-15T09:18:13Z</time>
      </trkpt>
      <trkpt lat="45.89745" lon="4.81935">
        <ele>174</ele>
        <time>2017-10-15T09:18:14Z</time>
      </trkpt>
      <trkpt lat="45.89751" lon="4.81929">
        <ele>174</ele>
        <time>2017-10-15T09:18:16Z</time>
      </trkpt>
      <trkpt lat="45.89754" lon="4.81926">
        <ele>174</ele>
        <time>2017-10-15T09:18:17Z</time>
      </trkpt>
      <trkpt lat="45.89761" lon="4.8192">
        <ele>174</ele>
        <time>2017-10-15T09:18:19Z</time>
      </trkpt>
      <trkpt lat="45.89765" lon="4.81917">
        <ele>174</ele>
        <time>2017-10-15T09:18:20Z</time>
      </trkpt>
      <trkpt lat="45.89769" lon="4.81914">
        <ele>174</ele>
        <time>2017-10-15T09:18:21Z</time>
      </trkpt>
      <trkpt lat="45.89774" lon="4.81912">
        <ele>174</ele>
        <time>2017-10-15T09:18:22Z</time>
      </trkpt>
      <trkpt lat="45.89777" lon="4.81907">
        <ele>174</ele>
        <time>2017-10-15T09:18:23Z</time>
      </trkpt>
      <trkpt lat="45.89781" lon="4.81903">
        <ele>174</ele>
        <time>2017-10-15T09:18:24Z</time>
      </trkpt>
      <trkpt lat="45.89786" lon="4.81899">
        <ele>174</ele>
        <time>2017-10-15T09:18:25Z</time>
      </trkpt>
      <trkpt lat="45.89789" lon="4.81894">
        <ele>174</ele>
        <time>2017-10-15T09:18:26Z</time>
      </trkpt>
      <trkpt lat="45.89794" lon="4.8189">
        <ele>174</ele>
        <time>2017-10-15T09:18:27Z</time>
      </trkpt>
      <trkpt lat="45.89799" lon="4.81886">
        <ele>174</ele>
        <time>2017-10-15T09:18:28Z</time>
      </trkpt>
      <trkpt lat="45.89803" lon="4.81883">
        <ele>174</ele>
        <time>2017-10-15T09:18:29Z</time>
      </trkpt>
      <trkpt lat="45.89808" lon="4.8188">
        <ele>174</ele>
        <time>2017-10-15T09:18:30Z</time>
      </trkpt>
      <trkpt lat="45.89813" lon="4.81876">
        <ele>174</ele>
        <time>2017-10-15T09:18:31Z</time>
      </trkpt>
      <trkpt lat="45.89816" lon="4.81872">
        <ele>174</ele>
        <time>2017-10-15T09:18:32Z</time>
      </trkpt>
      <trkpt lat="45.89821" lon="4.81865">
        <ele>174</ele>
        <time>2017-10-15T09:18:34Z</time>
      </trkpt>
      <trkpt lat="45.89824" lon="4.81861">
        <ele>174</ele>
        <time>2017-10-15T09:18:35Z</time>
      </trkpt>
      <trkpt lat="45.89829" lon="4.81856">
        <ele>174</ele>
        <time>2017-10-15T09:18:36Z</time>
      </trkpt>
      <trkpt lat="45.89834" lon="4.81852">
        <ele>175</ele>
        <time>2017-10-15T09:18:37Z</time>
      </trkpt>
      <trkpt lat="45.89838" lon="4.81848">
        <ele>175</ele>
        <time>2017-10-15T09:18:38Z</time>
      </trkpt>
      <trkpt lat="45.89842" lon="4.81844">
        <ele>175</ele>
        <time>2017-10-15T09:18:39Z</time>
      </trkpt>
      <trkpt lat="45.89847" lon="4.81839">
        <ele>175</ele>
        <time>2017-10-15T09:18:40Z</time>
      </trkpt>
      <trkpt lat="45.89851" lon="4.81834">
        <ele>175</ele>
        <time>2017-10-15T09:18:41Z</time>
      </trkpt>
      <trkpt lat="45.89856" lon="4.81828">
        <ele>175</ele>
        <time>2017-10-15T09:18:42Z</time>
      </trkpt>
      <trkpt lat="45.8986" lon="4.81823">
        <ele>175</ele>
        <time>2017-10-15T09:18:43Z</time>
      </trkpt>
      <trkpt lat="45.89864" lon="4.81818">
        <ele>175</ele>
        <time>2017-10-15T09:18:44Z</time>
      </trkpt>
      <trkpt lat="45.89868" lon="4.81812">
        <ele>175</ele>
        <time>2017-10-15T09:18:45Z</time>
      </trkpt>
      <trkpt lat="45.89872" lon="4.81807">
        <ele>175</ele>
        <time>2017-10-15T09:18:46Z</time>
      </trkpt>
      <trkpt lat="45.89878" lon="4.81802">
        <ele>176</ele>
        <time>2017-10-15T09:18:47Z</time>
      </trkpt>
      <trkpt lat="45.89883" lon="4.81797">
        <ele>176</ele>
        <time>2017-10-15T09:18:48Z</time>
      </trkpt>
      <trkpt lat="45.89887" lon="4.81791">
        <ele>176</ele>
        <time>2017-10-15T09:18:49Z</time>
      </trkpt>
      <trkpt lat="45.89891" lon="4.81788">
        <ele>176</ele>
        <time>2017-10-15T09:18:50Z</time>
      </trkpt>
      <trkpt lat="45.89896" lon="4.81784">
        <ele>176</ele>
        <time>2017-10-15T09:18:51Z</time>
      </trkpt>
      <trkpt lat="45.89901" lon="4.8178">
        <ele>176</ele>
        <time>2017-10-15T09:18:52Z</time>
      </trkpt>
      <trkpt lat="45.89905" lon="4.81778">
        <ele>176</ele>
        <time>2017-10-15T09:18:53Z</time>
      </trkpt>
      <trkpt lat="45.89912" lon="4.81772">
        <ele>176</ele>
        <time>2017-10-15T09:18:55Z</time>
      </trkpt>
      <trkpt lat="45.89917" lon="4.81766">
        <ele>177</ele>
        <time>2017-10-15T09:18:56Z</time>
      </trkpt>
      <trkpt lat="45.89921" lon="4.81767">
        <ele>177</ele>
        <time>2017-10-15T09:18:57Z</time>
      </trkpt>
      <trkpt lat="45.89926" lon="4.81769">
        <ele>177</ele>
        <time>2017-10-15T09:18:58Z</time>
      </trkpt>
      <trkpt lat="45.89931" lon="4.81769">
        <ele>177</ele>
        <time>2017-10-15T09:18:59Z</time>
      </trkpt>
      <trkpt lat="45.89936" lon="4.81769">
        <ele>177</ele>
        <time>2017-10-15T09:19:00Z</time>
      </trkpt>
      <trkpt lat="45.89941" lon="4.81768">
        <ele>177</ele>
        <time>2017-10-15T09:19:01Z</time>
      </trkpt>
      <trkpt lat="45.89946" lon="4.81765">
        <ele>177</ele>
        <time>2017-10-15T09:19:02Z</time>
      </trkpt>
      <trkpt lat="45.89951" lon="4.81761">
        <ele>177</ele>
        <time>2017-10-15T09:19:03Z</time>
      </trkpt>
      <trkpt lat="45.89955" lon="4.81755">
        <ele>177</ele>
        <time>2017-10-15T09:19:04Z</time>
      </trkpt>
      <trkpt lat="45.89957" lon="4.81748">
        <ele>177</ele>
        <time>2017-10-15T09:19:05Z</time>
      </trkpt>
      <trkpt lat="45.89959" lon="4.81741">
        <ele>176</ele>
        <time>2017-10-15T09:19:06Z</time>
      </trkpt>
      <trkpt lat="45.89961" lon="4.81734">
        <ele>176</ele>
        <time>2017-10-15T09:19:07Z</time>
      </trkpt>
      <trkpt lat="45.89965" lon="4.81729">
        <ele>176</ele>
        <time>2017-10-15T09:19:08Z</time>
      </trkpt>
      <trkpt lat="45.89968" lon="4.81724">
        <ele>176</ele>
        <time>2017-10-15T09:19:09Z</time>
      </trkpt>
      <trkpt lat="45.89973" lon="4.81719">
        <ele>176</ele>
        <time>2017-10-15T09:19:10Z</time>
      </trkpt>
      <trkpt lat="45.89978" lon="4.81715">
        <ele>176</ele>
        <time>2017-10-15T09:19:11Z</time>
      </trkpt>
      <trkpt lat="45.89982" lon="4.81712">
        <ele>176</ele>
        <time>2017-10-15T09:19:12Z</time>
      </trkpt>
      <trkpt lat="45.89988" lon="4.8171">
        <ele>176</ele>
        <time>2017-10-15T09:19:13Z</time>
      </trkpt>
      <trkpt lat="45.89992" lon="4.81707">
        <ele>176</ele>
        <time>2017-10-15T09:19:14Z</time>
      </trkpt>
      <trkpt lat="45.89997" lon="4.81703">
        <ele>176</ele>
        <time>2017-10-15T09:19:15Z</time>
      </trkpt>
      <trkpt lat="45.90001" lon="4.81699">
        <ele>177</ele>
        <time>2017-10-15T09:19:16Z</time>
      </trkpt>
      <trkpt lat="45.90007" lon="4.81697">
        <ele>177</ele>
        <time>2017-10-15T09:19:17Z</time>
      </trkpt>
      <trkpt lat="45.90012" lon="4.81695">
        <ele>177</ele>
        <time>2017-10-15T09:19:18Z</time>
      </trkpt>
      <trkpt lat="45.90017" lon="4.81692">
        <ele>177</ele>
        <time>2017-10-15T09:19:19Z</time>
      </trkpt>
      <trkpt lat="45.90022" lon="4.8169">
        <ele>177</ele>
        <time>2017-10-15T09:19:20Z</time>
      </trkpt>
      <trkpt lat="45.90027" lon="4.81687">
        <ele>178</ele>
        <time>2017-10-15T09:19:21Z</time>
      </trkpt>
      <trkpt lat="45.90033" lon="4.81685">
        <ele>178</ele>
        <time>2017-10-15T09:19:22Z</time>
      </trkpt>
      <trkpt lat="45.90038" lon="4.81683">
        <ele>178</ele>
        <time>2017-10-15T09:19:23Z</time>
      </trkpt>
      <trkpt lat="45.90043" lon="4.8168">
        <ele>178</ele>
        <time>2017-10-15T09:19:24Z</time>
      </trkpt>
      <trkpt lat="45.9005" lon="4.81677">
        <ele>178</ele>
        <time>2017-10-15T09:19:25Z</time>
      </trkpt>
      <trkpt lat="45.90056" lon="4.81674">
        <ele>178</ele>
        <time>2017-10-15T09:19:26Z</time>
      </trkpt>
      <trkpt lat="45.90063" lon="4.81672">
        <ele>178</ele>
        <time>2017-10-15T09:19:27Z</time>
      </trkpt>
      <trkpt lat="45.90068" lon="4.81669">
        <ele>178</ele>
        <time>2017-10-15T09:19:28Z</time>
      </trkpt>
      <trkpt lat="45.90073" lon="4.81667">
        <ele>179</ele>
        <time>2017-10-15T09:19:29Z</time>
      </trkpt>
      <trkpt lat="45.90078" lon="4.81665">
        <ele>179</ele>
        <time>2017-10-15T09:19:30Z</time>
      </trkpt>
      <trkpt lat="45.90084" lon="4.81664">
        <ele>179</ele>
        <time>2017-10-15T09:19:31Z</time>
      </trkpt>
      <trkpt lat="45.90089" lon="4.81663">
        <ele>179</ele>
        <time>2017-10-15T09:19:32Z</time>
      </trkpt>
      <trkpt lat="45.90094" lon="4.81662">
        <ele>179</ele>
        <time>2017-10-15T09:19:33Z</time>
      </trkpt>
      <trkpt lat="45.90099" lon="4.81661">
        <ele>179</ele>
        <time>2017-10-15T09:19:34Z</time>
      </trkpt>
      <trkpt lat="45.90104" lon="4.81659">
        <ele>179</ele>
        <time>2017-10-15T09:19:35Z</time>
      </trkpt>
      <trkpt lat="45.90108" lon="4.81658">
        <ele>179</ele>
        <time>2017-10-15T09:19:36Z</time>
      </trkpt>
      <trkpt lat="45.90113" lon="4.81657">
        <ele>179</ele>
        <time>2017-10-15T09:19:37Z</time>
      </trkpt>
      <trkpt lat="45.90119" lon="4.81656">
        <ele>179</ele>
        <time>2017-10-15T09:19:38Z</time>
      </trkpt>
      <trkpt lat="45.90124" lon="4.81655">
        <ele>179</ele>
        <time>2017-10-15T09:19:39Z</time>
      </trkpt>
      <trkpt lat="45.90131" lon="4.81654">
        <ele>179</ele>
        <time>2017-10-15T09:19:40Z</time>
      </trkpt>
      <trkpt lat="45.90136" lon="4.81653">
        <ele>179</ele>
        <time>2017-10-15T09:19:41Z</time>
      </trkpt>
      <trkpt lat="45.90142" lon="4.81653">
        <ele>179</ele>
        <time>2017-10-15T09:19:42Z</time>
      </trkpt>
      <trkpt lat="45.90147" lon="4.81652">
        <ele>179</ele>
        <time>2017-10-15T09:19:43Z</time>
      </trkpt>
      <trkpt lat="45.90153" lon="4.81652">
        <ele>179</ele>
        <time>2017-10-15T09:19:44Z</time>
      </trkpt>
      <trkpt lat="45.90158" lon="4.81651">
        <ele>179</ele>
        <time>2017-10-15T09:19:45Z</time>
      </trkpt>
      <trkpt lat="45.90164" lon="4.81651">
        <ele>179</ele>
        <time>2017-10-15T09:19:46Z</time>
      </trkpt>
      <trkpt lat="45.9017" lon="4.81649">
        <ele>180</ele>
        <time>2017-10-15T09:19:47Z</time>
      </trkpt>
      <trkpt lat="45.90175" lon="4.81649">
        <ele>180</ele>
        <time>2017-10-15T09:19:48Z</time>
      </trkpt>
      <trkpt lat="45.90181" lon="4.81648">
        <ele>180</ele>
        <time>2017-10-15T09:19:49Z</time>
      </trkpt>
      <trkpt lat="45.90187" lon="4.81647">
        <ele>180</ele>
        <time>2017-10-15T09:19:50Z</time>
      </trkpt>
      <trkpt lat="45.90194" lon="4.81647">
        <ele>180</ele>
        <time>2017-10-15T09:19:51Z</time>
      </trkpt>
      <trkpt lat="45.90199" lon="4.81647">
        <ele>180</ele>
        <time>2017-10-15T09:19:52Z</time>
      </trkpt>
      <trkpt lat="45.90205" lon="4.81638">
        <ele>180</ele>
        <time>2017-10-15T09:19:55Z</time>
      </trkpt>
      <trkpt lat="45.90221" lon="4.81644">
        <ele>180</ele>
        <time>2017-10-15T09:19:56Z</time>
      </trkpt>
      <trkpt lat="45.90229" lon="4.8164">
        <ele>180</ele>
        <time>2017-10-15T09:19:57Z</time>
      </trkpt>
      <trkpt lat="45.90236" lon="4.8164">
        <ele>181</ele>
        <time>2017-10-15T09:19:58Z</time>
      </trkpt>
      <trkpt lat="45.90244" lon="4.81638">
        <ele>181</ele>
        <time>2017-10-15T09:19:59Z</time>
      </trkpt>
      <trkpt lat="45.90251" lon="4.81637">
        <ele>182</ele>
        <time>2017-10-15T09:20:00Z</time>
      </trkpt>
      <trkpt lat="45.90257" lon="4.81639">
        <ele>182</ele>
        <time>2017-10-15T09:20:01Z</time>
      </trkpt>
      <trkpt lat="45.90263" lon="4.81641">
        <ele>182</ele>
        <time>2017-10-15T09:20:02Z</time>
      </trkpt>
      <trkpt lat="45.90268" lon="4.81646">
        <ele>182</ele>
        <time>2017-10-15T09:20:03Z</time>
      </trkpt>
      <trkpt lat="45.90273" lon="4.81651">
        <ele>182</ele>
        <time>2017-10-15T09:20:04Z</time>
      </trkpt>
      <trkpt lat="45.90279" lon="4.81659">
        <ele>182</ele>
        <time>2017-10-15T09:20:06Z</time>
      </trkpt>
      <trkpt lat="45.90284" lon="4.81663">
        <ele>182</ele>
        <time>2017-10-15T09:20:07Z</time>
      </trkpt>
      <trkpt lat="45.90289" lon="4.81663">
        <ele>182</ele>
        <time>2017-10-15T09:20:08Z</time>
      </trkpt>
      <trkpt lat="45.90293" lon="4.8166">
        <ele>182</ele>
        <time>2017-10-15T09:20:09Z</time>
      </trkpt>
      <trkpt lat="45.90298" lon="4.81656">
        <ele>182</ele>
        <time>2017-10-15T09:20:10Z</time>
      </trkpt>
      <trkpt lat="45.90302" lon="4.8165">
        <ele>182</ele>
        <time>2017-10-15T09:20:11Z</time>
      </trkpt>
      <trkpt lat="45.90306" lon="4.81644">
        <ele>182</ele>
        <time>2017-10-15T09:20:12Z</time>
      </trkpt>
      <trkpt lat="45.90311" lon="4.81639">
        <ele>182</ele>
        <time>2017-10-15T09:20:13Z</time>
      </trkpt>
      <trkpt lat="45.90315" lon="4.81634">
        <ele>182</ele>
        <time>2017-10-15T09:20:14Z</time>
      </trkpt>
      <trkpt lat="45.90322" lon="4.81632">
        <ele>182</ele>
        <time>2017-10-15T09:20:15Z</time>
      </trkpt>
      <trkpt lat="45.90328" lon="4.8163">
        <ele>182</ele>
        <time>2017-10-15T09:20:16Z</time>
      </trkpt>
      <trkpt lat="45.90334" lon="4.81629">
        <ele>183</ele>
        <time>2017-10-15T09:20:17Z</time>
      </trkpt>
      <trkpt lat="45.90341" lon="4.81629">
        <ele>183</ele>
        <time>2017-10-15T09:20:18Z</time>
      </trkpt>
      <trkpt lat="45.90347" lon="4.81628">
        <ele>183</ele>
        <time>2017-10-15T09:20:19Z</time>
      </trkpt>
      <trkpt lat="45.90353" lon="4.81626">
        <ele>183</ele>
        <time>2017-10-15T09:20:20Z</time>
      </trkpt>
      <trkpt lat="45.90358" lon="4.81623">
        <ele>182</ele>
        <time>2017-10-15T09:20:21Z</time>
      </trkpt>
      <trkpt lat="45.90364" lon="4.8162">
        <ele>182</ele>
        <time>2017-10-15T09:20:22Z</time>
      </trkpt>
      <trkpt lat="45.9037" lon="4.81619">
        <ele>182</ele>
        <time>2017-10-15T09:20:23Z</time>
      </trkpt>
      <trkpt lat="45.90376" lon="4.81617">
        <ele>182</ele>
        <time>2017-10-15T09:20:24Z</time>
      </trkpt>
      <trkpt lat="45.9038" lon="4.81616">
        <ele>182</ele>
        <time>2017-10-15T09:20:25Z</time>
      </trkpt>
      <trkpt lat="45.90386" lon="4.81615">
        <ele>182</ele>
        <time>2017-10-15T09:20:26Z</time>
      </trkpt>
      <trkpt lat="45.90391" lon="4.81613">
        <ele>182</ele>
        <time>2017-10-15T09:20:27Z</time>
      </trkpt>
      <trkpt lat="45.90396" lon="4.81611">
        <ele>182</ele>
        <time>2017-10-15T09:20:28Z</time>
      </trkpt>
      <trkpt lat="45.90402" lon="4.8161">
        <ele>182</ele>
        <time>2017-10-15T09:20:29Z</time>
      </trkpt>
      <trkpt lat="45.90409" lon="4.81609">
        <ele>182</ele>
        <time>2017-10-15T09:20:30Z</time>
      </trkpt>
      <trkpt lat="45.90416" lon="4.81608">
        <ele>182</ele>
        <time>2017-10-15T09:20:31Z</time>
      </trkpt>
      <trkpt lat="45.90422" lon="4.81607">
        <ele>182</ele>
        <time>2017-10-15T09:20:32Z</time>
      </trkpt>
      <trkpt lat="45.90428" lon="4.81607">
        <ele>182</ele>
        <time>2017-10-15T09:20:33Z</time>
      </trkpt>
      <trkpt lat="45.90434" lon="4.81606">
        <ele>182</ele>
        <time>2017-10-15T09:20:34Z</time>
      </trkpt>
      <trkpt lat="45.9044" lon="4.81605">
        <ele>182</ele>
        <time>2017-10-15T09:20:35Z</time>
      </trkpt>
      <trkpt lat="45.90445" lon="4.81606">
        <ele>182</ele>
        <time>2017-10-15T09:20:36Z</time>
      </trkpt>
      <trkpt lat="45.9045" lon="4.81605">
        <ele>182</ele>
        <time>2017-10-15T09:20:37Z</time>
      </trkpt>
      <trkpt lat="45.90459" lon="4.81604">
        <ele>182</ele>
        <time>2017-10-15T09:20:39Z</time>
      </trkpt>
      <trkpt lat="45.90463" lon="4.81604">
        <ele>182</ele>
        <time>2017-10-15T09:20:40Z</time>
      </trkpt>
      <trkpt lat="45.9047" lon="4.81603">
        <ele>182</ele>
        <time>2017-10-15T09:20:42Z</time>
      </trkpt>
      <trkpt lat="45.90474" lon="4.81605">
        <ele>182</ele>
        <time>2017-10-15T09:20:43Z</time>
      </trkpt>
      <trkpt lat="45.90481" lon="4.81607">
        <ele>182</ele>
        <time>2017-10-15T09:21:02Z</time>
      </trkpt>
      <trkpt lat="45.90483" lon="4.81607">
        <ele>182</ele>
        <time>2017-10-15T09:21:03Z</time>
      </trkpt>
      <trkpt lat="45.9049" lon="4.81606">
        <ele>182</ele>
        <time>2017-10-15T09:21:06Z</time>
      </trkpt>
      <trkpt lat="45.90493" lon="4.81606">
        <ele>182</ele>
        <time>2017-10-15T09:21:07Z</time>
      </trkpt>
      <trkpt lat="45.90499" lon="4.81606">
        <ele>182</ele>
        <time>2017-10-15T09:21:09Z</time>
      </trkpt>
      <trkpt lat="45.90504" lon="4.81606">
        <ele>182</ele>
        <time>2017-10-15T09:21:10Z</time>
      </trkpt>
      <trkpt lat="45.90512" lon="4.81603">
        <ele>182</ele>
        <time>2017-10-15T09:21:12Z</time>
      </trkpt>
      <trkpt lat="45.90518" lon="4.81603">
        <ele>182</ele>
        <time>2017-10-15T09:21:13Z</time>
      </trkpt>
      <trkpt lat="45.90523" lon="4.81602">
        <ele>182</ele>
        <time>2017-10-15T09:21:14Z</time>
      </trkpt>
      <trkpt lat="45.90528" lon="4.81603">
        <ele>182</ele>
        <time>2017-10-15T09:21:15Z</time>
      </trkpt>
      <trkpt lat="45.90533" lon="4.81602">
        <ele>182</ele>
        <time>2017-10-15T09:21:16Z</time>
      </trkpt>
      <trkpt lat="45.90539" lon="4.81602">
        <ele>182</ele>
        <time>2017-10-15T09:21:17Z</time>
      </trkpt>
      <trkpt lat="45.90545" lon="4.81601">
        <ele>182</ele>
        <time>2017-10-15T09:21:18Z</time>
      </trkpt>
      <trkpt lat="45.9055" lon="4.81599">
        <ele>182</ele>
        <time>2017-10-15T09:21:19Z</time>
      </trkpt>
      <trkpt lat="45.90555" lon="4.81598">
        <ele>182</ele>
        <time>2017-10-15T09:21:20Z</time>
      </trkpt>
      <trkpt lat="45.9056" lon="4.81598">
        <ele>182</ele>
        <time>2017-10-15T09:21:21Z</time>
      </trkpt>
      <trkpt lat="45.90566" lon="4.81597">
        <ele>182</ele>
        <time>2017-10-15T09:21:22Z</time>
      </trkpt>
      <trkpt lat="45.90572" lon="4.81597">
        <ele>182</ele>
        <time>2017-10-15T09:21:23Z</time>
      </trkpt>
      <trkpt lat="45.90579" lon="4.81596">
        <ele>182</ele>
        <time>2017-10-15T09:21:24Z</time>
      </trkpt>
      <trkpt lat="45.90585" lon="4.81597">
        <ele>182</ele>
        <time>2017-10-15T09:21:25Z</time>
      </trkpt>
      <trkpt lat="45.90593" lon="4.81594">
        <ele>182</ele>
        <time>2017-10-15T09:21:26Z</time>
      </trkpt>
      <trkpt lat="45.90599" lon="4.81594">
        <ele>182</ele>
        <time>2017-10-15T09:21:27Z</time>
      </trkpt>
      <trkpt lat="45.90607" lon="4.81593">
        <ele>182</ele>
        <time>2017-10-15T09:21:28Z</time>
      </trkpt>
      <trkpt lat="45.90614" lon="4.81592">
        <ele>182</ele>
        <time>2017-10-15T09:21:29Z</time>
      </trkpt>
      <trkpt lat="45.90621" lon="4.8159">
        <ele>181</ele>
        <time>2017-10-15T09:21:30Z</time>
      </trkpt>
      <trkpt lat="45.90629" lon="4.8159">
        <ele>181</ele>
        <time>2017-10-15T09:21:31Z</time>
      </trkpt>
      <trkpt lat="45.90636" lon="4.8159">
        <ele>181</ele>
        <time>2017-10-15T09:21:32Z</time>
      </trkpt>
      <trkpt lat="45.90644" lon="4.81589">
        <ele>181</ele>
        <time>2017-10-15T09:21:33Z</time>
      </trkpt>
      <trkpt lat="45.90652" lon="4.81589">
        <ele>180</ele>
        <time>2017-10-15T09:21:34Z</time>
      </trkpt>
      <trkpt lat="45.9066" lon="4.81589">
        <ele>180</ele>
        <time>2017-10-15T09:21:35Z</time>
      </trkpt>
      <trkpt lat="45.90667" lon="4.81589">
        <ele>179</ele>
        <time>2017-10-15T09:21:36Z</time>
      </trkpt>
      <trkpt lat="45.90675" lon="4.81589">
        <ele>179</ele>
        <time>2017-10-15T09:21:37Z</time>
      </trkpt>
      <trkpt lat="45.90685" lon="4.81588">
        <ele>179</ele>
        <time>2017-10-15T09:21:38Z</time>
      </trkpt>
      <trkpt lat="45.90694" lon="4.81588">
        <ele>178</ele>
        <time>2017-10-15T09:21:39Z</time>
      </trkpt>
      <trkpt lat="45.90703" lon="4.81588">
        <ele>178</ele>
        <time>2017-10-15T09:21:40Z</time>
      </trkpt>
      <trkpt lat="45.90712" lon="4.81588">
        <ele>178</ele>
        <time>2017-10-15T09:21:41Z</time>
      </trkpt>
      <trkpt lat="45.90721" lon="4.81587">
        <ele>177</ele>
        <time>2017-10-15T09:21:42Z</time>
      </trkpt>
      <trkpt lat="45.90731" lon="4.81587">
        <ele>176</ele>
        <time>2017-10-15T09:21:43Z</time>
      </trkpt>
      <trkpt lat="45.90741" lon="4.81586">
        <ele>175</ele>
        <time>2017-10-15T09:21:44Z</time>
      </trkpt>
      <trkpt lat="45.90751" lon="4.81586">
        <ele>174</ele>
        <time>2017-10-15T09:21:45Z</time>
      </trkpt>
      <trkpt lat="45.9076" lon="4.81586">
        <ele>174</ele>
        <time>2017-10-15T09:21:46Z</time>
      </trkpt>
      <trkpt lat="45.90771" lon="4.81586">
        <ele>175</ele>
        <time>2017-10-15T09:21:47Z</time>
      </trkpt>
      <trkpt lat="45.90781" lon="4.81587">
        <ele>175</ele>
        <time>2017-10-15T09:21:48Z</time>
      </trkpt>
      <trkpt lat="45.90791" lon="4.81587">
        <ele>175</ele>
        <time>2017-10-15T09:21:49Z</time>
      </trkpt>
      <trkpt lat="45.90801" lon="4.81587">
        <ele>174</ele>
        <time>2017-10-15T09:21:50Z</time>
      </trkpt>
      <trkpt lat="45.90811" lon="4.81587">
        <ele>174</ele>
        <time>2017-10-15T09:21:51Z</time>
      </trkpt>
      <trkpt lat="45.9082" lon="4.81587">
        <ele>174</ele>
        <time>2017-10-15T09:21:52Z</time>
      </trkpt>
      <trkpt lat="45.9083" lon="4.81587">
        <ele>173</ele>
        <time>2017-10-15T09:21:53Z</time>
      </trkpt>
      <trkpt lat="45.90841" lon="4.81587">
        <ele>173</ele>
        <time>2017-10-15T09:21:54Z</time>
      </trkpt>
      <trkpt lat="45.9085" lon="4.81587">
        <ele>172</ele>
        <time>2017-10-15T09:21:55Z</time>
      </trkpt>
      <trkpt lat="45.90859" lon="4.81587">
        <ele>172</ele>
        <time>2017-10-15T09:21:56Z</time>
      </trkpt>
      <trkpt lat="45.90869" lon="4.81587">
        <ele>172</ele>
        <time>2017-10-15T09:21:57Z</time>
      </trkpt>
      <trkpt lat="45.90878" lon="4.81587">
        <ele>172</ele>
        <time>2017-10-15T09:21:58Z</time>
      </trkpt>
      <trkpt lat="45.90887" lon="4.81587">
        <ele>171</ele>
        <time>2017-10-15T09:21:59Z</time>
      </trkpt>
      <trkpt lat="45.90895" lon="4.81587">
        <ele>171</ele>
        <time>2017-10-15T09:22:00Z</time>
      </trkpt>
      <trkpt lat="45.90903" lon="4.81588">
        <ele>171</ele>
        <time>2017-10-15T09:22:01Z</time>
      </trkpt>
      <trkpt lat="45.90912" lon="4.81588">
        <ele>170</ele>
        <time>2017-10-15T09:22:02Z</time>
      </trkpt>
      <trkpt lat="45.9092" lon="4.81588">
        <ele>170</ele>
        <time>2017-10-15T09:22:03Z</time>
      </trkpt>
      <trkpt lat="45.90927" lon="4.81589">
        <ele>170</ele>
        <time>2017-10-15T09:22:04Z</time>
      </trkpt>
      <trkpt lat="45.90934" lon="4.8159">
        <ele>170</ele>
        <time>2017-10-15T09:22:05Z</time>
      </trkpt>
      <trkpt lat="45.90941" lon="4.81591">
        <ele>170</ele>
        <time>2017-10-15T09:22:06Z</time>
      </trkpt>
      <trkpt lat="45.90949" lon="4.81592">
        <ele>169</ele>
        <time>2017-10-15T09:22:07Z</time>
      </trkpt>
      <trkpt lat="45.90956" lon="4.81593">
        <ele>169</ele>
        <time>2017-10-15T09:22:08Z</time>
      </trkpt>
      <trkpt lat="45.90963" lon="4.81594">
        <ele>169</ele>
        <time>2017-10-15T09:22:09Z</time>
      </trkpt>
      <trkpt lat="45.9097" lon="4.81595">
        <ele>169</ele>
        <time>2017-10-15T09:22:10Z</time>
      </trkpt>
      <trkpt lat="45.90977" lon="4.81596">
        <ele>169</ele>
        <time>2017-10-15T09:22:11Z</time>
      </trkpt>
      <trkpt lat="45.90984" lon="4.81597">
        <ele>169</ele>
        <time>2017-10-15T09:22:12Z</time>
      </trkpt>
      <trkpt lat="45.9099" lon="4.81597">
        <ele>169</ele>
        <time>2017-10-15T09:22:13Z</time>
      </trkpt>
      <trkpt lat="45.90997" lon="4.81599">
        <ele>169</ele>
        <time>2017-10-15T09:22:14Z</time>
      </trkpt>
      <trkpt lat="45.91005" lon="4.816">
        <ele>169</ele>
        <time>2017-10-15T09:22:15Z</time>
      </trkpt>
      <trkpt lat="45.91011" lon="4.81601">
        <ele>169</ele>
        <time>2017-10-15T09:22:16Z</time>
      </trkpt>
      <trkpt lat="45.91019" lon="4.81602">
        <ele>169</ele>
        <time>2017-10-15T09:22:17Z</time>
      </trkpt>
      <trkpt lat="45.91026" lon="4.81604">
        <ele>169</ele>
        <time>2017-10-15T09:22:18Z</time>
      </trkpt>
      <trkpt lat="45.91033" lon="4.81604">
        <ele>169</ele>
        <time>2017-10-15T09:22:19Z</time>
      </trkpt>
      <trkpt lat="45.9104" lon="4.81606">
        <ele>169</ele>
        <time>2017-10-15T09:22:20Z</time>
      </trkpt>
      <trkpt lat="45.91046" lon="4.81607">
        <ele>169</ele>
        <time>2017-10-15T09:22:21Z</time>
      </trkpt>
      <trkpt lat="45.91053" lon="4.81607">
        <ele>169</ele>
        <time>2017-10-15T09:22:22Z</time>
      </trkpt>
      <trkpt lat="45.91059" lon="4.81608">
        <ele>169</ele>
        <time>2017-10-15T09:22:23Z</time>
      </trkpt>
      <trkpt lat="45.91064" lon="4.81609">
        <ele>169</ele>
        <time>2017-10-15T09:22:24Z</time>
      </trkpt>
      <trkpt lat="45.91071" lon="4.81609">
        <ele>169</ele>
        <time>2017-10-15T09:22:25Z</time>
      </trkpt>
      <trkpt lat="45.91077" lon="4.81609">
        <ele>169</ele>
        <time>2017-10-15T09:22:26Z</time>
      </trkpt>
      <trkpt lat="45.91083" lon="4.81609">
        <ele>169</ele>
        <time>2017-10-15T09:22:27Z</time>
      </trkpt>
      <trkpt lat="45.91089" lon="4.8161">
        <ele>169</ele>
        <time>2017-10-15T09:22:28Z</time>
      </trkpt>
      <trkpt lat="45.91096" lon="4.8161">
        <ele>169</ele>
        <time>2017-10-15T09:22:29Z</time>
      </trkpt>
      <trkpt lat="45.91103" lon="4.81611">
        <ele>170</ele>
        <time>2017-10-15T09:22:30Z</time>
      </trkpt>
      <trkpt lat="45.91109" lon="4.81611">
        <ele>170</ele>
        <time>2017-10-15T09:22:31Z</time>
      </trkpt>
      <trkpt lat="45.91115" lon="4.81611">
        <ele>170</ele>
        <time>2017-10-15T09:22:32Z</time>
      </trkpt>
      <trkpt lat="45.91123" lon="4.81611">
        <ele>170</ele>
        <time>2017-10-15T09:22:33Z</time>
      </trkpt>
      <trkpt lat="45.91129" lon="4.81612">
        <ele>170</ele>
        <time>2017-10-15T09:22:34Z</time>
      </trkpt>
      <trkpt lat="45.91136" lon="4.81612">
        <ele>170</ele>
        <time>2017-10-15T09:22:35Z</time>
      </trkpt>
      <trkpt lat="45.91142" lon="4.81611">
        <ele>170</ele>
        <time>2017-10-15T09:22:36Z</time>
      </trkpt>
      <trkpt lat="45.91148" lon="4.81611">
        <ele>170</ele>
        <time>2017-10-15T09:22:37Z</time>
      </trkpt>
      <trkpt lat="45.91154" lon="4.81612">
        <ele>170</ele>
        <time>2017-10-15T09:22:38Z</time>
      </trkpt>
      <trkpt lat="45.9116" lon="4.81612">
        <ele>170</ele>
        <time>2017-10-15T09:22:39Z</time>
      </trkpt>
      <trkpt lat="45.91167" lon="4.81612">
        <ele>170</ele>
        <time>2017-10-15T09:22:40Z</time>
      </trkpt>
      <trkpt lat="45.91174" lon="4.81613">
        <ele>170</ele>
        <time>2017-10-15T09:22:41Z</time>
      </trkpt>
      <trkpt lat="45.9118" lon="4.81613">
        <ele>170</ele>
        <time>2017-10-15T09:22:42Z</time>
      </trkpt>
      <trkpt lat="45.91187" lon="4.81612">
        <ele>170</ele>
        <time>2017-10-15T09:22:43Z</time>
      </trkpt>
      <trkpt lat="45.91195" lon="4.81613">
        <ele>170</ele>
        <time>2017-10-15T09:22:44Z</time>
      </trkpt>
      <trkpt lat="45.91202" lon="4.81613">
        <ele>170</ele>
        <time>2017-10-15T09:22:45Z</time>
      </trkpt>
      <trkpt lat="45.91209" lon="4.81613">
        <ele>170</ele>
        <time>2017-10-15T09:22:46Z</time>
      </trkpt>
      <trkpt lat="45.91216" lon="4.81613">
        <ele>170</ele>
        <time>2017-10-15T09:22:47Z</time>
      </trkpt>
      <trkpt lat="45.91223" lon="4.81614">
        <ele>170</ele>
        <time>2017-10-15T09:22:48Z</time>
      </trkpt>
      <trkpt lat="45.91231" lon="4.81614">
        <ele>170</ele>
        <time>2017-10-15T09:22:49Z</time>
      </trkpt>
      <trkpt lat="45.91237" lon="4.81615">
        <ele>170</ele>
        <time>2017-10-15T09:22:50Z</time>
      </trkpt>
      <trkpt lat="45.91244" lon="4.81614">
        <ele>170</ele>
        <time>2017-10-15T09:22:51Z</time>
      </trkpt>
      <trkpt lat="45.9125" lon="4.81614">
        <ele>170</ele>
        <time>2017-10-15T09:22:52Z</time>
      </trkpt>
      <trkpt lat="45.91256" lon="4.81614">
        <ele>170</ele>
        <time>2017-10-15T09:22:53Z</time>
      </trkpt>
      <trkpt lat="45.91262" lon="4.81613">
        <ele>170</ele>
        <time>2017-10-15T09:22:54Z</time>
      </trkpt>
      <trkpt lat="45.91268" lon="4.81614">
        <ele>170</ele>
        <time>2017-10-15T09:22:55Z</time>
      </trkpt>
      <trkpt lat="45.91274" lon="4.81613">
        <ele>170</ele>
        <time>2017-10-15T09:22:56Z</time>
      </trkpt>
      <trkpt lat="45.9128" lon="4.81613">
        <ele>170</ele>
        <time>2017-10-15T09:22:57Z</time>
      </trkpt>
      <trkpt lat="45.91285" lon="4.81614">
        <ele>170</ele>
        <time>2017-10-15T09:22:58Z</time>
      </trkpt>
      <trkpt lat="45.91291" lon="4.81613">
        <ele>170</ele>
        <time>2017-10-15T09:22:59Z</time>
      </trkpt>
      <trkpt lat="45.91296" lon="4.81614">
        <ele>170</ele>
        <time>2017-10-15T09:23:00Z</time>
      </trkpt>
      <trkpt lat="45.91303" lon="4.81615">
        <ele>170</ele>
        <time>2017-10-15T09:23:01Z</time>
      </trkpt>
      <trkpt lat="45.91308" lon="4.81614">
        <ele>170</ele>
        <time>2017-10-15T09:23:02Z</time>
      </trkpt>
      <trkpt lat="45.91315" lon="4.81614">
        <ele>170</ele>
        <time>2017-10-15T09:23:03Z</time>
      </trkpt>
      <trkpt lat="45.91322" lon="4.81614">
        <ele>170</ele>
        <time>2017-10-15T09:23:04Z</time>
      </trkpt>
      <trkpt lat="45.91329" lon="4.81614">
        <ele>170</ele>
        <time>2017-10-15T09:23:05Z</time>
      </trkpt>
      <trkpt lat="45.91336" lon="4.81614">
        <ele>170</ele>
        <time>2017-10-15T09:23:06Z</time>
      </trkpt>
      <trkpt lat="45.91343" lon="4.81613">
        <ele>170</ele>
        <time>2017-10-15T09:23:07Z</time>
      </trkpt>
      <trkpt lat="45.91351" lon="4.81613">
        <ele>170</ele>
        <time>2017-10-15T09:23:08Z</time>
      </trkpt>
      <trkpt lat="45.91358" lon="4.81613">
        <ele>170</ele>
        <time>2017-10-15T09:23:09Z</time>
      </trkpt>
      <trkpt lat="45.91366" lon="4.81612">
        <ele>170</ele>
        <time>2017-10-15T09:23:10Z</time>
      </trkpt>
      <trkpt lat="45.91373" lon="4.81611">
        <ele>170</ele>
        <time>2017-10-15T09:23:11Z</time>
      </trkpt>
      <trkpt lat="45.9138" lon="4.81611">
        <ele>170</ele>
        <time>2017-10-15T09:23:12Z</time>
      </trkpt>
      <trkpt lat="45.91387" lon="4.8161">
        <ele>170</ele>
        <time>2017-10-15T09:23:13Z</time>
      </trkpt>
      <trkpt lat="45.91394" lon="4.81609">
        <ele>170</ele>
        <time>2017-10-15T09:23:14Z</time>
      </trkpt>
      <trkpt lat="45.91401" lon="4.81609">
        <ele>170</ele>
        <time>2017-10-15T09:23:15Z</time>
      </trkpt>
      <trkpt lat="45.91407" lon="4.81609">
        <ele>170</ele>
        <time>2017-10-15T09:23:16Z</time>
      </trkpt>
      <trkpt lat="45.91414" lon="4.81609">
        <ele>169</ele>
        <time>2017-10-15T09:23:17Z</time>
      </trkpt>
      <trkpt lat="45.9142" lon="4.81607">
        <ele>169</ele>
        <time>2017-10-15T09:23:18Z</time>
      </trkpt>
      <trkpt lat="45.91426" lon="4.81607">
        <ele>169</ele>
        <time>2017-10-15T09:23:19Z</time>
      </trkpt>
      <trkpt lat="45.91433" lon="4.81606">
        <ele>169</ele>
        <time>2017-10-15T09:23:20Z</time>
      </trkpt>
      <trkpt lat="45.91439" lon="4.81605">
        <ele>170</ele>
        <time>2017-10-15T09:23:21Z</time>
      </trkpt>
      <trkpt lat="45.91445" lon="4.81605">
        <ele>170</ele>
        <time>2017-10-15T09:23:22Z</time>
      </trkpt>
      <trkpt lat="45.9145" lon="4.81605">
        <ele>170</ele>
        <time>2017-10-15T09:23:23Z</time>
      </trkpt>
      <trkpt lat="45.91456" lon="4.81604">
        <ele>170</ele>
        <time>2017-10-15T09:23:24Z</time>
      </trkpt>
      <trkpt lat="45.91462" lon="4.81604">
        <ele>170</ele>
        <time>2017-10-15T09:23:25Z</time>
      </trkpt>
      <trkpt lat="45.91469" lon="4.81603">
        <ele>170</ele>
        <time>2017-10-15T09:23:26Z</time>
      </trkpt>
      <trkpt lat="45.91475" lon="4.81603">
        <ele>170</ele>
        <time>2017-10-15T09:23:27Z</time>
      </trkpt>
      <trkpt lat="45.91482" lon="4.81602">
        <ele>170</ele>
        <time>2017-10-15T09:23:28Z</time>
      </trkpt>
      <trkpt lat="45.91488" lon="4.81601">
        <ele>169</ele>
        <time>2017-10-15T09:23:29Z</time>
      </trkpt>
      <trkpt lat="45.91495" lon="4.816">
        <ele>169</ele>
        <time>2017-10-15T09:23:30Z</time>
      </trkpt>
      <trkpt lat="45.91501" lon="4.81599">
        <ele>169</ele>
        <time>2017-10-15T09:23:31Z</time>
      </trkpt>
      <trkpt lat="45.91507" lon="4.81598">
        <ele>170</ele>
        <time>2017-10-15T09:23:32Z</time>
      </trkpt>
      <trkpt lat="45.91514" lon="4.81597">
        <ele>170</ele>
        <time>2017-10-15T09:23:33Z</time>
      </trkpt>
      <trkpt lat="45.91521" lon="4.81595">
        <ele>170</ele>
        <time>2017-10-15T09:23:34Z</time>
      </trkpt>
      <trkpt lat="45.91526" lon="4.81594">
        <ele>170</ele>
        <time>2017-10-15T09:23:35Z</time>
      </trkpt>
      <trkpt lat="45.91533" lon="4.81593">
        <ele>170</ele>
        <time>2017-10-15T09:23:36Z</time>
      </trkpt>
      <trkpt lat="45.91539" lon="4.81591">
        <ele>170</ele>
        <time>2017-10-15T09:23:37Z</time>
      </trkpt>
      <trkpt lat="45.91545" lon="4.8159">
        <ele>170</ele>
        <time>2017-10-15T09:23:38Z</time>
      </trkpt>
      <trkpt lat="45.91551" lon="4.8159">
        <ele>170</ele>
        <time>2017-10-15T09:23:39Z</time>
      </trkpt>
      <trkpt lat="45.91556" lon="4.8159">
        <ele>170</ele>
        <time>2017-10-15T09:23:40Z</time>
      </trkpt>
      <trkpt lat="45.91562" lon="4.81589">
        <ele>170</ele>
        <time>2017-10-15T09:23:41Z</time>
      </trkpt>
      <trkpt lat="45.91568" lon="4.81587">
        <ele>170</ele>
        <time>2017-10-15T09:23:42Z</time>
      </trkpt>
      <trkpt lat="45.91574" lon="4.81587">
        <ele>170</ele>
        <time>2017-10-15T09:23:43Z</time>
      </trkpt>
      <trkpt lat="45.91579" lon="4.81586">
        <ele>170</ele>
        <time>2017-10-15T09:23:44Z</time>
      </trkpt>
      <trkpt lat="45.91585" lon="4.81585">
        <ele>170</ele>
        <time>2017-10-15T09:23:45Z</time>
      </trkpt>
      <trkpt lat="45.91592" lon="4.81584">
        <ele>170</ele>
        <time>2017-10-15T09:23:46Z</time>
      </trkpt>
      <trkpt lat="45.91598" lon="4.81583">
        <ele>170</ele>
        <time>2017-10-15T09:23:47Z</time>
      </trkpt>
      <trkpt lat="45.91604" lon="4.81582">
        <ele>170</ele>
        <time>2017-10-15T09:23:48Z</time>
      </trkpt>
      <trkpt lat="45.91611" lon="4.81581">
        <ele>170</ele>
        <time>2017-10-15T09:23:49Z</time>
      </trkpt>
      <trkpt lat="45.91619" lon="4.81579">
        <ele>170</ele>
        <time>2017-10-15T09:23:50Z</time>
      </trkpt>
      <trkpt lat="45.91626" lon="4.81578">
        <ele>170</ele>
        <time>2017-10-15T09:23:51Z</time>
      </trkpt>
      <trkpt lat="45.91632" lon="4.81576">
        <ele>170</ele>
        <time>2017-10-15T09:23:52Z</time>
      </trkpt>
      <trkpt lat="45.91639" lon="4.81575">
        <ele>170</ele>
        <time>2017-10-15T09:23:53Z</time>
      </trkpt>
      <trkpt lat="45.91646" lon="4.81574">
        <ele>170</ele>
        <time>2017-10-15T09:23:54Z</time>
      </trkpt>
      <trkpt lat="45.91652" lon="4.81573">
        <ele>170</ele>
        <time>2017-10-15T09:23:55Z</time>
      </trkpt>
      <trkpt lat="45.91658" lon="4.81571">
        <ele>170</ele>
        <time>2017-10-15T09:23:56Z</time>
      </trkpt>
      <trkpt lat="45.91663" lon="4.8157">
        <ele>170</ele>
        <time>2017-10-15T09:23:57Z</time>
      </trkpt>
      <trkpt lat="45.9167" lon="4.81569">
        <ele>170</ele>
        <time>2017-10-15T09:23:58Z</time>
      </trkpt>
      <trkpt lat="45.91676" lon="4.81568">
        <ele>170</ele>
        <time>2017-10-15T09:23:59Z</time>
      </trkpt>
      <trkpt lat="45.91681" lon="4.81566">
        <ele>170</ele>
        <time>2017-10-15T09:24:00Z</time>
      </trkpt>
      <trkpt lat="45.91687" lon="4.81566">
        <ele>169</ele>
        <time>2017-10-15T09:24:01Z</time>
      </trkpt>
      <trkpt lat="45.91692" lon="4.81564">
        <ele>169</ele>
        <time>2017-10-15T09:24:02Z</time>
      </trkpt>
      <trkpt lat="45.91697" lon="4.81563">
        <ele>169</ele>
        <time>2017-10-15T09:24:03Z</time>
      </trkpt>
      <trkpt lat="45.91702" lon="4.81562">
        <ele>169</ele>
        <time>2017-10-15T09:24:04Z</time>
      </trkpt>
      <trkpt lat="45.91708" lon="4.8156">
        <ele>169</ele>
        <time>2017-10-15T09:24:05Z</time>
      </trkpt>
      <trkpt lat="45.91712" lon="4.81559">
        <ele>169</ele>
        <time>2017-10-15T09:24:06Z</time>
      </trkpt>
      <trkpt lat="45.91717" lon="4.81559">
        <ele>169</ele>
        <time>2017-10-15T09:24:07Z</time>
      </trkpt>
      <trkpt lat="45.91722" lon="4.81556">
        <ele>169</ele>
        <time>2017-10-15T09:24:08Z</time>
      </trkpt>
      <trkpt lat="45.91728" lon="4.81555">
        <ele>169</ele>
        <time>2017-10-15T09:24:09Z</time>
      </trkpt>
      <trkpt lat="45.91735" lon="4.81553">
        <ele>169</ele>
        <time>2017-10-15T09:24:10Z</time>
      </trkpt>
      <trkpt lat="45.91741" lon="4.81552">
        <ele>169</ele>
        <time>2017-10-15T09:24:11Z</time>
      </trkpt>
      <trkpt lat="45.91748" lon="4.81551">
        <ele>169</ele>
        <time>2017-10-15T09:24:12Z</time>
      </trkpt>
      <trkpt lat="45.91754" lon="4.81549">
        <ele>168</ele>
        <time>2017-10-15T09:24:13Z</time>
      </trkpt>
      <trkpt lat="45.9176" lon="4.81546">
        <ele>168</ele>
        <time>2017-10-15T09:24:14Z</time>
      </trkpt>
      <trkpt lat="45.91766" lon="4.81544">
        <ele>168</ele>
        <time>2017-10-15T09:24:15Z</time>
      </trkpt>
      <trkpt lat="45.91772" lon="4.81542">
        <ele>168</ele>
        <time>2017-10-15T09:24:16Z</time>
      </trkpt>
      <trkpt lat="45.91778" lon="4.8154">
        <ele>169</ele>
        <time>2017-10-15T09:24:17Z</time>
      </trkpt>
      <trkpt lat="45.91783" lon="4.81539">
        <ele>169</ele>
        <time>2017-10-15T09:24:18Z</time>
      </trkpt>
      <trkpt lat="45.91789" lon="4.81537">
        <ele>169</ele>
        <time>2017-10-15T09:24:19Z</time>
      </trkpt>
      <trkpt lat="45.91794" lon="4.81536">
        <ele>168</ele>
        <time>2017-10-15T09:24:20Z</time>
      </trkpt>
      <trkpt lat="45.91801" lon="4.81534">
        <ele>168</ele>
        <time>2017-10-15T09:24:21Z</time>
      </trkpt>
      <trkpt lat="45.91807" lon="4.81532">
        <ele>168</ele>
        <time>2017-10-15T09:24:22Z</time>
      </trkpt>
      <trkpt lat="45.91813" lon="4.8153">
        <ele>168</ele>
        <time>2017-10-15T09:24:23Z</time>
      </trkpt>
      <trkpt lat="45.9182" lon="4.81527">
        <ele>168</ele>
        <time>2017-10-15T09:24:24Z</time>
      </trkpt>
      <trkpt lat="45.91827" lon="4.81525">
        <ele>168</ele>
        <time>2017-10-15T09:24:25Z</time>
      </trkpt>
      <trkpt lat="45.91833" lon="4.81523">
        <ele>168</ele>
        <time>2017-10-15T09:24:26Z</time>
      </trkpt>
      <trkpt lat="45.91839" lon="4.8152">
        <ele>169</ele>
        <time>2017-10-15T09:24:27Z</time>
      </trkpt>
      <trkpt lat="45.91846" lon="4.81519">
        <ele>169</ele>
        <time>2017-10-15T09:24:28Z</time>
      </trkpt>
      <trkpt lat="45.91852" lon="4.81516">
        <ele>169</ele>
        <time>2017-10-15T09:24:29Z</time>
      </trkpt>
      <trkpt lat="45.91858" lon="4.81514">
        <ele>169</ele>
        <time>2017-10-15T09:24:30Z</time>
      </trkpt>
      <trkpt lat="45.91863" lon="4.81511">
        <ele>169</ele>
        <time>2017-10-15T09:24:31Z</time>
      </trkpt>
      <trkpt lat="45.91869" lon="4.81509">
        <ele>169</ele>
        <time>2017-10-15T09:24:32Z</time>
      </trkpt>
      <trkpt lat="45.91874" lon="4.81508">
        <ele>169</ele>
        <time>2017-10-15T09:24:33Z</time>
      </trkpt>
      <trkpt lat="45.9188" lon="4.81505">
        <ele>169</ele>
        <time>2017-10-15T09:24:34Z</time>
      </trkpt>
      <trkpt lat="45.91885" lon="4.81502">
        <ele>169</ele>
        <time>2017-10-15T09:24:35Z</time>
      </trkpt>
      <trkpt lat="45.91889" lon="4.81501">
        <ele>169</ele>
        <time>2017-10-15T09:24:36Z</time>
      </trkpt>
      <trkpt lat="45.91894" lon="4.81499">
        <ele>169</ele>
        <time>2017-10-15T09:24:37Z</time>
      </trkpt>
      <trkpt lat="45.91899" lon="4.81497">
        <ele>169</ele>
        <time>2017-10-15T09:24:38Z</time>
      </trkpt>
      <trkpt lat="45.91905" lon="4.81494">
        <ele>169</ele>
        <time>2017-10-15T09:24:39Z</time>
      </trkpt>
      <trkpt lat="45.91911" lon="4.81492">
        <ele>170</ele>
        <time>2017-10-15T09:24:40Z</time>
      </trkpt>
      <trkpt lat="45.91917" lon="4.8149">
        <ele>170</ele>
        <time>2017-10-15T09:24:41Z</time>
      </trkpt>
      <trkpt lat="45.91923" lon="4.81488">
        <ele>170</ele>
        <time>2017-10-15T09:24:42Z</time>
      </trkpt>
      <trkpt lat="45.9193" lon="4.81485">
        <ele>170</ele>
        <time>2017-10-15T09:24:43Z</time>
      </trkpt>
      <trkpt lat="45.91936" lon="4.81483">
        <ele>170</ele>
        <time>2017-10-15T09:24:44Z</time>
      </trkpt>
      <trkpt lat="45.91944" lon="4.8148">
        <ele>170</ele>
        <time>2017-10-15T09:24:45Z</time>
      </trkpt>
      <trkpt lat="45.9195" lon="4.81478">
        <ele>170</ele>
        <time>2017-10-15T09:24:46Z</time>
      </trkpt>
      <trkpt lat="45.91956" lon="4.81475">
        <ele>170</ele>
        <time>2017-10-15T09:24:47Z</time>
      </trkpt>
      <trkpt lat="45.91963" lon="4.81473">
        <ele>170</ele>
        <time>2017-10-15T09:24:48Z</time>
      </trkpt>
      <trkpt lat="45.9197" lon="4.8147">
        <ele>170</ele>
        <time>2017-10-15T09:24:49Z</time>
      </trkpt>
      <trkpt lat="45.91976" lon="4.81468">
        <ele>170</ele>
        <time>2017-10-15T09:24:50Z</time>
      </trkpt>
      <trkpt lat="45.91983" lon="4.81466">
        <ele>170</ele>
        <time>2017-10-15T09:24:51Z</time>
      </trkpt>
      <trkpt lat="45.91988" lon="4.81463">
        <ele>170</ele>
        <time>2017-10-15T09:24:52Z</time>
      </trkpt>
      <trkpt lat="45.91994" lon="4.81461">
        <ele>170</ele>
        <time>2017-10-15T09:24:53Z</time>
      </trkpt>
      <trkpt lat="45.91999" lon="4.81458">
        <ele>170</ele>
        <time>2017-10-15T09:24:54Z</time>
      </trkpt>
      <trkpt lat="45.92004" lon="4.81456">
        <ele>170</ele>
        <time>2017-10-15T09:24:55Z</time>
      </trkpt>
      <trkpt lat="45.92009" lon="4.81453">
        <ele>170</ele>
        <time>2017-10-15T09:24:56Z</time>
      </trkpt>
      <trkpt lat="45.92014" lon="4.81451">
        <ele>170</ele>
        <time>2017-10-15T09:24:57Z</time>
      </trkpt>
      <trkpt lat="45.92019" lon="4.81448">
        <ele>170</ele>
        <time>2017-10-15T09:24:58Z</time>
      </trkpt>
      <trkpt lat="45.92024" lon="4.81446">
        <ele>170</ele>
        <time>2017-10-15T09:24:59Z</time>
      </trkpt>
      <trkpt lat="45.92029" lon="4.81444">
        <ele>170</ele>
        <time>2017-10-15T09:25:00Z</time>
      </trkpt>
      <trkpt lat="45.92033" lon="4.81441">
        <ele>170</ele>
        <time>2017-10-15T09:25:01Z</time>
      </trkpt>
      <trkpt lat="45.92038" lon="4.81437">
        <ele>170</ele>
        <time>2017-10-15T09:25:02Z</time>
      </trkpt>
      <trkpt lat="45.92044" lon="4.81434">
        <ele>170</ele>
        <time>2017-10-15T09:25:03Z</time>
      </trkpt>
      <trkpt lat="45.92049" lon="4.8143">
        <ele>170</ele>
        <time>2017-10-15T09:25:04Z</time>
      </trkpt>
      <trkpt lat="45.92054" lon="4.81427">
        <ele>170</ele>
        <time>2017-10-15T09:25:05Z</time>
      </trkpt>
      <trkpt lat="45.92059" lon="4.81423">
        <ele>170</ele>
        <time>2017-10-15T09:25:06Z</time>
      </trkpt>
      <trkpt lat="45.92065" lon="4.81419">
        <ele>170</ele>
        <time>2017-10-15T09:25:07Z</time>
      </trkpt>
      <trkpt lat="45.9207" lon="4.81415">
        <ele>170</ele>
        <time>2017-10-15T09:25:08Z</time>
      </trkpt>
      <trkpt lat="45.92076" lon="4.81412">
        <ele>170</ele>
        <time>2017-10-15T09:25:09Z</time>
      </trkpt>
      <trkpt lat="45.92082" lon="4.81408">
        <ele>170</ele>
        <time>2017-10-15T09:25:10Z</time>
      </trkpt>
      <trkpt lat="45.92088" lon="4.81405">
        <ele>170</ele>
        <time>2017-10-15T09:25:11Z</time>
      </trkpt>
      <trkpt lat="45.92094" lon="4.81402">
        <ele>170</ele>
        <time>2017-10-15T09:25:12Z</time>
      </trkpt>
      <trkpt lat="45.921" lon="4.814">
        <ele>170</ele>
        <time>2017-10-15T09:25:13Z</time>
      </trkpt>
      <trkpt lat="45.92106" lon="4.81397">
        <ele>170</ele>
        <time>2017-10-15T09:25:14Z</time>
      </trkpt>
      <trkpt lat="45.92111" lon="4.81396">
        <ele>170</ele>
        <time>2017-10-15T09:25:15Z</time>
      </trkpt>
      <trkpt lat="45.92116" lon="4.81394">
        <ele>170</ele>
        <time>2017-10-15T09:25:16Z</time>
      </trkpt>
      <trkpt lat="45.92122" lon="4.81393">
        <ele>170</ele>
        <time>2017-10-15T09:25:17Z</time>
      </trkpt>
      <trkpt lat="45.92129" lon="4.81391">
        <ele>170</ele>
        <time>2017-10-15T09:25:18Z</time>
      </trkpt>
      <trkpt lat="45.92134" lon="4.81391">
        <ele>170</ele>
        <time>2017-10-15T09:25:19Z</time>
      </trkpt>
      <trkpt lat="45.92138" lon="4.81391">
        <ele>170</ele>
        <time>2017-10-15T09:25:20Z</time>
      </trkpt>
      <trkpt lat="45.92143" lon="4.81389">
        <ele>170</ele>
        <time>2017-10-15T09:25:21Z</time>
      </trkpt>
      <trkpt lat="45.92148" lon="4.81388">
        <ele>170</ele>
        <time>2017-10-15T09:25:22Z</time>
      </trkpt>
      <trkpt lat="45.92153" lon="4.81388">
        <ele>170</ele>
        <time>2017-10-15T09:25:23Z</time>
      </trkpt>
      <trkpt lat="45.92161" lon="4.81389">
        <ele>170</ele>
        <time>2017-10-15T09:25:25Z</time>
      </trkpt>
      <trkpt lat="45.92166" lon="4.81392">
        <ele>170</ele>
        <time>2017-10-15T09:25:26Z</time>
      </trkpt>
      <trkpt lat="45.92171" lon="4.81394">
        <ele>170</ele>
        <time>2017-10-15T09:25:27Z</time>
      </trkpt>
      <trkpt lat="45.92176" lon="4.81396">
        <ele>170</ele>
        <time>2017-10-15T09:25:28Z</time>
      </trkpt>
      <trkpt lat="45.92181" lon="4.81395">
        <ele>170</ele>
        <time>2017-10-15T09:25:29Z</time>
      </trkpt>
      <trkpt lat="45.92188" lon="4.81394">
        <ele>170</ele>
        <time>2017-10-15T09:25:30Z</time>
      </trkpt>
      <trkpt lat="45.92193" lon="4.8139">
        <ele>170</ele>
        <time>2017-10-15T09:25:31Z</time>
      </trkpt>
      <trkpt lat="45.92197" lon="4.81383">
        <ele>170</ele>
        <time>2017-10-15T09:25:32Z</time>
      </trkpt>
      <trkpt lat="45.922" lon="4.81374">
        <ele>170</ele>
        <time>2017-10-15T09:25:33Z</time>
      </trkpt>
      <trkpt lat="45.92203" lon="4.81366">
        <ele>170</ele>
        <time>2017-10-15T09:25:34Z</time>
      </trkpt>
      <trkpt lat="45.92206" lon="4.81357">
        <ele>170</ele>
        <time>2017-10-15T09:25:35Z</time>
      </trkpt>
      <trkpt lat="45.92211" lon="4.81349">
        <ele>171</ele>
        <time>2017-10-15T09:25:36Z</time>
      </trkpt>
      <trkpt lat="45.92218" lon="4.81343">
        <ele>171</ele>
        <time>2017-10-15T09:25:37Z</time>
      </trkpt>
      <trkpt lat="45.92223" lon="4.81336">
        <ele>171</ele>
        <time>2017-10-15T09:25:38Z</time>
      </trkpt>
      <trkpt lat="45.92228" lon="4.81331">
        <ele>171</ele>
        <time>2017-10-15T09:25:39Z</time>
      </trkpt>
      <trkpt lat="45.92234" lon="4.81325">
        <ele>171</ele>
        <time>2017-10-15T09:25:40Z</time>
      </trkpt>
      <trkpt lat="45.9224" lon="4.81319">
        <ele>171</ele>
        <time>2017-10-15T09:25:41Z</time>
      </trkpt>
      <trkpt lat="45.92245" lon="4.81315">
        <ele>171</ele>
        <time>2017-10-15T09:25:42Z</time>
      </trkpt>
      <trkpt lat="45.92251" lon="4.8131">
        <ele>171</ele>
        <time>2017-10-15T09:25:43Z</time>
      </trkpt>
      <trkpt lat="45.92257" lon="4.81306">
        <ele>171</ele>
        <time>2017-10-15T09:25:44Z</time>
      </trkpt>
      <trkpt lat="45.92264" lon="4.81303">
        <ele>171</ele>
        <time>2017-10-15T09:25:45Z</time>
      </trkpt>
      <trkpt lat="45.92269" lon="4.81299">
        <ele>170</ele>
        <time>2017-10-15T09:25:46Z</time>
      </trkpt>
      <trkpt lat="45.92273" lon="4.81295">
        <ele>170</ele>
        <time>2017-10-15T09:25:47Z</time>
      </trkpt>
      <trkpt lat="45.92279" lon="4.81291">
        <ele>170</ele>
        <time>2017-10-15T09:25:48Z</time>
      </trkpt>
      <trkpt lat="45.92285" lon="4.81289">
        <ele>170</ele>
        <time>2017-10-15T09:25:49Z</time>
      </trkpt>
      <trkpt lat="45.92291" lon="4.81286">
        <ele>170</ele>
        <time>2017-10-15T09:25:50Z</time>
      </trkpt>
      <trkpt lat="45.92297" lon="4.81281">
        <ele>170</ele>
        <time>2017-10-15T09:25:51Z</time>
      </trkpt>
      <trkpt lat="45.92304" lon="4.81279">
        <ele>170</ele>
        <time>2017-10-15T09:25:52Z</time>
      </trkpt>
      <trkpt lat="45.92311" lon="4.81274">
        <ele>170</ele>
        <time>2017-10-15T09:25:53Z</time>
      </trkpt>
      <trkpt lat="45.92317" lon="4.81268">
        <ele>170</ele>
        <time>2017-10-15T09:25:54Z</time>
      </trkpt>
      <trkpt lat="45.92324" lon="4.81264">
        <ele>170</ele>
        <time>2017-10-15T09:25:55Z</time>
      </trkpt>
      <trkpt lat="45.92331" lon="4.81261">
        <ele>169</ele>
        <time>2017-10-15T09:25:56Z</time>
      </trkpt>
      <trkpt lat="45.92337" lon="4.81255">
        <ele>169</ele>
        <time>2017-10-15T09:25:57Z</time>
      </trkpt>
      <trkpt lat="45.92344" lon="4.8125">
        <ele>169</ele>
        <time>2017-10-15T09:25:58Z</time>
      </trkpt>
      <trkpt lat="45.9235" lon="4.81246">
        <ele>169</ele>
        <time>2017-10-15T09:25:59Z</time>
      </trkpt>
      <trkpt lat="45.92357" lon="4.81242">
        <ele>169</ele>
        <time>2017-10-15T09:26:00Z</time>
      </trkpt>
      <trkpt lat="45.92363" lon="4.81238">
        <ele>170</ele>
        <time>2017-10-15T09:26:01Z</time>
      </trkpt>
      <trkpt lat="45.9237" lon="4.81234">
        <ele>170</ele>
        <time>2017-10-15T09:26:02Z</time>
      </trkpt>
      <trkpt lat="45.92377" lon="4.81231">
        <ele>170</ele>
        <time>2017-10-15T09:26:03Z</time>
      </trkpt>
      <trkpt lat="45.92383" lon="4.81226">
        <ele>170</ele>
        <time>2017-10-15T09:26:04Z</time>
      </trkpt>
      <trkpt lat="45.92389" lon="4.81223">
        <ele>170</ele>
        <time>2017-10-15T09:26:05Z</time>
      </trkpt>
      <trkpt lat="45.92395" lon="4.8122">
        <ele>170</ele>
        <time>2017-10-15T09:26:06Z</time>
      </trkpt>
      <trkpt lat="45.924" lon="4.81216">
        <ele>170</ele>
        <time>2017-10-15T09:26:07Z</time>
      </trkpt>
      <trkpt lat="45.92407" lon="4.81212">
        <ele>170</ele>
        <time>2017-10-15T09:26:08Z</time>
      </trkpt>
      <trkpt lat="45.92414" lon="4.81209">
        <ele>170</ele>
        <time>2017-10-15T09:26:09Z</time>
      </trkpt>
      <trkpt lat="45.92421" lon="4.81207">
        <ele>171</ele>
        <time>2017-10-15T09:26:10Z</time>
      </trkpt>
      <trkpt lat="45.92428" lon="4.81205">
        <ele>171</ele>
        <time>2017-10-15T09:26:11Z</time>
      </trkpt>
      <trkpt lat="45.92436" lon="4.81203">
        <ele>171</ele>
        <time>2017-10-15T09:26:12Z</time>
      </trkpt>
      <trkpt lat="45.92443" lon="4.81202">
        <ele>171</ele>
        <time>2017-10-15T09:26:13Z</time>
      </trkpt>
      <trkpt lat="45.9245" lon="4.81202">
        <ele>171</ele>
        <time>2017-10-15T09:26:14Z</time>
      </trkpt>
      <trkpt lat="45.92458" lon="4.81201">
        <ele>171</ele>
        <time>2017-10-15T09:26:15Z</time>
      </trkpt>
      <trkpt lat="45.92465" lon="4.81201">
        <ele>171</ele>
        <time>2017-10-15T09:26:16Z</time>
      </trkpt>
      <trkpt lat="45.92472" lon="4.812">
        <ele>171</ele>
        <time>2017-10-15T09:26:17Z</time>
      </trkpt>
      <trkpt lat="45.92479" lon="4.812">
        <ele>171</ele>
        <time>2017-10-15T09:26:18Z</time>
      </trkpt>
      <trkpt lat="45.92486" lon="4.81198">
        <ele>171</ele>
        <time>2017-10-15T09:26:19Z</time>
      </trkpt>
      <trkpt lat="45.92493" lon="4.81198">
        <ele>171</ele>
        <time>2017-10-15T09:26:20Z</time>
      </trkpt>
      <trkpt lat="45.92499" lon="4.81197">
        <ele>171</ele>
        <time>2017-10-15T09:26:21Z</time>
      </trkpt>
      <trkpt lat="45.92505" lon="4.81196">
        <ele>171</ele>
        <time>2017-10-15T09:26:22Z</time>
      </trkpt>
      <trkpt lat="45.92512" lon="4.81196">
        <ele>171</ele>
        <time>2017-10-15T09:26:23Z</time>
      </trkpt>
      <trkpt lat="45.92519" lon="4.81196">
        <ele>171</ele>
        <time>2017-10-15T09:26:24Z</time>
      </trkpt>
      <trkpt lat="45.92526" lon="4.81194">
        <ele>171</ele>
        <time>2017-10-15T09:26:25Z</time>
      </trkpt>
      <trkpt lat="45.92532" lon="4.81193">
        <ele>171</ele>
        <time>2017-10-15T09:26:26Z</time>
      </trkpt>
      <trkpt lat="45.92539" lon="4.81194">
        <ele>171</ele>
        <time>2017-10-15T09:26:27Z</time>
      </trkpt>
      <trkpt lat="45.92546" lon="4.81194">
        <ele>170</ele>
        <time>2017-10-15T09:26:28Z</time>
      </trkpt>
      <trkpt lat="45.92553" lon="4.81193">
        <ele>170</ele>
        <time>2017-10-15T09:26:29Z</time>
      </trkpt>
      <trkpt lat="45.92559" lon="4.81193">
        <ele>170</ele>
        <time>2017-10-15T09:26:30Z</time>
      </trkpt>
      <trkpt lat="45.92566" lon="4.81193">
        <ele>170</ele>
        <time>2017-10-15T09:26:31Z</time>
      </trkpt>
      <trkpt lat="45.92572" lon="4.81193">
        <ele>170</ele>
        <time>2017-10-15T09:26:32Z</time>
      </trkpt>
      <trkpt lat="45.92577" lon="4.81192">
        <ele>170</ele>
        <time>2017-10-15T09:26:33Z</time>
      </trkpt>
      <trkpt lat="45.92582" lon="4.81192">
        <ele>170</ele>
        <time>2017-10-15T09:26:34Z</time>
      </trkpt>
      <trkpt lat="45.92588" lon="4.81191">
        <ele>170</ele>
        <time>2017-10-15T09:26:35Z</time>
      </trkpt>
      <trkpt lat="45.92594" lon="4.81191">
        <ele>170</ele>
        <time>2017-10-15T09:26:36Z</time>
      </trkpt>
      <trkpt lat="45.926" lon="4.81191">
        <ele>170</ele>
        <time>2017-10-15T09:26:37Z</time>
      </trkpt>
      <trkpt lat="45.92605" lon="4.81189">
        <ele>170</ele>
        <time>2017-10-15T09:26:38Z</time>
      </trkpt>
      <trkpt lat="45.9261" lon="4.81188">
        <ele>170</ele>
        <time>2017-10-15T09:26:39Z</time>
      </trkpt>
      <trkpt lat="45.92616" lon="4.81187">
        <ele>170</ele>
        <time>2017-10-15T09:26:40Z</time>
      </trkpt>
      <trkpt lat="45.92622" lon="4.81185">
        <ele>170</ele>
        <time>2017-10-15T09:26:41Z</time>
      </trkpt>
      <trkpt lat="45.92629" lon="4.81185">
        <ele>171</ele>
        <time>2017-10-15T09:26:42Z</time>
      </trkpt>
      <trkpt lat="45.92636" lon="4.81184">
        <ele>171</ele>
        <time>2017-10-15T09:26:43Z</time>
      </trkpt>
      <trkpt lat="45.92643" lon="4.81182">
        <ele>171</ele>
        <time>2017-10-15T09:26:44Z</time>
      </trkpt>
      <trkpt lat="45.92649" lon="4.81181">
        <ele>171</ele>
        <time>2017-10-15T09:26:45Z</time>
      </trkpt>
      <trkpt lat="45.92656" lon="4.8118">
        <ele>171</ele>
        <time>2017-10-15T09:26:46Z</time>
      </trkpt>
      <trkpt lat="45.92662" lon="4.81178">
        <ele>171</ele>
        <time>2017-10-15T09:26:47Z</time>
      </trkpt>
      <trkpt lat="45.92668" lon="4.81178">
        <ele>171</ele>
        <time>2017-10-15T09:26:48Z</time>
      </trkpt>
      <trkpt lat="45.92674" lon="4.81177">
        <ele>171</ele>
        <time>2017-10-15T09:26:49Z</time>
      </trkpt>
      <trkpt lat="45.92678" lon="4.81176">
        <ele>171</ele>
        <time>2017-10-15T09:26:50Z</time>
      </trkpt>
      <trkpt lat="45.92684" lon="4.81175">
        <ele>171</ele>
        <time>2017-10-15T09:26:51Z</time>
      </trkpt>
      <trkpt lat="45.9269" lon="4.81173">
        <ele>171</ele>
        <time>2017-10-15T09:26:52Z</time>
      </trkpt>
      <trkpt lat="45.92696" lon="4.81173">
        <ele>170</ele>
        <time>2017-10-15T09:26:53Z</time>
      </trkpt>
      <trkpt lat="45.92701" lon="4.81172">
        <ele>170</ele>
        <time>2017-10-15T09:26:54Z</time>
      </trkpt>
      <trkpt lat="45.92707" lon="4.81171">
        <ele>170</ele>
        <time>2017-10-15T09:26:55Z</time>
      </trkpt>
      <trkpt lat="45.92711" lon="4.81171">
        <ele>170</ele>
        <time>2017-10-15T09:26:56Z</time>
      </trkpt>
      <trkpt lat="45.92717" lon="4.81171">
        <ele>170</ele>
        <time>2017-10-15T09:26:57Z</time>
      </trkpt>
      <trkpt lat="45.92723" lon="4.8117">
        <ele>170</ele>
        <time>2017-10-15T09:26:58Z</time>
      </trkpt>
      <trkpt lat="45.92728" lon="4.8117">
        <ele>170</ele>
        <time>2017-10-15T09:26:59Z</time>
      </trkpt>
      <trkpt lat="45.92735" lon="4.8117">
        <ele>170</ele>
        <time>2017-10-15T09:27:00Z</time>
      </trkpt>
      <trkpt lat="45.9274" lon="4.81171">
        <ele>170</ele>
        <time>2017-10-15T09:27:01Z</time>
      </trkpt>
      <trkpt lat="45.92746" lon="4.81174">
        <ele>170</ele>
        <time>2017-10-15T09:27:02Z</time>
      </trkpt>
      <trkpt lat="45.92751" lon="4.81178">
        <ele>170</ele>
        <time>2017-10-15T09:27:03Z</time>
      </trkpt>
      <trkpt lat="45.92756" lon="4.81181">
        <ele>170</ele>
        <time>2017-10-15T09:27:04Z</time>
      </trkpt>
      <trkpt lat="45.92762" lon="4.81185">
        <ele>170</ele>
        <time>2017-10-15T09:27:05Z</time>
      </trkpt>
      <trkpt lat="45.92767" lon="4.81185">
        <ele>170</ele>
        <time>2017-10-15T09:27:06Z</time>
      </trkpt>
      <trkpt lat="45.92773" lon="4.81183">
        <ele>170</ele>
        <time>2017-10-15T09:27:07Z</time>
      </trkpt>
      <trkpt lat="45.92778" lon="4.81178">
        <ele>170</ele>
        <time>2017-10-15T09:27:08Z</time>
      </trkpt>
      <trkpt lat="45.92782" lon="4.81171">
        <ele>170</ele>
        <time>2017-10-15T09:27:09Z</time>
      </trkpt>
      <trkpt lat="45.92784" lon="4.81163">
        <ele>170</ele>
        <time>2017-10-15T09:27:10Z</time>
      </trkpt>
      <trkpt lat="45.92785" lon="4.81155">
        <ele>170</ele>
        <time>2017-10-15T09:27:11Z</time>
      </trkpt>
      <trkpt lat="45.92785" lon="4.81146">
        <ele>170</ele>
        <time>2017-10-15T09:27:12Z</time>
      </trkpt>
      <trkpt lat="45.92788" lon="4.81139">
        <ele>170</ele>
        <time>2017-10-15T09:27:13Z</time>
      </trkpt>
      <trkpt lat="45.92791" lon="4.81131">
        <ele>170</ele>
        <time>2017-10-15T09:27:14Z</time>
      </trkpt>
      <trkpt lat="45.92795" lon="4.81124">
        <ele>170</ele>
        <time>2017-10-15T09:27:15Z</time>
      </trkpt>
      <trkpt lat="45.92799" lon="4.81117">
        <ele>170</ele>
        <time>2017-10-15T09:27:16Z</time>
      </trkpt>
      <trkpt lat="45.92803" lon="4.81112">
        <ele>170</ele>
        <time>2017-10-15T09:27:17Z</time>
      </trkpt>
      <trkpt lat="45.92807" lon="4.81106">
        <ele>170</ele>
        <time>2017-10-15T09:27:18Z</time>
      </trkpt>
      <trkpt lat="45.92811" lon="4.81098">
        <ele>170</ele>
        <time>2017-10-15T09:27:19Z</time>
      </trkpt>
      <trkpt lat="45.92815" lon="4.81091">
        <ele>170</ele>
        <time>2017-10-15T09:27:20Z</time>
      </trkpt>
      <trkpt lat="45.92819" lon="4.81084">
        <ele>170</ele>
        <time>2017-10-15T09:27:21Z</time>
      </trkpt>
      <trkpt lat="45.92824" lon="4.81077">
        <ele>170</ele>
        <time>2017-10-15T09:27:22Z</time>
      </trkpt>
      <trkpt lat="45.92828" lon="4.81069">
        <ele>170</ele>
        <time>2017-10-15T09:27:23Z</time>
      </trkpt>
      <trkpt lat="45.92832" lon="4.81061">
        <ele>169</ele>
        <time>2017-10-15T09:27:24Z</time>
      </trkpt>
      <trkpt lat="45.92837" lon="4.81053">
        <ele>169</ele>
        <time>2017-10-15T09:27:25Z</time>
      </trkpt>
      <trkpt lat="45.9284" lon="4.81046">
        <ele>169</ele>
        <time>2017-10-15T09:27:26Z</time>
      </trkpt>
      <trkpt lat="45.92845" lon="4.81038">
        <ele>169</ele>
        <time>2017-10-15T09:27:27Z</time>
      </trkpt>
      <trkpt lat="45.92849" lon="4.8103">
        <ele>169</ele>
        <time>2017-10-15T09:27:28Z</time>
      </trkpt>
      <trkpt lat="45.92852" lon="4.81022">
        <ele>169</ele>
        <time>2017-10-15T09:27:29Z</time>
      </trkpt>
      <trkpt lat="45.92856" lon="4.81014">
        <ele>169</ele>
        <time>2017-10-15T09:27:30Z</time>
      </trkpt>
      <trkpt lat="45.9286" lon="4.81006">
        <ele>169</ele>
        <time>2017-10-15T09:27:31Z</time>
      </trkpt>
      <trkpt lat="45.92862" lon="4.80999">
        <ele>169</ele>
        <time>2017-10-15T09:27:32Z</time>
      </trkpt>
      <trkpt lat="45.92865" lon="4.80991">
        <ele>169</ele>
        <time>2017-10-15T09:27:33Z</time>
      </trkpt>
      <trkpt lat="45.92869" lon="4.80979">
        <ele>169</ele>
        <time>2017-10-15T09:27:34Z</time>
      </trkpt>
      <trkpt lat="45.92873" lon="4.80971">
        <ele>169</ele>
        <time>2017-10-15T09:27:35Z</time>
      </trkpt>
      <trkpt lat="45.92876" lon="4.80961">
        <ele>169</ele>
        <time>2017-10-15T09:27:36Z</time>
      </trkpt>
      <trkpt lat="45.92878" lon="4.80952">
        <ele>170</ele>
        <time>2017-10-15T09:27:37Z</time>
      </trkpt>
      <trkpt lat="45.92881" lon="4.80944">
        <ele>170</ele>
        <time>2017-10-15T09:27:38Z</time>
      </trkpt>
      <trkpt lat="45.92884" lon="4.80935">
        <ele>170</ele>
        <time>2017-10-15T09:27:39Z</time>
      </trkpt>
      <trkpt lat="45.92888" lon="4.80926">
        <ele>170</ele>
        <time>2017-10-15T09:27:40Z</time>
      </trkpt>
      <trkpt lat="45.92892" lon="4.80917">
        <ele>170</ele>
        <time>2017-10-15T09:27:41Z</time>
      </trkpt>
      <trkpt lat="45.92896" lon="4.80905">
        <ele>170</ele>
        <time>2017-10-15T09:27:42Z</time>
      </trkpt>
      <trkpt lat="45.92899" lon="4.80896">
        <ele>170</ele>
        <time>2017-10-15T09:27:43Z</time>
      </trkpt>
      <trkpt lat="45.92901" lon="4.80889">
        <ele>170</ele>
        <time>2017-10-15T09:27:44Z</time>
      </trkpt>
      <trkpt lat="45.92902" lon="4.80879">
        <ele>171</ele>
        <time>2017-10-15T09:27:45Z</time>
      </trkpt>
      <trkpt lat="45.92905" lon="4.8087">
        <ele>171</ele>
        <time>2017-10-15T09:27:46Z</time>
      </trkpt>
      <trkpt lat="45.92908" lon="4.80862">
        <ele>171</ele>
        <time>2017-10-15T09:27:47Z</time>
      </trkpt>
      <trkpt lat="45.92911" lon="4.80854">
        <ele>171</ele>
        <time>2017-10-15T09:27:48Z</time>
      </trkpt>
      <trkpt lat="45.92914" lon="4.80847">
        <ele>171</ele>
        <time>2017-10-15T09:27:49Z</time>
      </trkpt>
      <trkpt lat="45.92916" lon="4.80839">
        <ele>172</ele>
        <time>2017-10-15T09:27:50Z</time>
      </trkpt>
      <trkpt lat="45.92919" lon="4.80831">
        <ele>172</ele>
        <time>2017-10-15T09:27:51Z</time>
      </trkpt>
      <trkpt lat="45.92922" lon="4.80824">
        <ele>172</ele>
        <time>2017-10-15T09:27:52Z</time>
      </trkpt>
      <trkpt lat="45.92924" lon="4.80816">
        <ele>172</ele>
        <time>2017-10-15T09:27:53Z</time>
      </trkpt>
      <trkpt lat="45.92926" lon="4.8081">
        <ele>172</ele>
        <time>2017-10-15T09:27:54Z</time>
      </trkpt>
      <trkpt lat="45.9293" lon="4.80804">
        <ele>172</ele>
        <time>2017-10-15T09:27:55Z</time>
      </trkpt>
      <trkpt lat="45.92932" lon="4.80793">
        <ele>172</ele>
        <time>2017-10-15T09:27:56Z</time>
      </trkpt>
      <trkpt lat="45.92933" lon="4.80784">
        <ele>172</ele>
        <time>2017-10-15T09:27:57Z</time>
      </trkpt>
      <trkpt lat="45.92935" lon="4.80775">
        <ele>172</ele>
        <time>2017-10-15T09:27:58Z</time>
      </trkpt>
      <trkpt lat="45.92939" lon="4.80767">
        <ele>172</ele>
        <time>2017-10-15T09:27:59Z</time>
      </trkpt>
      <trkpt lat="45.92943" lon="4.80757">
        <ele>172</ele>
        <time>2017-10-15T09:28:00Z</time>
      </trkpt>
      <trkpt lat="45.92946" lon="4.80749">
        <ele>172</ele>
        <time>2017-10-15T09:28:01Z</time>
      </trkpt>
      <trkpt lat="45.92949" lon="4.8074">
        <ele>172</ele>
        <time>2017-10-15T09:28:02Z</time>
      </trkpt>
      <trkpt lat="45.92952" lon="4.80731">
        <ele>172</ele>
        <time>2017-10-15T09:28:03Z</time>
      </trkpt>
      <trkpt lat="45.92955" lon="4.80721">
        <ele>172</ele>
        <time>2017-10-15T09:28:04Z</time>
      </trkpt>
      <trkpt lat="45.92959" lon="4.80712">
        <ele>172</ele>
        <time>2017-10-15T09:28:05Z</time>
      </trkpt>
      <trkpt lat="45.92961" lon="4.80703">
        <ele>172</ele>
        <time>2017-10-15T09:28:06Z</time>
      </trkpt>
      <trkpt lat="45.92964" lon="4.80693">
        <ele>172</ele>
        <time>2017-10-15T09:28:07Z</time>
      </trkpt>
      <trkpt lat="45.92968" lon="4.80684">
        <ele>172</ele>
        <time>2017-10-15T09:28:08Z</time>
      </trkpt>
      <trkpt lat="45.9297" lon="4.80676">
        <ele>172</ele>
        <time>2017-10-15T09:28:09Z</time>
      </trkpt>
      <trkpt lat="45.92973" lon="4.80667">
        <ele>172</ele>
        <time>2017-10-15T09:28:10Z</time>
      </trkpt>
      <trkpt lat="45.92976" lon="4.80658">
        <ele>172</ele>
        <time>2017-10-15T09:28:11Z</time>
      </trkpt>
      <trkpt lat="45.92979" lon="4.80651">
        <ele>172</ele>
        <time>2017-10-15T09:28:12Z</time>
      </trkpt>
      <trkpt lat="45.92982" lon="4.80643">
        <ele>172</ele>
        <time>2017-10-15T09:28:13Z</time>
      </trkpt>
      <trkpt lat="45.92984" lon="4.80635">
        <ele>172</ele>
        <time>2017-10-15T09:28:14Z</time>
      </trkpt>
      <trkpt lat="45.92987" lon="4.80628">
        <ele>172</ele>
        <time>2017-10-15T09:28:15Z</time>
      </trkpt>
      <trkpt lat="45.92989" lon="4.80621">
        <ele>172</ele>
        <time>2017-10-15T09:28:16Z</time>
      </trkpt>
      <trkpt lat="45.92992" lon="4.80613">
        <ele>172</ele>
        <time>2017-10-15T09:28:17Z</time>
      </trkpt>
      <trkpt lat="45.92994" lon="4.80606">
        <ele>172</ele>
        <time>2017-10-15T09:28:18Z</time>
      </trkpt>
      <trkpt lat="45.92996" lon="4.80599">
        <ele>172</ele>
        <time>2017-10-15T09:28:19Z</time>
      </trkpt>
      <trkpt lat="45.92999" lon="4.80592">
        <ele>172</ele>
        <time>2017-10-15T09:28:20Z</time>
      </trkpt>
      <trkpt lat="45.93" lon="4.80585">
        <ele>172</ele>
        <time>2017-10-15T09:28:21Z</time>
      </trkpt>
      <trkpt lat="45.93002" lon="4.80579">
        <ele>172</ele>
        <time>2017-10-15T09:28:22Z</time>
      </trkpt>
      <trkpt lat="45.93004" lon="4.80573">
        <ele>172</ele>
        <time>2017-10-15T09:28:23Z</time>
      </trkpt>
      <trkpt lat="45.93007" lon="4.80566">
        <ele>172</ele>
        <time>2017-10-15T09:28:24Z</time>
      </trkpt>
      <trkpt lat="45.93009" lon="4.80559">
        <ele>172</ele>
        <time>2017-10-15T09:28:25Z</time>
      </trkpt>
      <trkpt lat="45.93011" lon="4.80551">
        <ele>172</ele>
        <time>2017-10-15T09:28:26Z</time>
      </trkpt>
      <trkpt lat="45.93014" lon="4.80544">
        <ele>172</ele>
        <time>2017-10-15T09:28:27Z</time>
      </trkpt>
      <trkpt lat="45.93016" lon="4.80536">
        <ele>172</ele>
        <time>2017-10-15T09:28:28Z</time>
      </trkpt>
      <trkpt lat="45.9302" lon="4.80528">
        <ele>172</ele>
        <time>2017-10-15T09:28:29Z</time>
      </trkpt>
      <trkpt lat="45.93022" lon="4.8052">
        <ele>172</ele>
        <time>2017-10-15T09:28:30Z</time>
      </trkpt>
      <trkpt lat="45.93025" lon="4.80511">
        <ele>172</ele>
        <time>2017-10-15T09:28:31Z</time>
      </trkpt>
      <trkpt lat="45.93029" lon="4.80502">
        <ele>172</ele>
        <time>2017-10-15T09:28:32Z</time>
      </trkpt>
      <trkpt lat="45.93032" lon="4.80494">
        <ele>171</ele>
        <time>2017-10-15T09:28:33Z</time>
      </trkpt>
      <trkpt lat="45.93035" lon="4.80486">
        <ele>171</ele>
        <time>2017-10-15T09:28:34Z</time>
      </trkpt>
      <trkpt lat="45.93037" lon="4.80478">
        <ele>171</ele>
        <time>2017-10-15T09:28:35Z</time>
      </trkpt>
      <trkpt lat="45.93039" lon="4.80471">
        <ele>171</ele>
        <time>2017-10-15T09:28:36Z</time>
      </trkpt>
      <trkpt lat="45.93041" lon="4.80463">
        <ele>171</ele>
        <time>2017-10-15T09:28:37Z</time>
      </trkpt>
      <trkpt lat="45.93044" lon="4.80455">
        <ele>171</ele>
        <time>2017-10-15T09:28:38Z</time>
      </trkpt>
      <trkpt lat="45.93047" lon="4.80447">
        <ele>171</ele>
        <time>2017-10-15T09:28:39Z</time>
      </trkpt>
      <trkpt lat="45.9305" lon="4.8044">
        <ele>171</ele>
        <time>2017-10-15T09:28:40Z</time>
      </trkpt>
      <trkpt lat="45.93053" lon="4.80432">
        <ele>171</ele>
        <time>2017-10-15T09:28:41Z</time>
      </trkpt>
      <trkpt lat="45.93056" lon="4.80424">
        <ele>171</ele>
        <time>2017-10-15T09:28:42Z</time>
      </trkpt>
      <trkpt lat="45.93058" lon="4.80416">
        <ele>170</ele>
        <time>2017-10-15T09:28:43Z</time>
      </trkpt>
      <trkpt lat="45.93061" lon="4.80408">
        <ele>170</ele>
        <time>2017-10-15T09:28:44Z</time>
      </trkpt>
      <trkpt lat="45.93064" lon="4.80401">
        <ele>170</ele>
        <time>2017-10-15T09:28:45Z</time>
      </trkpt>
      <trkpt lat="45.93066" lon="4.80393">
        <ele>170</ele>
        <time>2017-10-15T09:28:46Z</time>
      </trkpt>
      <trkpt lat="45.93069" lon="4.80387">
        <ele>170</ele>
        <time>2017-10-15T09:28:47Z</time>
      </trkpt>
      <trkpt lat="45.93072" lon="4.8038">
        <ele>170</ele>
        <time>2017-10-15T09:28:48Z</time>
      </trkpt>
      <trkpt lat="45.93075" lon="4.80372">
        <ele>170</ele>
        <time>2017-10-15T09:28:49Z</time>
      </trkpt>
      <trkpt lat="45.93078" lon="4.80363">
        <ele>170</ele>
        <time>2017-10-15T09:28:50Z</time>
      </trkpt>
      <trkpt lat="45.9308" lon="4.80353">
        <ele>169</ele>
        <time>2017-10-15T09:28:51Z</time>
      </trkpt>
      <trkpt lat="45.93084" lon="4.80343">
        <ele>169</ele>
        <time>2017-10-15T09:28:52Z</time>
      </trkpt>
      <trkpt lat="45.93086" lon="4.80335">
        <ele>169</ele>
        <time>2017-10-15T09:28:53Z</time>
      </trkpt>
      <trkpt lat="45.93088" lon="4.80325">
        <ele>169</ele>
        <time>2017-10-15T09:28:54Z</time>
      </trkpt>
      <trkpt lat="45.93092" lon="4.80316">
        <ele>169</ele>
        <time>2017-10-15T09:28:55Z</time>
      </trkpt>
      <trkpt lat="45.93097" lon="4.80303">
        <ele>169</ele>
        <time>2017-10-15T09:28:56Z</time>
      </trkpt>
      <trkpt lat="45.931" lon="4.80294">
        <ele>169</ele>
        <time>2017-10-15T09:28:57Z</time>
      </trkpt>
      <trkpt lat="45.93103" lon="4.80285">
        <ele>169</ele>
        <time>2017-10-15T09:28:58Z</time>
      </trkpt>
      <trkpt lat="45.93106" lon="4.80276">
        <ele>169</ele>
        <time>2017-10-15T09:28:59Z</time>
      </trkpt>
      <trkpt lat="45.93109" lon="4.80267">
        <ele>169</ele>
        <time>2017-10-15T09:29:00Z</time>
      </trkpt>
      <trkpt lat="45.93111" lon="4.80259">
        <ele>169</ele>
        <time>2017-10-15T09:29:01Z</time>
      </trkpt>
      <trkpt lat="45.93114" lon="4.80252">
        <ele>169</ele>
        <time>2017-10-15T09:29:02Z</time>
      </trkpt>
      <trkpt lat="45.93116" lon="4.80243">
        <ele>169</ele>
        <time>2017-10-15T09:29:03Z</time>
      </trkpt>
      <trkpt lat="45.93119" lon="4.80235">
        <ele>169</ele>
        <time>2017-10-15T09:29:04Z</time>
      </trkpt>
      <trkpt lat="45.93121" lon="4.80228">
        <ele>169</ele>
        <time>2017-10-15T09:29:05Z</time>
      </trkpt>
      <trkpt lat="45.93123" lon="4.80221">
        <ele>169</ele>
        <time>2017-10-15T09:29:06Z</time>
      </trkpt>
      <trkpt lat="45.93125" lon="4.80213">
        <ele>169</ele>
        <time>2017-10-15T09:29:07Z</time>
      </trkpt>
      <trkpt lat="45.93128" lon="4.80206">
        <ele>169</ele>
        <time>2017-10-15T09:29:08Z</time>
      </trkpt>
      <trkpt lat="45.93131" lon="4.80199">
        <ele>169</ele>
        <time>2017-10-15T09:29:09Z</time>
      </trkpt>
      <trkpt lat="45.93132" lon="4.80191">
        <ele>169</ele>
        <time>2017-10-15T09:29:10Z</time>
      </trkpt>
      <trkpt lat="45.93134" lon="4.80185">
        <ele>169</ele>
        <time>2017-10-15T09:29:11Z</time>
      </trkpt>
      <trkpt lat="45.93137" lon="4.80178">
        <ele>169</ele>
        <time>2017-10-15T09:29:12Z</time>
      </trkpt>
      <trkpt lat="45.93139" lon="4.80171">
        <ele>169</ele>
        <time>2017-10-15T09:29:13Z</time>
      </trkpt>
      <trkpt lat="45.93142" lon="4.80162">
        <ele>169</ele>
        <time>2017-10-15T09:29:14Z</time>
      </trkpt>
      <trkpt lat="45.93145" lon="4.80155">
        <ele>169</ele>
        <time>2017-10-15T09:29:15Z</time>
      </trkpt>
      <trkpt lat="45.93147" lon="4.80147">
        <ele>169</ele>
        <time>2017-10-15T09:29:16Z</time>
      </trkpt>
      <trkpt lat="45.9315" lon="4.80139">
        <ele>169</ele>
        <time>2017-10-15T09:29:17Z</time>
      </trkpt>
      <trkpt lat="45.93153" lon="4.80132">
        <ele>169</ele>
        <time>2017-10-15T09:29:18Z</time>
      </trkpt>
      <trkpt lat="45.93156" lon="4.80124">
        <ele>169</ele>
        <time>2017-10-15T09:29:19Z</time>
      </trkpt>
      <trkpt lat="45.93159" lon="4.80115">
        <ele>169</ele>
        <time>2017-10-15T09:29:20Z</time>
      </trkpt>
      <trkpt lat="45.93163" lon="4.80106">
        <ele>170</ele>
        <time>2017-10-15T09:29:21Z</time>
      </trkpt>
      <trkpt lat="45.93165" lon="4.80097">
        <ele>170</ele>
        <time>2017-10-15T09:29:22Z</time>
      </trkpt>
      <trkpt lat="45.93168" lon="4.80089">
        <ele>170</ele>
        <time>2017-10-15T09:29:23Z</time>
      </trkpt>
      <trkpt lat="45.93173" lon="4.80082">
        <ele>170</ele>
        <time>2017-10-15T09:29:24Z</time>
      </trkpt>
      <trkpt lat="45.9318" lon="4.8008">
        <ele>170</ele>
        <time>2017-10-15T09:29:25Z</time>
      </trkpt>
      <trkpt lat="45.93187" lon="4.80076">
        <ele>170</ele>
        <time>2017-10-15T09:29:26Z</time>
      </trkpt>
      <trkpt lat="45.93193" lon="4.80072">
        <ele>170</ele>
        <time>2017-10-15T09:29:27Z</time>
      </trkpt>
      <trkpt lat="45.93197" lon="4.80066">
        <ele>170</ele>
        <time>2017-10-15T09:29:28Z</time>
      </trkpt>
      <trkpt lat="45.93201" lon="4.8006">
        <ele>170</ele>
        <time>2017-10-15T09:29:29Z</time>
      </trkpt>
      <trkpt lat="45.93204" lon="4.80052">
        <ele>170</ele>
        <time>2017-10-15T09:29:30Z</time>
      </trkpt>
      <trkpt lat="45.93204" lon="4.80043">
        <ele>170</ele>
        <time>2017-10-15T09:29:31Z</time>
      </trkpt>
      <trkpt lat="45.93202" lon="4.80036">
        <ele>170</ele>
        <time>2017-10-15T09:29:32Z</time>
      </trkpt>
      <trkpt lat="45.93199" lon="4.80029">
        <ele>170</ele>
        <time>2017-10-15T09:29:33Z</time>
      </trkpt>
      <trkpt lat="45.93196" lon="4.80023">
        <ele>170</ele>
        <time>2017-10-15T09:29:34Z</time>
      </trkpt>
      <trkpt lat="45.93194" lon="4.80016">
        <ele>170</ele>
        <time>2017-10-15T09:29:35Z</time>
      </trkpt>
      <trkpt lat="45.93189" lon="4.80008">
        <ele>170</ele>
        <time>2017-10-15T09:29:36Z</time>
      </trkpt>
      <trkpt lat="45.93187" lon="4.8">
        <ele>170</ele>
        <time>2017-10-15T09:29:37Z</time>
      </trkpt>
      <trkpt lat="45.93187" lon="4.79992">
        <ele>170</ele>
        <time>2017-10-15T09:29:38Z</time>
      </trkpt>
      <trkpt lat="45.93188" lon="4.79985">
        <ele>170</ele>
        <time>2017-10-15T09:29:39Z</time>
      </trkpt>
      <trkpt lat="45.9319" lon="4.79976">
        <ele>170</ele>
        <time>2017-10-15T09:29:40Z</time>
      </trkpt>
      <trkpt lat="45.93193" lon="4.79968">
        <ele>170</ele>
        <time>2017-10-15T09:29:41Z</time>
      </trkpt>
      <trkpt lat="45.93195" lon="4.79958">
        <ele>170</ele>
        <time>2017-10-15T09:29:42Z</time>
      </trkpt>
      <trkpt lat="45.93198" lon="4.79949">
        <ele>171</ele>
        <time>2017-10-15T09:29:43Z</time>
      </trkpt>
      <trkpt lat="45.93201" lon="4.7994">
        <ele>171</ele>
        <time>2017-10-15T09:29:44Z</time>
      </trkpt>
      <trkpt lat="45.93206" lon="4.79934">
        <ele>171</ele>
        <time>2017-10-15T09:29:45Z</time>
      </trkpt>
      <trkpt lat="45.93209" lon="4.79925">
        <ele>171</ele>
        <time>2017-10-15T09:29:46Z</time>
      </trkpt>
      <trkpt lat="45.93213" lon="4.79917">
        <ele>171</ele>
        <time>2017-10-15T09:29:47Z</time>
      </trkpt>
      <trkpt lat="45.93217" lon="4.79909">
        <ele>172</ele>
        <time>2017-10-15T09:29:48Z</time>
      </trkpt>
      <trkpt lat="45.93222" lon="4.79902">
        <ele>172</ele>
        <time>2017-10-15T09:29:49Z</time>
      </trkpt>
      <trkpt lat="45.93225" lon="4.79895">
        <ele>172</ele>
        <time>2017-10-15T09:29:50Z</time>
      </trkpt>
      <trkpt lat="45.93229" lon="4.79887">
        <ele>172</ele>
        <time>2017-10-15T09:29:51Z</time>
      </trkpt>
      <trkpt lat="45.93233" lon="4.79878">
        <ele>172</ele>
        <time>2017-10-15T09:29:52Z</time>
      </trkpt>
      <trkpt lat="45.93237" lon="4.7987">
        <ele>172</ele>
        <time>2017-10-15T09:29:53Z</time>
      </trkpt>
      <trkpt lat="45.9324" lon="4.79861">
        <ele>173</ele>
        <time>2017-10-15T09:29:54Z</time>
      </trkpt>
      <trkpt lat="45.93243" lon="4.79853">
        <ele>173</ele>
        <time>2017-10-15T09:29:55Z</time>
      </trkpt>
      <trkpt lat="45.93246" lon="4.79846">
        <ele>173</ele>
        <time>2017-10-15T09:29:56Z</time>
      </trkpt>
      <trkpt lat="45.9325" lon="4.79836">
        <ele>174</ele>
        <time>2017-10-15T09:29:57Z</time>
      </trkpt>
      <trkpt lat="45.93253" lon="4.79828">
        <ele>174</ele>
        <time>2017-10-15T09:29:58Z</time>
      </trkpt>
      <trkpt lat="45.93255" lon="4.7982">
        <ele>174</ele>
        <time>2017-10-15T09:29:59Z</time>
      </trkpt>
      <trkpt lat="45.93259" lon="4.79812">
        <ele>174</ele>
        <time>2017-10-15T09:30:00Z</time>
      </trkpt>
      <trkpt lat="45.93263" lon="4.79803">
        <ele>175</ele>
        <time>2017-10-15T09:30:01Z</time>
      </trkpt>
      <trkpt lat="45.93265" lon="4.79796">
        <ele>175</ele>
        <time>2017-10-15T09:30:02Z</time>
      </trkpt>
      <trkpt lat="45.93268" lon="4.79789">
        <ele>175</ele>
        <time>2017-10-15T09:30:03Z</time>
      </trkpt>
      <trkpt lat="45.9327" lon="4.79781">
        <ele>175</ele>
        <time>2017-10-15T09:30:04Z</time>
      </trkpt>
      <trkpt lat="45.93273" lon="4.79773">
        <ele>175</ele>
        <time>2017-10-15T09:30:05Z</time>
      </trkpt>
      <trkpt lat="45.93276" lon="4.79766">
        <ele>175</ele>
        <time>2017-10-15T09:30:06Z</time>
      </trkpt>
      <trkpt lat="45.93278" lon="4.79758">
        <ele>175</ele>
        <time>2017-10-15T09:30:07Z</time>
      </trkpt>
      <trkpt lat="45.9328" lon="4.79751">
        <ele>175</ele>
        <time>2017-10-15T09:30:08Z</time>
      </trkpt>
      <trkpt lat="45.93283" lon="4.79744">
        <ele>177</ele>
        <time>2017-10-15T09:30:09Z</time>
      </trkpt>
      <trkpt lat="45.93285" lon="4.79737">
        <ele>177</ele>
        <time>2017-10-15T09:30:10Z</time>
      </trkpt>
      <trkpt lat="45.93288" lon="4.7973">
        <ele>177</ele>
        <time>2017-10-15T09:30:11Z</time>
      </trkpt>
      <trkpt lat="45.9329" lon="4.79721">
        <ele>177</ele>
        <time>2017-10-15T09:30:12Z</time>
      </trkpt>
      <trkpt lat="45.93292" lon="4.79715">
        <ele>177</ele>
        <time>2017-10-15T09:30:13Z</time>
      </trkpt>
      <trkpt lat="45.93294" lon="4.79708">
        <ele>177</ele>
        <time>2017-10-15T09:30:14Z</time>
      </trkpt>
      <trkpt lat="45.93296" lon="4.79701">
        <ele>177</ele>
        <time>2017-10-15T09:30:15Z</time>
      </trkpt>
      <trkpt lat="45.93298" lon="4.79694">
        <ele>177</ele>
        <time>2017-10-15T09:30:16Z</time>
      </trkpt>
      <trkpt lat="45.933" lon="4.79688">
        <ele>177</ele>
        <time>2017-10-15T09:30:17Z</time>
      </trkpt>
      <trkpt lat="45.93302" lon="4.79681">
        <ele>177</ele>
        <time>2017-10-15T09:30:18Z</time>
      </trkpt>
      <trkpt lat="45.93304" lon="4.79674">
        <ele>177</ele>
        <time>2017-10-15T09:30:19Z</time>
      </trkpt>
      <trkpt lat="45.93306" lon="4.79668">
        <ele>177</ele>
        <time>2017-10-15T09:30:20Z</time>
      </trkpt>
      <trkpt lat="45.93311" lon="4.79658">
        <ele>177</ele>
        <time>2017-10-15T09:30:21Z</time>
      </trkpt>
      <trkpt lat="45.93313" lon="4.79653">
        <ele>177</ele>
        <time>2017-10-15T09:30:22Z</time>
      </trkpt>
      <trkpt lat="45.93317" lon="4.79642">
        <ele>177</ele>
        <time>2017-10-15T09:30:24Z</time>
      </trkpt>
      <trkpt lat="45.93318" lon="4.79637">
        <ele>177</ele>
        <time>2017-10-15T09:30:25Z</time>
      </trkpt>
      <trkpt lat="45.93322" lon="4.79626">
        <ele>177</ele>
        <time>2017-10-15T09:30:27Z</time>
      </trkpt>
      <trkpt lat="45.93324" lon="4.7962">
        <ele>177</ele>
        <time>2017-10-15T09:30:28Z</time>
      </trkpt>
      <trkpt lat="45.93326" lon="4.79614">
        <ele>177</ele>
        <time>2017-10-15T09:30:29Z</time>
      </trkpt>
      <trkpt lat="45.93328" lon="4.79608">
        <ele>177</ele>
        <time>2017-10-15T09:30:30Z</time>
      </trkpt>
      <trkpt lat="45.93331" lon="4.79601">
        <ele>177</ele>
        <time>2017-10-15T09:30:31Z</time>
      </trkpt>
      <trkpt lat="45.93333" lon="4.79595">
        <ele>177</ele>
        <time>2017-10-15T09:30:32Z</time>
      </trkpt>
      <trkpt lat="45.93335" lon="4.79588">
        <ele>177</ele>
        <time>2017-10-15T09:30:33Z</time>
      </trkpt>
      <trkpt lat="45.93338" lon="4.79581">
        <ele>177</ele>
        <time>2017-10-15T09:30:34Z</time>
      </trkpt>
      <trkpt lat="45.9334" lon="4.79574">
        <ele>177</ele>
        <time>2017-10-15T09:30:35Z</time>
      </trkpt>
      <trkpt lat="45.93342" lon="4.79566">
        <ele>177</ele>
        <time>2017-10-15T09:30:36Z</time>
      </trkpt>
      <trkpt lat="45.93344" lon="4.79558">
        <ele>177</ele>
        <time>2017-10-15T09:30:37Z</time>
      </trkpt>
      <trkpt lat="45.93347" lon="4.79551">
        <ele>177</ele>
        <time>2017-10-15T09:30:38Z</time>
      </trkpt>
      <trkpt lat="45.93349" lon="4.79544">
        <ele>177</ele>
        <time>2017-10-15T09:30:39Z</time>
      </trkpt>
      <trkpt lat="45.93352" lon="4.79538">
        <ele>177</ele>
        <time>2017-10-15T09:30:40Z</time>
      </trkpt>
      <trkpt lat="45.93355" lon="4.79531">
        <ele>177</ele>
        <time>2017-10-15T09:30:41Z</time>
      </trkpt>
      <trkpt lat="45.93357" lon="4.79524">
        <ele>177</ele>
        <time>2017-10-15T09:30:42Z</time>
      </trkpt>
      <trkpt lat="45.9336" lon="4.79517">
        <ele>177</ele>
        <time>2017-10-15T09:30:43Z</time>
      </trkpt>
      <trkpt lat="45.93363" lon="4.79511">
        <ele>177</ele>
        <time>2017-10-15T09:30:44Z</time>
      </trkpt>
      <trkpt lat="45.93366" lon="4.79504">
        <ele>177</ele>
        <time>2017-10-15T09:30:45Z</time>
      </trkpt>
      <trkpt lat="45.93367" lon="4.79496">
        <ele>176</ele>
        <time>2017-10-15T09:30:46Z</time>
      </trkpt>
      <trkpt lat="45.93369" lon="4.79488">
        <ele>176</ele>
        <time>2017-10-15T09:30:47Z</time>
      </trkpt>
      <trkpt lat="45.9337" lon="4.79481">
        <ele>175</ele>
        <time>2017-10-15T09:30:48Z</time>
      </trkpt>
      <trkpt lat="45.93375" lon="4.79475">
        <ele>175</ele>
        <time>2017-10-15T09:30:49Z</time>
      </trkpt>
      <trkpt lat="45.93378" lon="4.79469">
        <ele>175</ele>
        <time>2017-10-15T09:30:50Z</time>
      </trkpt>
      <trkpt lat="45.9338" lon="4.79461">
        <ele>175</ele>
        <time>2017-10-15T09:30:51Z</time>
      </trkpt>
      <trkpt lat="45.93382" lon="4.79454">
        <ele>175</ele>
        <time>2017-10-15T09:30:52Z</time>
      </trkpt>
      <trkpt lat="45.93383" lon="4.79447">
        <ele>175</ele>
        <time>2017-10-15T09:30:53Z</time>
      </trkpt>
      <trkpt lat="45.93386" lon="4.79439">
        <ele>175</ele>
        <time>2017-10-15T09:30:54Z</time>
      </trkpt>
      <trkpt lat="45.93389" lon="4.79432">
        <ele>175</ele>
        <time>2017-10-15T09:30:55Z</time>
      </trkpt>
      <trkpt lat="45.93392" lon="4.79425">
        <ele>174</ele>
        <time>2017-10-15T09:30:56Z</time>
      </trkpt>
      <trkpt lat="45.93396" lon="4.79416">
        <ele>173</ele>
        <time>2017-10-15T09:30:57Z</time>
      </trkpt>
      <trkpt lat="45.93398" lon="4.79408">
        <ele>173</ele>
        <time>2017-10-15T09:30:58Z</time>
      </trkpt>
      <trkpt lat="45.93401" lon="4.79399">
        <ele>173</ele>
        <time>2017-10-15T09:30:59Z</time>
      </trkpt>
      <trkpt lat="45.93405" lon="4.79393">
        <ele>173</ele>
        <time>2017-10-15T09:31:00Z</time>
      </trkpt>
      <trkpt lat="45.93408" lon="4.79385">
        <ele>172</ele>
        <time>2017-10-15T09:31:01Z</time>
      </trkpt>
      <trkpt lat="45.93411" lon="4.79378">
        <ele>172</ele>
        <time>2017-10-15T09:31:02Z</time>
      </trkpt>
      <trkpt lat="45.93414" lon="4.79369">
        <ele>172</ele>
        <time>2017-10-15T09:31:03Z</time>
      </trkpt>
      <trkpt lat="45.93415" lon="4.79361">
        <ele>172</ele>
        <time>2017-10-15T09:31:04Z</time>
      </trkpt>
      <trkpt lat="45.93418" lon="4.79352">
        <ele>173</ele>
        <time>2017-10-15T09:31:05Z</time>
      </trkpt>
      <trkpt lat="45.93421" lon="4.79345">
        <ele>173</ele>
        <time>2017-10-15T09:31:06Z</time>
      </trkpt>
      <trkpt lat="45.93423" lon="4.79337">
        <ele>173</ele>
        <time>2017-10-15T09:31:07Z</time>
      </trkpt>
      <trkpt lat="45.93426" lon="4.79328">
        <ele>172</ele>
        <time>2017-10-15T09:31:08Z</time>
      </trkpt>
      <trkpt lat="45.93429" lon="4.7932">
        <ele>172</ele>
        <time>2017-10-15T09:31:09Z</time>
      </trkpt>
      <trkpt lat="45.93432" lon="4.79311">
        <ele>173</ele>
        <time>2017-10-15T09:31:10Z</time>
      </trkpt>
      <trkpt lat="45.93435" lon="4.79304">
        <ele>173</ele>
        <time>2017-10-15T09:31:11Z</time>
      </trkpt>
      <trkpt lat="45.93438" lon="4.79297">
        <ele>173</ele>
        <time>2017-10-15T09:31:12Z</time>
      </trkpt>
      <trkpt lat="45.9344" lon="4.79289">
        <ele>173</ele>
        <time>2017-10-15T09:31:13Z</time>
      </trkpt>
      <trkpt lat="45.93443" lon="4.79281">
        <ele>173</ele>
        <time>2017-10-15T09:31:14Z</time>
      </trkpt>
      <trkpt lat="45.93445" lon="4.79274">
        <ele>173</ele>
        <time>2017-10-15T09:31:15Z</time>
      </trkpt>
      <trkpt lat="45.93447" lon="4.79265">
        <ele>172</ele>
        <time>2017-10-15T09:31:16Z</time>
      </trkpt>
      <trkpt lat="45.93448" lon="4.79255">
        <ele>172</ele>
        <time>2017-10-15T09:31:17Z</time>
      </trkpt>
      <trkpt lat="45.93453" lon="4.79243">
        <ele>172</ele>
        <time>2017-10-15T09:31:18Z</time>
      </trkpt>
      <trkpt lat="45.93455" lon="4.79236">
        <ele>172</ele>
        <time>2017-10-15T09:31:19Z</time>
      </trkpt>
      <trkpt lat="45.93458" lon="4.79228">
        <ele>172</ele>
        <time>2017-10-15T09:31:20Z</time>
      </trkpt>
      <trkpt lat="45.93461" lon="4.79221">
        <ele>172</ele>
        <time>2017-10-15T09:31:21Z</time>
      </trkpt>
      <trkpt lat="45.93464" lon="4.79212">
        <ele>172</ele>
        <time>2017-10-15T09:31:22Z</time>
      </trkpt>
      <trkpt lat="45.93465" lon="4.79202">
        <ele>172</ele>
        <time>2017-10-15T09:31:23Z</time>
      </trkpt>
      <trkpt lat="45.93467" lon="4.79193">
        <ele>172</ele>
        <time>2017-10-15T09:31:24Z</time>
      </trkpt>
      <trkpt lat="45.9347" lon="4.79186">
        <ele>172</ele>
        <time>2017-10-15T09:31:25Z</time>
      </trkpt>
      <trkpt lat="45.93473" lon="4.79179">
        <ele>172</ele>
        <time>2017-10-15T09:31:26Z</time>
      </trkpt>
      <trkpt lat="45.93475" lon="4.79172">
        <ele>172</ele>
        <time>2017-10-15T09:31:27Z</time>
      </trkpt>
      <trkpt lat="45.93478" lon="4.79165">
        <ele>172</ele>
        <time>2017-10-15T09:31:28Z</time>
      </trkpt>
      <trkpt lat="45.93479" lon="4.79157">
        <ele>172</ele>
        <time>2017-10-15T09:31:29Z</time>
      </trkpt>
      <trkpt lat="45.93481" lon="4.79149">
        <ele>172</ele>
        <time>2017-10-15T09:31:30Z</time>
      </trkpt>
      <trkpt lat="45.93485" lon="4.79143">
        <ele>172</ele>
        <time>2017-10-15T09:31:31Z</time>
      </trkpt>
      <trkpt lat="45.93488" lon="4.79135">
        <ele>172</ele>
        <time>2017-10-15T09:31:32Z</time>
      </trkpt>
      <trkpt lat="45.93491" lon="4.79126">
        <ele>172</ele>
        <time>2017-10-15T09:31:33Z</time>
      </trkpt>
      <trkpt lat="45.93494" lon="4.79118">
        <ele>172</ele>
        <time>2017-10-15T09:31:34Z</time>
      </trkpt>
      <trkpt lat="45.93498" lon="4.7911">
        <ele>172</ele>
        <time>2017-10-15T09:31:35Z</time>
      </trkpt>
      <trkpt lat="45.93502" lon="4.79102">
        <ele>173</ele>
        <time>2017-10-15T09:31:36Z</time>
      </trkpt>
      <trkpt lat="45.93504" lon="4.79095">
        <ele>173</ele>
        <time>2017-10-15T09:31:37Z</time>
      </trkpt>
      <trkpt lat="45.93507" lon="4.79087">
        <ele>173</ele>
        <time>2017-10-15T09:31:38Z</time>
      </trkpt>
      <trkpt lat="45.93511" lon="4.7908">
        <ele>173</ele>
        <time>2017-10-15T09:31:39Z</time>
      </trkpt>
      <trkpt lat="45.93514" lon="4.79072">
        <ele>173</ele>
        <time>2017-10-15T09:31:40Z</time>
      </trkpt>
      <trkpt lat="45.93517" lon="4.79065">
        <ele>173</ele>
        <time>2017-10-15T09:31:41Z</time>
      </trkpt>
      <trkpt lat="45.93519" lon="4.79057">
        <ele>173</ele>
        <time>2017-10-15T09:31:42Z</time>
      </trkpt>
      <trkpt lat="45.93523" lon="4.7905">
        <ele>173</ele>
        <time>2017-10-15T09:31:43Z</time>
      </trkpt>
      <trkpt lat="45.93525" lon="4.79043">
        <ele>173</ele>
        <time>2017-10-15T09:31:44Z</time>
      </trkpt>
      <trkpt lat="45.93527" lon="4.79037">
        <ele>173</ele>
        <time>2017-10-15T09:31:45Z</time>
      </trkpt>
      <trkpt lat="45.9353" lon="4.79031">
        <ele>173</ele>
        <time>2017-10-15T09:31:46Z</time>
      </trkpt>
      <trkpt lat="45.93533" lon="4.79025">
        <ele>173</ele>
        <time>2017-10-15T09:31:47Z</time>
      </trkpt>
      <trkpt lat="45.93535" lon="4.79017">
        <ele>173</ele>
        <time>2017-10-15T09:31:48Z</time>
      </trkpt>
      <trkpt lat="45.93538" lon="4.79009">
        <ele>173</ele>
        <time>2017-10-15T09:31:49Z</time>
      </trkpt>
      <trkpt lat="45.93541" lon="4.79003">
        <ele>173</ele>
        <time>2017-10-15T09:31:50Z</time>
      </trkpt>
      <trkpt lat="45.93546" lon="4.78997">
        <ele>172</ele>
        <time>2017-10-15T09:31:51Z</time>
      </trkpt>
      <trkpt lat="45.9355" lon="4.7899">
        <ele>172</ele>
        <time>2017-10-15T09:31:52Z</time>
      </trkpt>
      <trkpt lat="45.93553" lon="4.78982">
        <ele>172</ele>
        <time>2017-10-15T09:31:53Z</time>
      </trkpt>
      <trkpt lat="45.93556" lon="4.78975">
        <ele>172</ele>
        <time>2017-10-15T09:31:54Z</time>
      </trkpt>
      <trkpt lat="45.93558" lon="4.78967">
        <ele>172</ele>
        <time>2017-10-15T09:31:55Z</time>
      </trkpt>
      <trkpt lat="45.9356" lon="4.78959">
        <ele>172</ele>
        <time>2017-10-15T09:31:56Z</time>
      </trkpt>
      <trkpt lat="45.93564" lon="4.78949">
        <ele>172</ele>
        <time>2017-10-15T09:31:57Z</time>
      </trkpt>
      <trkpt lat="45.93568" lon="4.78942">
        <ele>172</ele>
        <time>2017-10-15T09:31:58Z</time>
      </trkpt>
      <trkpt lat="45.93572" lon="4.78933">
        <ele>172</ele>
        <time>2017-10-15T09:31:59Z</time>
      </trkpt>
      <trkpt lat="45.93575" lon="4.78925">
        <ele>172</ele>
        <time>2017-10-15T09:32:00Z</time>
      </trkpt>
      <trkpt lat="45.93578" lon="4.78918">
        <ele>172</ele>
        <time>2017-10-15T09:32:01Z</time>
      </trkpt>
      <trkpt lat="45.93581" lon="4.78912">
        <ele>172</ele>
        <time>2017-10-15T09:32:02Z</time>
      </trkpt>
      <trkpt lat="45.93584" lon="4.78905">
        <ele>173</ele>
        <time>2017-10-15T09:32:03Z</time>
      </trkpt>
      <trkpt lat="45.93587" lon="4.78898">
        <ele>173</ele>
        <time>2017-10-15T09:32:04Z</time>
      </trkpt>
      <trkpt lat="45.93589" lon="4.78892">
        <ele>173</ele>
        <time>2017-10-15T09:32:05Z</time>
      </trkpt>
      <trkpt lat="45.93592" lon="4.78885">
        <ele>173</ele>
        <time>2017-10-15T09:32:06Z</time>
      </trkpt>
      <trkpt lat="45.93595" lon="4.7888">
        <ele>173</ele>
        <time>2017-10-15T09:32:07Z</time>
      </trkpt>
      <trkpt lat="45.93598" lon="4.78873">
        <ele>174</ele>
        <time>2017-10-15T09:32:08Z</time>
      </trkpt>
      <trkpt lat="45.93601" lon="4.78868">
        <ele>174</ele>
        <time>2017-10-15T09:32:09Z</time>
      </trkpt>
      <trkpt lat="45.93605" lon="4.78862">
        <ele>174</ele>
        <time>2017-10-15T09:32:10Z</time>
      </trkpt>
      <trkpt lat="45.93608" lon="4.78855">
        <ele>174</ele>
        <time>2017-10-15T09:32:11Z</time>
      </trkpt>
      <trkpt lat="45.93612" lon="4.78849">
        <ele>174</ele>
        <time>2017-10-15T09:32:12Z</time>
      </trkpt>
      <trkpt lat="45.93615" lon="4.78842">
        <ele>174</ele>
        <time>2017-10-15T09:32:13Z</time>
      </trkpt>
      <trkpt lat="45.93619" lon="4.78835">
        <ele>174</ele>
        <time>2017-10-15T09:32:14Z</time>
      </trkpt>
      <trkpt lat="45.93623" lon="4.78828">
        <ele>174</ele>
        <time>2017-10-15T09:32:15Z</time>
      </trkpt>
      <trkpt lat="45.93627" lon="4.78822">
        <ele>174</ele>
        <time>2017-10-15T09:32:16Z</time>
      </trkpt>
      <trkpt lat="45.93629" lon="4.78815">
        <ele>174</ele>
        <time>2017-10-15T09:32:17Z</time>
      </trkpt>
      <trkpt lat="45.93631" lon="4.78806">
        <ele>174</ele>
        <time>2017-10-15T09:32:18Z</time>
      </trkpt>
      <trkpt lat="45.93635" lon="4.788">
        <ele>174</ele>
        <time>2017-10-15T09:32:19Z</time>
      </trkpt>
      <trkpt lat="45.93638" lon="4.78793">
        <ele>174</ele>
        <time>2017-10-15T09:32:20Z</time>
      </trkpt>
      <trkpt lat="45.93641" lon="4.78787">
        <ele>174</ele>
        <time>2017-10-15T09:32:21Z</time>
      </trkpt>
      <trkpt lat="45.93643" lon="4.78781">
        <ele>174</ele>
        <time>2017-10-15T09:32:22Z</time>
      </trkpt>
      <trkpt lat="45.93648" lon="4.78772">
        <ele>174</ele>
        <time>2017-10-15T09:32:23Z</time>
      </trkpt>
      <trkpt lat="45.93651" lon="4.78765">
        <ele>174</ele>
        <time>2017-10-15T09:32:24Z</time>
      </trkpt>
      <trkpt lat="45.93654" lon="4.78758">
        <ele>174</ele>
        <time>2017-10-15T09:32:25Z</time>
      </trkpt>
      <trkpt lat="45.93658" lon="4.78751">
        <ele>175</ele>
        <time>2017-10-15T09:32:26Z</time>
      </trkpt>
      <trkpt lat="45.93661" lon="4.78744">
        <ele>174</ele>
        <time>2017-10-15T09:32:27Z</time>
      </trkpt>
      <trkpt lat="45.93664" lon="4.78738">
        <ele>174</ele>
        <time>2017-10-15T09:32:28Z</time>
      </trkpt>
      <trkpt lat="45.93667" lon="4.7873">
        <ele>175</ele>
        <time>2017-10-15T09:32:29Z</time>
      </trkpt>
      <trkpt lat="45.9367" lon="4.78724">
        <ele>175</ele>
        <time>2017-10-15T09:32:30Z</time>
      </trkpt>
      <trkpt lat="45.93673" lon="4.78717">
        <ele>175</ele>
        <time>2017-10-15T09:32:31Z</time>
      </trkpt>
      <trkpt lat="45.93676" lon="4.7871">
        <ele>175</ele>
        <time>2017-10-15T09:32:32Z</time>
      </trkpt>
      <trkpt lat="45.9368" lon="4.78704">
        <ele>175</ele>
        <time>2017-10-15T09:32:33Z</time>
      </trkpt>
      <trkpt lat="45.93682" lon="4.78697">
        <ele>175</ele>
        <time>2017-10-15T09:32:34Z</time>
      </trkpt>
      <trkpt lat="45.93685" lon="4.78691">
        <ele>175</ele>
        <time>2017-10-15T09:32:35Z</time>
      </trkpt>
      <trkpt lat="45.93688" lon="4.78685">
        <ele>175</ele>
        <time>2017-10-15T09:32:36Z</time>
      </trkpt>
      <trkpt lat="45.9369" lon="4.78678">
        <ele>175</ele>
        <time>2017-10-15T09:32:37Z</time>
      </trkpt>
      <trkpt lat="45.93692" lon="4.78672">
        <ele>175</ele>
        <time>2017-10-15T09:32:38Z</time>
      </trkpt>
      <trkpt lat="45.93695" lon="4.78666">
        <ele>176</ele>
        <time>2017-10-15T09:32:39Z</time>
      </trkpt>
      <trkpt lat="45.93697" lon="4.78661">
        <ele>176</ele>
        <time>2017-10-15T09:32:40Z</time>
      </trkpt>
      <trkpt lat="45.93699" lon="4.78654">
        <ele>176</ele>
        <time>2017-10-15T09:32:41Z</time>
      </trkpt>
      <trkpt lat="45.93701" lon="4.78649">
        <ele>176</ele>
        <time>2017-10-15T09:32:42Z</time>
      </trkpt>
      <trkpt lat="45.93705" lon="4.78644">
        <ele>176</ele>
        <time>2017-10-15T09:32:43Z</time>
      </trkpt>
      <trkpt lat="45.93708" lon="4.78639">
        <ele>176</ele>
        <time>2017-10-15T09:32:44Z</time>
      </trkpt>
      <trkpt lat="45.9371" lon="4.78633">
        <ele>176</ele>
        <time>2017-10-15T09:32:45Z</time>
      </trkpt>
      <trkpt lat="45.93712" lon="4.78627">
        <ele>176</ele>
        <time>2017-10-15T09:32:46Z</time>
      </trkpt>
      <trkpt lat="45.93713" lon="4.78615">
        <ele>176</ele>
        <time>2017-10-15T09:32:48Z</time>
      </trkpt>
      <trkpt lat="45.93713" lon="4.78608">
        <ele>176</ele>
        <time>2017-10-15T09:32:49Z</time>
      </trkpt>
      <trkpt lat="45.93714" lon="4.78598">
        <ele>177</ele>
        <time>2017-10-15T09:32:51Z</time>
      </trkpt>
      <trkpt lat="45.93716" lon="4.7859">
        <ele>177</ele>
        <time>2017-10-15T09:32:52Z</time>
      </trkpt>
      <trkpt lat="45.93717" lon="4.78583">
        <ele>178</ele>
        <time>2017-10-15T09:32:53Z</time>
      </trkpt>
      <trkpt lat="45.93719" lon="4.78577">
        <ele>178</ele>
        <time>2017-10-15T09:32:54Z</time>
      </trkpt>
      <trkpt lat="45.93722" lon="4.78566">
        <ele>178</ele>
        <time>2017-10-15T09:32:56Z</time>
      </trkpt>
      <trkpt lat="45.93723" lon="4.78559">
        <ele>178</ele>
        <time>2017-10-15T09:32:57Z</time>
      </trkpt>
      <trkpt lat="45.93727" lon="4.78548">
        <ele>178</ele>
        <time>2017-10-15T09:32:59Z</time>
      </trkpt>
      <trkpt lat="45.93728" lon="4.78541">
        <ele>178</ele>
        <time>2017-10-15T09:33:00Z</time>
      </trkpt>
      <trkpt lat="45.93729" lon="4.78535">
        <ele>178</ele>
        <time>2017-10-15T09:33:01Z</time>
      </trkpt>
      <trkpt lat="45.9373" lon="4.78528">
        <ele>179</ele>
        <time>2017-10-15T09:33:02Z</time>
      </trkpt>
      <trkpt lat="45.93733" lon="4.78516">
        <ele>179</ele>
        <time>2017-10-15T09:33:04Z</time>
      </trkpt>
      <trkpt lat="45.93734" lon="4.7851">
        <ele>179</ele>
        <time>2017-10-15T09:33:05Z</time>
      </trkpt>
      <trkpt lat="45.93737" lon="4.78498">
        <ele>180</ele>
        <time>2017-10-15T09:33:07Z</time>
      </trkpt>
      <trkpt lat="45.93739" lon="4.78492">
        <ele>180</ele>
        <time>2017-10-15T09:33:08Z</time>
      </trkpt>
      <trkpt lat="45.93741" lon="4.7848">
        <ele>180</ele>
        <time>2017-10-15T09:33:10Z</time>
      </trkpt>
      <trkpt lat="45.93743" lon="4.78474">
        <ele>180</ele>
        <time>2017-10-15T09:33:11Z</time>
      </trkpt>
      <trkpt lat="45.93744" lon="4.78468">
        <ele>180</ele>
        <time>2017-10-15T09:33:12Z</time>
      </trkpt>
      <trkpt lat="45.93747" lon="4.78462">
        <ele>180</ele>
        <time>2017-10-15T09:33:13Z</time>
      </trkpt>
      <trkpt lat="45.9375" lon="4.78452">
        <ele>180</ele>
        <time>2017-10-15T09:33:15Z</time>
      </trkpt>
      <trkpt lat="45.93751" lon="4.78446">
        <ele>183</ele>
        <time>2017-10-15T09:33:16Z</time>
      </trkpt>
      <trkpt lat="45.93753" lon="4.78434">
        <ele>183</ele>
        <time>2017-10-15T09:33:18Z</time>
      </trkpt>
      <trkpt lat="45.93755" lon="4.78426">
        <ele>182</ele>
        <time>2017-10-15T09:33:19Z</time>
      </trkpt>
      <trkpt lat="45.93758" lon="4.78414">
        <ele>182</ele>
        <time>2017-10-15T09:33:21Z</time>
      </trkpt>
      <trkpt lat="45.93761" lon="4.78409">
        <ele>182</ele>
        <time>2017-10-15T09:33:22Z</time>
      </trkpt>
      <trkpt lat="45.93765" lon="4.78397">
        <ele>183</ele>
        <time>2017-10-15T09:33:24Z</time>
      </trkpt>
      <trkpt lat="45.93768" lon="4.78388">
        <ele>183</ele>
        <time>2017-10-15T09:33:25Z</time>
      </trkpt>
      <trkpt lat="45.93772" lon="4.78376">
        <ele>183</ele>
        <time>2017-10-15T09:33:27Z</time>
      </trkpt>
      <trkpt lat="45.93773" lon="4.7837">
        <ele>183</ele>
        <time>2017-10-15T09:33:28Z</time>
      </trkpt>
      <trkpt lat="45.93777" lon="4.78364">
        <ele>184</ele>
        <time>2017-10-15T09:33:29Z</time>
      </trkpt>
      <trkpt lat="45.93778" lon="4.78358">
        <ele>184</ele>
        <time>2017-10-15T09:33:30Z</time>
      </trkpt>
      <trkpt lat="45.9378" lon="4.78351">
        <ele>184</ele>
        <time>2017-10-15T09:33:31Z</time>
      </trkpt>
      <trkpt lat="45.9378" lon="4.78344">
        <ele>183</ele>
        <time>2017-10-15T09:33:32Z</time>
      </trkpt>
      <trkpt lat="45.93782" lon="4.78337">
        <ele>184</ele>
        <time>2017-10-15T09:33:33Z</time>
      </trkpt>
      <trkpt lat="45.93783" lon="4.78332">
        <ele>183</ele>
        <time>2017-10-15T09:33:34Z</time>
      </trkpt>
      <trkpt lat="45.93786" lon="4.7832">
        <ele>183</ele>
        <time>2017-10-15T09:33:36Z</time>
      </trkpt>
      <trkpt lat="45.93787" lon="4.78314">
        <ele>183</ele>
        <time>2017-10-15T09:33:37Z</time>
      </trkpt>
      <trkpt lat="45.93791" lon="4.78303">
        <ele>183</ele>
        <time>2017-10-15T09:33:39Z</time>
      </trkpt>
      <trkpt lat="45.93793" lon="4.78296">
        <ele>183</ele>
        <time>2017-10-15T09:33:40Z</time>
      </trkpt>
      <trkpt lat="45.93796" lon="4.7829">
        <ele>183</ele>
        <time>2017-10-15T09:33:41Z</time>
      </trkpt>
      <trkpt lat="45.93797" lon="4.78284">
        <ele>183</ele>
        <time>2017-10-15T09:33:42Z</time>
      </trkpt>
      <trkpt lat="45.93799" lon="4.78278">
        <ele>183</ele>
        <time>2017-10-15T09:33:43Z</time>
      </trkpt>
      <trkpt lat="45.93803" lon="4.78273">
        <ele>183</ele>
        <time>2017-10-15T09:33:44Z</time>
      </trkpt>
      <trkpt lat="45.93808" lon="4.7827">
        <ele>183</ele>
        <time>2017-10-15T09:33:45Z</time>
      </trkpt>
      <trkpt lat="45.93811" lon="4.78266">
        <ele>183</ele>
        <time>2017-10-15T09:33:46Z</time>
      </trkpt>
      <trkpt lat="45.93813" lon="4.7826">
        <ele>184</ele>
        <time>2017-10-15T09:33:47Z</time>
      </trkpt>
      <trkpt lat="45.93815" lon="4.78252">
        <ele>184</ele>
        <time>2017-10-15T09:33:48Z</time>
      </trkpt>
      <trkpt lat="45.93817" lon="4.78246">
        <ele>183</ele>
        <time>2017-10-15T09:33:49Z</time>
      </trkpt>
      <trkpt lat="45.93819" lon="4.7824">
        <ele>183</ele>
        <time>2017-10-15T09:33:50Z</time>
      </trkpt>
      <trkpt lat="45.93821" lon="4.78234">
        <ele>183</ele>
        <time>2017-10-15T09:33:51Z</time>
      </trkpt>
      <trkpt lat="45.93821" lon="4.78227">
        <ele>182</ele>
        <time>2017-10-15T09:33:52Z</time>
      </trkpt>
      <trkpt lat="45.93823" lon="4.78214">
        <ele>182</ele>
        <time>2017-10-15T09:33:54Z</time>
      </trkpt>
      <trkpt lat="45.93826" lon="4.78209">
        <ele>182</ele>
        <time>2017-10-15T09:33:55Z</time>
      </trkpt>
      <trkpt lat="45.93829" lon="4.78199">
        <ele>182</ele>
        <time>2017-10-15T09:33:57Z</time>
      </trkpt>
      <trkpt lat="45.9383" lon="4.78193">
        <ele>182</ele>
        <time>2017-10-15T09:33:58Z</time>
      </trkpt>
      <trkpt lat="45.93832" lon="4.78188">
        <ele>182</ele>
        <time>2017-10-15T09:33:59Z</time>
      </trkpt>
      <trkpt lat="45.93833" lon="4.78181">
        <ele>182</ele>
        <time>2017-10-15T09:34:00Z</time>
      </trkpt>
      <trkpt lat="45.93835" lon="4.78174">
        <ele>183</ele>
        <time>2017-10-15T09:34:01Z</time>
      </trkpt>
      <trkpt lat="45.93837" lon="4.78167">
        <ele>183</ele>
        <time>2017-10-15T09:34:02Z</time>
      </trkpt>
      <trkpt lat="45.93839" lon="4.78161">
        <ele>183</ele>
        <time>2017-10-15T09:34:03Z</time>
      </trkpt>
      <trkpt lat="45.9384" lon="4.78154">
        <ele>184</ele>
        <time>2017-10-15T09:34:04Z</time>
      </trkpt>
      <trkpt lat="45.93841" lon="4.78148">
        <ele>184</ele>
        <time>2017-10-15T09:34:05Z</time>
      </trkpt>
      <trkpt lat="45.93843" lon="4.7814">
        <ele>185</ele>
        <time>2017-10-15T09:34:06Z</time>
      </trkpt>
      <trkpt lat="45.93845" lon="4.78133">
        <ele>185</ele>
        <time>2017-10-15T09:34:07Z</time>
      </trkpt>
      <trkpt lat="45.93847" lon="4.78126">
        <ele>185</ele>
        <time>2017-10-15T09:34:08Z</time>
      </trkpt>
      <trkpt lat="45.93849" lon="4.78119">
        <ele>185</ele>
        <time>2017-10-15T09:34:09Z</time>
      </trkpt>
      <trkpt lat="45.9385" lon="4.7811">
        <ele>184</ele>
        <time>2017-10-15T09:34:10Z</time>
      </trkpt>
      <trkpt lat="45.93851" lon="4.78104">
        <ele>184</ele>
        <time>2017-10-15T09:34:11Z</time>
      </trkpt>
      <trkpt lat="45.93854" lon="4.78098">
        <ele>184</ele>
        <time>2017-10-15T09:34:12Z</time>
      </trkpt>
      <trkpt lat="45.93856" lon="4.78085">
        <ele>184</ele>
        <time>2017-10-15T09:34:14Z</time>
      </trkpt>
      <trkpt lat="45.93857" lon="4.78079">
        <ele>183</ele>
        <time>2017-10-15T09:34:15Z</time>
      </trkpt>
      <trkpt lat="45.93858" lon="4.78072">
        <ele>183</ele>
        <time>2017-10-15T09:34:16Z</time>
      </trkpt>
      <trkpt lat="45.93859" lon="4.78065">
        <ele>183</ele>
        <time>2017-10-15T09:34:17Z</time>
      </trkpt>
      <trkpt lat="45.93861" lon="4.78058">
        <ele>183</ele>
        <time>2017-10-15T09:34:18Z</time>
      </trkpt>
      <trkpt lat="45.93862" lon="4.78052">
        <ele>183</ele>
        <time>2017-10-15T09:34:19Z</time>
      </trkpt>
      <trkpt lat="45.93866" lon="4.78041">
        <ele>183</ele>
        <time>2017-10-15T09:34:21Z</time>
      </trkpt>
      <trkpt lat="45.93868" lon="4.78036">
        <ele>183</ele>
        <time>2017-10-15T09:34:22Z</time>
      </trkpt>
      <trkpt lat="45.93867" lon="4.78029">
        <ele>183</ele>
        <time>2017-10-15T09:34:23Z</time>
      </trkpt>
      <trkpt lat="45.93869" lon="4.78021">
        <ele>183</ele>
        <time>2017-10-15T09:34:24Z</time>
      </trkpt>
      <trkpt lat="45.93869" lon="4.78015">
        <ele>183</ele>
        <time>2017-10-15T09:34:25Z</time>
      </trkpt>
      <trkpt lat="45.93869" lon="4.78008">
        <ele>183</ele>
        <time>2017-10-15T09:34:26Z</time>
      </trkpt>
      <trkpt lat="45.93869" lon="4.77999">
        <ele>180</ele>
        <time>2017-10-15T09:34:27Z</time>
      </trkpt>
      <trkpt lat="45.9387" lon="4.7799">
        <ele>180</ele>
        <time>2017-10-15T09:34:28Z</time>
      </trkpt>
      <trkpt lat="45.93873" lon="4.77984">
        <ele>180</ele>
        <time>2017-10-15T09:34:29Z</time>
      </trkpt>
      <trkpt lat="45.93875" lon="4.77976">
        <ele>179</ele>
        <time>2017-10-15T09:34:30Z</time>
      </trkpt>
      <trkpt lat="45.93877" lon="4.77968">
        <ele>179</ele>
        <time>2017-10-15T09:34:31Z</time>
      </trkpt>
      <trkpt lat="45.93879" lon="4.7796">
        <ele>179</ele>
        <time>2017-10-15T09:34:32Z</time>
      </trkpt>
      <trkpt lat="45.93882" lon="4.77951">
        <ele>179</ele>
        <time>2017-10-15T09:34:33Z</time>
      </trkpt>
      <trkpt lat="45.93884" lon="4.77943">
        <ele>179</ele>
        <time>2017-10-15T09:34:34Z</time>
      </trkpt>
      <trkpt lat="45.93887" lon="4.77932">
        <ele>179</ele>
        <time>2017-10-15T09:34:35Z</time>
      </trkpt>
      <trkpt lat="45.93889" lon="4.77923">
        <ele>179</ele>
        <time>2017-10-15T09:34:36Z</time>
      </trkpt>
      <trkpt lat="45.9389" lon="4.77914">
        <ele>177</ele>
        <time>2017-10-15T09:34:37Z</time>
      </trkpt>
      <trkpt lat="45.93893" lon="4.77905">
        <ele>177</ele>
        <time>2017-10-15T09:34:38Z</time>
      </trkpt>
      <trkpt lat="45.93896" lon="4.77897">
        <ele>177</ele>
        <time>2017-10-15T09:34:39Z</time>
      </trkpt>
      <trkpt lat="45.93899" lon="4.77888">
        <ele>176</ele>
        <time>2017-10-15T09:34:40Z</time>
      </trkpt>
      <trkpt lat="45.93902" lon="4.77879">
        <ele>176</ele>
        <time>2017-10-15T09:34:41Z</time>
      </trkpt>
      <trkpt lat="45.93905" lon="4.7787">
        <ele>176</ele>
        <time>2017-10-15T09:34:42Z</time>
      </trkpt>
      <trkpt lat="45.93908" lon="4.77861">
        <ele>176</ele>
        <time>2017-10-15T09:34:43Z</time>
      </trkpt>
      <trkpt lat="45.9391" lon="4.77852">
        <ele>176</ele>
        <time>2017-10-15T09:34:44Z</time>
      </trkpt>
      <trkpt lat="45.93913" lon="4.77843">
        <ele>177</ele>
        <time>2017-10-15T09:34:45Z</time>
      </trkpt>
      <trkpt lat="45.93914" lon="4.77834">
        <ele>178</ele>
        <time>2017-10-15T09:34:46Z</time>
      </trkpt>
      <trkpt lat="45.93916" lon="4.77824">
        <ele>175</ele>
        <time>2017-10-15T09:34:47Z</time>
      </trkpt>
      <trkpt lat="45.93918" lon="4.77815">
        <ele>180</ele>
        <time>2017-10-15T09:34:48Z</time>
      </trkpt>
      <trkpt lat="45.9392" lon="4.77805">
        <ele>180</ele>
        <time>2017-10-15T09:34:49Z</time>
      </trkpt>
      <trkpt lat="45.93921" lon="4.77795">
        <ele>179</ele>
        <time>2017-10-15T09:34:50Z</time>
      </trkpt>
      <trkpt lat="45.93923" lon="4.77786">
        <ele>178</ele>
        <time>2017-10-15T09:34:51Z</time>
      </trkpt>
      <trkpt lat="45.93926" lon="4.77777">
        <ele>177</ele>
        <time>2017-10-15T09:34:52Z</time>
      </trkpt>
      <trkpt lat="45.93929" lon="4.77768">
        <ele>176</ele>
        <time>2017-10-15T09:34:53Z</time>
      </trkpt>
      <trkpt lat="45.93933" lon="4.77761">
        <ele>175</ele>
        <time>2017-10-15T09:34:54Z</time>
      </trkpt>
      <trkpt lat="45.93937" lon="4.77753">
        <ele>175</ele>
        <time>2017-10-15T09:34:55Z</time>
      </trkpt>
      <trkpt lat="45.9394" lon="4.77745">
        <ele>174</ele>
        <time>2017-10-15T09:34:56Z</time>
      </trkpt>
      <trkpt lat="45.93945" lon="4.77736">
        <ele>176</ele>
        <time>2017-10-15T09:34:57Z</time>
      </trkpt>
      <trkpt lat="45.93948" lon="4.77728">
        <ele>176</ele>
        <time>2017-10-15T09:34:58Z</time>
      </trkpt>
      <trkpt lat="45.93951" lon="4.7772">
        <ele>177</ele>
        <time>2017-10-15T09:34:59Z</time>
      </trkpt>
      <trkpt lat="45.93953" lon="4.77713">
        <ele>177</ele>
        <time>2017-10-15T09:35:00Z</time>
      </trkpt>
      <trkpt lat="45.93955" lon="4.77706">
        <ele>178</ele>
        <time>2017-10-15T09:35:01Z</time>
      </trkpt>
      <trkpt lat="45.93957" lon="4.777">
        <ele>178</ele>
        <time>2017-10-15T09:35:02Z</time>
      </trkpt>
      <trkpt lat="45.93959" lon="4.77694">
        <ele>178</ele>
        <time>2017-10-15T09:35:03Z</time>
      </trkpt>
      <trkpt lat="45.93962" lon="4.77687">
        <ele>178</ele>
        <time>2017-10-15T09:35:04Z</time>
      </trkpt>
      <trkpt lat="45.93964" lon="4.7768">
        <ele>179</ele>
        <time>2017-10-15T09:35:05Z</time>
      </trkpt>
      <trkpt lat="45.93965" lon="4.77673">
        <ele>179</ele>
        <time>2017-10-15T09:35:06Z</time>
      </trkpt>
      <trkpt lat="45.93967" lon="4.77665">
        <ele>179</ele>
        <time>2017-10-15T09:35:07Z</time>
      </trkpt>
      <trkpt lat="45.93969" lon="4.77657">
        <ele>179</ele>
        <time>2017-10-15T09:35:08Z</time>
      </trkpt>
      <trkpt lat="45.93971" lon="4.77649">
        <ele>179</ele>
        <time>2017-10-15T09:35:09Z</time>
      </trkpt>
      <trkpt lat="45.93973" lon="4.77642">
        <ele>179</ele>
        <time>2017-10-15T09:35:10Z</time>
      </trkpt>
      <trkpt lat="45.93974" lon="4.77635">
        <ele>179</ele>
        <time>2017-10-15T09:35:11Z</time>
      </trkpt>
      <trkpt lat="45.93976" lon="4.77627">
        <ele>179</ele>
        <time>2017-10-15T09:35:12Z</time>
      </trkpt>
      <trkpt lat="45.93978" lon="4.77619">
        <ele>179</ele>
        <time>2017-10-15T09:35:13Z</time>
      </trkpt>
      <trkpt lat="45.9398" lon="4.77612">
        <ele>180</ele>
        <time>2017-10-15T09:35:14Z</time>
      </trkpt>
      <trkpt lat="45.93981" lon="4.77604">
        <ele>180</ele>
        <time>2017-10-15T09:35:15Z</time>
      </trkpt>
      <trkpt lat="45.93982" lon="4.77597">
        <ele>181</ele>
        <time>2017-10-15T09:35:16Z</time>
      </trkpt>
      <trkpt lat="45.93983" lon="4.77589">
        <ele>182</ele>
        <time>2017-10-15T09:35:17Z</time>
      </trkpt>
      <trkpt lat="45.93985" lon="4.77581">
        <ele>181</ele>
        <time>2017-10-15T09:35:18Z</time>
      </trkpt>
      <trkpt lat="45.93987" lon="4.77574">
        <ele>181</ele>
        <time>2017-10-15T09:35:19Z</time>
      </trkpt>
      <trkpt lat="45.93989" lon="4.77567">
        <ele>181</ele>
        <time>2017-10-15T09:35:20Z</time>
      </trkpt>
      <trkpt lat="45.93991" lon="4.77559">
        <ele>180</ele>
        <time>2017-10-15T09:35:21Z</time>
      </trkpt>
      <trkpt lat="45.93992" lon="4.77551">
        <ele>179</ele>
        <time>2017-10-15T09:35:22Z</time>
      </trkpt>
      <trkpt lat="45.93994" lon="4.77544">
        <ele>179</ele>
        <time>2017-10-15T09:35:23Z</time>
      </trkpt>
      <trkpt lat="45.93996" lon="4.77539">
        <ele>179</ele>
        <time>2017-10-15T09:35:24Z</time>
      </trkpt>
      <trkpt lat="45.93997" lon="4.77531">
        <ele>179</ele>
        <time>2017-10-15T09:35:25Z</time>
      </trkpt>
      <trkpt lat="45.93998" lon="4.77524">
        <ele>179</ele>
        <time>2017-10-15T09:35:26Z</time>
      </trkpt>
      <trkpt lat="45.93999" lon="4.77518">
        <ele>180</ele>
        <time>2017-10-15T09:35:27Z</time>
      </trkpt>
      <trkpt lat="45.93999" lon="4.7751">
        <ele>181</ele>
        <time>2017-10-15T09:35:28Z</time>
      </trkpt>
      <trkpt lat="45.94003" lon="4.77499">
        <ele>184</ele>
        <time>2017-10-15T09:35:30Z</time>
      </trkpt>
      <trkpt lat="45.94004" lon="4.77493">
        <ele>184</ele>
        <time>2017-10-15T09:35:31Z</time>
      </trkpt>
      <trkpt lat="45.94006" lon="4.77483">
        <ele>185</ele>
        <time>2017-10-15T09:35:33Z</time>
      </trkpt>
      <trkpt lat="45.94008" lon="4.77478">
        <ele>185</ele>
        <time>2017-10-15T09:35:34Z</time>
      </trkpt>
      <trkpt lat="45.94008" lon="4.77471">
        <ele>185</ele>
        <time>2017-10-15T09:35:35Z</time>
      </trkpt>
      <trkpt lat="45.94009" lon="4.77464">
        <ele>185</ele>
        <time>2017-10-15T09:35:36Z</time>
      </trkpt>
      <trkpt lat="45.9401" lon="4.77456">
        <ele>185</ele>
        <time>2017-10-15T09:35:37Z</time>
      </trkpt>
      <trkpt lat="45.94011" lon="4.77448">
        <ele>184</ele>
        <time>2017-10-15T09:35:38Z</time>
      </trkpt>
      <trkpt lat="45.94012" lon="4.77442">
        <ele>184</ele>
        <time>2017-10-15T09:35:39Z</time>
      </trkpt>
      <trkpt lat="45.94013" lon="4.77434">
        <ele>183</ele>
        <time>2017-10-15T09:35:40Z</time>
      </trkpt>
      <trkpt lat="45.94015" lon="4.77426">
        <ele>182</ele>
        <time>2017-10-15T09:35:41Z</time>
      </trkpt>
      <trkpt lat="45.94013" lon="4.77419">
        <ele>181</ele>
        <time>2017-10-15T09:35:42Z</time>
      </trkpt>
      <trkpt lat="45.94015" lon="4.77409">
        <ele>179</ele>
        <time>2017-10-15T09:35:43Z</time>
      </trkpt>
      <trkpt lat="45.94015" lon="4.774">
        <ele>179</ele>
        <time>2017-10-15T09:35:44Z</time>
      </trkpt>
      <trkpt lat="45.94016" lon="4.77393">
        <ele>180</ele>
        <time>2017-10-15T09:35:45Z</time>
      </trkpt>
      <trkpt lat="45.94016" lon="4.77384">
        <ele>180</ele>
        <time>2017-10-15T09:35:46Z</time>
      </trkpt>
      <trkpt lat="45.94017" lon="4.77376">
        <ele>179</ele>
        <time>2017-10-15T09:35:47Z</time>
      </trkpt>
      <trkpt lat="45.94017" lon="4.77369">
        <ele>179</ele>
        <time>2017-10-15T09:35:48Z</time>
      </trkpt>
      <trkpt lat="45.94018" lon="4.77362">
        <ele>179</ele>
        <time>2017-10-15T09:35:49Z</time>
      </trkpt>
      <trkpt lat="45.94018" lon="4.77354">
        <ele>178</ele>
        <time>2017-10-15T09:35:50Z</time>
      </trkpt>
      <trkpt lat="45.94019" lon="4.77346">
        <ele>178</ele>
        <time>2017-10-15T09:35:51Z</time>
      </trkpt>
      <trkpt lat="45.94019" lon="4.7734">
        <ele>177</ele>
        <time>2017-10-15T09:35:52Z</time>
      </trkpt>
      <trkpt lat="45.94019" lon="4.77332">
        <ele>175</ele>
        <time>2017-10-15T09:35:53Z</time>
      </trkpt>
      <trkpt lat="45.9402" lon="4.77325">
        <ele>175</ele>
        <time>2017-10-15T09:35:54Z</time>
      </trkpt>
      <trkpt lat="45.94021" lon="4.77318">
        <ele>176</ele>
        <time>2017-10-15T09:35:55Z</time>
      </trkpt>
      <trkpt lat="45.94022" lon="4.77312">
        <ele>176</ele>
        <time>2017-10-15T09:35:56Z</time>
      </trkpt>
      <trkpt lat="45.94023" lon="4.77306">
        <ele>176</ele>
        <time>2017-10-15T09:35:57Z</time>
      </trkpt>
      <trkpt lat="45.94023" lon="4.77299">
        <ele>176</ele>
        <time>2017-10-15T09:35:58Z</time>
      </trkpt>
      <trkpt lat="45.94023" lon="4.7729">
        <ele>176</ele>
        <time>2017-10-15T09:36:00Z</time>
      </trkpt>
      <trkpt lat="45.94023" lon="4.77285">
        <ele>176</ele>
        <time>2017-10-15T09:36:01Z</time>
      </trkpt>
      <trkpt lat="45.94025" lon="4.77275">
        <ele>176</ele>
        <time>2017-10-15T09:36:03Z</time>
      </trkpt>
      <trkpt lat="45.94026" lon="4.7727">
        <ele>175</ele>
        <time>2017-10-15T09:36:04Z</time>
      </trkpt>
      <trkpt lat="45.94027" lon="4.77257">
        <ele>175</ele>
        <time>2017-10-15T09:36:07Z</time>
      </trkpt>
      <trkpt lat="45.94027" lon="4.77253">
        <ele>175</ele>
        <time>2017-10-15T09:36:08Z</time>
      </trkpt>
      <trkpt lat="45.94028" lon="4.77243">
        <ele>174</ele>
        <time>2017-10-15T09:36:10Z</time>
      </trkpt>
      <trkpt lat="45.94028" lon="4.77238">
        <ele>174</ele>
        <time>2017-10-15T09:36:11Z</time>
      </trkpt>
      <trkpt lat="45.9403" lon="4.77227">
        <ele>174</ele>
        <time>2017-10-15T09:36:13Z</time>
      </trkpt>
      <trkpt lat="45.9403" lon="4.77221">
        <ele>175</ele>
        <time>2017-10-15T09:36:14Z</time>
      </trkpt>
      <trkpt lat="45.94032" lon="4.77209">
        <ele>175</ele>
        <time>2017-10-15T09:36:16Z</time>
      </trkpt>
      <trkpt lat="45.94031" lon="4.77201">
        <ele>175</ele>
        <time>2017-10-15T09:36:17Z</time>
      </trkpt>
      <trkpt lat="45.94032" lon="4.77195">
        <ele>175</ele>
        <time>2017-10-15T09:36:18Z</time>
      </trkpt>
      <trkpt lat="45.94033" lon="4.77187">
        <ele>175</ele>
        <time>2017-10-15T09:36:19Z</time>
      </trkpt>
      <trkpt lat="45.94035" lon="4.77181">
        <ele>175</ele>
        <time>2017-10-15T09:36:20Z</time>
      </trkpt>
      <trkpt lat="45.94036" lon="4.77175">
        <ele>175</ele>
        <time>2017-10-15T09:36:21Z</time>
      </trkpt>
      <trkpt lat="45.94037" lon="4.77167">
        <ele>175</ele>
        <time>2017-10-15T09:36:22Z</time>
      </trkpt>
      <trkpt lat="45.94038" lon="4.7716">
        <ele>175</ele>
        <time>2017-10-15T09:36:23Z</time>
      </trkpt>
      <trkpt lat="45.94039" lon="4.77153">
        <ele>175</ele>
        <time>2017-10-15T09:36:24Z</time>
      </trkpt>
      <trkpt lat="45.9404" lon="4.77145">
        <ele>175</ele>
        <time>2017-10-15T09:36:25Z</time>
      </trkpt>
      <trkpt lat="45.94041" lon="4.77133">
        <ele>175</ele>
        <time>2017-10-15T09:36:27Z</time>
      </trkpt>
      <trkpt lat="45.94043" lon="4.77127">
        <ele>175</ele>
        <time>2017-10-15T09:36:28Z</time>
      </trkpt>
      <trkpt lat="45.94044" lon="4.77121">
        <ele>175</ele>
        <time>2017-10-15T09:36:29Z</time>
      </trkpt>
      <trkpt lat="45.94046" lon="4.77115">
        <ele>175</ele>
        <time>2017-10-15T09:36:30Z</time>
      </trkpt>
      <trkpt lat="45.94048" lon="4.77103">
        <ele>175</ele>
        <time>2017-10-15T09:36:32Z</time>
      </trkpt>
      <trkpt lat="45.9405" lon="4.77097">
        <ele>175</ele>
        <time>2017-10-15T09:36:33Z</time>
      </trkpt>
      <trkpt lat="45.94052" lon="4.77085">
        <ele>175</ele>
        <time>2017-10-15T09:36:35Z</time>
      </trkpt>
      <trkpt lat="45.94051" lon="4.77077">
        <ele>175</ele>
        <time>2017-10-15T09:36:36Z</time>
      </trkpt>
      <trkpt lat="45.94052" lon="4.77067">
        <ele>175</ele>
        <time>2017-10-15T09:36:37Z</time>
      </trkpt>
      <trkpt lat="45.94052" lon="4.7706">
        <ele>175</ele>
        <time>2017-10-15T09:36:38Z</time>
      </trkpt>
      <trkpt lat="45.94053" lon="4.77052">
        <ele>175</ele>
        <time>2017-10-15T09:36:39Z</time>
      </trkpt>
      <trkpt lat="45.94053" lon="4.77045">
        <ele>175</ele>
        <time>2017-10-15T09:36:40Z</time>
      </trkpt>
      <trkpt lat="45.94053" lon="4.77038">
        <ele>175</ele>
        <time>2017-10-15T09:36:41Z</time>
      </trkpt>
      <trkpt lat="45.94055" lon="4.77031">
        <ele>175</ele>
        <time>2017-10-15T09:36:42Z</time>
      </trkpt>
      <trkpt lat="45.94056" lon="4.77025">
        <ele>175</ele>
        <time>2017-10-15T09:36:43Z</time>
      </trkpt>
      <trkpt lat="45.94057" lon="4.77018">
        <ele>175</ele>
        <time>2017-10-15T09:36:44Z</time>
      </trkpt>
      <trkpt lat="45.94057" lon="4.77012">
        <ele>175</ele>
        <time>2017-10-15T09:36:45Z</time>
      </trkpt>
      <trkpt lat="45.94059" lon="4.77005">
        <ele>175</ele>
        <time>2017-10-15T09:36:46Z</time>
      </trkpt>
      <trkpt lat="45.94063" lon="4.76994">
        <ele>175</ele>
        <time>2017-10-15T09:36:48Z</time>
      </trkpt>
      <trkpt lat="45.94065" lon="4.76989">
        <ele>175</ele>
        <time>2017-10-15T09:36:49Z</time>
      </trkpt>
      <trkpt lat="45.94067" lon="4.76978">
        <ele>175</ele>
        <time>2017-10-15T09:36:51Z</time>
      </trkpt>
      <trkpt lat="45.94067" lon="4.76972">
        <ele>175</ele>
        <time>2017-10-15T09:36:52Z</time>
      </trkpt>
      <trkpt lat="45.94064" lon="4.76966">
        <ele>174</ele>
        <time>2017-10-15T09:36:53Z</time>
      </trkpt>
      <trkpt lat="45.9406" lon="4.76963">
        <ele>174</ele>
        <time>2017-10-15T09:36:54Z</time>
      </trkpt>
      <trkpt lat="45.94052" lon="4.76957">
        <ele>174</ele>
        <time>2017-10-15T09:36:56Z</time>
      </trkpt>
      <trkpt lat="45.94048" lon="4.76952">
        <ele>174</ele>
        <time>2017-10-15T09:36:57Z</time>
      </trkpt>
      <trkpt lat="45.94046" lon="4.76945">
        <ele>174</ele>
        <time>2017-10-15T09:36:58Z</time>
      </trkpt>
      <trkpt lat="45.94043" lon="4.76939">
        <ele>174</ele>
        <time>2017-10-15T09:36:59Z</time>
      </trkpt>
      <trkpt lat="45.94041" lon="4.76932">
        <ele>174</ele>
        <time>2017-10-15T09:37:00Z</time>
      </trkpt>
      <trkpt lat="45.9404" lon="4.76926">
        <ele>174</ele>
        <time>2017-10-15T09:37:01Z</time>
      </trkpt>
      <trkpt lat="45.94037" lon="4.76914">
        <ele>173</ele>
        <time>2017-10-15T09:37:03Z</time>
      </trkpt>
      <trkpt lat="45.94035" lon="4.76907">
        <ele>173</ele>
        <time>2017-10-15T09:37:04Z</time>
      </trkpt>
      <trkpt lat="45.94033" lon="4.76901">
        <ele>173</ele>
        <time>2017-10-15T09:37:05Z</time>
      </trkpt>
      <trkpt lat="45.94032" lon="4.76894">
        <ele>173</ele>
        <time>2017-10-15T09:37:06Z</time>
      </trkpt>
      <trkpt lat="45.94029" lon="4.76885">
        <ele>173</ele>
        <time>2017-10-15T09:37:07Z</time>
      </trkpt>
      <trkpt lat="45.94026" lon="4.76879">
        <ele>173</ele>
        <time>2017-10-15T09:37:08Z</time>
      </trkpt>
      <trkpt lat="45.94023" lon="4.76873">
        <ele>173</ele>
        <time>2017-10-15T09:37:09Z</time>
      </trkpt>
      <trkpt lat="45.9402" lon="4.76868">
        <ele>173</ele>
        <time>2017-10-15T09:37:10Z</time>
      </trkpt>
      <trkpt lat="45.94017" lon="4.76862">
        <ele>172</ele>
        <time>2017-10-15T09:37:11Z</time>
      </trkpt>
      <trkpt lat="45.94014" lon="4.76857">
        <ele>172</ele>
        <time>2017-10-15T09:37:12Z</time>
      </trkpt>
      <trkpt lat="45.94012" lon="4.76851">
        <ele>172</ele>
        <time>2017-10-15T09:37:13Z</time>
      </trkpt>
      <trkpt lat="45.9401" lon="4.76845">
        <ele>172</ele>
        <time>2017-10-15T09:37:14Z</time>
      </trkpt>
      <trkpt lat="45.94007" lon="4.76835">
        <ele>172</ele>
        <time>2017-10-15T09:37:16Z</time>
      </trkpt>
      <trkpt lat="45.94005" lon="4.76829">
        <ele>171</ele>
        <time>2017-10-15T09:37:17Z</time>
      </trkpt>
      <trkpt lat="45.94001" lon="4.76818">
        <ele>172</ele>
        <time>2017-10-15T09:37:19Z</time>
      </trkpt>
      <trkpt lat="45.93999" lon="4.76813">
        <ele>172</ele>
        <time>2017-10-15T09:37:20Z</time>
      </trkpt>
      <trkpt lat="45.93998" lon="4.76806">
        <ele>172</ele>
        <time>2017-10-15T09:37:21Z</time>
      </trkpt>
      <trkpt lat="45.93998" lon="4.76798">
        <ele>172</ele>
        <time>2017-10-15T09:37:22Z</time>
      </trkpt>
      <trkpt lat="45.93998" lon="4.76792">
        <ele>172</ele>
        <time>2017-10-15T09:37:23Z</time>
      </trkpt>
      <trkpt lat="45.93999" lon="4.76785">
        <ele>172</ele>
        <time>2017-10-15T09:37:24Z</time>
      </trkpt>
      <trkpt lat="45.94" lon="4.76778">
        <ele>172</ele>
        <time>2017-10-15T09:37:25Z</time>
      </trkpt>
      <trkpt lat="45.94001" lon="4.7677">
        <ele>173</ele>
        <time>2017-10-15T09:37:26Z</time>
      </trkpt>
      <trkpt lat="45.94003" lon="4.76763">
        <ele>173</ele>
        <time>2017-10-15T09:37:27Z</time>
      </trkpt>
      <trkpt lat="45.94005" lon="4.76756">
        <ele>173</ele>
        <time>2017-10-15T09:37:28Z</time>
      </trkpt>
      <trkpt lat="45.94006" lon="4.76749">
        <ele>173</ele>
        <time>2017-10-15T09:37:29Z</time>
      </trkpt>
      <trkpt lat="45.94008" lon="4.76741">
        <ele>173</ele>
        <time>2017-10-15T09:37:30Z</time>
      </trkpt>
      <trkpt lat="45.94011" lon="4.76734">
        <ele>173</ele>
        <time>2017-10-15T09:37:31Z</time>
      </trkpt>
      <trkpt lat="45.94014" lon="4.76727">
        <ele>173</ele>
        <time>2017-10-15T09:37:32Z</time>
      </trkpt>
      <trkpt lat="45.94016" lon="4.76721">
        <ele>173</ele>
        <time>2017-10-15T09:37:33Z</time>
      </trkpt>
      <trkpt lat="45.94018" lon="4.76715">
        <ele>173</ele>
        <time>2017-10-15T09:37:34Z</time>
      </trkpt>
      <trkpt lat="45.9402" lon="4.76708">
        <ele>173</ele>
        <time>2017-10-15T09:37:35Z</time>
      </trkpt>
      <trkpt lat="45.94021" lon="4.76701">
        <ele>173</ele>
        <time>2017-10-15T09:37:36Z</time>
      </trkpt>
      <trkpt lat="45.94023" lon="4.7669">
        <ele>173</ele>
        <time>2017-10-15T09:37:38Z</time>
      </trkpt>
      <trkpt lat="45.94024" lon="4.76683">
        <ele>173</ele>
        <time>2017-10-15T09:37:39Z</time>
      </trkpt>
      <trkpt lat="45.94023" lon="4.76676">
        <ele>173</ele>
        <time>2017-10-15T09:37:40Z</time>
      </trkpt>
      <trkpt lat="45.94023" lon="4.76668">
        <ele>173</ele>
        <time>2017-10-15T09:37:41Z</time>
      </trkpt>
      <trkpt lat="45.94022" lon="4.7666">
        <ele>172</ele>
        <time>2017-10-15T09:37:42Z</time>
      </trkpt>
      <trkpt lat="45.9402" lon="4.7665">
        <ele>172</ele>
        <time>2017-10-15T09:37:43Z</time>
      </trkpt>
      <trkpt lat="45.94018" lon="4.76646">
        <ele>172</ele>
        <time>2017-10-15T09:37:44Z</time>
      </trkpt>
      <trkpt lat="45.94015" lon="4.76637">
        <ele>172</ele>
        <time>2017-10-15T09:37:45Z</time>
      </trkpt>
      <trkpt lat="45.94012" lon="4.7663">
        <ele>172</ele>
        <time>2017-10-15T09:37:46Z</time>
      </trkpt>
      <trkpt lat="45.9401" lon="4.76623">
        <ele>172</ele>
        <time>2017-10-15T09:37:47Z</time>
      </trkpt>
      <trkpt lat="45.94007" lon="4.76614">
        <ele>172</ele>
        <time>2017-10-15T09:37:48Z</time>
      </trkpt>
      <trkpt lat="45.94005" lon="4.76607">
        <ele>172</ele>
        <time>2017-10-15T09:37:49Z</time>
      </trkpt>
      <trkpt lat="45.94003" lon="4.76597">
        <ele>172</ele>
        <time>2017-10-15T09:37:50Z</time>
      </trkpt>
      <trkpt lat="45.94002" lon="4.76591">
        <ele>172</ele>
        <time>2017-10-15T09:37:51Z</time>
      </trkpt>
      <trkpt lat="45.94" lon="4.76585">
        <ele>172</ele>
        <time>2017-10-15T09:37:52Z</time>
      </trkpt>
      <trkpt lat="45.93999" lon="4.76577">
        <ele>172</ele>
        <time>2017-10-15T09:37:53Z</time>
      </trkpt>
      <trkpt lat="45.93998" lon="4.76569">
        <ele>172</ele>
        <time>2017-10-15T09:37:54Z</time>
      </trkpt>
      <trkpt lat="45.93997" lon="4.76562">
        <ele>172</ele>
        <time>2017-10-15T09:37:55Z</time>
      </trkpt>
      <trkpt lat="45.93995" lon="4.76555">
        <ele>172</ele>
        <time>2017-10-15T09:37:56Z</time>
      </trkpt>
      <trkpt lat="45.93995" lon="4.76546">
        <ele>172</ele>
        <time>2017-10-15T09:37:57Z</time>
      </trkpt>
      <trkpt lat="45.93994" lon="4.76537">
        <ele>171</ele>
        <time>2017-10-15T09:37:58Z</time>
      </trkpt>
      <trkpt lat="45.93994" lon="4.76529">
        <ele>171</ele>
        <time>2017-10-15T09:37:59Z</time>
      </trkpt>
      <trkpt lat="45.93994" lon="4.76522">
        <ele>171</ele>
        <time>2017-10-15T09:38:00Z</time>
      </trkpt>
      <trkpt lat="45.93993" lon="4.76514">
        <ele>171</ele>
        <time>2017-10-15T09:38:01Z</time>
      </trkpt>
      <trkpt lat="45.93993" lon="4.76507">
        <ele>171</ele>
        <time>2017-10-15T09:38:02Z</time>
      </trkpt>
      <trkpt lat="45.93992" lon="4.765">
        <ele>171</ele>
        <time>2017-10-15T09:38:03Z</time>
      </trkpt>
      <trkpt lat="45.93992" lon="4.76487">
        <ele>171</ele>
        <time>2017-10-15T09:38:05Z</time>
      </trkpt>
      <trkpt lat="45.93991" lon="4.7648">
        <ele>170</ele>
        <time>2017-10-15T09:38:06Z</time>
      </trkpt>
      <trkpt lat="45.9399" lon="4.76467">
        <ele>170</ele>
        <time>2017-10-15T09:38:08Z</time>
      </trkpt>
      <trkpt lat="45.93991" lon="4.7646">
        <ele>170</ele>
        <time>2017-10-15T09:38:09Z</time>
      </trkpt>
      <trkpt lat="45.93992" lon="4.76448">
        <ele>170</ele>
        <time>2017-10-15T09:38:11Z</time>
      </trkpt>
      <trkpt lat="45.93992" lon="4.76442">
        <ele>169</ele>
        <time>2017-10-15T09:38:12Z</time>
      </trkpt>
      <trkpt lat="45.93994" lon="4.76434">
        <ele>169</ele>
        <time>2017-10-15T09:38:13Z</time>
      </trkpt>
      <trkpt lat="45.93994" lon="4.76428">
        <ele>169</ele>
        <time>2017-10-15T09:38:14Z</time>
      </trkpt>
      <trkpt lat="45.93996" lon="4.76422">
        <ele>168</ele>
        <time>2017-10-15T09:38:15Z</time>
      </trkpt>
      <trkpt lat="45.93998" lon="4.76415">
        <ele>168</ele>
        <time>2017-10-15T09:38:16Z</time>
      </trkpt>
      <trkpt lat="45.94001" lon="4.7641">
        <ele>168</ele>
        <time>2017-10-15T09:38:17Z</time>
      </trkpt>
      <trkpt lat="45.94005" lon="4.76404">
        <ele>169</ele>
        <time>2017-10-15T09:38:18Z</time>
      </trkpt>
      <trkpt lat="45.94009" lon="4.764">
        <ele>169</ele>
        <time>2017-10-15T09:38:19Z</time>
      </trkpt>
      <trkpt lat="45.94013" lon="4.76395">
        <ele>169</ele>
        <time>2017-10-15T09:38:20Z</time>
      </trkpt>
      <trkpt lat="45.94017" lon="4.76391">
        <ele>169</ele>
        <time>2017-10-15T09:38:21Z</time>
      </trkpt>
      <trkpt lat="45.94021" lon="4.76387">
        <ele>170</ele>
        <time>2017-10-15T09:38:22Z</time>
      </trkpt>
      <trkpt lat="45.94026" lon="4.76383">
        <ele>170</ele>
        <time>2017-10-15T09:38:23Z</time>
      </trkpt>
      <trkpt lat="45.94029" lon="4.76378">
        <ele>170</ele>
        <time>2017-10-15T09:38:24Z</time>
      </trkpt>
      <trkpt lat="45.94033" lon="4.76373">
        <ele>170</ele>
        <time>2017-10-15T09:38:25Z</time>
      </trkpt>
      <trkpt lat="45.94036" lon="4.76367">
        <ele>170</ele>
        <time>2017-10-15T09:38:26Z</time>
      </trkpt>
      <trkpt lat="45.94038" lon="4.76363">
        <ele>170</ele>
        <time>2017-10-15T09:38:27Z</time>
      </trkpt>
      <trkpt lat="45.94041" lon="4.76356">
        <ele>170</ele>
        <time>2017-10-15T09:38:28Z</time>
      </trkpt>
      <trkpt lat="45.94043" lon="4.76351">
        <ele>170</ele>
        <time>2017-10-15T09:38:29Z</time>
      </trkpt>
      <trkpt lat="45.94047" lon="4.76345">
        <ele>170</ele>
        <time>2017-10-15T09:38:30Z</time>
      </trkpt>
      <trkpt lat="45.9405" lon="4.76336">
        <ele>170</ele>
        <time>2017-10-15T09:38:33Z</time>
      </trkpt>
      <trkpt lat="45.9405" lon="4.7633">
        <ele>171</ele>
        <time>2017-10-15T09:38:34Z</time>
      </trkpt>
      <trkpt lat="45.94052" lon="4.76322">
        <ele>171</ele>
        <time>2017-10-15T09:38:36Z</time>
      </trkpt>
      <trkpt lat="45.94054" lon="4.76318">
        <ele>171</ele>
        <time>2017-10-15T09:38:37Z</time>
      </trkpt>
      <trkpt lat="45.94058" lon="4.7631">
        <ele>171</ele>
        <time>2017-10-15T09:38:39Z</time>
      </trkpt>
      <trkpt lat="45.9406" lon="4.76306">
        <ele>171</ele>
        <time>2017-10-15T09:38:40Z</time>
      </trkpt>
      <trkpt lat="45.94064" lon="4.76299">
        <ele>171</ele>
        <time>2017-10-15T09:38:42Z</time>
      </trkpt>
      <trkpt lat="45.94067" lon="4.76295">
        <ele>171</ele>
        <time>2017-10-15T09:38:43Z</time>
      </trkpt>
      <trkpt lat="45.94071" lon="4.76288">
        <ele>172</ele>
        <time>2017-10-15T09:38:45Z</time>
      </trkpt>
      <trkpt lat="45.94074" lon="4.76285">
        <ele>172</ele>
        <time>2017-10-15T09:38:46Z</time>
      </trkpt>
      <trkpt lat="45.9408" lon="4.7628">
        <ele>172</ele>
        <time>2017-10-15T09:38:48Z</time>
      </trkpt>
      <trkpt lat="45.94084" lon="4.76277">
        <ele>176</ele>
        <time>2017-10-15T09:38:49Z</time>
      </trkpt>
      <trkpt lat="45.9409" lon="4.76272">
        <ele>176</ele>
        <time>2017-10-15T09:38:51Z</time>
      </trkpt>
      <trkpt lat="45.94094" lon="4.76269">
        <ele>176</ele>
        <time>2017-10-15T09:38:52Z</time>
      </trkpt>
      <trkpt lat="45.941" lon="4.76265">
        <ele>176</ele>
        <time>2017-10-15T09:38:54Z</time>
      </trkpt>
      <trkpt lat="45.94104" lon="4.76263">
        <ele>176</ele>
        <time>2017-10-15T09:38:55Z</time>
      </trkpt>
      <trkpt lat="45.94111" lon="4.76261">
        <ele>177</ele>
        <time>2017-10-15T09:38:57Z</time>
      </trkpt>
      <trkpt lat="45.94115" lon="4.76262">
        <ele>177</ele>
        <time>2017-10-15T09:38:58Z</time>
      </trkpt>
      <trkpt lat="45.94122" lon="4.76261">
        <ele>177</ele>
        <time>2017-10-15T09:39:00Z</time>
      </trkpt>
      <trkpt lat="45.94126" lon="4.7626">
        <ele>177</ele>
        <time>2017-10-15T09:39:01Z</time>
      </trkpt>
      <trkpt lat="45.94133" lon="4.76257">
        <ele>178</ele>
        <time>2017-10-15T09:39:03Z</time>
      </trkpt>
      <trkpt lat="45.94137" lon="4.76257">
        <ele>178</ele>
        <time>2017-10-15T09:39:04Z</time>
      </trkpt>
      <trkpt lat="45.94143" lon="4.76256">
        <ele>178</ele>
        <time>2017-10-15T09:39:06Z</time>
      </trkpt>
      <trkpt lat="45.94147" lon="4.76256">
        <ele>179</ele>
        <time>2017-10-15T09:39:07Z</time>
      </trkpt>
      <trkpt lat="45.94154" lon="4.76257">
        <ele>179</ele>
        <time>2017-10-15T09:39:09Z</time>
      </trkpt>
      <trkpt lat="45.94157" lon="4.76257">
        <ele>180</ele>
        <time>2017-10-15T09:39:10Z</time>
      </trkpt>
      <trkpt lat="45.94164" lon="4.76256">
        <ele>180</ele>
        <time>2017-10-15T09:39:12Z</time>
      </trkpt>
      <trkpt lat="45.94167" lon="4.76254">
        <ele>182</ele>
        <time>2017-10-15T09:39:13Z</time>
      </trkpt>
      <trkpt lat="45.94172" lon="4.76246">
        <ele>182</ele>
        <time>2017-10-15T09:39:15Z</time>
      </trkpt>
      <trkpt lat="45.94173" lon="4.7624">
        <ele>182</ele>
        <time>2017-10-15T09:39:16Z</time>
      </trkpt>
      <trkpt lat="45.94174" lon="4.76228">
        <ele>182</ele>
        <time>2017-10-15T09:39:18Z</time>
      </trkpt>
      <trkpt lat="45.94175" lon="4.76223">
        <ele>182</ele>
        <time>2017-10-15T09:39:19Z</time>
      </trkpt>
      <trkpt lat="45.94176" lon="4.76211">
        <ele>182</ele>
        <time>2017-10-15T09:39:21Z</time>
      </trkpt>
      <trkpt lat="45.94177" lon="4.76205">
        <ele>182</ele>
        <time>2017-10-15T09:39:22Z</time>
      </trkpt>
      <trkpt lat="45.94178" lon="4.76193">
        <ele>182</ele>
        <time>2017-10-15T09:39:24Z</time>
      </trkpt>
      <trkpt lat="45.94178" lon="4.76187">
        <ele>182</ele>
        <time>2017-10-15T09:39:25Z</time>
      </trkpt>
      <trkpt lat="45.9418" lon="4.76175">
        <ele>181</ele>
        <time>2017-10-15T09:39:27Z</time>
      </trkpt>
      <trkpt lat="45.94181" lon="4.7617">
        <ele>181</ele>
        <time>2017-10-15T09:39:28Z</time>
      </trkpt>
      <trkpt lat="45.94183" lon="4.76159">
        <ele>181</ele>
        <time>2017-10-15T09:39:30Z</time>
      </trkpt>
      <trkpt lat="45.94183" lon="4.76153">
        <ele>181</ele>
        <time>2017-10-15T09:39:31Z</time>
      </trkpt>
      <trkpt lat="45.94184" lon="4.76143">
        <ele>181</ele>
        <time>2017-10-15T09:39:33Z</time>
      </trkpt>
      <trkpt lat="45.94184" lon="4.76137">
        <ele>181</ele>
        <time>2017-10-15T09:39:34Z</time>
      </trkpt>
      <trkpt lat="45.94184" lon="4.76126">
        <ele>180</ele>
        <time>2017-10-15T09:39:36Z</time>
      </trkpt>
      <trkpt lat="45.94183" lon="4.76119">
        <ele>180</ele>
        <time>2017-10-15T09:39:37Z</time>
      </trkpt>
      <trkpt lat="45.94183" lon="4.76107">
        <ele>180</ele>
        <time>2017-10-15T09:39:39Z</time>
      </trkpt>
      <trkpt lat="45.94182" lon="4.76101">
        <ele>180</ele>
        <time>2017-10-15T09:39:40Z</time>
      </trkpt>
      <trkpt lat="45.94181" lon="4.76088">
        <ele>179</ele>
        <time>2017-10-15T09:39:42Z</time>
      </trkpt>
      <trkpt lat="45.94181" lon="4.7608">
        <ele>179</ele>
        <time>2017-10-15T09:39:43Z</time>
      </trkpt>
      <trkpt lat="45.94178" lon="4.76073">
        <ele>179</ele>
        <time>2017-10-15T09:39:44Z</time>
      </trkpt>
      <trkpt lat="45.94178" lon="4.76066">
        <ele>179</ele>
        <time>2017-10-15T09:39:45Z</time>
      </trkpt>
      <trkpt lat="45.94176" lon="4.76059">
        <ele>179</ele>
        <time>2017-10-15T09:39:46Z</time>
      </trkpt>
      <trkpt lat="45.94176" lon="4.76053">
        <ele>179</ele>
        <time>2017-10-15T09:39:47Z</time>
      </trkpt>
      <trkpt lat="45.94176" lon="4.76046">
        <ele>179</ele>
        <time>2017-10-15T09:39:48Z</time>
      </trkpt>
      <trkpt lat="45.94176" lon="4.76039">
        <ele>179</ele>
        <time>2017-10-15T09:39:49Z</time>
      </trkpt>
      <trkpt lat="45.94175" lon="4.76031">
        <ele>179</ele>
        <time>2017-10-15T09:39:50Z</time>
      </trkpt>
      <trkpt lat="45.94175" lon="4.76021">
        <ele>179</ele>
        <time>2017-10-15T09:39:51Z</time>
      </trkpt>
      <trkpt lat="45.94174" lon="4.76014">
        <ele>179</ele>
        <time>2017-10-15T09:39:52Z</time>
      </trkpt>
      <trkpt lat="45.94175" lon="4.76006">
        <ele>178</ele>
        <time>2017-10-15T09:39:53Z</time>
      </trkpt>
      <trkpt lat="45.94174" lon="4.75997">
        <ele>178</ele>
        <time>2017-10-15T09:39:54Z</time>
      </trkpt>
      <trkpt lat="45.94174" lon="4.7599">
        <ele>178</ele>
        <time>2017-10-15T09:39:55Z</time>
      </trkpt>
      <trkpt lat="45.94173" lon="4.75982">
        <ele>178</ele>
        <time>2017-10-15T09:39:56Z</time>
      </trkpt>
      <trkpt lat="45.94173" lon="4.75976">
        <ele>177</ele>
        <time>2017-10-15T09:39:57Z</time>
      </trkpt>
      <trkpt lat="45.94172" lon="4.75967">
        <ele>177</ele>
        <time>2017-10-15T09:39:58Z</time>
      </trkpt>
      <trkpt lat="45.94172" lon="4.75961">
        <ele>177</ele>
        <time>2017-10-15T09:39:59Z</time>
      </trkpt>
      <trkpt lat="45.94172" lon="4.75954">
        <ele>177</ele>
        <time>2017-10-15T09:40:00Z</time>
      </trkpt>
      <trkpt lat="45.94172" lon="4.75946">
        <ele>177</ele>
        <time>2017-10-15T09:40:01Z</time>
      </trkpt>
      <trkpt lat="45.94173" lon="4.7594">
        <ele>176</ele>
        <time>2017-10-15T09:40:02Z</time>
      </trkpt>
      <trkpt lat="45.94172" lon="4.75933">
        <ele>176</ele>
        <time>2017-10-15T09:40:03Z</time>
      </trkpt>
      <trkpt lat="45.94171" lon="4.75924">
        <ele>176</ele>
        <time>2017-10-15T09:40:04Z</time>
      </trkpt>
      <trkpt lat="45.9417" lon="4.75917">
        <ele>175</ele>
        <time>2017-10-15T09:40:05Z</time>
      </trkpt>
      <trkpt lat="45.94169" lon="4.75905">
        <ele>175</ele>
        <time>2017-10-15T09:40:07Z</time>
      </trkpt>
      <trkpt lat="45.94169" lon="4.75899">
        <ele>175</ele>
        <time>2017-10-15T09:40:08Z</time>
      </trkpt>
      <trkpt lat="45.94169" lon="4.75892">
        <ele>175</ele>
        <time>2017-10-15T09:40:09Z</time>
      </trkpt>
      <trkpt lat="45.94169" lon="4.75885">
        <ele>175</ele>
        <time>2017-10-15T09:40:10Z</time>
      </trkpt>
      <trkpt lat="45.94169" lon="4.75877">
        <ele>175</ele>
        <time>2017-10-15T09:40:11Z</time>
      </trkpt>
      <trkpt lat="45.94168" lon="4.75872">
        <ele>175</ele>
        <time>2017-10-15T09:40:12Z</time>
      </trkpt>
      <trkpt lat="45.94168" lon="4.75864">
        <ele>175</ele>
        <time>2017-10-15T09:40:13Z</time>
      </trkpt>
      <trkpt lat="45.94168" lon="4.75858">
        <ele>174</ele>
        <time>2017-10-15T09:40:14Z</time>
      </trkpt>
      <trkpt lat="45.94168" lon="4.75851">
        <ele>174</ele>
        <time>2017-10-15T09:40:15Z</time>
      </trkpt>
      <trkpt lat="45.94168" lon="4.75844">
        <ele>174</ele>
        <time>2017-10-15T09:40:16Z</time>
      </trkpt>
      <trkpt lat="45.94167" lon="4.75836">
        <ele>174</ele>
        <time>2017-10-15T09:40:17Z</time>
      </trkpt>
      <trkpt lat="45.94167" lon="4.75828">
        <ele>174</ele>
        <time>2017-10-15T09:40:18Z</time>
      </trkpt>
      <trkpt lat="45.94168" lon="4.7582">
        <ele>174</ele>
        <time>2017-10-15T09:40:19Z</time>
      </trkpt>
      <trkpt lat="45.94167" lon="4.75812">
        <ele>174</ele>
        <time>2017-10-15T09:40:20Z</time>
      </trkpt>
      <trkpt lat="45.94166" lon="4.75802">
        <ele>173</ele>
        <time>2017-10-15T09:40:21Z</time>
      </trkpt>
      <trkpt lat="45.94166" lon="4.75793">
        <ele>173</ele>
        <time>2017-10-15T09:40:22Z</time>
      </trkpt>
      <trkpt lat="45.94166" lon="4.75785">
        <ele>173</ele>
        <time>2017-10-15T09:40:23Z</time>
      </trkpt>
      <trkpt lat="45.94166" lon="4.75777">
        <ele>173</ele>
        <time>2017-10-15T09:40:24Z</time>
      </trkpt>
      <trkpt lat="45.94166" lon="4.75769">
        <ele>174</ele>
        <time>2017-10-15T09:40:25Z</time>
      </trkpt>
      <trkpt lat="45.94166" lon="4.75761">
        <ele>174</ele>
        <time>2017-10-15T09:40:26Z</time>
      </trkpt>
      <trkpt lat="45.94166" lon="4.75754">
        <ele>174</ele>
        <time>2017-10-15T09:40:27Z</time>
      </trkpt>
      <trkpt lat="45.94166" lon="4.75747">
        <ele>174</ele>
        <time>2017-10-15T09:40:28Z</time>
      </trkpt>
      <trkpt lat="45.94166" lon="4.7574">
        <ele>174</ele>
        <time>2017-10-15T09:40:29Z</time>
      </trkpt>
      <trkpt lat="45.94166" lon="4.75733">
        <ele>173</ele>
        <time>2017-10-15T09:40:30Z</time>
      </trkpt>
      <trkpt lat="45.94165" lon="4.7572">
        <ele>173</ele>
        <time>2017-10-15T09:40:32Z</time>
      </trkpt>
      <trkpt lat="45.94166" lon="4.75712">
        <ele>173</ele>
        <time>2017-10-15T09:40:33Z</time>
      </trkpt>
      <trkpt lat="45.94166" lon="4.75706">
        <ele>173</ele>
        <time>2017-10-15T09:40:34Z</time>
      </trkpt>
      <trkpt lat="45.94165" lon="4.75698">
        <ele>173</ele>
        <time>2017-10-15T09:40:35Z</time>
      </trkpt>
      <trkpt lat="45.94167" lon="4.75691">
        <ele>173</ele>
        <time>2017-10-15T09:40:36Z</time>
      </trkpt>
      <trkpt lat="45.94167" lon="4.75684">
        <ele>173</ele>
        <time>2017-10-15T09:40:37Z</time>
      </trkpt>
      <trkpt lat="45.94169" lon="4.75676">
        <ele>173</ele>
        <time>2017-10-15T09:40:38Z</time>
      </trkpt>
      <trkpt lat="45.94167" lon="4.75666">
        <ele>173</ele>
        <time>2017-10-15T09:40:39Z</time>
      </trkpt>
      <trkpt lat="45.94167" lon="4.75655">
        <ele>173</ele>
        <time>2017-10-15T09:40:40Z</time>
      </trkpt>
      <trkpt lat="45.94167" lon="4.75647">
        <ele>173</ele>
        <time>2017-10-15T09:40:41Z</time>
      </trkpt>
      <trkpt lat="45.94167" lon="4.75638">
        <ele>172</ele>
        <time>2017-10-15T09:40:42Z</time>
      </trkpt>
      <trkpt lat="45.94167" lon="4.75631">
        <ele>172</ele>
        <time>2017-10-15T09:40:43Z</time>
      </trkpt>
      <trkpt lat="45.94169" lon="4.7562">
        <ele>173</ele>
        <time>2017-10-15T09:40:44Z</time>
      </trkpt>
      <trkpt lat="45.9417" lon="4.75613">
        <ele>173</ele>
        <time>2017-10-15T09:40:45Z</time>
      </trkpt>
      <trkpt lat="45.94171" lon="4.75605">
        <ele>173</ele>
        <time>2017-10-15T09:40:46Z</time>
      </trkpt>
      <trkpt lat="45.94171" lon="4.75598">
        <ele>173</ele>
        <time>2017-10-15T09:40:47Z</time>
      </trkpt>
      <trkpt lat="45.94172" lon="4.7559">
        <ele>173</ele>
        <time>2017-10-15T09:40:48Z</time>
      </trkpt>
      <trkpt lat="45.94173" lon="4.75583">
        <ele>173</ele>
        <time>2017-10-15T09:40:49Z</time>
      </trkpt>
      <trkpt lat="45.94174" lon="4.75571">
        <ele>173</ele>
        <time>2017-10-15T09:40:51Z</time>
      </trkpt>
      <trkpt lat="45.94175" lon="4.75562">
        <ele>173</ele>
        <time>2017-10-15T09:40:52Z</time>
      </trkpt>
      <trkpt lat="45.94175" lon="4.75554">
        <ele>173</ele>
        <time>2017-10-15T09:40:53Z</time>
      </trkpt>
      <trkpt lat="45.94176" lon="4.75545">
        <ele>173</ele>
        <time>2017-10-15T09:40:54Z</time>
      </trkpt>
      <trkpt lat="45.94175" lon="4.75536">
        <ele>173</ele>
        <time>2017-10-15T09:40:55Z</time>
      </trkpt>
      <trkpt lat="45.94175" lon="4.75528">
        <ele>173</ele>
        <time>2017-10-15T09:40:56Z</time>
      </trkpt>
      <trkpt lat="45.94175" lon="4.75519">
        <ele>173</ele>
        <time>2017-10-15T09:40:57Z</time>
      </trkpt>
      <trkpt lat="45.94176" lon="4.75511">
        <ele>173</ele>
        <time>2017-10-15T09:40:58Z</time>
      </trkpt>
      <trkpt lat="45.94178" lon="4.755">
        <ele>173</ele>
        <time>2017-10-15T09:40:59Z</time>
      </trkpt>
      <trkpt lat="45.94179" lon="4.75495">
        <ele>172</ele>
        <time>2017-10-15T09:41:00Z</time>
      </trkpt>
      <trkpt lat="45.94181" lon="4.75488">
        <ele>172</ele>
        <time>2017-10-15T09:41:01Z</time>
      </trkpt>
      <trkpt lat="45.94183" lon="4.75483">
        <ele>172</ele>
        <time>2017-10-15T09:41:02Z</time>
      </trkpt>
      <trkpt lat="45.94185" lon="4.75474">
        <ele>172</ele>
        <time>2017-10-15T09:41:03Z</time>
      </trkpt>
      <trkpt lat="45.94187" lon="4.75468">
        <ele>172</ele>
        <time>2017-10-15T09:41:04Z</time>
      </trkpt>
      <trkpt lat="45.94189" lon="4.7546">
        <ele>172</ele>
        <time>2017-10-15T09:41:05Z</time>
      </trkpt>
      <trkpt lat="45.94189" lon="4.75453">
        <ele>172</ele>
        <time>2017-10-15T09:41:06Z</time>
      </trkpt>
      <trkpt lat="45.9419" lon="4.75444">
        <ele>171</ele>
        <time>2017-10-15T09:41:07Z</time>
      </trkpt>
      <trkpt lat="45.94189" lon="4.75437">
        <ele>171</ele>
        <time>2017-10-15T09:41:08Z</time>
      </trkpt>
      <trkpt lat="45.94187" lon="4.75431">
        <ele>171</ele>
        <time>2017-10-15T09:41:09Z</time>
      </trkpt>
      <trkpt lat="45.94186" lon="4.75423">
        <ele>171</ele>
        <time>2017-10-15T09:41:10Z</time>
      </trkpt>
      <trkpt lat="45.94185" lon="4.75417">
        <ele>170</ele>
        <time>2017-10-15T09:41:11Z</time>
      </trkpt>
      <trkpt lat="45.94186" lon="4.75408">
        <ele>171</ele>
        <time>2017-10-15T09:41:12Z</time>
      </trkpt>
      <trkpt lat="45.94188" lon="4.75401">
        <ele>171</ele>
        <time>2017-10-15T09:41:13Z</time>
      </trkpt>
      <trkpt lat="45.94187" lon="4.75393">
        <ele>171</ele>
        <time>2017-10-15T09:41:14Z</time>
      </trkpt>
      <trkpt lat="45.94189" lon="4.75386">
        <ele>171</ele>
        <time>2017-10-15T09:41:15Z</time>
      </trkpt>
      <trkpt lat="45.94189" lon="4.75378">
        <ele>171</ele>
        <time>2017-10-15T09:41:16Z</time>
      </trkpt>
      <trkpt lat="45.9419" lon="4.75372">
        <ele>171</ele>
        <time>2017-10-15T09:41:17Z</time>
      </trkpt>
      <trkpt lat="45.94192" lon="4.75365">
        <ele>171</ele>
        <time>2017-10-15T09:41:18Z</time>
      </trkpt>
      <trkpt lat="45.94193" lon="4.75359">
        <ele>171</ele>
        <time>2017-10-15T09:41:19Z</time>
      </trkpt>
      <trkpt lat="45.94195" lon="4.75352">
        <ele>171</ele>
        <time>2017-10-15T09:41:20Z</time>
      </trkpt>
      <trkpt lat="45.94194" lon="4.75345">
        <ele>171</ele>
        <time>2017-10-15T09:41:21Z</time>
      </trkpt>
      <trkpt lat="45.94196" lon="4.75338">
        <ele>171</ele>
        <time>2017-10-15T09:41:22Z</time>
      </trkpt>
      <trkpt lat="45.94197" lon="4.75332">
        <ele>171</ele>
        <time>2017-10-15T09:41:23Z</time>
      </trkpt>
      <trkpt lat="45.94198" lon="4.75325">
        <ele>171</ele>
        <time>2017-10-15T09:41:24Z</time>
      </trkpt>
      <trkpt lat="45.942" lon="4.75318">
        <ele>171</ele>
        <time>2017-10-15T09:41:25Z</time>
      </trkpt>
      <trkpt lat="45.94201" lon="4.75311">
        <ele>171</ele>
        <time>2017-10-15T09:41:26Z</time>
      </trkpt>
      <trkpt lat="45.94203" lon="4.75302">
        <ele>171</ele>
        <time>2017-10-15T09:41:27Z</time>
      </trkpt>
      <trkpt lat="45.94205" lon="4.75295">
        <ele>171</ele>
        <time>2017-10-15T09:41:28Z</time>
      </trkpt>
      <trkpt lat="45.94206" lon="4.75288">
        <ele>171</ele>
        <time>2017-10-15T09:41:29Z</time>
      </trkpt>
      <trkpt lat="45.94207" lon="4.75281">
        <ele>171</ele>
        <time>2017-10-15T09:41:30Z</time>
      </trkpt>
      <trkpt lat="45.94209" lon="4.75273">
        <ele>172</ele>
        <time>2017-10-15T09:41:31Z</time>
      </trkpt>
      <trkpt lat="45.94209" lon="4.75265">
        <ele>172</ele>
        <time>2017-10-15T09:41:32Z</time>
      </trkpt>
      <trkpt lat="45.94211" lon="4.75259">
        <ele>172</ele>
        <time>2017-10-15T09:41:33Z</time>
      </trkpt>
      <trkpt lat="45.94212" lon="4.75252">
        <ele>172</ele>
        <time>2017-10-15T09:41:34Z</time>
      </trkpt>
      <trkpt lat="45.94213" lon="4.75245">
        <ele>171</ele>
        <time>2017-10-15T09:41:35Z</time>
      </trkpt>
      <trkpt lat="45.94214" lon="4.75238">
        <ele>171</ele>
        <time>2017-10-15T09:41:36Z</time>
      </trkpt>
      <trkpt lat="45.94217" lon="4.75231">
        <ele>171</ele>
        <time>2017-10-15T09:41:37Z</time>
      </trkpt>
      <trkpt lat="45.94218" lon="4.75223">
        <ele>171</ele>
        <time>2017-10-15T09:41:38Z</time>
      </trkpt>
      <trkpt lat="45.9422" lon="4.75216">
        <ele>171</ele>
        <time>2017-10-15T09:41:39Z</time>
      </trkpt>
      <trkpt lat="45.94222" lon="4.75208">
        <ele>171</ele>
        <time>2017-10-15T09:41:40Z</time>
      </trkpt>
      <trkpt lat="45.94224" lon="4.752">
        <ele>171</ele>
        <time>2017-10-15T09:41:41Z</time>
      </trkpt>
      <trkpt lat="45.94225" lon="4.7519">
        <ele>171</ele>
        <time>2017-10-15T09:41:42Z</time>
      </trkpt>
      <trkpt lat="45.94227" lon="4.75182">
        <ele>171</ele>
        <time>2017-10-15T09:41:43Z</time>
      </trkpt>
      <trkpt lat="45.94228" lon="4.75175">
        <ele>171</ele>
        <time>2017-10-15T09:41:44Z</time>
      </trkpt>
      <trkpt lat="45.94229" lon="4.75166">
        <ele>171</ele>
        <time>2017-10-15T09:41:45Z</time>
      </trkpt>
      <trkpt lat="45.94231" lon="4.75158">
        <ele>171</ele>
        <time>2017-10-15T09:41:46Z</time>
      </trkpt>
      <trkpt lat="45.94235" lon="4.75152">
        <ele>171</ele>
        <time>2017-10-15T09:41:47Z</time>
      </trkpt>
      <trkpt lat="45.94237" lon="4.75145">
        <ele>171</ele>
        <time>2017-10-15T09:41:48Z</time>
      </trkpt>
      <trkpt lat="45.94238" lon="4.75139">
        <ele>171</ele>
        <time>2017-10-15T09:41:49Z</time>
      </trkpt>
      <trkpt lat="45.9424" lon="4.75131">
        <ele>171</ele>
        <time>2017-10-15T09:41:50Z</time>
      </trkpt>
      <trkpt lat="45.94241" lon="4.75126">
        <ele>171</ele>
        <time>2017-10-15T09:41:51Z</time>
      </trkpt>
      <trkpt lat="45.94244" lon="4.75119">
        <ele>172</ele>
        <time>2017-10-15T09:41:52Z</time>
      </trkpt>
      <trkpt lat="45.94246" lon="4.75111">
        <ele>172</ele>
        <time>2017-10-15T09:41:53Z</time>
      </trkpt>
      <trkpt lat="45.94247" lon="4.75104">
        <ele>172</ele>
        <time>2017-10-15T09:41:54Z</time>
      </trkpt>
      <trkpt lat="45.94249" lon="4.75096">
        <ele>172</ele>
        <time>2017-10-15T09:41:55Z</time>
      </trkpt>
      <trkpt lat="45.9425" lon="4.75088">
        <ele>173</ele>
        <time>2017-10-15T09:41:56Z</time>
      </trkpt>
      <trkpt lat="45.94252" lon="4.7508">
        <ele>173</ele>
        <time>2017-10-15T09:41:57Z</time>
      </trkpt>
      <trkpt lat="45.94255" lon="4.75072">
        <ele>174</ele>
        <time>2017-10-15T09:41:58Z</time>
      </trkpt>
      <trkpt lat="45.94257" lon="4.75065">
        <ele>174</ele>
        <time>2017-10-15T09:41:59Z</time>
      </trkpt>
      <trkpt lat="45.9426" lon="4.75056">
        <ele>174</ele>
        <time>2017-10-15T09:42:00Z</time>
      </trkpt>
      <trkpt lat="45.94261" lon="4.75048">
        <ele>174</ele>
        <time>2017-10-15T09:42:01Z</time>
      </trkpt>
      <trkpt lat="45.94264" lon="4.7504">
        <ele>174</ele>
        <time>2017-10-15T09:42:02Z</time>
      </trkpt>
      <trkpt lat="45.94266" lon="4.75033">
        <ele>174</ele>
        <time>2017-10-15T09:42:03Z</time>
      </trkpt>
      <trkpt lat="45.94268" lon="4.75025">
        <ele>174</ele>
        <time>2017-10-15T09:42:04Z</time>
      </trkpt>
      <trkpt lat="45.9427" lon="4.75018">
        <ele>174</ele>
        <time>2017-10-15T09:42:05Z</time>
      </trkpt>
      <trkpt lat="45.94274" lon="4.75011">
        <ele>175</ele>
        <time>2017-10-15T09:42:06Z</time>
      </trkpt>
      <trkpt lat="45.94276" lon="4.75004">
        <ele>175</ele>
        <time>2017-10-15T09:42:07Z</time>
      </trkpt>
      <trkpt lat="45.9428" lon="4.74995">
        <ele>175</ele>
        <time>2017-10-15T09:42:08Z</time>
      </trkpt>
      <trkpt lat="45.94283" lon="4.74987">
        <ele>175</ele>
        <time>2017-10-15T09:42:09Z</time>
      </trkpt>
      <trkpt lat="45.94284" lon="4.7498">
        <ele>175</ele>
        <time>2017-10-15T09:42:10Z</time>
      </trkpt>
      <trkpt lat="45.94286" lon="4.74972">
        <ele>175</ele>
        <time>2017-10-15T09:42:11Z</time>
      </trkpt>
      <trkpt lat="45.94287" lon="4.74965">
        <ele>175</ele>
        <time>2017-10-15T09:42:12Z</time>
      </trkpt>
      <trkpt lat="45.9429" lon="4.74956">
        <ele>175</ele>
        <time>2017-10-15T09:42:13Z</time>
      </trkpt>
      <trkpt lat="45.94291" lon="4.74948">
        <ele>175</ele>
        <time>2017-10-15T09:42:14Z</time>
      </trkpt>
      <trkpt lat="45.94294" lon="4.74941">
        <ele>175</ele>
        <time>2017-10-15T09:42:15Z</time>
      </trkpt>
      <trkpt lat="45.94296" lon="4.74932">
        <ele>175</ele>
        <time>2017-10-15T09:42:16Z</time>
      </trkpt>
      <trkpt lat="45.94298" lon="4.74923">
        <ele>175</ele>
        <time>2017-10-15T09:42:17Z</time>
      </trkpt>
      <trkpt lat="45.943" lon="4.74916">
        <ele>174</ele>
        <time>2017-10-15T09:42:18Z</time>
      </trkpt>
      <trkpt lat="45.94301" lon="4.74909">
        <ele>174</ele>
        <time>2017-10-15T09:42:19Z</time>
      </trkpt>
      <trkpt lat="45.94303" lon="4.74903">
        <ele>174</ele>
        <time>2017-10-15T09:42:20Z</time>
      </trkpt>
      <trkpt lat="45.94306" lon="4.74895">
        <ele>174</ele>
        <time>2017-10-15T09:42:21Z</time>
      </trkpt>
      <trkpt lat="45.94307" lon="4.74889">
        <ele>174</ele>
        <time>2017-10-15T09:42:22Z</time>
      </trkpt>
      <trkpt lat="45.94309" lon="4.74882">
        <ele>174</ele>
        <time>2017-10-15T09:42:23Z</time>
      </trkpt>
      <trkpt lat="45.94309" lon="4.74875">
        <ele>174</ele>
        <time>2017-10-15T09:42:24Z</time>
      </trkpt>
      <trkpt lat="45.94313" lon="4.74865">
        <ele>174</ele>
        <time>2017-10-15T09:42:26Z</time>
      </trkpt>
      <trkpt lat="45.94315" lon="4.74859">
        <ele>174</ele>
        <time>2017-10-15T09:42:27Z</time>
      </trkpt>
      <trkpt lat="45.94316" lon="4.74851">
        <ele>174</ele>
        <time>2017-10-15T09:42:28Z</time>
      </trkpt>
      <trkpt lat="45.94318" lon="4.74845">
        <ele>174</ele>
        <time>2017-10-15T09:42:29Z</time>
      </trkpt>
      <trkpt lat="45.94321" lon="4.74834">
        <ele>174</ele>
        <time>2017-10-15T09:42:31Z</time>
      </trkpt>
      <trkpt lat="45.94323" lon="4.74827">
        <ele>173</ele>
        <time>2017-10-15T09:42:32Z</time>
      </trkpt>
      <trkpt lat="45.94324" lon="4.74819">
        <ele>173</ele>
        <time>2017-10-15T09:42:33Z</time>
      </trkpt>
      <trkpt lat="45.94325" lon="4.74813">
        <ele>172</ele>
        <time>2017-10-15T09:42:34Z</time>
      </trkpt>
      <trkpt lat="45.94326" lon="4.74806">
        <ele>172</ele>
        <time>2017-10-15T09:42:35Z</time>
      </trkpt>
      <trkpt lat="45.94328" lon="4.74799">
        <ele>172</ele>
        <time>2017-10-15T09:42:36Z</time>
      </trkpt>
      <trkpt lat="45.94329" lon="4.74791">
        <ele>172</ele>
        <time>2017-10-15T09:42:37Z</time>
      </trkpt>
      <trkpt lat="45.9433" lon="4.74785">
        <ele>172</ele>
        <time>2017-10-15T09:42:38Z</time>
      </trkpt>
      <trkpt lat="45.94332" lon="4.74777">
        <ele>171</ele>
        <time>2017-10-15T09:42:39Z</time>
      </trkpt>
      <trkpt lat="45.94333" lon="4.7477">
        <ele>171</ele>
        <time>2017-10-15T09:42:40Z</time>
      </trkpt>
      <trkpt lat="45.94334" lon="4.74763">
        <ele>172</ele>
        <time>2017-10-15T09:42:41Z</time>
      </trkpt>
      <trkpt lat="45.94336" lon="4.74757">
        <ele>172</ele>
        <time>2017-10-15T09:42:42Z</time>
      </trkpt>
      <trkpt lat="45.94337" lon="4.7475">
        <ele>171</ele>
        <time>2017-10-15T09:42:43Z</time>
      </trkpt>
      <trkpt lat="45.94338" lon="4.74743">
        <ele>171</ele>
        <time>2017-10-15T09:42:44Z</time>
      </trkpt>
      <trkpt lat="45.9434" lon="4.74737">
        <ele>171</ele>
        <time>2017-10-15T09:42:45Z</time>
      </trkpt>
      <trkpt lat="45.94341" lon="4.74731">
        <ele>171</ele>
        <time>2017-10-15T09:42:46Z</time>
      </trkpt>
      <trkpt lat="45.94342" lon="4.74723">
        <ele>171</ele>
        <time>2017-10-15T09:42:47Z</time>
      </trkpt>
      <trkpt lat="45.94343" lon="4.74715">
        <ele>171</ele>
        <time>2017-10-15T09:42:48Z</time>
      </trkpt>
      <trkpt lat="45.94344" lon="4.74705">
        <ele>172</ele>
        <time>2017-10-15T09:42:49Z</time>
      </trkpt>
      <trkpt lat="45.94345" lon="4.74698">
        <ele>172</ele>
        <time>2017-10-15T09:42:50Z</time>
      </trkpt>
      <trkpt lat="45.94346" lon="4.74691">
        <ele>172</ele>
        <time>2017-10-15T09:42:51Z</time>
      </trkpt>
      <trkpt lat="45.94347" lon="4.74683">
        <ele>172</ele>
        <time>2017-10-15T09:42:52Z</time>
      </trkpt>
      <trkpt lat="45.94347" lon="4.74677">
        <ele>172</ele>
        <time>2017-10-15T09:42:53Z</time>
      </trkpt>
      <trkpt lat="45.94348" lon="4.7467">
        <ele>172</ele>
        <time>2017-10-15T09:42:54Z</time>
      </trkpt>
      <trkpt lat="45.94348" lon="4.74663">
        <ele>172</ele>
        <time>2017-10-15T09:42:55Z</time>
      </trkpt>
      <trkpt lat="45.94348" lon="4.74656">
        <ele>172</ele>
        <time>2017-10-15T09:42:56Z</time>
      </trkpt>
      <trkpt lat="45.94348" lon="4.74649">
        <ele>171</ele>
        <time>2017-10-15T09:42:57Z</time>
      </trkpt>
      <trkpt lat="45.94348" lon="4.74642">
        <ele>171</ele>
        <time>2017-10-15T09:42:58Z</time>
      </trkpt>
      <trkpt lat="45.94349" lon="4.74636">
        <ele>171</ele>
        <time>2017-10-15T09:42:59Z</time>
      </trkpt>
      <trkpt lat="45.9435" lon="4.74628">
        <ele>171</ele>
        <time>2017-10-15T09:43:00Z</time>
      </trkpt>
      <trkpt lat="45.94351" lon="4.74619">
        <ele>171</ele>
        <time>2017-10-15T09:43:01Z</time>
      </trkpt>
      <trkpt lat="45.94351" lon="4.74612">
        <ele>171</ele>
        <time>2017-10-15T09:43:02Z</time>
      </trkpt>
      <trkpt lat="45.94352" lon="4.74604">
        <ele>171</ele>
        <time>2017-10-15T09:43:03Z</time>
      </trkpt>
      <trkpt lat="45.94353" lon="4.74597">
        <ele>171</ele>
        <time>2017-10-15T09:43:04Z</time>
      </trkpt>
      <trkpt lat="45.94354" lon="4.7459">
        <ele>171</ele>
        <time>2017-10-15T09:43:05Z</time>
      </trkpt>
      <trkpt lat="45.94354" lon="4.74583">
        <ele>171</ele>
        <time>2017-10-15T09:43:06Z</time>
      </trkpt>
      <trkpt lat="45.94355" lon="4.74576">
        <ele>171</ele>
        <time>2017-10-15T09:43:07Z</time>
      </trkpt>
      <trkpt lat="45.94356" lon="4.74569">
        <ele>171</ele>
        <time>2017-10-15T09:43:08Z</time>
      </trkpt>
      <trkpt lat="45.94356" lon="4.74563">
        <ele>171</ele>
        <time>2017-10-15T09:43:09Z</time>
      </trkpt>
      <trkpt lat="45.94356" lon="4.74556">
        <ele>171</ele>
        <time>2017-10-15T09:43:10Z</time>
      </trkpt>
      <trkpt lat="45.94357" lon="4.74544">
        <ele>171</ele>
        <time>2017-10-15T09:43:12Z</time>
      </trkpt>
      <trkpt lat="45.94358" lon="4.74538">
        <ele>171</ele>
        <time>2017-10-15T09:43:13Z</time>
      </trkpt>
      <trkpt lat="45.94358" lon="4.74531">
        <ele>171</ele>
        <time>2017-10-15T09:43:14Z</time>
      </trkpt>
      <trkpt lat="45.94359" lon="4.74522">
        <ele>171</ele>
        <time>2017-10-15T09:43:15Z</time>
      </trkpt>
      <trkpt lat="45.94358" lon="4.74515">
        <ele>171</ele>
        <time>2017-10-15T09:43:16Z</time>
      </trkpt>
      <trkpt lat="45.94359" lon="4.74509">
        <ele>171</ele>
        <time>2017-10-15T09:43:17Z</time>
      </trkpt>
      <trkpt lat="45.94359" lon="4.74502">
        <ele>171</ele>
        <time>2017-10-15T09:43:18Z</time>
      </trkpt>
      <trkpt lat="45.9436" lon="4.74494">
        <ele>170</ele>
        <time>2017-10-15T09:43:19Z</time>
      </trkpt>
      <trkpt lat="45.94361" lon="4.74486">
        <ele>170</ele>
        <time>2017-10-15T09:43:20Z</time>
      </trkpt>
      <trkpt lat="45.94363" lon="4.74478">
        <ele>170</ele>
        <time>2017-10-15T09:43:21Z</time>
      </trkpt>
      <trkpt lat="45.94363" lon="4.7447">
        <ele>171</ele>
        <time>2017-10-15T09:43:22Z</time>
      </trkpt>
      <trkpt lat="45.94364" lon="4.74462">
        <ele>171</ele>
        <time>2017-10-15T09:43:23Z</time>
      </trkpt>
      <trkpt lat="45.94364" lon="4.74454">
        <ele>171</ele>
        <time>2017-10-15T09:43:24Z</time>
      </trkpt>
      <trkpt lat="45.94365" lon="4.74447">
        <ele>170</ele>
        <time>2017-10-15T09:43:25Z</time>
      </trkpt>
      <trkpt lat="45.94366" lon="4.7444">
        <ele>170</ele>
        <time>2017-10-15T09:43:26Z</time>
      </trkpt>
      <trkpt lat="45.94367" lon="4.74433">
        <ele>170</ele>
        <time>2017-10-15T09:43:27Z</time>
      </trkpt>
      <trkpt lat="45.94368" lon="4.74426">
        <ele>170</ele>
        <time>2017-10-15T09:43:28Z</time>
      </trkpt>
      <trkpt lat="45.94368" lon="4.74419">
        <ele>170</ele>
        <time>2017-10-15T09:43:29Z</time>
      </trkpt>
      <trkpt lat="45.94369" lon="4.74413">
        <ele>170</ele>
        <time>2017-10-15T09:43:30Z</time>
      </trkpt>
      <trkpt lat="45.94369" lon="4.74406">
        <ele>170</ele>
        <time>2017-10-15T09:43:31Z</time>
      </trkpt>
      <trkpt lat="45.9437" lon="4.74399">
        <ele>170</ele>
        <time>2017-10-15T09:43:32Z</time>
      </trkpt>
      <trkpt lat="45.94371" lon="4.74392">
        <ele>170</ele>
        <time>2017-10-15T09:43:33Z</time>
      </trkpt>
      <trkpt lat="45.94372" lon="4.74385">
        <ele>170</ele>
        <time>2017-10-15T09:43:34Z</time>
      </trkpt>
      <trkpt lat="45.94373" lon="4.74379">
        <ele>170</ele>
        <time>2017-10-15T09:43:35Z</time>
      </trkpt>
      <trkpt lat="45.94373" lon="4.74372">
        <ele>170</ele>
        <time>2017-10-15T09:43:36Z</time>
      </trkpt>
      <trkpt lat="45.94373" lon="4.74365">
        <ele>170</ele>
        <time>2017-10-15T09:43:37Z</time>
      </trkpt>
      <trkpt lat="45.94374" lon="4.74356">
        <ele>170</ele>
        <time>2017-10-15T09:43:38Z</time>
      </trkpt>
      <trkpt lat="45.94375" lon="4.7435">
        <ele>171</ele>
        <time>2017-10-15T09:43:39Z</time>
      </trkpt>
      <trkpt lat="45.94377" lon="4.74343">
        <ele>171</ele>
        <time>2017-10-15T09:43:40Z</time>
      </trkpt>
      <trkpt lat="45.94377" lon="4.74337">
        <ele>171</ele>
        <time>2017-10-15T09:43:41Z</time>
      </trkpt>
      <trkpt lat="45.94378" lon="4.7433">
        <ele>170</ele>
        <time>2017-10-15T09:43:42Z</time>
      </trkpt>
      <trkpt lat="45.94379" lon="4.74323">
        <ele>170</ele>
        <time>2017-10-15T09:43:43Z</time>
      </trkpt>
      <trkpt lat="45.9438" lon="4.74315">
        <ele>170</ele>
        <time>2017-10-15T09:43:44Z</time>
      </trkpt>
      <trkpt lat="45.94382" lon="4.74308">
        <ele>170</ele>
        <time>2017-10-15T09:43:45Z</time>
      </trkpt>
      <trkpt lat="45.94383" lon="4.74301">
        <ele>170</ele>
        <time>2017-10-15T09:43:46Z</time>
      </trkpt>
      <trkpt lat="45.94383" lon="4.74291">
        <ele>170</ele>
        <time>2017-10-15T09:43:47Z</time>
      </trkpt>
      <trkpt lat="45.94385" lon="4.74284">
        <ele>170</ele>
        <time>2017-10-15T09:43:48Z</time>
      </trkpt>
      <trkpt lat="45.94387" lon="4.74277">
        <ele>170</ele>
        <time>2017-10-15T09:43:49Z</time>
      </trkpt>
      <trkpt lat="45.94388" lon="4.7427">
        <ele>170</ele>
        <time>2017-10-15T09:43:50Z</time>
      </trkpt>
      <trkpt lat="45.9439" lon="4.74263">
        <ele>170</ele>
        <time>2017-10-15T09:43:51Z</time>
      </trkpt>
      <trkpt lat="45.94391" lon="4.74257">
        <ele>170</ele>
        <time>2017-10-15T09:43:52Z</time>
      </trkpt>
      <trkpt lat="45.94393" lon="4.7425">
        <ele>170</ele>
        <time>2017-10-15T09:43:53Z</time>
      </trkpt>
      <trkpt lat="45.94393" lon="4.74243">
        <ele>171</ele>
        <time>2017-10-15T09:43:54Z</time>
      </trkpt>
      <trkpt lat="45.94394" lon="4.74236">
        <ele>171</ele>
        <time>2017-10-15T09:43:55Z</time>
      </trkpt>
      <trkpt lat="45.94396" lon="4.7423">
        <ele>171</ele>
        <time>2017-10-15T09:43:56Z</time>
      </trkpt>
      <trkpt lat="45.94398" lon="4.74223">
        <ele>171</ele>
        <time>2017-10-15T09:43:57Z</time>
      </trkpt>
      <trkpt lat="45.94399" lon="4.74217">
        <ele>171</ele>
        <time>2017-10-15T09:43:58Z</time>
      </trkpt>
      <trkpt lat="45.94401" lon="4.7421">
        <ele>171</ele>
        <time>2017-10-15T09:43:59Z</time>
      </trkpt>
      <trkpt lat="45.94402" lon="4.74202">
        <ele>171</ele>
        <time>2017-10-15T09:44:00Z</time>
      </trkpt>
      <trkpt lat="45.94403" lon="4.74195">
        <ele>172</ele>
        <time>2017-10-15T09:44:01Z</time>
      </trkpt>
      <trkpt lat="45.94403" lon="4.74189">
        <ele>172</ele>
        <time>2017-10-15T09:44:02Z</time>
      </trkpt>
      <trkpt lat="45.94403" lon="4.74182">
        <ele>172</ele>
        <time>2017-10-15T09:44:03Z</time>
      </trkpt>
      <trkpt lat="45.94405" lon="4.74169">
        <ele>173</ele>
        <time>2017-10-15T09:44:05Z</time>
      </trkpt>
      <trkpt lat="45.94406" lon="4.74162">
        <ele>174</ele>
        <time>2017-10-15T09:44:06Z</time>
      </trkpt>
      <trkpt lat="45.94407" lon="4.7415">
        <ele>174</ele>
        <time>2017-10-15T09:44:08Z</time>
      </trkpt>
      <trkpt lat="45.94408" lon="4.74144">
        <ele>174</ele>
        <time>2017-10-15T09:44:09Z</time>
      </trkpt>
      <trkpt lat="45.94409" lon="4.74133">
        <ele>174</ele>
        <time>2017-10-15T09:44:11Z</time>
      </trkpt>
      <trkpt lat="45.9441" lon="4.74126">
        <ele>174</ele>
        <time>2017-10-15T09:44:12Z</time>
      </trkpt>
      <trkpt lat="45.94412" lon="4.74114">
        <ele>174</ele>
        <time>2017-10-15T09:44:14Z</time>
      </trkpt>
      <trkpt lat="45.94414" lon="4.74109">
        <ele>175</ele>
        <time>2017-10-15T09:44:15Z</time>
      </trkpt>
      <trkpt lat="45.94416" lon="4.74096">
        <ele>176</ele>
        <time>2017-10-15T09:44:17Z</time>
      </trkpt>
      <trkpt lat="45.94416" lon="4.7409">
        <ele>176</ele>
        <time>2017-10-15T09:44:18Z</time>
      </trkpt>
      <trkpt lat="45.94418" lon="4.74078">
        <ele>177</ele>
        <time>2017-10-15T09:44:20Z</time>
      </trkpt>
      <trkpt lat="45.94419" lon="4.74073">
        <ele>178</ele>
        <time>2017-10-15T09:44:21Z</time>
      </trkpt>
      <trkpt lat="45.94421" lon="4.74062">
        <ele>178</ele>
        <time>2017-10-15T09:44:23Z</time>
      </trkpt>
      <trkpt lat="45.94422" lon="4.74057">
        <ele>179</ele>
        <time>2017-10-15T09:44:24Z</time>
      </trkpt>
      <trkpt lat="45.94425" lon="4.74046">
        <ele>179</ele>
        <time>2017-10-15T09:44:26Z</time>
      </trkpt>
      <trkpt lat="45.94426" lon="4.74041">
        <ele>179</ele>
        <time>2017-10-15T09:44:27Z</time>
      </trkpt>
      <trkpt lat="45.94428" lon="4.74031">
        <ele>179</ele>
        <time>2017-10-15T09:44:29Z</time>
      </trkpt>
      <trkpt lat="45.94429" lon="4.74027">
        <ele>179</ele>
        <time>2017-10-15T09:44:30Z</time>
      </trkpt>
      <trkpt lat="45.94431" lon="4.74018">
        <ele>179</ele>
        <time>2017-10-15T09:44:32Z</time>
      </trkpt>
      <trkpt lat="45.94432" lon="4.74013">
        <ele>179</ele>
        <time>2017-10-15T09:44:33Z</time>
      </trkpt>
      <trkpt lat="45.94434" lon="4.74004">
        <ele>179</ele>
        <time>2017-10-15T09:44:35Z</time>
      </trkpt>
      <trkpt lat="45.94435" lon="4.74">
        <ele>180</ele>
        <time>2017-10-15T09:44:36Z</time>
      </trkpt>
      <trkpt lat="45.94437" lon="4.73991">
        <ele>180</ele>
        <time>2017-10-15T09:44:38Z</time>
      </trkpt>
      <trkpt lat="45.94438" lon="4.73987">
        <ele>180</ele>
        <time>2017-10-15T09:44:39Z</time>
      </trkpt>
      <trkpt lat="45.94439" lon="4.73977">
        <ele>180</ele>
        <time>2017-10-15T09:44:41Z</time>
      </trkpt>
      <trkpt lat="45.9444" lon="4.73972">
        <ele>180</ele>
        <time>2017-10-15T09:44:42Z</time>
      </trkpt>
      <trkpt lat="45.94442" lon="4.73963">
        <ele>181</ele>
        <time>2017-10-15T09:44:44Z</time>
      </trkpt>
      <trkpt lat="45.94443" lon="4.73958">
        <ele>181</ele>
        <time>2017-10-15T09:44:45Z</time>
      </trkpt>
      <trkpt lat="45.94445" lon="4.73948">
        <ele>181</ele>
        <time>2017-10-15T09:44:47Z</time>
      </trkpt>
      <trkpt lat="45.94445" lon="4.73944">
        <ele>181</ele>
        <time>2017-10-15T09:44:48Z</time>
      </trkpt>
      <trkpt lat="45.94447" lon="4.73934">
        <ele>181</ele>
        <time>2017-10-15T09:44:50Z</time>
      </trkpt>
      <trkpt lat="45.94448" lon="4.73929">
        <ele>181</ele>
        <time>2017-10-15T09:44:51Z</time>
      </trkpt>
      <trkpt lat="45.9445" lon="4.7392">
        <ele>181</ele>
        <time>2017-10-15T09:44:53Z</time>
      </trkpt>
      <trkpt lat="45.94451" lon="4.73916">
        <ele>183</ele>
        <time>2017-10-15T09:44:54Z</time>
      </trkpt>
      <trkpt lat="45.94453" lon="4.73906">
        <ele>183</ele>
        <time>2017-10-15T09:44:56Z</time>
      </trkpt>
      <trkpt lat="45.94453" lon="4.73901">
        <ele>183</ele>
        <time>2017-10-15T09:44:57Z</time>
      </trkpt>
      <trkpt lat="45.94455" lon="4.73891">
        <ele>183</ele>
        <time>2017-10-15T09:44:59Z</time>
      </trkpt>
      <trkpt lat="45.94456" lon="4.73886">
        <ele>183</ele>
        <time>2017-10-15T09:45:00Z</time>
      </trkpt>
      <trkpt lat="45.94459" lon="4.73876">
        <ele>183</ele>
        <time>2017-10-15T09:45:02Z</time>
      </trkpt>
      <trkpt lat="45.9446" lon="4.7387">
        <ele>184</ele>
        <time>2017-10-15T09:45:03Z</time>
      </trkpt>
      <trkpt lat="45.94462" lon="4.7386">
        <ele>184</ele>
        <time>2017-10-15T09:45:05Z</time>
      </trkpt>
      <trkpt lat="45.94463" lon="4.73854">
        <ele>184</ele>
        <time>2017-10-15T09:45:06Z</time>
      </trkpt>
      <trkpt lat="45.94465" lon="4.73844">
        <ele>184</ele>
        <time>2017-10-15T09:45:08Z</time>
      </trkpt>
      <trkpt lat="45.94466" lon="4.73839">
        <ele>184</ele>
        <time>2017-10-15T09:45:09Z</time>
      </trkpt>
      <trkpt lat="45.94468" lon="4.73828">
        <ele>185</ele>
        <time>2017-10-15T09:45:11Z</time>
      </trkpt>
      <trkpt lat="45.94469" lon="4.73822">
        <ele>185</ele>
        <time>2017-10-15T09:45:12Z</time>
      </trkpt>
      <trkpt lat="45.94471" lon="4.73812">
        <ele>185</ele>
        <time>2017-10-15T09:45:14Z</time>
      </trkpt>
      <trkpt lat="45.94473" lon="4.73806">
        <ele>185</ele>
        <time>2017-10-15T09:45:15Z</time>
      </trkpt>
      <trkpt lat="45.94475" lon="4.73797">
        <ele>185</ele>
        <time>2017-10-15T09:45:17Z</time>
      </trkpt>
      <trkpt lat="45.94474" lon="4.73793">
        <ele>185</ele>
        <time>2017-10-15T09:45:18Z</time>
      </trkpt>
      <trkpt lat="45.94471" lon="4.73783">
        <ele>186</ele>
        <time>2017-10-15T09:45:21Z</time>
      </trkpt>
      <trkpt lat="45.94472" lon="4.7378">
        <ele>186</ele>
        <time>2017-10-15T09:45:22Z</time>
      </trkpt>
      <trkpt lat="45.94477" lon="4.73775">
        <ele>186</ele>
        <time>2017-10-15T09:45:24Z</time>
      </trkpt>
      <trkpt lat="45.9448" lon="4.73774">
        <ele>186</ele>
        <time>2017-10-15T09:45:25Z</time>
      </trkpt>
      <trkpt lat="45.94487" lon="4.7377">
        <ele>186</ele>
        <time>2017-10-15T09:45:27Z</time>
      </trkpt>
      <trkpt lat="45.9449" lon="4.73767">
        <ele>186</ele>
        <time>2017-10-15T09:45:28Z</time>
      </trkpt>
      <trkpt lat="45.94492" lon="4.73755">
        <ele>186</ele>
        <time>2017-10-15T09:45:30Z</time>
      </trkpt>
      <trkpt lat="45.94491" lon="4.73749">
        <ele>186</ele>
        <time>2017-10-15T09:45:31Z</time>
      </trkpt>
      <trkpt lat="45.9449" lon="4.73737">
        <ele>186</ele>
        <time>2017-10-15T09:45:33Z</time>
      </trkpt>
      <trkpt lat="45.9449" lon="4.73731">
        <ele>186</ele>
        <time>2017-10-15T09:45:34Z</time>
      </trkpt>
      <trkpt lat="45.94491" lon="4.73719">
        <ele>186</ele>
        <time>2017-10-15T09:45:36Z</time>
      </trkpt>
      <trkpt lat="45.94492" lon="4.73713">
        <ele>186</ele>
        <time>2017-10-15T09:45:37Z</time>
      </trkpt>
      <trkpt lat="45.94493" lon="4.73701">
        <ele>186</ele>
        <time>2017-10-15T09:45:39Z</time>
      </trkpt>
      <trkpt lat="45.94494" lon="4.73695">
        <ele>186</ele>
        <time>2017-10-15T09:45:40Z</time>
      </trkpt>
      <trkpt lat="45.94494" lon="4.73687">
        <ele>186</ele>
        <time>2017-10-15T09:45:41Z</time>
      </trkpt>
      <trkpt lat="45.94495" lon="4.7368">
        <ele>185</ele>
        <time>2017-10-15T09:45:42Z</time>
      </trkpt>
      <trkpt lat="45.94496" lon="4.73673">
        <ele>185</ele>
        <time>2017-10-15T09:45:43Z</time>
      </trkpt>
      <trkpt lat="45.94498" lon="4.73666">
        <ele>185</ele>
        <time>2017-10-15T09:45:44Z</time>
      </trkpt>
      <trkpt lat="45.94499" lon="4.73659">
        <ele>185</ele>
        <time>2017-10-15T09:45:45Z</time>
      </trkpt>
      <trkpt lat="45.945" lon="4.73652">
        <ele>185</ele>
        <time>2017-10-15T09:45:46Z</time>
      </trkpt>
      <trkpt lat="45.945" lon="4.73644">
        <ele>186</ele>
        <time>2017-10-15T09:45:47Z</time>
      </trkpt>
      <trkpt lat="45.94502" lon="4.73638">
        <ele>184</ele>
        <time>2017-10-15T09:45:48Z</time>
      </trkpt>
      <trkpt lat="45.94503" lon="4.73631">
        <ele>184</ele>
        <time>2017-10-15T09:45:49Z</time>
      </trkpt>
      <trkpt lat="45.94504" lon="4.73624">
        <ele>184</ele>
        <time>2017-10-15T09:45:50Z</time>
      </trkpt>
      <trkpt lat="45.94505" lon="4.73618">
        <ele>184</ele>
        <time>2017-10-15T09:45:51Z</time>
      </trkpt>
      <trkpt lat="45.94505" lon="4.73611">
        <ele>184</ele>
        <time>2017-10-15T09:45:52Z</time>
      </trkpt>
      <trkpt lat="45.94506" lon="4.73604">
        <ele>184</ele>
        <time>2017-10-15T09:45:53Z</time>
      </trkpt>
      <trkpt lat="45.94506" lon="4.73597">
        <ele>184</ele>
        <time>2017-10-15T09:45:54Z</time>
      </trkpt>
      <trkpt lat="45.94506" lon="4.7359">
        <ele>185</ele>
        <time>2017-10-15T09:45:55Z</time>
      </trkpt>
      <trkpt lat="45.94506" lon="4.73581">
        <ele>184</ele>
        <time>2017-10-15T09:45:56Z</time>
      </trkpt>
      <trkpt lat="45.94506" lon="4.73575">
        <ele>184</ele>
        <time>2017-10-15T09:45:57Z</time>
      </trkpt>
      <trkpt lat="45.94506" lon="4.73566">
        <ele>184</ele>
        <time>2017-10-15T09:45:58Z</time>
      </trkpt>
      <trkpt lat="45.94506" lon="4.73558">
        <ele>184</ele>
        <time>2017-10-15T09:45:59Z</time>
      </trkpt>
      <trkpt lat="45.94506" lon="4.7355">
        <ele>183</ele>
        <time>2017-10-15T09:46:00Z</time>
      </trkpt>
      <trkpt lat="45.94507" lon="4.73542">
        <ele>183</ele>
        <time>2017-10-15T09:46:01Z</time>
      </trkpt>
      <trkpt lat="45.94507" lon="4.73533">
        <ele>183</ele>
        <time>2017-10-15T09:46:02Z</time>
      </trkpt>
      <trkpt lat="45.94507" lon="4.73525">
        <ele>183</ele>
        <time>2017-10-15T09:46:03Z</time>
      </trkpt>
      <trkpt lat="45.94507" lon="4.73516">
        <ele>183</ele>
        <time>2017-10-15T09:46:04Z</time>
      </trkpt>
      <trkpt lat="45.94506" lon="4.73507">
        <ele>183</ele>
        <time>2017-10-15T09:46:05Z</time>
      </trkpt>
      <trkpt lat="45.94506" lon="4.73499">
        <ele>183</ele>
        <time>2017-10-15T09:46:06Z</time>
      </trkpt>
      <trkpt lat="45.94506" lon="4.7349">
        <ele>182</ele>
        <time>2017-10-15T09:46:07Z</time>
      </trkpt>
      <trkpt lat="45.94507" lon="4.73482">
        <ele>182</ele>
        <time>2017-10-15T09:46:08Z</time>
      </trkpt>
      <trkpt lat="45.94507" lon="4.73473">
        <ele>182</ele>
        <time>2017-10-15T09:46:09Z</time>
      </trkpt>
      <trkpt lat="45.94507" lon="4.73464">
        <ele>181</ele>
        <time>2017-10-15T09:46:10Z</time>
      </trkpt>
      <trkpt lat="45.94506" lon="4.73456">
        <ele>181</ele>
        <time>2017-10-15T09:46:11Z</time>
      </trkpt>
      <trkpt lat="45.94506" lon="4.73446">
        <ele>181</ele>
        <time>2017-10-15T09:46:12Z</time>
      </trkpt>
      <trkpt lat="45.94505" lon="4.73437">
        <ele>181</ele>
        <time>2017-10-15T09:46:13Z</time>
      </trkpt>
      <trkpt lat="45.94503" lon="4.73428">
        <ele>180</ele>
        <time>2017-10-15T09:46:14Z</time>
      </trkpt>
      <trkpt lat="45.94503" lon="4.73419">
        <ele>180</ele>
        <time>2017-10-15T09:46:15Z</time>
      </trkpt>
      <trkpt lat="45.94502" lon="4.73408">
        <ele>179</ele>
        <time>2017-10-15T09:46:16Z</time>
      </trkpt>
      <trkpt lat="45.94502" lon="4.73397">
        <ele>179</ele>
        <time>2017-10-15T09:46:17Z</time>
      </trkpt>
      <trkpt lat="45.94501" lon="4.73388">
        <ele>179</ele>
        <time>2017-10-15T09:46:18Z</time>
      </trkpt>
      <trkpt lat="45.945" lon="4.73378">
        <ele>179</ele>
        <time>2017-10-15T09:46:19Z</time>
      </trkpt>
      <trkpt lat="45.945" lon="4.73367">
        <ele>179</ele>
        <time>2017-10-15T09:46:20Z</time>
      </trkpt>
      <trkpt lat="45.94499" lon="4.73358">
        <ele>178</ele>
        <time>2017-10-15T09:46:21Z</time>
      </trkpt>
      <trkpt lat="45.94498" lon="4.73348">
        <ele>178</ele>
        <time>2017-10-15T09:46:22Z</time>
      </trkpt>
      <trkpt lat="45.94497" lon="4.73338">
        <ele>177</ele>
        <time>2017-10-15T09:46:23Z</time>
      </trkpt>
      <trkpt lat="45.94495" lon="4.73326">
        <ele>177</ele>
        <time>2017-10-15T09:46:24Z</time>
      </trkpt>
      <trkpt lat="45.94494" lon="4.73316">
        <ele>177</ele>
        <time>2017-10-15T09:46:25Z</time>
      </trkpt>
      <trkpt lat="45.94492" lon="4.73306">
        <ele>177</ele>
        <time>2017-10-15T09:46:26Z</time>
      </trkpt>
      <trkpt lat="45.94492" lon="4.73295">
        <ele>177</ele>
        <time>2017-10-15T09:46:27Z</time>
      </trkpt>
      <trkpt lat="45.9449" lon="4.73283">
        <ele>177</ele>
        <time>2017-10-15T09:46:28Z</time>
      </trkpt>
      <trkpt lat="45.94488" lon="4.73273">
        <ele>177</ele>
        <time>2017-10-15T09:46:29Z</time>
      </trkpt>
      <trkpt lat="45.94487" lon="4.73262">
        <ele>176</ele>
        <time>2017-10-15T09:46:30Z</time>
      </trkpt>
      <trkpt lat="45.94486" lon="4.73252">
        <ele>176</ele>
        <time>2017-10-15T09:46:31Z</time>
      </trkpt>
      <trkpt lat="45.94485" lon="4.73241">
        <ele>175</ele>
        <time>2017-10-15T09:46:32Z</time>
      </trkpt>
      <trkpt lat="45.94484" lon="4.7323">
        <ele>175</ele>
        <time>2017-10-15T09:46:33Z</time>
      </trkpt>
      <trkpt lat="45.94483" lon="4.73221">
        <ele>175</ele>
        <time>2017-10-15T09:46:34Z</time>
      </trkpt>
      <trkpt lat="45.94481" lon="4.7321">
        <ele>175</ele>
        <time>2017-10-15T09:46:35Z</time>
      </trkpt>
      <trkpt lat="45.94481" lon="4.732">
        <ele>174</ele>
        <time>2017-10-15T09:46:36Z</time>
      </trkpt>
      <trkpt lat="45.94479" lon="4.73189">
        <ele>174</ele>
        <time>2017-10-15T09:46:37Z</time>
      </trkpt>
      <trkpt lat="45.94478" lon="4.73179">
        <ele>174</ele>
        <time>2017-10-15T09:46:38Z</time>
      </trkpt>
      <trkpt lat="45.94477" lon="4.73169">
        <ele>174</ele>
        <time>2017-10-15T09:46:39Z</time>
      </trkpt>
      <trkpt lat="45.94475" lon="4.7316">
        <ele>173</ele>
        <time>2017-10-15T09:46:40Z</time>
      </trkpt>
      <trkpt lat="45.94474" lon="4.7315">
        <ele>172</ele>
        <time>2017-10-15T09:46:41Z</time>
      </trkpt>
      <trkpt lat="45.94471" lon="4.73142">
        <ele>172</ele>
        <time>2017-10-15T09:46:42Z</time>
      </trkpt>
      <trkpt lat="45.9447" lon="4.73131">
        <ele>172</ele>
        <time>2017-10-15T09:46:43Z</time>
      </trkpt>
      <trkpt lat="45.9447" lon="4.73123">
        <ele>172</ele>
        <time>2017-10-15T09:46:44Z</time>
      </trkpt>
      <trkpt lat="45.94469" lon="4.73115">
        <ele>172</ele>
        <time>2017-10-15T09:46:45Z</time>
      </trkpt>
      <trkpt lat="45.94469" lon="4.73106">
        <ele>172</ele>
        <time>2017-10-15T09:46:46Z</time>
      </trkpt>
      <trkpt lat="45.94467" lon="4.73098">
        <ele>172</ele>
        <time>2017-10-15T09:46:47Z</time>
      </trkpt>
      <trkpt lat="45.94466" lon="4.73091">
        <ele>171</ele>
        <time>2017-10-15T09:46:48Z</time>
      </trkpt>
      <trkpt lat="45.94464" lon="4.73081">
        <ele>170</ele>
        <time>2017-10-15T09:46:49Z</time>
      </trkpt>
      <trkpt lat="45.94462" lon="4.73074">
        <ele>170</ele>
        <time>2017-10-15T09:46:50Z</time>
      </trkpt>
      <trkpt lat="45.94461" lon="4.73065">
        <ele>170</ele>
        <time>2017-10-15T09:46:51Z</time>
      </trkpt>
      <trkpt lat="45.94459" lon="4.73058">
        <ele>170</ele>
        <time>2017-10-15T09:46:52Z</time>
      </trkpt>
      <trkpt lat="45.94458" lon="4.7305">
        <ele>170</ele>
        <time>2017-10-15T09:46:53Z</time>
      </trkpt>
      <trkpt lat="45.94458" lon="4.73043">
        <ele>169</ele>
        <time>2017-10-15T09:46:54Z</time>
      </trkpt>
      <trkpt lat="45.94457" lon="4.73036">
        <ele>169</ele>
        <time>2017-10-15T09:46:55Z</time>
      </trkpt>
      <trkpt lat="45.94456" lon="4.73029">
        <ele>169</ele>
        <time>2017-10-15T09:46:56Z</time>
      </trkpt>
      <trkpt lat="45.94455" lon="4.73022">
        <ele>169</ele>
        <time>2017-10-15T09:46:57Z</time>
      </trkpt>
      <trkpt lat="45.94454" lon="4.73015">
        <ele>169</ele>
        <time>2017-10-15T09:46:58Z</time>
      </trkpt>
      <trkpt lat="45.94454" lon="4.73002">
        <ele>169</ele>
        <time>2017-10-15T09:47:00Z</time>
      </trkpt>
      <trkpt lat="45.94453" lon="4.72996">
        <ele>167</ele>
        <time>2017-10-15T09:47:01Z</time>
      </trkpt>
      <trkpt lat="45.94452" lon="4.72991">
        <ele>167</ele>
        <time>2017-10-15T09:47:02Z</time>
      </trkpt>
      <trkpt lat="45.94451" lon="4.72983">
        <ele>167</ele>
        <time>2017-10-15T09:47:03Z</time>
      </trkpt>
      <trkpt lat="45.94451" lon="4.72977">
        <ele>167</ele>
        <time>2017-10-15T09:47:04Z</time>
      </trkpt>
      <trkpt lat="45.94449" lon="4.7297">
        <ele>167</ele>
        <time>2017-10-15T09:47:05Z</time>
      </trkpt>
      <trkpt lat="45.94448" lon="4.72959">
        <ele>167</ele>
        <time>2017-10-15T09:47:07Z</time>
      </trkpt>
      <trkpt lat="45.94448" lon="4.72952">
        <ele>167</ele>
        <time>2017-10-15T09:47:08Z</time>
      </trkpt>
      <trkpt lat="45.94446" lon="4.72939">
        <ele>167</ele>
        <time>2017-10-15T09:47:10Z</time>
      </trkpt>
      <trkpt lat="45.94445" lon="4.72934">
        <ele>167</ele>
        <time>2017-10-15T09:47:11Z</time>
      </trkpt>
      <trkpt lat="45.94443" lon="4.72922">
        <ele>167</ele>
        <time>2017-10-15T09:47:13Z</time>
      </trkpt>
      <trkpt lat="45.94442" lon="4.72916">
        <ele>166</ele>
        <time>2017-10-15T09:47:14Z</time>
      </trkpt>
      <trkpt lat="45.94441" lon="4.7291">
        <ele>166</ele>
        <time>2017-10-15T09:47:15Z</time>
      </trkpt>
      <trkpt lat="45.94441" lon="4.72902">
        <ele>166</ele>
        <time>2017-10-15T09:47:16Z</time>
      </trkpt>
      <trkpt lat="45.94439" lon="4.72891">
        <ele>166</ele>
        <time>2017-10-15T09:47:18Z</time>
      </trkpt>
      <trkpt lat="45.94438" lon="4.72883">
        <ele>166</ele>
        <time>2017-10-15T09:47:19Z</time>
      </trkpt>
      <trkpt lat="45.94437" lon="4.72877">
        <ele>166</ele>
        <time>2017-10-15T09:47:20Z</time>
      </trkpt>
      <trkpt lat="45.94436" lon="4.7287">
        <ele>166</ele>
        <time>2017-10-15T09:47:21Z</time>
      </trkpt>
      <trkpt lat="45.94435" lon="4.72862">
        <ele>166</ele>
        <time>2017-10-15T09:47:22Z</time>
      </trkpt>
      <trkpt lat="45.94434" lon="4.72854">
        <ele>166</ele>
        <time>2017-10-15T09:47:23Z</time>
      </trkpt>
      <trkpt lat="45.94433" lon="4.72846">
        <ele>166</ele>
        <time>2017-10-15T09:47:24Z</time>
      </trkpt>
      <trkpt lat="45.94432" lon="4.72837">
        <ele>166</ele>
        <time>2017-10-15T09:47:25Z</time>
      </trkpt>
      <trkpt lat="45.94432" lon="4.7283">
        <ele>167</ele>
        <time>2017-10-15T09:47:26Z</time>
      </trkpt>
      <trkpt lat="45.94431" lon="4.72821">
        <ele>167</ele>
        <time>2017-10-15T09:47:27Z</time>
      </trkpt>
      <trkpt lat="45.94428" lon="4.72811">
        <ele>167</ele>
        <time>2017-10-15T09:47:28Z</time>
      </trkpt>
      <trkpt lat="45.94427" lon="4.72802">
        <ele>167</ele>
        <time>2017-10-15T09:47:29Z</time>
      </trkpt>
      <trkpt lat="45.94425" lon="4.72792">
        <ele>168</ele>
        <time>2017-10-15T09:47:30Z</time>
      </trkpt>
      <trkpt lat="45.94424" lon="4.72782">
        <ele>168</ele>
        <time>2017-10-15T09:47:31Z</time>
      </trkpt>
      <trkpt lat="45.94423" lon="4.72773">
        <ele>169</ele>
        <time>2017-10-15T09:47:32Z</time>
      </trkpt>
      <trkpt lat="45.94422" lon="4.72763">
        <ele>169</ele>
        <time>2017-10-15T09:47:33Z</time>
      </trkpt>
      <trkpt lat="45.9442" lon="4.72753">
        <ele>170</ele>
        <time>2017-10-15T09:47:34Z</time>
      </trkpt>
      <trkpt lat="45.94419" lon="4.72743">
        <ele>171</ele>
        <time>2017-10-15T09:47:35Z</time>
      </trkpt>
      <trkpt lat="45.94418" lon="4.72733">
        <ele>171</ele>
        <time>2017-10-15T09:47:36Z</time>
      </trkpt>
      <trkpt lat="45.94417" lon="4.72723">
        <ele>172</ele>
        <time>2017-10-15T09:47:37Z</time>
      </trkpt>
      <trkpt lat="45.94415" lon="4.72713">
        <ele>172</ele>
        <time>2017-10-15T09:47:38Z</time>
      </trkpt>
      <trkpt lat="45.94415" lon="4.727">
        <ele>172</ele>
        <time>2017-10-15T09:47:39Z</time>
      </trkpt>
      <trkpt lat="45.94414" lon="4.72691">
        <ele>173</ele>
        <time>2017-10-15T09:47:40Z</time>
      </trkpt>
      <trkpt lat="45.94413" lon="4.72679">
        <ele>173</ele>
        <time>2017-10-15T09:47:41Z</time>
      </trkpt>
      <trkpt lat="45.94412" lon="4.7267">
        <ele>174</ele>
        <time>2017-10-15T09:47:42Z</time>
      </trkpt>
      <trkpt lat="45.94411" lon="4.72661">
        <ele>174</ele>
        <time>2017-10-15T09:47:43Z</time>
      </trkpt>
      <trkpt lat="45.94409" lon="4.72652">
        <ele>174</ele>
        <time>2017-10-15T09:47:44Z</time>
      </trkpt>
      <trkpt lat="45.94408" lon="4.72643">
        <ele>174</ele>
        <time>2017-10-15T09:47:45Z</time>
      </trkpt>
      <trkpt lat="45.94407" lon="4.72633">
        <ele>174</ele>
        <time>2017-10-15T09:47:46Z</time>
      </trkpt>
      <trkpt lat="45.94406" lon="4.72623">
        <ele>173</ele>
        <time>2017-10-15T09:47:47Z</time>
      </trkpt>
      <trkpt lat="45.94404" lon="4.72613">
        <ele>173</ele>
        <time>2017-10-15T09:47:48Z</time>
      </trkpt>
      <trkpt lat="45.94403" lon="4.72604">
        <ele>173</ele>
        <time>2017-10-15T09:47:49Z</time>
      </trkpt>
      <trkpt lat="45.94402" lon="4.72594">
        <ele>173</ele>
        <time>2017-10-15T09:47:50Z</time>
      </trkpt>
      <trkpt lat="45.94401" lon="4.72586">
        <ele>173</ele>
        <time>2017-10-15T09:47:51Z</time>
      </trkpt>
      <trkpt lat="45.944" lon="4.72577">
        <ele>173</ele>
        <time>2017-10-15T09:47:52Z</time>
      </trkpt>
      <trkpt lat="45.94398" lon="4.72569">
        <ele>173</ele>
        <time>2017-10-15T09:47:53Z</time>
      </trkpt>
      <trkpt lat="45.94397" lon="4.72561">
        <ele>173</ele>
        <time>2017-10-15T09:47:54Z</time>
      </trkpt>
      <trkpt lat="45.94395" lon="4.72554">
        <ele>173</ele>
        <time>2017-10-15T09:47:55Z</time>
      </trkpt>
      <trkpt lat="45.94393" lon="4.72546">
        <ele>173</ele>
        <time>2017-10-15T09:47:56Z</time>
      </trkpt>
      <trkpt lat="45.94392" lon="4.72539">
        <ele>174</ele>
        <time>2017-10-15T09:47:57Z</time>
      </trkpt>
      <trkpt lat="45.94391" lon="4.7253">
        <ele>174</ele>
        <time>2017-10-15T09:47:58Z</time>
      </trkpt>
      <trkpt lat="45.94389" lon="4.72525">
        <ele>174</ele>
        <time>2017-10-15T09:47:59Z</time>
      </trkpt>
      <trkpt lat="45.94387" lon="4.72518">
        <ele>174</ele>
        <time>2017-10-15T09:48:00Z</time>
      </trkpt>
      <trkpt lat="45.94385" lon="4.72511">
        <ele>174</ele>
        <time>2017-10-15T09:48:01Z</time>
      </trkpt>
      <trkpt lat="45.94383" lon="4.72505">
        <ele>174</ele>
        <time>2017-10-15T09:48:02Z</time>
      </trkpt>
      <trkpt lat="45.94381" lon="4.725">
        <ele>173</ele>
        <time>2017-10-15T09:48:03Z</time>
      </trkpt>
      <trkpt lat="45.94376" lon="4.7249">
        <ele>173</ele>
        <time>2017-10-15T09:48:05Z</time>
      </trkpt>
      <trkpt lat="45.94373" lon="4.72484">
        <ele>173</ele>
        <time>2017-10-15T09:48:06Z</time>
      </trkpt>
      <trkpt lat="45.94372" lon="4.72479">
        <ele>173</ele>
        <time>2017-10-15T09:48:07Z</time>
      </trkpt>
      <trkpt lat="45.94369" lon="4.72473">
        <ele>173</ele>
        <time>2017-10-15T09:48:08Z</time>
      </trkpt>
      <trkpt lat="45.94366" lon="4.72467">
        <ele>173</ele>
        <time>2017-10-15T09:48:09Z</time>
      </trkpt>
      <trkpt lat="45.94363" lon="4.7246">
        <ele>173</ele>
        <time>2017-10-15T09:48:10Z</time>
      </trkpt>
      <trkpt lat="45.94361" lon="4.72454">
        <ele>173</ele>
        <time>2017-10-15T09:48:11Z</time>
      </trkpt>
      <trkpt lat="45.94358" lon="4.72447">
        <ele>173</ele>
        <time>2017-10-15T09:48:12Z</time>
      </trkpt>
      <trkpt lat="45.94354" lon="4.72441">
        <ele>173</ele>
        <time>2017-10-15T09:48:13Z</time>
      </trkpt>
      <trkpt lat="45.94351" lon="4.72434">
        <ele>173</ele>
        <time>2017-10-15T09:48:14Z</time>
      </trkpt>
      <trkpt lat="45.94348" lon="4.72428">
        <ele>173</ele>
        <time>2017-10-15T09:48:15Z</time>
      </trkpt>
      <trkpt lat="45.94344" lon="4.72421">
        <ele>173</ele>
        <time>2017-10-15T09:48:16Z</time>
      </trkpt>
      <trkpt lat="45.94341" lon="4.72414">
        <ele>173</ele>
        <time>2017-10-15T09:48:17Z</time>
      </trkpt>
      <trkpt lat="45.94339" lon="4.72407">
        <ele>173</ele>
        <time>2017-10-15T09:48:18Z</time>
      </trkpt>
      <trkpt lat="45.94336" lon="4.724">
        <ele>173</ele>
        <time>2017-10-15T09:48:19Z</time>
      </trkpt>
      <trkpt lat="45.94333" lon="4.72394">
        <ele>172</ele>
        <time>2017-10-15T09:48:20Z</time>
      </trkpt>
      <trkpt lat="45.94329" lon="4.72384">
        <ele>172</ele>
        <time>2017-10-15T09:48:22Z</time>
      </trkpt>
      <trkpt lat="45.94325" lon="4.72378">
        <ele>172</ele>
        <time>2017-10-15T09:48:23Z</time>
      </trkpt>
      <trkpt lat="45.94322" lon="4.72373">
        <ele>172</ele>
        <time>2017-10-15T09:48:24Z</time>
      </trkpt>
      <trkpt lat="45.9432" lon="4.72366">
        <ele>172</ele>
        <time>2017-10-15T09:48:25Z</time>
      </trkpt>
      <trkpt lat="45.94317" lon="4.7236">
        <ele>172</ele>
        <time>2017-10-15T09:48:26Z</time>
      </trkpt>
      <trkpt lat="45.94315" lon="4.72353">
        <ele>172</ele>
        <time>2017-10-15T09:48:27Z</time>
      </trkpt>
      <trkpt lat="45.94312" lon="4.72348">
        <ele>172</ele>
        <time>2017-10-15T09:48:28Z</time>
      </trkpt>
      <trkpt lat="45.9431" lon="4.7234">
        <ele>172</ele>
        <time>2017-10-15T09:48:29Z</time>
      </trkpt>
      <trkpt lat="45.94307" lon="4.72334">
        <ele>172</ele>
        <time>2017-10-15T09:48:30Z</time>
      </trkpt>
      <trkpt lat="45.94305" lon="4.72328">
        <ele>171</ele>
        <time>2017-10-15T09:48:31Z</time>
      </trkpt>
      <trkpt lat="45.94302" lon="4.72322">
        <ele>171</ele>
        <time>2017-10-15T09:48:32Z</time>
      </trkpt>
      <trkpt lat="45.94299" lon="4.72315">
        <ele>171</ele>
        <time>2017-10-15T09:48:33Z</time>
      </trkpt>
      <trkpt lat="45.94296" lon="4.72308">
        <ele>171</ele>
        <time>2017-10-15T09:48:34Z</time>
      </trkpt>
      <trkpt lat="45.94292" lon="4.72301">
        <ele>171</ele>
        <time>2017-10-15T09:48:35Z</time>
      </trkpt>
      <trkpt lat="45.94289" lon="4.72296">
        <ele>171</ele>
        <time>2017-10-15T09:48:36Z</time>
      </trkpt>
      <trkpt lat="45.94286" lon="4.72288">
        <ele>171</ele>
        <time>2017-10-15T09:48:37Z</time>
      </trkpt>
      <trkpt lat="45.94282" lon="4.72282">
        <ele>171</ele>
        <time>2017-10-15T09:48:38Z</time>
      </trkpt>
      <trkpt lat="45.94278" lon="4.72278">
        <ele>171</ele>
        <time>2017-10-15T09:48:39Z</time>
      </trkpt>
      <trkpt lat="45.94273" lon="4.72275">
        <ele>171</ele>
        <time>2017-10-15T09:48:40Z</time>
      </trkpt>
      <trkpt lat="45.94269" lon="4.72275">
        <ele>171</ele>
        <time>2017-10-15T09:48:41Z</time>
      </trkpt>
      <trkpt lat="45.94263" lon="4.72274">
        <ele>171</ele>
        <time>2017-10-15T09:48:42Z</time>
      </trkpt>
      <trkpt lat="45.94259" lon="4.72275">
        <ele>171</ele>
        <time>2017-10-15T09:48:43Z</time>
      </trkpt>
      <trkpt lat="45.94254" lon="4.72277">
        <ele>171</ele>
        <time>2017-10-15T09:48:44Z</time>
      </trkpt>
      <trkpt lat="45.94249" lon="4.72278">
        <ele>171</ele>
        <time>2017-10-15T09:48:45Z</time>
      </trkpt>
      <trkpt lat="45.94245" lon="4.72281">
        <ele>171</ele>
        <time>2017-10-15T09:48:46Z</time>
      </trkpt>
      <trkpt lat="45.94241" lon="4.72283">
        <ele>171</ele>
        <time>2017-10-15T09:48:47Z</time>
      </trkpt>
      <trkpt lat="45.94235" lon="4.72285">
        <ele>171</ele>
        <time>2017-10-15T09:48:48Z</time>
      </trkpt>
      <trkpt lat="45.9423" lon="4.72287">
        <ele>171</ele>
        <time>2017-10-15T09:48:49Z</time>
      </trkpt>
      <trkpt lat="45.94225" lon="4.72288">
        <ele>171</ele>
        <time>2017-10-15T09:48:50Z</time>
      </trkpt>
      <trkpt lat="45.94219" lon="4.72289">
        <ele>171</ele>
        <time>2017-10-15T09:48:51Z</time>
      </trkpt>
      <trkpt lat="45.94213" lon="4.72289">
        <ele>171</ele>
        <time>2017-10-15T09:48:52Z</time>
      </trkpt>
      <trkpt lat="45.94207" lon="4.72289">
        <ele>171</ele>
        <time>2017-10-15T09:48:53Z</time>
      </trkpt>
      <trkpt lat="45.94201" lon="4.72289">
        <ele>171</ele>
        <time>2017-10-15T09:48:54Z</time>
      </trkpt>
      <trkpt lat="45.94195" lon="4.72289">
        <ele>171</ele>
        <time>2017-10-15T09:48:55Z</time>
      </trkpt>
      <trkpt lat="45.94189" lon="4.7229">
        <ele>171</ele>
        <time>2017-10-15T09:48:56Z</time>
      </trkpt>
      <trkpt lat="45.94183" lon="4.7229">
        <ele>171</ele>
        <time>2017-10-15T09:48:57Z</time>
      </trkpt>
      <trkpt lat="45.94178" lon="4.7229">
        <ele>171</ele>
        <time>2017-10-15T09:48:58Z</time>
      </trkpt>
      <trkpt lat="45.94172" lon="4.72288">
        <ele>171</ele>
        <time>2017-10-15T09:48:59Z</time>
      </trkpt>
      <trkpt lat="45.94167" lon="4.72287">
        <ele>171</ele>
        <time>2017-10-15T09:49:00Z</time>
      </trkpt>
      <trkpt lat="45.94162" lon="4.72287">
        <ele>171</ele>
        <time>2017-10-15T09:49:01Z</time>
      </trkpt>
      <trkpt lat="45.94157" lon="4.72285">
        <ele>171</ele>
        <time>2017-10-15T09:49:02Z</time>
      </trkpt>
      <trkpt lat="45.94152" lon="4.72285">
        <ele>171</ele>
        <time>2017-10-15T09:49:03Z</time>
      </trkpt>
      <trkpt lat="45.94147" lon="4.72283">
        <ele>171</ele>
        <time>2017-10-15T09:49:04Z</time>
      </trkpt>
      <trkpt lat="45.94143" lon="4.7228">
        <ele>171</ele>
        <time>2017-10-15T09:49:05Z</time>
      </trkpt>
      <trkpt lat="45.94138" lon="4.72276">
        <ele>171</ele>
        <time>2017-10-15T09:49:06Z</time>
      </trkpt>
      <trkpt lat="45.94133" lon="4.72274">
        <ele>171</ele>
        <time>2017-10-15T09:49:07Z</time>
      </trkpt>
      <trkpt lat="45.94128" lon="4.72272">
        <ele>171</ele>
        <time>2017-10-15T09:49:08Z</time>
      </trkpt>
      <trkpt lat="45.94122" lon="4.7227">
        <ele>171</ele>
        <time>2017-10-15T09:49:09Z</time>
      </trkpt>
      <trkpt lat="45.94117" lon="4.72268">
        <ele>171</ele>
        <time>2017-10-15T09:49:10Z</time>
      </trkpt>
      <trkpt lat="45.94112" lon="4.72266">
        <ele>171</ele>
        <time>2017-10-15T09:49:11Z</time>
      </trkpt>
      <trkpt lat="45.94107" lon="4.72266">
        <ele>171</ele>
        <time>2017-10-15T09:49:12Z</time>
      </trkpt>
      <trkpt lat="45.941" lon="4.72265">
        <ele>171</ele>
        <time>2017-10-15T09:49:13Z</time>
      </trkpt>
      <trkpt lat="45.94094" lon="4.72266">
        <ele>171</ele>
        <time>2017-10-15T09:49:14Z</time>
      </trkpt>
      <trkpt lat="45.94089" lon="4.72267">
        <ele>171</ele>
        <time>2017-10-15T09:49:15Z</time>
      </trkpt>
      <trkpt lat="45.94084" lon="4.72268">
        <ele>171</ele>
        <time>2017-10-15T09:49:16Z</time>
      </trkpt>
      <trkpt lat="45.94079" lon="4.72271">
        <ele>171</ele>
        <time>2017-10-15T09:49:17Z</time>
      </trkpt>
      <trkpt lat="45.94074" lon="4.72274">
        <ele>171</ele>
        <time>2017-10-15T09:49:18Z</time>
      </trkpt>
      <trkpt lat="45.9407" lon="4.72277">
        <ele>171</ele>
        <time>2017-10-15T09:49:19Z</time>
      </trkpt>
      <trkpt lat="45.94066" lon="4.72281">
        <ele>171</ele>
        <time>2017-10-15T09:49:20Z</time>
      </trkpt>
      <trkpt lat="45.94063" lon="4.72286">
        <ele>171</ele>
        <time>2017-10-15T09:49:21Z</time>
      </trkpt>
      <trkpt lat="45.94059" lon="4.7229">
        <ele>171</ele>
        <time>2017-10-15T09:49:22Z</time>
      </trkpt>
      <trkpt lat="45.94056" lon="4.72296">
        <ele>171</ele>
        <time>2017-10-15T09:49:23Z</time>
      </trkpt>
      <trkpt lat="45.94053" lon="4.72301">
        <ele>171</ele>
        <time>2017-10-15T09:49:24Z</time>
      </trkpt>
      <trkpt lat="45.94049" lon="4.72305">
        <ele>171</ele>
        <time>2017-10-15T09:49:25Z</time>
      </trkpt>
      <trkpt lat="45.94045" lon="4.72311">
        <ele>171</ele>
        <time>2017-10-15T09:49:26Z</time>
      </trkpt>
      <trkpt lat="45.94042" lon="4.72315">
        <ele>171</ele>
        <time>2017-10-15T09:49:27Z</time>
      </trkpt>
      <trkpt lat="45.94038" lon="4.7232">
        <ele>171</ele>
        <time>2017-10-15T09:49:28Z</time>
      </trkpt>
      <trkpt lat="45.94035" lon="4.72325">
        <ele>171</ele>
        <time>2017-10-15T09:49:29Z</time>
      </trkpt>
      <trkpt lat="45.94031" lon="4.7233">
        <ele>171</ele>
        <time>2017-10-15T09:49:30Z</time>
      </trkpt>
      <trkpt lat="45.94027" lon="4.72335">
        <ele>171</ele>
        <time>2017-10-15T09:49:31Z</time>
      </trkpt>
      <trkpt lat="45.94023" lon="4.72341">
        <ele>171</ele>
        <time>2017-10-15T09:49:32Z</time>
      </trkpt>
      <trkpt lat="45.94018" lon="4.72347">
        <ele>171</ele>
        <time>2017-10-15T09:49:33Z</time>
      </trkpt>
      <trkpt lat="45.94014" lon="4.72353">
        <ele>171</ele>
        <time>2017-10-15T09:49:34Z</time>
      </trkpt>
      <trkpt lat="45.9401" lon="4.72359">
        <ele>171</ele>
        <time>2017-10-15T09:49:35Z</time>
      </trkpt>
      <trkpt lat="45.94004" lon="4.72364">
        <ele>171</ele>
        <time>2017-10-15T09:49:36Z</time>
      </trkpt>
      <trkpt lat="45.93998" lon="4.72369">
        <ele>171</ele>
        <time>2017-10-15T09:49:37Z</time>
      </trkpt>
      <trkpt lat="45.93994" lon="4.72375">
        <ele>171</ele>
        <time>2017-10-15T09:49:38Z</time>
      </trkpt>
      <trkpt lat="45.93989" lon="4.72381">
        <ele>171</ele>
        <time>2017-10-15T09:49:39Z</time>
      </trkpt>
      <trkpt lat="45.93985" lon="4.72386">
        <ele>171</ele>
        <time>2017-10-15T09:49:40Z</time>
      </trkpt>
      <trkpt lat="45.9398" lon="4.72392">
        <ele>171</ele>
        <time>2017-10-15T09:49:41Z</time>
      </trkpt>
      <trkpt lat="45.93977" lon="4.72397">
        <ele>171</ele>
        <time>2017-10-15T09:49:42Z</time>
      </trkpt>
      <trkpt lat="45.93972" lon="4.72402">
        <ele>171</ele>
        <time>2017-10-15T09:49:43Z</time>
      </trkpt>
      <trkpt lat="45.93969" lon="4.72405">
        <ele>171</ele>
        <time>2017-10-15T09:49:44Z</time>
      </trkpt>
      <trkpt lat="45.93965" lon="4.72409">
        <ele>171</ele>
        <time>2017-10-15T09:49:45Z</time>
      </trkpt>
      <trkpt lat="45.93961" lon="4.72414">
        <ele>171</ele>
        <time>2017-10-15T09:49:46Z</time>
      </trkpt>
      <trkpt lat="45.93957" lon="4.72419">
        <ele>171</ele>
        <time>2017-10-15T09:49:47Z</time>
      </trkpt>
      <trkpt lat="45.93953" lon="4.72423">
        <ele>171</ele>
        <time>2017-10-15T09:49:48Z</time>
      </trkpt>
      <trkpt lat="45.93948" lon="4.72428">
        <ele>171</ele>
        <time>2017-10-15T09:49:49Z</time>
      </trkpt>
      <trkpt lat="45.93944" lon="4.72433">
        <ele>171</ele>
        <time>2017-10-15T09:49:50Z</time>
      </trkpt>
      <trkpt lat="45.9394" lon="4.72437">
        <ele>171</ele>
        <time>2017-10-15T09:49:51Z</time>
      </trkpt>
      <trkpt lat="45.93936" lon="4.72441">
        <ele>171</ele>
        <time>2017-10-15T09:49:52Z</time>
      </trkpt>
      <trkpt lat="45.93933" lon="4.72445">
        <ele>171</ele>
        <time>2017-10-15T09:49:53Z</time>
      </trkpt>
      <trkpt lat="45.9393" lon="4.7245">
        <ele>171</ele>
        <time>2017-10-15T09:49:54Z</time>
      </trkpt>
      <trkpt lat="45.93925" lon="4.72454">
        <ele>171</ele>
        <time>2017-10-15T09:49:55Z</time>
      </trkpt>
      <trkpt lat="45.93921" lon="4.72459">
        <ele>171</ele>
        <time>2017-10-15T09:49:56Z</time>
      </trkpt>
      <trkpt lat="45.93918" lon="4.72464">
        <ele>171</ele>
        <time>2017-10-15T09:49:57Z</time>
      </trkpt>
      <trkpt lat="45.93914" lon="4.72469">
        <ele>172</ele>
        <time>2017-10-15T09:49:58Z</time>
      </trkpt>
      <trkpt lat="45.9391" lon="4.72474">
        <ele>172</ele>
        <time>2017-10-15T09:49:59Z</time>
      </trkpt>
      <trkpt lat="45.93907" lon="4.72479">
        <ele>172</ele>
        <time>2017-10-15T09:50:00Z</time>
      </trkpt>
      <trkpt lat="45.93904" lon="4.72483">
        <ele>172</ele>
        <time>2017-10-15T09:50:01Z</time>
      </trkpt>
      <trkpt lat="45.939" lon="4.72488">
        <ele>172</ele>
        <time>2017-10-15T09:50:02Z</time>
      </trkpt>
      <trkpt lat="45.93897" lon="4.72494">
        <ele>172</ele>
        <time>2017-10-15T09:50:03Z</time>
      </trkpt>
      <trkpt lat="45.93893" lon="4.72499">
        <ele>172</ele>
        <time>2017-10-15T09:50:04Z</time>
      </trkpt>
      <trkpt lat="45.93889" lon="4.72504">
        <ele>173</ele>
        <time>2017-10-15T09:50:05Z</time>
      </trkpt>
      <trkpt lat="45.93885" lon="4.72509">
        <ele>173</ele>
        <time>2017-10-15T09:50:06Z</time>
      </trkpt>
      <trkpt lat="45.93881" lon="4.72514">
        <ele>173</ele>
        <time>2017-10-15T09:50:07Z</time>
      </trkpt>
      <trkpt lat="45.93877" lon="4.72516">
        <ele>173</ele>
        <time>2017-10-15T09:50:08Z</time>
      </trkpt>
      <trkpt lat="45.93872" lon="4.72517">
        <ele>173</ele>
        <time>2017-10-15T09:50:09Z</time>
      </trkpt>
      <trkpt lat="45.93867" lon="4.72515">
        <ele>173</ele>
        <time>2017-10-15T09:50:10Z</time>
      </trkpt>
      <trkpt lat="45.93862" lon="4.72513">
        <ele>173</ele>
        <time>2017-10-15T09:50:11Z</time>
      </trkpt>
      <trkpt lat="45.93854" lon="4.72508">
        <ele>173</ele>
        <time>2017-10-15T09:50:13Z</time>
      </trkpt>
      <trkpt lat="45.93825" lon="4.7248">
        <ele>173</ele>
        <time>2017-10-15T09:50:21Z</time>
      </trkpt>
      <trkpt lat="45.93818" lon="4.72473">
        <ele>172</ele>
        <time>2017-10-15T09:50:22Z</time>
      </trkpt>
      <trkpt lat="45.93812" lon="4.72468">
        <ele>172</ele>
        <time>2017-10-15T09:50:23Z</time>
      </trkpt>
      <trkpt lat="45.93808" lon="4.72464">
        <ele>172</ele>
        <time>2017-10-15T09:50:24Z</time>
      </trkpt>
      <trkpt lat="45.93804" lon="4.72458">
        <ele>172</ele>
        <time>2017-10-15T09:50:25Z</time>
      </trkpt>
      <trkpt lat="45.938" lon="4.72455">
        <ele>172</ele>
        <time>2017-10-15T09:50:26Z</time>
      </trkpt>
      <trkpt lat="45.93795" lon="4.72451">
        <ele>172</ele>
        <time>2017-10-15T09:50:27Z</time>
      </trkpt>
      <trkpt lat="45.93789" lon="4.72443">
        <ele>172</ele>
        <time>2017-10-15T09:50:29Z</time>
      </trkpt>
      <trkpt lat="45.93784" lon="4.72439">
        <ele>172</ele>
        <time>2017-10-15T09:50:30Z</time>
      </trkpt>
      <trkpt lat="45.9378" lon="4.72435">
        <ele>172</ele>
        <time>2017-10-15T09:50:31Z</time>
      </trkpt>
      <trkpt lat="45.93776" lon="4.72429">
        <ele>171</ele>
        <time>2017-10-15T09:50:32Z</time>
      </trkpt>
      <trkpt lat="45.93771" lon="4.72425">
        <ele>171</ele>
        <time>2017-10-15T09:50:33Z</time>
      </trkpt>
      <trkpt lat="45.93767" lon="4.72421">
        <ele>171</ele>
        <time>2017-10-15T09:50:34Z</time>
      </trkpt>
      <trkpt lat="45.93763" lon="4.72416">
        <ele>171</ele>
        <time>2017-10-15T09:50:35Z</time>
      </trkpt>
      <trkpt lat="45.93759" lon="4.72412">
        <ele>171</ele>
        <time>2017-10-15T09:50:36Z</time>
      </trkpt>
      <trkpt lat="45.93756" lon="4.72408">
        <ele>171</ele>
        <time>2017-10-15T09:50:37Z</time>
      </trkpt>
      <trkpt lat="45.93752" lon="4.72404">
        <ele>171</ele>
        <time>2017-10-15T09:50:38Z</time>
      </trkpt>
      <trkpt lat="45.93748" lon="4.724">
        <ele>171</ele>
        <time>2017-10-15T09:50:39Z</time>
      </trkpt>
      <trkpt lat="45.93744" lon="4.72395">
        <ele>171</ele>
        <time>2017-10-15T09:50:40Z</time>
      </trkpt>
      <trkpt lat="45.9374" lon="4.72391">
        <ele>171</ele>
        <time>2017-10-15T09:50:41Z</time>
      </trkpt>
      <trkpt lat="45.93736" lon="4.72387">
        <ele>171</ele>
        <time>2017-10-15T09:50:42Z</time>
      </trkpt>
      <trkpt lat="45.93732" lon="4.72383">
        <ele>171</ele>
        <time>2017-10-15T09:50:43Z</time>
      </trkpt>
      <trkpt lat="45.93727" lon="4.72379">
        <ele>171</ele>
        <time>2017-10-15T09:50:44Z</time>
      </trkpt>
      <trkpt lat="45.93722" lon="4.72376">
        <ele>171</ele>
        <time>2017-10-15T09:50:45Z</time>
      </trkpt>
      <trkpt lat="45.93717" lon="4.72373">
        <ele>172</ele>
        <time>2017-10-15T09:50:46Z</time>
      </trkpt>
      <trkpt lat="45.93714" lon="4.72371">
        <ele>172</ele>
        <time>2017-10-15T09:50:47Z</time>
      </trkpt>
      <trkpt lat="45.93709" lon="4.72366">
        <ele>172</ele>
        <time>2017-10-15T09:50:48Z</time>
      </trkpt>
      <trkpt lat="45.93704" lon="4.72362">
        <ele>171</ele>
        <time>2017-10-15T09:50:49Z</time>
      </trkpt>
      <trkpt lat="45.93701" lon="4.72358">
        <ele>171</ele>
        <time>2017-10-15T09:50:50Z</time>
      </trkpt>
      <trkpt lat="45.93697" lon="4.72353">
        <ele>171</ele>
        <time>2017-10-15T09:50:51Z</time>
      </trkpt>
      <trkpt lat="45.93694" lon="4.72349">
        <ele>171</ele>
        <time>2017-10-15T09:50:52Z</time>
      </trkpt>
      <trkpt lat="45.9369" lon="4.72342">
        <ele>171</ele>
        <time>2017-10-15T09:50:54Z</time>
      </trkpt>
      <trkpt lat="45.93685" lon="4.72337">
        <ele>171</ele>
        <time>2017-10-15T09:50:55Z</time>
      </trkpt>
      <trkpt lat="45.93681" lon="4.72334">
        <ele>171</ele>
        <time>2017-10-15T09:50:56Z</time>
      </trkpt>
      <trkpt lat="45.93676" lon="4.7233">
        <ele>171</ele>
        <time>2017-10-15T09:50:57Z</time>
      </trkpt>
      <trkpt lat="45.93673" lon="4.72325">
        <ele>171</ele>
        <time>2017-10-15T09:50:58Z</time>
      </trkpt>
      <trkpt lat="45.93668" lon="4.72321">
        <ele>171</ele>
        <time>2017-10-15T09:50:59Z</time>
      </trkpt>
      <trkpt lat="45.93665" lon="4.72316">
        <ele>172</ele>
        <time>2017-10-15T09:51:00Z</time>
      </trkpt>
      <trkpt lat="45.9366" lon="4.72312">
        <ele>172</ele>
        <time>2017-10-15T09:51:01Z</time>
      </trkpt>
      <trkpt lat="45.93655" lon="4.72308">
        <ele>172</ele>
        <time>2017-10-15T09:51:02Z</time>
      </trkpt>
      <trkpt lat="45.93651" lon="4.72304">
        <ele>172</ele>
        <time>2017-10-15T09:51:03Z</time>
      </trkpt>
      <trkpt lat="45.93643" lon="4.72297">
        <ele>172</ele>
        <time>2017-10-15T09:51:05Z</time>
      </trkpt>
      <trkpt lat="45.93638" lon="4.72293">
        <ele>172</ele>
        <time>2017-10-15T09:51:06Z</time>
      </trkpt>
      <trkpt lat="45.93634" lon="4.72288">
        <ele>172</ele>
        <time>2017-10-15T09:51:07Z</time>
      </trkpt>
      <trkpt lat="45.93629" lon="4.72284">
        <ele>172</ele>
        <time>2017-10-15T09:51:08Z</time>
      </trkpt>
      <trkpt lat="45.93626" lon="4.7228">
        <ele>172</ele>
        <time>2017-10-15T09:51:09Z</time>
      </trkpt>
      <trkpt lat="45.93621" lon="4.72275">
        <ele>172</ele>
        <time>2017-10-15T09:51:10Z</time>
      </trkpt>
      <trkpt lat="45.93617" lon="4.72271">
        <ele>172</ele>
        <time>2017-10-15T09:51:11Z</time>
      </trkpt>
      <trkpt lat="45.93612" lon="4.72267">
        <ele>172</ele>
        <time>2017-10-15T09:51:12Z</time>
      </trkpt>
      <trkpt lat="45.93606" lon="4.7226">
        <ele>173</ele>
        <time>2017-10-15T09:51:14Z</time>
      </trkpt>
      <trkpt lat="45.93603" lon="4.72257">
        <ele>173</ele>
        <time>2017-10-15T09:51:15Z</time>
      </trkpt>
      <trkpt lat="45.93596" lon="4.72252">
        <ele>173</ele>
        <time>2017-10-15T09:51:17Z</time>
      </trkpt>
      <trkpt lat="45.93591" lon="4.7225">
        <ele>173</ele>
        <time>2017-10-15T09:51:18Z</time>
      </trkpt>
      <trkpt lat="45.93584" lon="4.72241">
        <ele>173</ele>
        <time>2017-10-15T09:51:20Z</time>
      </trkpt>
      <trkpt lat="45.93583" lon="4.72236">
        <ele>173</ele>
        <time>2017-10-15T09:51:21Z</time>
      </trkpt>
      <trkpt lat="45.93576" lon="4.72231">
        <ele>173</ele>
        <time>2017-10-15T09:51:23Z</time>
      </trkpt>
      <trkpt lat="45.93574" lon="4.72229">
        <ele>173</ele>
        <time>2017-10-15T09:51:24Z</time>
      </trkpt>
      <trkpt lat="45.93567" lon="4.72222">
        <ele>173</ele>
        <time>2017-10-15T09:51:27Z</time>
      </trkpt>
      <trkpt lat="45.93565" lon="4.72221">
        <ele>173</ele>
        <time>2017-10-15T09:51:28Z</time>
      </trkpt>
      <trkpt lat="45.93557" lon="4.72217">
        <ele>173</ele>
        <time>2017-10-15T09:51:31Z</time>
      </trkpt>
      <trkpt lat="45.93554" lon="4.72217">
        <ele>173</ele>
        <time>2017-10-15T09:51:32Z</time>
      </trkpt>
      <trkpt lat="45.93548" lon="4.72225">
        <ele>172</ele>
        <time>2017-10-15T09:51:34Z</time>
      </trkpt>
      <trkpt lat="45.93546" lon="4.7223">
        <ele>172</ele>
        <time>2017-10-15T09:51:35Z</time>
      </trkpt>
      <trkpt lat="45.93543" lon="4.72236">
        <ele>172</ele>
        <time>2017-10-15T09:51:36Z</time>
      </trkpt>
      <trkpt lat="45.93541" lon="4.72244">
        <ele>172</ele>
        <time>2017-10-15T09:51:37Z</time>
      </trkpt>
      <trkpt lat="45.93538" lon="4.72249">
        <ele>172</ele>
        <time>2017-10-15T09:51:38Z</time>
      </trkpt>
      <trkpt lat="45.93535" lon="4.72255">
        <ele>172</ele>
        <time>2017-10-15T09:51:39Z</time>
      </trkpt>
      <trkpt lat="45.93533" lon="4.72261">
        <ele>172</ele>
        <time>2017-10-15T09:51:40Z</time>
      </trkpt>
      <trkpt lat="45.9353" lon="4.72268">
        <ele>172</ele>
        <time>2017-10-15T09:51:41Z</time>
      </trkpt>
      <trkpt lat="45.93527" lon="4.72274">
        <ele>172</ele>
        <time>2017-10-15T09:51:42Z</time>
      </trkpt>
      <trkpt lat="45.93525" lon="4.72282">
        <ele>172</ele>
        <time>2017-10-15T09:51:43Z</time>
      </trkpt>
      <trkpt lat="45.93522" lon="4.72289">
        <ele>172</ele>
        <time>2017-10-15T09:51:44Z</time>
      </trkpt>
      <trkpt lat="45.93519" lon="4.72295">
        <ele>172</ele>
        <time>2017-10-15T09:51:45Z</time>
      </trkpt>
      <trkpt lat="45.93515" lon="4.72302">
        <ele>172</ele>
        <time>2017-10-15T09:51:46Z</time>
      </trkpt>
      <trkpt lat="45.93511" lon="4.72309">
        <ele>173</ele>
        <time>2017-10-15T09:51:47Z</time>
      </trkpt>
      <trkpt lat="45.93506" lon="4.72314">
        <ele>173</ele>
        <time>2017-10-15T09:51:48Z</time>
      </trkpt>
      <trkpt lat="45.93501" lon="4.72321">
        <ele>173</ele>
        <time>2017-10-15T09:51:49Z</time>
      </trkpt>
      <trkpt lat="45.93497" lon="4.72328">
        <ele>173</ele>
        <time>2017-10-15T09:51:50Z</time>
      </trkpt>
      <trkpt lat="45.93493" lon="4.72333">
        <ele>173</ele>
        <time>2017-10-15T09:51:51Z</time>
      </trkpt>
      <trkpt lat="45.93488" lon="4.7234">
        <ele>173</ele>
        <time>2017-10-15T09:51:52Z</time>
      </trkpt>
      <trkpt lat="45.93484" lon="4.72346">
        <ele>173</ele>
        <time>2017-10-15T09:51:53Z</time>
      </trkpt>
      <trkpt lat="45.9348" lon="4.72351">
        <ele>173</ele>
        <time>2017-10-15T09:51:54Z</time>
      </trkpt>
      <trkpt lat="45.93476" lon="4.72357">
        <ele>173</ele>
        <time>2017-10-15T09:51:55Z</time>
      </trkpt>
      <trkpt lat="45.93472" lon="4.72363">
        <ele>173</ele>
        <time>2017-10-15T09:51:56Z</time>
      </trkpt>
      <trkpt lat="45.93468" lon="4.72368">
        <ele>173</ele>
        <time>2017-10-15T09:51:57Z</time>
      </trkpt>
      <trkpt lat="45.93464" lon="4.72374">
        <ele>173</ele>
        <time>2017-10-15T09:51:58Z</time>
      </trkpt>
      <trkpt lat="45.93461" lon="4.72379">
        <ele>173</ele>
        <time>2017-10-15T09:51:59Z</time>
      </trkpt>
      <trkpt lat="45.93455" lon="4.72383">
        <ele>173</ele>
        <time>2017-10-15T09:52:00Z</time>
      </trkpt>
      <trkpt lat="45.93451" lon="4.72387">
        <ele>173</ele>
        <time>2017-10-15T09:52:01Z</time>
      </trkpt>
      <trkpt lat="45.93447" lon="4.7239">
        <ele>173</ele>
        <time>2017-10-15T09:52:02Z</time>
      </trkpt>
      <trkpt lat="45.93442" lon="4.72393">
        <ele>173</ele>
        <time>2017-10-15T09:52:03Z</time>
      </trkpt>
      <trkpt lat="45.93437" lon="4.72396">
        <ele>173</ele>
        <time>2017-10-15T09:52:04Z</time>
      </trkpt>
      <trkpt lat="45.93432" lon="4.72399">
        <ele>174</ele>
        <time>2017-10-15T09:52:05Z</time>
      </trkpt>
      <trkpt lat="45.93427" lon="4.72401">
        <ele>174</ele>
        <time>2017-10-15T09:52:06Z</time>
      </trkpt>
      <trkpt lat="45.93422" lon="4.72403">
        <ele>174</ele>
        <time>2017-10-15T09:52:07Z</time>
      </trkpt>
      <trkpt lat="45.93417" lon="4.72404">
        <ele>174</ele>
        <time>2017-10-15T09:52:08Z</time>
      </trkpt>
      <trkpt lat="45.93412" lon="4.72406">
        <ele>174</ele>
        <time>2017-10-15T09:52:09Z</time>
      </trkpt>
      <trkpt lat="45.93403" lon="4.72406">
        <ele>174</ele>
        <time>2017-10-15T09:52:11Z</time>
      </trkpt>
      <trkpt lat="45.934" lon="4.72406">
        <ele>174</ele>
        <time>2017-10-15T09:52:12Z</time>
      </trkpt>
      <trkpt lat="45.93395" lon="4.72407">
        <ele>174</ele>
        <time>2017-10-15T09:52:13Z</time>
      </trkpt>
      <trkpt lat="45.9339" lon="4.72409">
        <ele>174</ele>
        <time>2017-10-15T09:52:14Z</time>
      </trkpt>
      <trkpt lat="45.93386" lon="4.72415">
        <ele>174</ele>
        <time>2017-10-15T09:52:15Z</time>
      </trkpt>
      <trkpt lat="45.93384" lon="4.72422">
        <ele>173</ele>
        <time>2017-10-15T09:52:16Z</time>
      </trkpt>
      <trkpt lat="45.93386" lon="4.72428">
        <ele>173</ele>
        <time>2017-10-15T09:52:17Z</time>
      </trkpt>
      <trkpt lat="45.93388" lon="4.72436">
        <ele>173</ele>
        <time>2017-10-15T09:52:18Z</time>
      </trkpt>
      <trkpt lat="45.9339" lon="4.72443">
        <ele>173</ele>
        <time>2017-10-15T09:52:19Z</time>
      </trkpt>
      <trkpt lat="45.93392" lon="4.72451">
        <ele>173</ele>
        <time>2017-10-15T09:52:20Z</time>
      </trkpt>
      <trkpt lat="45.93391" lon="4.72458">
        <ele>173</ele>
        <time>2017-10-15T09:52:21Z</time>
      </trkpt>
      <trkpt lat="45.93388" lon="4.72465">
        <ele>173</ele>
        <time>2017-10-15T09:52:22Z</time>
      </trkpt>
      <trkpt lat="45.93385" lon="4.72472">
        <ele>173</ele>
        <time>2017-10-15T09:52:23Z</time>
      </trkpt>
      <trkpt lat="45.9338" lon="4.72476">
        <ele>173</ele>
        <time>2017-10-15T09:52:24Z</time>
      </trkpt>
      <trkpt lat="45.93376" lon="4.7248">
        <ele>173</ele>
        <time>2017-10-15T09:52:25Z</time>
      </trkpt>
      <trkpt lat="45.93373" lon="4.72485">
        <ele>173</ele>
        <time>2017-10-15T09:52:26Z</time>
      </trkpt>
      <trkpt lat="45.93368" lon="4.72489">
        <ele>173</ele>
        <time>2017-10-15T09:52:27Z</time>
      </trkpt>
      <trkpt lat="45.93364" lon="4.72493">
        <ele>173</ele>
        <time>2017-10-15T09:52:28Z</time>
      </trkpt>
      <trkpt lat="45.9336" lon="4.72499">
        <ele>173</ele>
        <time>2017-10-15T09:52:29Z</time>
      </trkpt>
      <trkpt lat="45.93355" lon="4.72504">
        <ele>172</ele>
        <time>2017-10-15T09:52:30Z</time>
      </trkpt>
      <trkpt lat="45.9335" lon="4.7251">
        <ele>172</ele>
        <time>2017-10-15T09:52:31Z</time>
      </trkpt>
      <trkpt lat="45.93346" lon="4.72515">
        <ele>172</ele>
        <time>2017-10-15T09:52:32Z</time>
      </trkpt>
      <trkpt lat="45.9334" lon="4.72521">
        <ele>172</ele>
        <time>2017-10-15T09:52:33Z</time>
      </trkpt>
      <trkpt lat="45.93336" lon="4.72525">
        <ele>172</ele>
        <time>2017-10-15T09:52:34Z</time>
      </trkpt>
      <trkpt lat="45.93332" lon="4.7253">
        <ele>172</ele>
        <time>2017-10-15T09:52:35Z</time>
      </trkpt>
      <trkpt lat="45.93328" lon="4.72536">
        <ele>172</ele>
        <time>2017-10-15T09:52:36Z</time>
      </trkpt>
      <trkpt lat="45.93324" lon="4.7254">
        <ele>172</ele>
        <time>2017-10-15T09:52:37Z</time>
      </trkpt>
      <trkpt lat="45.9332" lon="4.72545">
        <ele>172</ele>
        <time>2017-10-15T09:52:38Z</time>
      </trkpt>
      <trkpt lat="45.93315" lon="4.7255">
        <ele>172</ele>
        <time>2017-10-15T09:52:39Z</time>
      </trkpt>
      <trkpt lat="45.93311" lon="4.72555">
        <ele>172</ele>
        <time>2017-10-15T09:52:40Z</time>
      </trkpt>
      <trkpt lat="45.93307" lon="4.72559">
        <ele>172</ele>
        <time>2017-10-15T09:52:41Z</time>
      </trkpt>
      <trkpt lat="45.93304" lon="4.72564">
        <ele>172</ele>
        <time>2017-10-15T09:52:42Z</time>
      </trkpt>
      <trkpt lat="45.933" lon="4.72568">
        <ele>171</ele>
        <time>2017-10-15T09:52:43Z</time>
      </trkpt>
      <trkpt lat="45.93296" lon="4.72572">
        <ele>171</ele>
        <time>2017-10-15T09:52:44Z</time>
      </trkpt>
      <trkpt lat="45.93293" lon="4.72576">
        <ele>171</ele>
        <time>2017-10-15T09:52:45Z</time>
      </trkpt>
      <trkpt lat="45.93289" lon="4.72581">
        <ele>171</ele>
        <time>2017-10-15T09:52:46Z</time>
      </trkpt>
      <trkpt lat="45.93285" lon="4.72587">
        <ele>170</ele>
        <time>2017-10-15T09:52:47Z</time>
      </trkpt>
      <trkpt lat="45.93281" lon="4.72592">
        <ele>170</ele>
        <time>2017-10-15T09:52:48Z</time>
      </trkpt>
      <trkpt lat="45.93277" lon="4.72597">
        <ele>170</ele>
        <time>2017-10-15T09:52:49Z</time>
      </trkpt>
      <trkpt lat="45.93273" lon="4.72601">
        <ele>170</ele>
        <time>2017-10-15T09:52:50Z</time>
      </trkpt>
      <trkpt lat="45.93269" lon="4.72605">
        <ele>170</ele>
        <time>2017-10-15T09:52:51Z</time>
      </trkpt>
      <trkpt lat="45.93265" lon="4.7261">
        <ele>170</ele>
        <time>2017-10-15T09:52:52Z</time>
      </trkpt>
      <trkpt lat="45.93261" lon="4.72614">
        <ele>170</ele>
        <time>2017-10-15T09:52:53Z</time>
      </trkpt>
      <trkpt lat="45.93255" lon="4.72619">
        <ele>170</ele>
        <time>2017-10-15T09:52:54Z</time>
      </trkpt>
      <trkpt lat="45.9325" lon="4.72624">
        <ele>170</ele>
        <time>2017-10-15T09:52:55Z</time>
      </trkpt>
      <trkpt lat="45.93246" lon="4.72629">
        <ele>170</ele>
        <time>2017-10-15T09:52:56Z</time>
      </trkpt>
      <trkpt lat="45.93241" lon="4.72633">
        <ele>170</ele>
        <time>2017-10-15T09:52:57Z</time>
      </trkpt>
      <trkpt lat="45.93236" lon="4.72639">
        <ele>170</ele>
        <time>2017-10-15T09:52:58Z</time>
      </trkpt>
      <trkpt lat="45.93231" lon="4.72644">
        <ele>170</ele>
        <time>2017-10-15T09:52:59Z</time>
      </trkpt>
      <trkpt lat="45.93227" lon="4.72649">
        <ele>170</ele>
        <time>2017-10-15T09:53:00Z</time>
      </trkpt>
      <trkpt lat="45.93223" lon="4.72655">
        <ele>170</ele>
        <time>2017-10-15T09:53:01Z</time>
      </trkpt>
      <trkpt lat="45.93219" lon="4.7266">
        <ele>170</ele>
        <time>2017-10-15T09:53:02Z</time>
      </trkpt>
      <trkpt lat="45.93216" lon="4.72664">
        <ele>170</ele>
        <time>2017-10-15T09:53:03Z</time>
      </trkpt>
      <trkpt lat="45.93212" lon="4.72669">
        <ele>169</ele>
        <time>2017-10-15T09:53:04Z</time>
      </trkpt>
      <trkpt lat="45.93208" lon="4.72673">
        <ele>169</ele>
        <time>2017-10-15T09:53:05Z</time>
      </trkpt>
      <trkpt lat="45.93204" lon="4.72677">
        <ele>169</ele>
        <time>2017-10-15T09:53:06Z</time>
      </trkpt>
      <trkpt lat="45.93197" lon="4.72684">
        <ele>169</ele>
        <time>2017-10-15T09:53:08Z</time>
      </trkpt>
      <trkpt lat="45.93194" lon="4.7269">
        <ele>169</ele>
        <time>2017-10-15T09:53:09Z</time>
      </trkpt>
      <trkpt lat="45.93191" lon="4.72694">
        <ele>169</ele>
        <time>2017-10-15T09:53:10Z</time>
      </trkpt>
      <trkpt lat="45.93186" lon="4.72698">
        <ele>169</ele>
        <time>2017-10-15T09:53:11Z</time>
      </trkpt>
      <trkpt lat="45.93183" lon="4.72703">
        <ele>169</ele>
        <time>2017-10-15T09:53:12Z</time>
      </trkpt>
      <trkpt lat="45.9318" lon="4.72709">
        <ele>169</ele>
        <time>2017-10-15T09:53:13Z</time>
      </trkpt>
      <trkpt lat="45.93176" lon="4.72714">
        <ele>169</ele>
        <time>2017-10-15T09:53:14Z</time>
      </trkpt>
      <trkpt lat="45.93172" lon="4.72719">
        <ele>170</ele>
        <time>2017-10-15T09:53:15Z</time>
      </trkpt>
      <trkpt lat="45.93167" lon="4.72723">
        <ele>170</ele>
        <time>2017-10-15T09:53:16Z</time>
      </trkpt>
      <trkpt lat="45.93163" lon="4.72727">
        <ele>170</ele>
        <time>2017-10-15T09:53:17Z</time>
      </trkpt>
      <trkpt lat="45.93159" lon="4.72731">
        <ele>170</ele>
        <time>2017-10-15T09:53:18Z</time>
      </trkpt>
      <trkpt lat="45.93155" lon="4.72736">
        <ele>170</ele>
        <time>2017-10-15T09:53:19Z</time>
      </trkpt>
      <trkpt lat="45.93151" lon="4.72741">
        <ele>170</ele>
        <time>2017-10-15T09:53:20Z</time>
      </trkpt>
      <trkpt lat="45.93147" lon="4.72746">
        <ele>170</ele>
        <time>2017-10-15T09:53:21Z</time>
      </trkpt>
      <trkpt lat="45.93144" lon="4.7275">
        <ele>170</ele>
        <time>2017-10-15T09:53:22Z</time>
      </trkpt>
      <trkpt lat="45.93139" lon="4.72754">
        <ele>171</ele>
        <time>2017-10-15T09:53:23Z</time>
      </trkpt>
      <trkpt lat="45.93135" lon="4.72759">
        <ele>171</ele>
        <time>2017-10-15T09:53:24Z</time>
      </trkpt>
      <trkpt lat="45.9313" lon="4.72765">
        <ele>171</ele>
        <time>2017-10-15T09:53:25Z</time>
      </trkpt>
      <trkpt lat="45.93126" lon="4.7277">
        <ele>171</ele>
        <time>2017-10-15T09:53:26Z</time>
      </trkpt>
      <trkpt lat="45.93123" lon="4.72775">
        <ele>171</ele>
        <time>2017-10-15T09:53:27Z</time>
      </trkpt>
      <trkpt lat="45.93119" lon="4.7278">
        <ele>171</ele>
        <time>2017-10-15T09:53:28Z</time>
      </trkpt>
      <trkpt lat="45.93114" lon="4.72785">
        <ele>171</ele>
        <time>2017-10-15T09:53:29Z</time>
      </trkpt>
      <trkpt lat="45.9311" lon="4.7279">
        <ele>171</ele>
        <time>2017-10-15T09:53:30Z</time>
      </trkpt>
      <trkpt lat="45.93106" lon="4.72795">
        <ele>171</ele>
        <time>2017-10-15T09:53:31Z</time>
      </trkpt>
      <trkpt lat="45.93102" lon="4.72799">
        <ele>171</ele>
        <time>2017-10-15T09:53:32Z</time>
      </trkpt>
      <trkpt lat="45.93099" lon="4.72804">
        <ele>171</ele>
        <time>2017-10-15T09:53:33Z</time>
      </trkpt>
      <trkpt lat="45.93095" lon="4.72809">
        <ele>172</ele>
        <time>2017-10-15T09:53:34Z</time>
      </trkpt>
      <trkpt lat="45.93091" lon="4.72814">
        <ele>172</ele>
        <time>2017-10-15T09:53:35Z</time>
      </trkpt>
      <trkpt lat="45.93086" lon="4.72818">
        <ele>172</ele>
        <time>2017-10-15T09:53:36Z</time>
      </trkpt>
      <trkpt lat="45.93082" lon="4.72823">
        <ele>173</ele>
        <time>2017-10-15T09:53:37Z</time>
      </trkpt>
      <trkpt lat="45.93079" lon="4.72827">
        <ele>173</ele>
        <time>2017-10-15T09:53:38Z</time>
      </trkpt>
      <trkpt lat="45.93075" lon="4.72832">
        <ele>173</ele>
        <time>2017-10-15T09:53:39Z</time>
      </trkpt>
      <trkpt lat="45.93055" lon="4.7285">
        <ele>172</ele>
        <time>2017-10-15T09:53:44Z</time>
      </trkpt>
      <trkpt lat="45.93047" lon="4.72855">
        <ele>172</ele>
        <time>2017-10-15T09:53:45Z</time>
      </trkpt>
      <trkpt lat="45.9304" lon="4.72863">
        <ele>172</ele>
        <time>2017-10-15T09:53:47Z</time>
      </trkpt>
      <trkpt lat="45.93038" lon="4.72867">
        <ele>172</ele>
        <time>2017-10-15T09:53:48Z</time>
      </trkpt>
      <trkpt lat="45.93036" lon="4.72872">
        <ele>172</ele>
        <time>2017-10-15T09:53:49Z</time>
      </trkpt>
      <trkpt lat="45.93032" lon="4.72877">
        <ele>172</ele>
        <time>2017-10-15T09:53:50Z</time>
      </trkpt>
      <trkpt lat="45.93029" lon="4.72882">
        <ele>172</ele>
        <time>2017-10-15T09:53:51Z</time>
      </trkpt>
      <trkpt lat="45.93025" lon="4.72886">
        <ele>172</ele>
        <time>2017-10-15T09:53:52Z</time>
      </trkpt>
      <trkpt lat="45.93022" lon="4.72891">
        <ele>172</ele>
        <time>2017-10-15T09:53:53Z</time>
      </trkpt>
      <trkpt lat="45.93018" lon="4.72895">
        <ele>172</ele>
        <time>2017-10-15T09:53:54Z</time>
      </trkpt>
      <trkpt lat="45.93015" lon="4.72901">
        <ele>172</ele>
        <time>2017-10-15T09:53:55Z</time>
      </trkpt>
      <trkpt lat="45.93011" lon="4.72907">
        <ele>171</ele>
        <time>2017-10-15T09:53:56Z</time>
      </trkpt>
      <trkpt lat="45.93008" lon="4.72911">
        <ele>171</ele>
        <time>2017-10-15T09:53:57Z</time>
      </trkpt>
      <trkpt lat="45.93004" lon="4.72916">
        <ele>171</ele>
        <time>2017-10-15T09:53:58Z</time>
      </trkpt>
      <trkpt lat="45.93" lon="4.7292">
        <ele>171</ele>
        <time>2017-10-15T09:53:59Z</time>
      </trkpt>
      <trkpt lat="45.92996" lon="4.72925">
        <ele>171</ele>
        <time>2017-10-15T09:54:00Z</time>
      </trkpt>
      <trkpt lat="45.92992" lon="4.72929">
        <ele>171</ele>
        <time>2017-10-15T09:54:01Z</time>
      </trkpt>
      <trkpt lat="45.92989" lon="4.72933">
        <ele>171</ele>
        <time>2017-10-15T09:54:02Z</time>
      </trkpt>
      <trkpt lat="45.92985" lon="4.72938">
        <ele>171</ele>
        <time>2017-10-15T09:54:03Z</time>
      </trkpt>
      <trkpt lat="45.92981" lon="4.72942">
        <ele>171</ele>
        <time>2017-10-15T09:54:04Z</time>
      </trkpt>
      <trkpt lat="45.92977" lon="4.72947">
        <ele>171</ele>
        <time>2017-10-15T09:54:05Z</time>
      </trkpt>
      <trkpt lat="45.92973" lon="4.72951">
        <ele>171</ele>
        <time>2017-10-15T09:54:06Z</time>
      </trkpt>
      <trkpt lat="45.92969" lon="4.72956">
        <ele>171</ele>
        <time>2017-10-15T09:54:07Z</time>
      </trkpt>
      <trkpt lat="45.92965" lon="4.7296">
        <ele>171</ele>
        <time>2017-10-15T09:54:08Z</time>
      </trkpt>
      <trkpt lat="45.92962" lon="4.72965">
        <ele>171</ele>
        <time>2017-10-15T09:54:09Z</time>
      </trkpt>
      <trkpt lat="45.92958" lon="4.7297">
        <ele>171</ele>
        <time>2017-10-15T09:54:10Z</time>
      </trkpt>
      <trkpt lat="45.92954" lon="4.72975">
        <ele>171</ele>
        <time>2017-10-15T09:54:11Z</time>
      </trkpt>
      <trkpt lat="45.9295" lon="4.72978">
        <ele>171</ele>
        <time>2017-10-15T09:54:12Z</time>
      </trkpt>
      <trkpt lat="45.92944" lon="4.72986">
        <ele>171</ele>
        <time>2017-10-15T09:54:14Z</time>
      </trkpt>
      <trkpt lat="45.92941" lon="4.7299">
        <ele>171</ele>
        <time>2017-10-15T09:54:15Z</time>
      </trkpt>
      <trkpt lat="45.92934" lon="4.72999">
        <ele>172</ele>
        <time>2017-10-15T09:54:17Z</time>
      </trkpt>
      <trkpt lat="45.92931" lon="4.73003">
        <ele>172</ele>
        <time>2017-10-15T09:54:18Z</time>
      </trkpt>
      <trkpt lat="45.92927" lon="4.73007">
        <ele>172</ele>
        <time>2017-10-15T09:54:19Z</time>
      </trkpt>
      <trkpt lat="45.92923" lon="4.73011">
        <ele>172</ele>
        <time>2017-10-15T09:54:20Z</time>
      </trkpt>
      <trkpt lat="45.92919" lon="4.73016">
        <ele>172</ele>
        <time>2017-10-15T09:54:21Z</time>
      </trkpt>
      <trkpt lat="45.92916" lon="4.7302">
        <ele>172</ele>
        <time>2017-10-15T09:54:22Z</time>
      </trkpt>
      <trkpt lat="45.92913" lon="4.73025">
        <ele>172</ele>
        <time>2017-10-15T09:54:23Z</time>
      </trkpt>
      <trkpt lat="45.9291" lon="4.73029">
        <ele>172</ele>
        <time>2017-10-15T09:54:24Z</time>
      </trkpt>
      <trkpt lat="45.92906" lon="4.73035">
        <ele>172</ele>
        <time>2017-10-15T09:54:25Z</time>
      </trkpt>
      <trkpt lat="45.92903" lon="4.73041">
        <ele>172</ele>
        <time>2017-10-15T09:54:26Z</time>
      </trkpt>
      <trkpt lat="45.929" lon="4.73045">
        <ele>172</ele>
        <time>2017-10-15T09:54:27Z</time>
      </trkpt>
      <trkpt lat="45.92897" lon="4.7305">
        <ele>172</ele>
        <time>2017-10-15T09:54:28Z</time>
      </trkpt>
      <trkpt lat="45.92892" lon="4.73056">
        <ele>172</ele>
        <time>2017-10-15T09:54:29Z</time>
      </trkpt>
      <trkpt lat="45.92889" lon="4.73061">
        <ele>172</ele>
        <time>2017-10-15T09:54:30Z</time>
      </trkpt>
      <trkpt lat="45.92887" lon="4.73066">
        <ele>172</ele>
        <time>2017-10-15T09:54:31Z</time>
      </trkpt>
      <trkpt lat="45.92884" lon="4.73072">
        <ele>172</ele>
        <time>2017-10-15T09:54:32Z</time>
      </trkpt>
      <trkpt lat="45.92882" lon="4.73079">
        <ele>172</ele>
        <time>2017-10-15T09:54:33Z</time>
      </trkpt>
      <trkpt lat="45.92879" lon="4.73084">
        <ele>172</ele>
        <time>2017-10-15T09:54:34Z</time>
      </trkpt>
      <trkpt lat="45.92877" lon="4.73092">
        <ele>172</ele>
        <time>2017-10-15T09:54:35Z</time>
      </trkpt>
      <trkpt lat="45.92874" lon="4.73099">
        <ele>172</ele>
        <time>2017-10-15T09:54:36Z</time>
      </trkpt>
      <trkpt lat="45.92872" lon="4.73106">
        <ele>172</ele>
        <time>2017-10-15T09:54:37Z</time>
      </trkpt>
      <trkpt lat="45.9287" lon="4.73112">
        <ele>172</ele>
        <time>2017-10-15T09:54:38Z</time>
      </trkpt>
      <trkpt lat="45.92868" lon="4.73119">
        <ele>171</ele>
        <time>2017-10-15T09:54:39Z</time>
      </trkpt>
      <trkpt lat="45.92866" lon="4.73127">
        <ele>171</ele>
        <time>2017-10-15T09:54:40Z</time>
      </trkpt>
      <trkpt lat="45.92865" lon="4.73135">
        <ele>171</ele>
        <time>2017-10-15T09:54:41Z</time>
      </trkpt>
      <trkpt lat="45.92864" lon="4.73143">
        <ele>171</ele>
        <time>2017-10-15T09:54:42Z</time>
      </trkpt>
      <trkpt lat="45.92863" lon="4.73152">
        <ele>171</ele>
        <time>2017-10-15T09:54:43Z</time>
      </trkpt>
      <trkpt lat="45.92862" lon="4.7316">
        <ele>171</ele>
        <time>2017-10-15T09:54:44Z</time>
      </trkpt>
      <trkpt lat="45.92861" lon="4.73167">
        <ele>171</ele>
        <time>2017-10-15T09:54:45Z</time>
      </trkpt>
      <trkpt lat="45.9286" lon="4.73174">
        <ele>171</ele>
        <time>2017-10-15T09:54:46Z</time>
      </trkpt>
      <trkpt lat="45.92859" lon="4.73181">
        <ele>171</ele>
        <time>2017-10-15T09:54:47Z</time>
      </trkpt>
      <trkpt lat="45.92858" lon="4.73188">
        <ele>171</ele>
        <time>2017-10-15T09:54:48Z</time>
      </trkpt>
      <trkpt lat="45.92858" lon="4.73194">
        <ele>171</ele>
        <time>2017-10-15T09:54:49Z</time>
      </trkpt>
      <trkpt lat="45.92857" lon="4.73201">
        <ele>171</ele>
        <time>2017-10-15T09:54:50Z</time>
      </trkpt>
      <trkpt lat="45.92856" lon="4.73214">
        <ele>171</ele>
        <time>2017-10-15T09:54:52Z</time>
      </trkpt>
      <trkpt lat="45.92855" lon="4.7322">
        <ele>171</ele>
        <time>2017-10-15T09:54:53Z</time>
      </trkpt>
      <trkpt lat="45.92854" lon="4.73227">
        <ele>171</ele>
        <time>2017-10-15T09:54:54Z</time>
      </trkpt>
      <trkpt lat="45.92854" lon="4.73235">
        <ele>171</ele>
        <time>2017-10-15T09:54:55Z</time>
      </trkpt>
      <trkpt lat="45.92853" lon="4.7324">
        <ele>171</ele>
        <time>2017-10-15T09:54:56Z</time>
      </trkpt>
      <trkpt lat="45.92853" lon="4.73248">
        <ele>171</ele>
        <time>2017-10-15T09:54:57Z</time>
      </trkpt>
      <trkpt lat="45.92852" lon="4.73256">
        <ele>171</ele>
        <time>2017-10-15T09:54:58Z</time>
      </trkpt>
      <trkpt lat="45.92851" lon="4.73263">
        <ele>171</ele>
        <time>2017-10-15T09:54:59Z</time>
      </trkpt>
      <trkpt lat="45.9285" lon="4.73271">
        <ele>171</ele>
        <time>2017-10-15T09:55:00Z</time>
      </trkpt>
      <trkpt lat="45.92849" lon="4.73277">
        <ele>171</ele>
        <time>2017-10-15T09:55:01Z</time>
      </trkpt>
      <trkpt lat="45.92848" lon="4.73285">
        <ele>171</ele>
        <time>2017-10-15T09:55:02Z</time>
      </trkpt>
      <trkpt lat="45.92848" lon="4.73292">
        <ele>171</ele>
        <time>2017-10-15T09:55:03Z</time>
      </trkpt>
      <trkpt lat="45.92846" lon="4.73305">
        <ele>171</ele>
        <time>2017-10-15T09:55:05Z</time>
      </trkpt>
      <trkpt lat="45.92846" lon="4.73311">
        <ele>171</ele>
        <time>2017-10-15T09:55:06Z</time>
      </trkpt>
      <trkpt lat="45.92845" lon="4.73318">
        <ele>171</ele>
        <time>2017-10-15T09:55:07Z</time>
      </trkpt>
      <trkpt lat="45.92844" lon="4.73325">
        <ele>171</ele>
        <time>2017-10-15T09:55:08Z</time>
      </trkpt>
      <trkpt lat="45.92844" lon="4.73332">
        <ele>171</ele>
        <time>2017-10-15T09:55:09Z</time>
      </trkpt>
      <trkpt lat="45.92843" lon="4.73338">
        <ele>171</ele>
        <time>2017-10-15T09:55:10Z</time>
      </trkpt>
      <trkpt lat="45.92843" lon="4.73345">
        <ele>171</ele>
        <time>2017-10-15T09:55:11Z</time>
      </trkpt>
      <trkpt lat="45.92842" lon="4.73352">
        <ele>171</ele>
        <time>2017-10-15T09:55:12Z</time>
      </trkpt>
      <trkpt lat="45.92841" lon="4.7336">
        <ele>171</ele>
        <time>2017-10-15T09:55:13Z</time>
      </trkpt>
      <trkpt lat="45.9284" lon="4.73367">
        <ele>171</ele>
        <time>2017-10-15T09:55:14Z</time>
      </trkpt>
      <trkpt lat="45.92839" lon="4.73374">
        <ele>171</ele>
        <time>2017-10-15T09:55:15Z</time>
      </trkpt>
      <trkpt lat="45.92838" lon="4.73382">
        <ele>172</ele>
        <time>2017-10-15T09:55:16Z</time>
      </trkpt>
      <trkpt lat="45.92837" lon="4.73389">
        <ele>172</ele>
        <time>2017-10-15T09:55:17Z</time>
      </trkpt>
      <trkpt lat="45.92836" lon="4.73398">
        <ele>172</ele>
        <time>2017-10-15T09:55:18Z</time>
      </trkpt>
      <trkpt lat="45.92836" lon="4.73406">
        <ele>172</ele>
        <time>2017-10-15T09:55:19Z</time>
      </trkpt>
      <trkpt lat="45.92836" lon="4.73413">
        <ele>172</ele>
        <time>2017-10-15T09:55:20Z</time>
      </trkpt>
      <trkpt lat="45.92835" lon="4.73422">
        <ele>172</ele>
        <time>2017-10-15T09:55:21Z</time>
      </trkpt>
      <trkpt lat="45.92835" lon="4.7343">
        <ele>172</ele>
        <time>2017-10-15T09:55:22Z</time>
      </trkpt>
      <trkpt lat="45.92833" lon="4.73437">
        <ele>172</ele>
        <time>2017-10-15T09:55:23Z</time>
      </trkpt>
      <trkpt lat="45.92832" lon="4.73444">
        <ele>172</ele>
        <time>2017-10-15T09:55:24Z</time>
      </trkpt>
      <trkpt lat="45.92832" lon="4.73451">
        <ele>172</ele>
        <time>2017-10-15T09:55:25Z</time>
      </trkpt>
      <trkpt lat="45.92831" lon="4.73458">
        <ele>172</ele>
        <time>2017-10-15T09:55:26Z</time>
      </trkpt>
      <trkpt lat="45.9283" lon="4.73465">
        <ele>172</ele>
        <time>2017-10-15T09:55:27Z</time>
      </trkpt>
      <trkpt lat="45.92829" lon="4.73471">
        <ele>172</ele>
        <time>2017-10-15T09:55:28Z</time>
      </trkpt>
      <trkpt lat="45.92827" lon="4.73478">
        <ele>172</ele>
        <time>2017-10-15T09:55:29Z</time>
      </trkpt>
      <trkpt lat="45.92826" lon="4.73483">
        <ele>172</ele>
        <time>2017-10-15T09:55:30Z</time>
      </trkpt>
      <trkpt lat="45.92826" lon="4.73491">
        <ele>172</ele>
        <time>2017-10-15T09:55:31Z</time>
      </trkpt>
      <trkpt lat="45.92826" lon="4.73497">
        <ele>172</ele>
        <time>2017-10-15T09:55:32Z</time>
      </trkpt>
      <trkpt lat="45.92824" lon="4.73508">
        <ele>172</ele>
        <time>2017-10-15T09:55:34Z</time>
      </trkpt>
      <trkpt lat="45.92823" lon="4.73515">
        <ele>172</ele>
        <time>2017-10-15T09:55:35Z</time>
      </trkpt>
      <trkpt lat="45.92822" lon="4.73522">
        <ele>172</ele>
        <time>2017-10-15T09:55:36Z</time>
      </trkpt>
      <trkpt lat="45.92821" lon="4.73528">
        <ele>172</ele>
        <time>2017-10-15T09:55:37Z</time>
      </trkpt>
      <trkpt lat="45.9282" lon="4.73534">
        <ele>172</ele>
        <time>2017-10-15T09:55:38Z</time>
      </trkpt>
      <trkpt lat="45.9282" lon="4.73543">
        <ele>171</ele>
        <time>2017-10-15T09:55:39Z</time>
      </trkpt>
      <trkpt lat="45.92818" lon="4.73549">
        <ele>171</ele>
        <time>2017-10-15T09:55:40Z</time>
      </trkpt>
      <trkpt lat="45.92818" lon="4.73556">
        <ele>171</ele>
        <time>2017-10-15T09:55:41Z</time>
      </trkpt>
      <trkpt lat="45.92818" lon="4.73564">
        <ele>171</ele>
        <time>2017-10-15T09:55:42Z</time>
      </trkpt>
      <trkpt lat="45.92818" lon="4.73571">
        <ele>171</ele>
        <time>2017-10-15T09:55:43Z</time>
      </trkpt>
      <trkpt lat="45.92818" lon="4.73578">
        <ele>171</ele>
        <time>2017-10-15T09:55:44Z</time>
      </trkpt>
      <trkpt lat="45.92818" lon="4.73586">
        <ele>171</ele>
        <time>2017-10-15T09:55:45Z</time>
      </trkpt>
      <trkpt lat="45.92819" lon="4.73595">
        <ele>171</ele>
        <time>2017-10-15T09:55:46Z</time>
      </trkpt>
      <trkpt lat="45.92818" lon="4.73602">
        <ele>171</ele>
        <time>2017-10-15T09:55:47Z</time>
      </trkpt>
      <trkpt lat="45.9282" lon="4.73611">
        <ele>172</ele>
        <time>2017-10-15T09:55:48Z</time>
      </trkpt>
      <trkpt lat="45.9282" lon="4.73618">
        <ele>172</ele>
        <time>2017-10-15T09:55:49Z</time>
      </trkpt>
      <trkpt lat="45.92819" lon="4.73624">
        <ele>172</ele>
        <time>2017-10-15T09:55:50Z</time>
      </trkpt>
      <trkpt lat="45.92816" lon="4.7363">
        <ele>172</ele>
        <time>2017-10-15T09:55:51Z</time>
      </trkpt>
      <trkpt lat="45.92809" lon="4.73638">
        <ele>172</ele>
        <time>2017-10-15T09:55:53Z</time>
      </trkpt>
      <trkpt lat="45.92806" lon="4.73641">
        <ele>172</ele>
        <time>2017-10-15T09:55:54Z</time>
      </trkpt>
      <trkpt lat="45.92802" lon="4.73651">
        <ele>172</ele>
        <time>2017-10-15T09:55:56Z</time>
      </trkpt>
      <trkpt lat="45.92801" lon="4.73655">
        <ele>172</ele>
        <time>2017-10-15T09:55:57Z</time>
      </trkpt>
      <trkpt lat="45.92799" lon="4.73666">
        <ele>172</ele>
        <time>2017-10-15T09:55:59Z</time>
      </trkpt>
      <trkpt lat="45.92798" lon="4.73672">
        <ele>172</ele>
        <time>2017-10-15T09:56:00Z</time>
      </trkpt>
      <trkpt lat="45.92796" lon="4.73683">
        <ele>172</ele>
        <time>2017-10-15T09:56:02Z</time>
      </trkpt>
      <trkpt lat="45.92795" lon="4.73688">
        <ele>172</ele>
        <time>2017-10-15T09:56:03Z</time>
      </trkpt>
      <trkpt lat="45.92792" lon="4.73698">
        <ele>172</ele>
        <time>2017-10-15T09:56:05Z</time>
      </trkpt>
      <trkpt lat="45.9279" lon="4.73704">
        <ele>172</ele>
        <time>2017-10-15T09:56:06Z</time>
      </trkpt>
      <trkpt lat="45.92788" lon="4.73715">
        <ele>172</ele>
        <time>2017-10-15T09:56:08Z</time>
      </trkpt>
      <trkpt lat="45.92787" lon="4.73721">
        <ele>172</ele>
        <time>2017-10-15T09:56:09Z</time>
      </trkpt>
      <trkpt lat="45.92785" lon="4.73732">
        <ele>172</ele>
        <time>2017-10-15T09:56:11Z</time>
      </trkpt>
      <trkpt lat="45.92783" lon="4.73736">
        <ele>172</ele>
        <time>2017-10-15T09:56:12Z</time>
      </trkpt>
      <trkpt lat="45.92775" lon="4.73738">
        <ele>172</ele>
        <time>2017-10-15T09:56:14Z</time>
      </trkpt>
      <trkpt lat="45.92771" lon="4.73736">
        <ele>172</ele>
        <time>2017-10-15T09:56:15Z</time>
      </trkpt>
      <trkpt lat="45.92763" lon="4.73732">
        <ele>172</ele>
        <time>2017-10-15T09:56:17Z</time>
      </trkpt>
      <trkpt lat="45.92759" lon="4.7373">
        <ele>172</ele>
        <time>2017-10-15T09:56:18Z</time>
      </trkpt>
      <trkpt lat="45.92751" lon="4.73727">
        <ele>172</ele>
        <time>2017-10-15T09:56:20Z</time>
      </trkpt>
      <trkpt lat="45.92745" lon="4.73724">
        <ele>173</ele>
        <time>2017-10-15T09:56:21Z</time>
      </trkpt>
      <trkpt lat="45.9274" lon="4.73723">
        <ele>173</ele>
        <time>2017-10-15T09:56:22Z</time>
      </trkpt>
      <trkpt lat="45.92735" lon="4.73723">
        <ele>173</ele>
        <time>2017-10-15T09:56:23Z</time>
      </trkpt>
      <trkpt lat="45.92732" lon="4.73722">
        <ele>173</ele>
        <time>2017-10-15T09:56:24Z</time>
      </trkpt>
      <trkpt lat="45.92726" lon="4.7372">
        <ele>173</ele>
        <time>2017-10-15T09:56:25Z</time>
      </trkpt>
      <trkpt lat="45.92721" lon="4.73718">
        <ele>173</ele>
        <time>2017-10-15T09:56:26Z</time>
      </trkpt>
      <trkpt lat="45.92715" lon="4.73717">
        <ele>173</ele>
        <time>2017-10-15T09:56:27Z</time>
      </trkpt>
      <trkpt lat="45.9271" lon="4.73716">
        <ele>173</ele>
        <time>2017-10-15T09:56:28Z</time>
      </trkpt>
      <trkpt lat="45.92704" lon="4.73714">
        <ele>173</ele>
        <time>2017-10-15T09:56:29Z</time>
      </trkpt>
      <trkpt lat="45.92699" lon="4.73713">
        <ele>173</ele>
        <time>2017-10-15T09:56:30Z</time>
      </trkpt>
      <trkpt lat="45.92694" lon="4.73712">
        <ele>173</ele>
        <time>2017-10-15T09:56:31Z</time>
      </trkpt>
      <trkpt lat="45.9269" lon="4.73711">
        <ele>173</ele>
        <time>2017-10-15T09:56:32Z</time>
      </trkpt>
      <trkpt lat="45.92685" lon="4.73711">
        <ele>173</ele>
        <time>2017-10-15T09:56:33Z</time>
      </trkpt>
      <trkpt lat="45.92681" lon="4.7371">
        <ele>173</ele>
        <time>2017-10-15T09:56:34Z</time>
      </trkpt>
      <trkpt lat="45.92676" lon="4.73709">
        <ele>174</ele>
        <time>2017-10-15T09:56:35Z</time>
      </trkpt>
      <trkpt lat="45.92669" lon="4.73704">
        <ele>174</ele>
        <time>2017-10-15T09:56:37Z</time>
      </trkpt>
      <trkpt lat="45.92665" lon="4.73701">
        <ele>173</ele>
        <time>2017-10-15T09:56:38Z</time>
      </trkpt>
      <trkpt lat="45.92658" lon="4.73695">
        <ele>173</ele>
        <time>2017-10-15T09:56:40Z</time>
      </trkpt>
      <trkpt lat="45.92654" lon="4.73692">
        <ele>173</ele>
        <time>2017-10-15T09:56:41Z</time>
      </trkpt>
      <trkpt lat="45.92651" lon="4.73688">
        <ele>173</ele>
        <time>2017-10-15T09:56:42Z</time>
      </trkpt>
      <trkpt lat="45.92647" lon="4.73683">
        <ele>173</ele>
        <time>2017-10-15T09:56:43Z</time>
      </trkpt>
      <trkpt lat="45.92643" lon="4.73676">
        <ele>173</ele>
        <time>2017-10-15T09:56:44Z</time>
      </trkpt>
      <trkpt lat="45.9264" lon="4.73671">
        <ele>173</ele>
        <time>2017-10-15T09:56:45Z</time>
      </trkpt>
      <trkpt lat="45.92637" lon="4.73665">
        <ele>173</ele>
        <time>2017-10-15T09:56:46Z</time>
      </trkpt>
      <trkpt lat="45.92634" lon="4.73658">
        <ele>173</ele>
        <time>2017-10-15T09:56:47Z</time>
      </trkpt>
      <trkpt lat="45.92633" lon="4.73653">
        <ele>173</ele>
        <time>2017-10-15T09:56:48Z</time>
      </trkpt>
      <trkpt lat="45.9263" lon="4.73645">
        <ele>173</ele>
        <time>2017-10-15T09:56:49Z</time>
      </trkpt>
      <trkpt lat="45.92626" lon="4.73639">
        <ele>173</ele>
        <time>2017-10-15T09:56:50Z</time>
      </trkpt>
      <trkpt lat="45.92622" lon="4.73634">
        <ele>173</ele>
        <time>2017-10-15T09:56:51Z</time>
      </trkpt>
      <trkpt lat="45.92618" lon="4.7363">
        <ele>173</ele>
        <time>2017-10-15T09:56:52Z</time>
      </trkpt>
      <trkpt lat="45.92613" lon="4.73628">
        <ele>173</ele>
        <time>2017-10-15T09:56:53Z</time>
      </trkpt>
      <trkpt lat="45.92605" lon="4.73625">
        <ele>173</ele>
        <time>2017-10-15T09:56:55Z</time>
      </trkpt>
      <trkpt lat="45.92601" lon="4.73625">
        <ele>173</ele>
        <time>2017-10-15T09:56:56Z</time>
      </trkpt>
      <trkpt lat="45.92593" lon="4.73625">
        <ele>172</ele>
        <time>2017-10-15T09:56:58Z</time>
      </trkpt>
      <trkpt lat="45.92589" lon="4.73627">
        <ele>172</ele>
        <time>2017-10-15T09:56:59Z</time>
      </trkpt>
      <trkpt lat="45.92582" lon="4.73628">
        <ele>173</ele>
        <time>2017-10-15T09:57:01Z</time>
      </trkpt>
      <trkpt lat="45.92577" lon="4.73629">
        <ele>173</ele>
        <time>2017-10-15T09:57:02Z</time>
      </trkpt>
      <trkpt lat="45.92573" lon="4.7363">
        <ele>173</ele>
        <time>2017-10-15T09:57:03Z</time>
      </trkpt>
      <trkpt lat="45.92569" lon="4.73632">
        <ele>173</ele>
        <time>2017-10-15T09:57:04Z</time>
      </trkpt>
      <trkpt lat="45.92564" lon="4.73632">
        <ele>173</ele>
        <time>2017-10-15T09:57:05Z</time>
      </trkpt>
      <trkpt lat="45.92559" lon="4.73634">
        <ele>173</ele>
        <time>2017-10-15T09:57:06Z</time>
      </trkpt>
      <trkpt lat="45.92555" lon="4.73634">
        <ele>173</ele>
        <time>2017-10-15T09:57:07Z</time>
      </trkpt>
      <trkpt lat="45.92549" lon="4.73636">
        <ele>173</ele>
        <time>2017-10-15T09:57:08Z</time>
      </trkpt>
      <trkpt lat="45.92544" lon="4.73637">
        <ele>173</ele>
        <time>2017-10-15T09:57:09Z</time>
      </trkpt>
      <trkpt lat="45.92539" lon="4.73637">
        <ele>173</ele>
        <time>2017-10-15T09:57:10Z</time>
      </trkpt>
      <trkpt lat="45.92531" lon="4.73638">
        <ele>173</ele>
        <time>2017-10-15T09:57:12Z</time>
      </trkpt>
      <trkpt lat="45.92526" lon="4.73638">
        <ele>173</ele>
        <time>2017-10-15T09:57:13Z</time>
      </trkpt>
      <trkpt lat="45.92518" lon="4.73639">
        <ele>173</ele>
        <time>2017-10-15T09:57:15Z</time>
      </trkpt>
      <trkpt lat="45.92514" lon="4.73639">
        <ele>174</ele>
        <time>2017-10-15T09:57:16Z</time>
      </trkpt>
      <trkpt lat="45.92507" lon="4.7364">
        <ele>174</ele>
        <time>2017-10-15T09:57:18Z</time>
      </trkpt>
      <trkpt lat="45.92503" lon="4.73641">
        <ele>174</ele>
        <time>2017-10-15T09:57:19Z</time>
      </trkpt>
      <trkpt lat="45.92495" lon="4.7364">
        <ele>174</ele>
        <time>2017-10-15T09:57:21Z</time>
      </trkpt>
      <trkpt lat="45.92492" lon="4.73641">
        <ele>174</ele>
        <time>2017-10-15T09:57:22Z</time>
      </trkpt>
      <trkpt lat="45.92485" lon="4.7364">
        <ele>174</ele>
        <time>2017-10-15T09:57:24Z</time>
      </trkpt>
      <trkpt lat="45.92482" lon="4.7364">
        <ele>174</ele>
        <time>2017-10-15T09:57:25Z</time>
      </trkpt>
      <trkpt lat="45.92474" lon="4.73646">
        <ele>174</ele>
        <time>2017-10-15T09:57:28Z</time>
      </trkpt>
      <trkpt lat="45.92474" lon="4.73648">
        <ele>174</ele>
        <time>2017-10-15T09:57:29Z</time>
      </trkpt>
      <trkpt lat="45.92473" lon="4.73659">
        <ele>174</ele>
        <time>2017-10-15T09:57:42Z</time>
      </trkpt>
      <trkpt lat="45.92473" lon="4.73662">
        <ele>174</ele>
        <time>2017-10-15T09:57:43Z</time>
      </trkpt>
      <trkpt lat="45.92471" lon="4.73673">
        <ele>174</ele>
        <time>2017-10-15T09:57:46Z</time>
      </trkpt>
      <trkpt lat="45.9247" lon="4.73677">
        <ele>174</ele>
        <time>2017-10-15T09:57:47Z</time>
      </trkpt>
      <trkpt lat="45.9247" lon="4.73689">
        <ele>174</ele>
        <time>2017-10-15T09:57:50Z</time>
      </trkpt>
      <trkpt lat="45.9247" lon="4.73694">
        <ele>174</ele>
        <time>2017-10-15T09:57:51Z</time>
      </trkpt>
      <trkpt lat="45.92468" lon="4.73705">
        <ele>174</ele>
        <time>2017-10-15T09:57:54Z</time>
      </trkpt>
      <trkpt lat="45.92467" lon="4.73707">
        <ele>174</ele>
        <time>2017-10-15T09:57:55Z</time>
      </trkpt>
      <trkpt lat="45.92464" lon="4.73715">
        <ele>174</ele>
        <time>2017-10-15T09:58:23.989Z</time>
      </trkpt>
    </trkseg>
  </trk>
</gpx>